<?xml version="1.0" encoding="UTF-8" standalone="no" ?>
<gpx xmlns="http://www.topografix.com/GPX/1/1" xmlns:xsi="http://www.w3.org/2001/XMLSchema-instance" xsi:schemaLocation="http://www.topografix.com/GPX/1/1 http://www.topografix.com/GPX/1/1/gpx.xsd" version="1.1" creator="VisuGPX - https://www.visugpx.com">
  <metadata>
    <name>Rando VTT en hautes cevennes départ Aujac - Boucle</name>
    <desc><![CDATA[Départ Aujac,parjing du bas

distance 30 km - Boucle
Dénivelé positif 1150 mètres

Parcours difficile avec beaucoup de denivelé par de raides montées, en petite route d abord,
 en sentier escarpé avec portage ensuite, et aussi chemin et longue piste degagée pour terminer !
Mais des descentes en monotraces par de vieux sentiers sont aussi au programme
 avec passages techniques et caillouteux, seul répis ;la redescente sur Aujac par la petite route pris au départ
Ce parcours offre de magnifiques panoramas sur les cevennes et l Ardeche, un etang sur la crete d Aubrias,
avant de descendre coté ardeche invite a faire une pause (lieu privé ou le passage est autorisé; a respecter:
 bien refermer les barrieres ...)  hameaux typiques cote Ardeche et menhirs sur la remontée coté Gard
 sont egalement a decouvrir !]]></desc>
  </metadata>
  <trk>
    <name><![CDATA[2018-04-16-10-14-50 on GPSies.com]]></name>
    <trkseg>
      <trkpt lat="44.34716" lon="4.01217">
        <ele>507</ele>
        <time>2018-04-16T10:14:50Z</time>
      </trkpt>
      <trkpt lat="44.34718" lon="4.01214">
        <ele>506</ele>
        <time>2018-04-16T10:15:11Z</time>
      </trkpt>
      <trkpt lat="44.3472" lon="4.01235">
        <ele>506</ele>
        <time>2018-04-16T10:15:19Z</time>
      </trkpt>
      <trkpt lat="44.34738" lon="4.01298">
        <ele>506</ele>
        <time>2018-04-16T10:15:40Z</time>
      </trkpt>
      <trkpt lat="44.34769" lon="4.01333">
        <ele>505</ele>
        <time>2018-04-16T10:15:54Z</time>
      </trkpt>
      <trkpt lat="44.34781" lon="4.01353">
        <ele>505</ele>
        <time>2018-04-16T10:15:59Z</time>
      </trkpt>
      <trkpt lat="44.34787" lon="4.01361">
        <ele>505</ele>
        <time>2018-04-16T10:16:01Z</time>
      </trkpt>
      <trkpt lat="44.34803" lon="4.0138">
        <ele>504</ele>
        <time>2018-04-16T10:16:06Z</time>
      </trkpt>
      <trkpt lat="44.34827" lon="4.01397">
        <ele>506</ele>
        <time>2018-04-16T10:16:15Z</time>
      </trkpt>
      <trkpt lat="44.34868" lon="4.01421">
        <ele>507</ele>
        <time>2018-04-16T10:16:31Z</time>
      </trkpt>
      <trkpt lat="44.34882" lon="4.01433">
        <ele>508</ele>
        <time>2018-04-16T10:16:37Z</time>
      </trkpt>
      <trkpt lat="44.34902" lon="4.01454">
        <ele>509</ele>
        <time>2018-04-16T10:16:49Z</time>
      </trkpt>
      <trkpt lat="44.34909" lon="4.0146">
        <ele>510</ele>
        <time>2018-04-16T10:16:53Z</time>
      </trkpt>
      <trkpt lat="44.34916" lon="4.01471">
        <ele>511</ele>
        <time>2018-04-16T10:16:59Z</time>
      </trkpt>
      <trkpt lat="44.34924" lon="4.01486">
        <ele>512</ele>
        <time>2018-04-16T10:17:06Z</time>
      </trkpt>
      <trkpt lat="44.3493" lon="4.015">
        <ele>513</ele>
        <time>2018-04-16T10:17:13Z</time>
      </trkpt>
      <trkpt lat="44.3493" lon="4.01501">
        <ele>515</ele>
        <time>2018-04-16T10:17:15Z</time>
      </trkpt>
      <trkpt lat="44.34931" lon="4.01502">
        <ele>515</ele>
        <time>2018-04-16T10:17:52Z</time>
      </trkpt>
      <trkpt lat="44.34935" lon="4.01512">
        <ele>515</ele>
        <time>2018-04-16T10:17:57Z</time>
      </trkpt>
      <trkpt lat="44.34958" lon="4.01567">
        <ele>516</ele>
        <time>2018-04-16T10:18:17Z</time>
      </trkpt>
      <trkpt lat="44.34967" lon="4.0159">
        <ele>517</ele>
        <time>2018-04-16T10:18:24Z</time>
      </trkpt>
      <trkpt lat="44.34976" lon="4.01623">
        <ele>518</ele>
        <time>2018-04-16T10:18:34Z</time>
      </trkpt>
      <trkpt lat="44.34985" lon="4.01645">
        <ele>519</ele>
        <time>2018-04-16T10:18:42Z</time>
      </trkpt>
      <trkpt lat="44.34987" lon="4.0166">
        <ele>520</ele>
        <time>2018-04-16T10:18:48Z</time>
      </trkpt>
      <trkpt lat="44.34989" lon="4.01671">
        <ele>521</ele>
        <time>2018-04-16T10:18:52Z</time>
      </trkpt>
      <trkpt lat="44.3499" lon="4.01684">
        <ele>522</ele>
        <time>2018-04-16T10:18:57Z</time>
      </trkpt>
      <trkpt lat="44.34992" lon="4.01701">
        <ele>523</ele>
        <time>2018-04-16T10:19:03Z</time>
      </trkpt>
      <trkpt lat="44.34999" lon="4.01741">
        <ele>524</ele>
        <time>2018-04-16T10:19:18Z</time>
      </trkpt>
      <trkpt lat="44.35024" lon="4.01808">
        <ele>525</ele>
        <time>2018-04-16T10:19:35Z</time>
      </trkpt>
      <trkpt lat="44.35063" lon="4.01862">
        <ele>525</ele>
        <time>2018-04-16T10:19:51Z</time>
      </trkpt>
      <trkpt lat="44.35103" lon="4.01911">
        <ele>525</ele>
        <time>2018-04-16T10:20:06Z</time>
      </trkpt>
      <trkpt lat="44.35141" lon="4.01943">
        <ele>525</ele>
        <time>2018-04-16T10:20:18Z</time>
      </trkpt>
      <trkpt lat="44.35166" lon="4.01967">
        <ele>526</ele>
        <time>2018-04-16T10:20:30Z</time>
      </trkpt>
      <trkpt lat="44.35166" lon="4.01969">
        <ele>526</ele>
        <time>2018-04-16T10:20:31Z</time>
      </trkpt>
      <trkpt lat="44.35171" lon="4.01976">
        <ele>527</ele>
        <time>2018-04-16T10:20:35Z</time>
      </trkpt>
      <trkpt lat="44.35175" lon="4.01989">
        <ele>528</ele>
        <time>2018-04-16T10:20:40Z</time>
      </trkpt>
      <trkpt lat="44.35178" lon="4.01999">
        <ele>529</ele>
        <time>2018-04-16T10:20:44Z</time>
      </trkpt>
      <trkpt lat="44.3518" lon="4.02002">
        <ele>529</ele>
        <time>2018-04-16T10:20:46Z</time>
      </trkpt>
      <trkpt lat="44.35182" lon="4.02005">
        <ele>530</ele>
        <time>2018-04-16T10:20:52Z</time>
      </trkpt>
      <trkpt lat="44.35183" lon="4.02006">
        <ele>531</ele>
        <time>2018-04-16T10:20:54Z</time>
      </trkpt>
      <trkpt lat="44.35183" lon="4.02007">
        <ele>531</ele>
        <time>2018-04-16T10:20:59Z</time>
      </trkpt>
      <trkpt lat="44.35185" lon="4.02009">
        <ele>532</ele>
        <time>2018-04-16T10:21:24Z</time>
      </trkpt>
      <trkpt lat="44.35185" lon="4.02022">
        <ele>532</ele>
        <time>2018-04-16T10:21:30Z</time>
      </trkpt>
      <trkpt lat="44.35185" lon="4.02026">
        <ele>532</ele>
        <time>2018-04-16T10:21:32Z</time>
      </trkpt>
      <trkpt lat="44.35186" lon="4.0203">
        <ele>532</ele>
        <time>2018-04-16T10:21:34Z</time>
      </trkpt>
      <trkpt lat="44.35194" lon="4.02031">
        <ele>532</ele>
        <time>2018-04-16T10:21:37Z</time>
      </trkpt>
      <trkpt lat="44.352" lon="4.0203">
        <ele>533</ele>
        <time>2018-04-16T10:21:39Z</time>
      </trkpt>
      <trkpt lat="44.35212" lon="4.02022">
        <ele>533</ele>
        <time>2018-04-16T10:21:46Z</time>
      </trkpt>
      <trkpt lat="44.35228" lon="4.01998">
        <ele>535</ele>
        <time>2018-04-16T10:21:58Z</time>
      </trkpt>
      <trkpt lat="44.35233" lon="4.0199">
        <ele>536</ele>
        <time>2018-04-16T10:22:02Z</time>
      </trkpt>
      <trkpt lat="44.35242" lon="4.01985">
        <ele>536</ele>
        <time>2018-04-16T10:22:09Z</time>
      </trkpt>
      <trkpt lat="44.35245" lon="4.01984">
        <ele>537</ele>
        <time>2018-04-16T10:22:11Z</time>
      </trkpt>
      <trkpt lat="44.35255" lon="4.01981">
        <ele>537</ele>
        <time>2018-04-16T10:22:17Z</time>
      </trkpt>
      <trkpt lat="44.3526" lon="4.01978">
        <ele>538</ele>
        <time>2018-04-16T10:22:20Z</time>
      </trkpt>
      <trkpt lat="44.35278" lon="4.0197">
        <ele>539</ele>
        <time>2018-04-16T10:22:30Z</time>
      </trkpt>
      <trkpt lat="44.35284" lon="4.01966">
        <ele>540</ele>
        <time>2018-04-16T10:22:35Z</time>
      </trkpt>
      <trkpt lat="44.35285" lon="4.01966">
        <ele>540</ele>
        <time>2018-04-16T10:22:36Z</time>
      </trkpt>
      <trkpt lat="44.35291" lon="4.01963">
        <ele>541</ele>
        <time>2018-04-16T10:22:41Z</time>
      </trkpt>
      <trkpt lat="44.35298" lon="4.0196">
        <ele>542</ele>
        <time>2018-04-16T10:22:46Z</time>
      </trkpt>
      <trkpt lat="44.35311" lon="4.0195">
        <ele>543</ele>
        <time>2018-04-16T10:22:54Z</time>
      </trkpt>
      <trkpt lat="44.35319" lon="4.01946">
        <ele>544</ele>
        <time>2018-04-16T10:23:00Z</time>
      </trkpt>
      <trkpt lat="44.35326" lon="4.01941">
        <ele>545</ele>
        <time>2018-04-16T10:23:05Z</time>
      </trkpt>
      <trkpt lat="44.35332" lon="4.01937">
        <ele>545</ele>
        <time>2018-04-16T10:23:09Z</time>
      </trkpt>
      <trkpt lat="44.35333" lon="4.01936">
        <ele>545</ele>
        <time>2018-04-16T10:23:10Z</time>
      </trkpt>
      <trkpt lat="44.35346" lon="4.01932">
        <ele>546</ele>
        <time>2018-04-16T10:23:19Z</time>
      </trkpt>
      <trkpt lat="44.35366" lon="4.01931">
        <ele>546</ele>
        <time>2018-04-16T10:23:32Z</time>
      </trkpt>
      <trkpt lat="44.35372" lon="4.01931">
        <ele>547</ele>
        <time>2018-04-16T10:23:35Z</time>
      </trkpt>
      <trkpt lat="44.35376" lon="4.01929">
        <ele>547</ele>
        <time>2018-04-16T10:23:37Z</time>
      </trkpt>
      <trkpt lat="44.35378" lon="4.01929">
        <ele>548</ele>
        <time>2018-04-16T10:23:38Z</time>
      </trkpt>
      <trkpt lat="44.3538" lon="4.01929">
        <ele>548</ele>
        <time>2018-04-16T10:23:39Z</time>
      </trkpt>
      <trkpt lat="44.35386" lon="4.01929">
        <ele>548</ele>
        <time>2018-04-16T10:23:42Z</time>
      </trkpt>
      <trkpt lat="44.35401" lon="4.01929">
        <ele>550</ele>
        <time>2018-04-16T10:23:50Z</time>
      </trkpt>
      <trkpt lat="44.3541" lon="4.01931">
        <ele>550</ele>
        <time>2018-04-16T10:23:55Z</time>
      </trkpt>
      <trkpt lat="44.35416" lon="4.01931">
        <ele>551</ele>
        <time>2018-04-16T10:23:59Z</time>
      </trkpt>
      <trkpt lat="44.35419" lon="4.01932">
        <ele>551</ele>
        <time>2018-04-16T10:24:01Z</time>
      </trkpt>
      <trkpt lat="44.35433" lon="4.01937">
        <ele>552</ele>
        <time>2018-04-16T10:24:08Z</time>
      </trkpt>
      <trkpt lat="44.35445" lon="4.01945">
        <ele>553</ele>
        <time>2018-04-16T10:24:15Z</time>
      </trkpt>
      <trkpt lat="44.35454" lon="4.01955">
        <ele>554</ele>
        <time>2018-04-16T10:24:21Z</time>
      </trkpt>
      <trkpt lat="44.35464" lon="4.01967">
        <ele>555</ele>
        <time>2018-04-16T10:24:28Z</time>
      </trkpt>
      <trkpt lat="44.35465" lon="4.01968">
        <ele>555</ele>
        <time>2018-04-16T10:24:29Z</time>
      </trkpt>
      <trkpt lat="44.35469" lon="4.01974">
        <ele>555</ele>
        <time>2018-04-16T10:24:33Z</time>
      </trkpt>
      <trkpt lat="44.35474" lon="4.01981">
        <ele>556</ele>
        <time>2018-04-16T10:24:37Z</time>
      </trkpt>
      <trkpt lat="44.35483" lon="4.0199">
        <ele>557</ele>
        <time>2018-04-16T10:24:43Z</time>
      </trkpt>
      <trkpt lat="44.35489" lon="4.01993">
        <ele>557</ele>
        <time>2018-04-16T10:24:46Z</time>
      </trkpt>
      <trkpt lat="44.35495" lon="4.02">
        <ele>558</ele>
        <time>2018-04-16T10:24:50Z</time>
      </trkpt>
      <trkpt lat="44.35508" lon="4.0201">
        <ele>559</ele>
        <time>2018-04-16T10:24:57Z</time>
      </trkpt>
      <trkpt lat="44.35511" lon="4.02013">
        <ele>559</ele>
        <time>2018-04-16T10:24:59Z</time>
      </trkpt>
      <trkpt lat="44.35526" lon="4.02026">
        <ele>560</ele>
        <time>2018-04-16T10:25:08Z</time>
      </trkpt>
      <trkpt lat="44.35534" lon="4.02034">
        <ele>561</ele>
        <time>2018-04-16T10:25:13Z</time>
      </trkpt>
      <trkpt lat="44.35542" lon="4.02048">
        <ele>562</ele>
        <time>2018-04-16T10:25:19Z</time>
      </trkpt>
      <trkpt lat="44.35551" lon="4.02086">
        <ele>563</ele>
        <time>2018-04-16T10:25:34Z</time>
      </trkpt>
      <trkpt lat="44.35553" lon="4.02097">
        <ele>565</ele>
        <time>2018-04-16T10:25:38Z</time>
      </trkpt>
      <trkpt lat="44.35554" lon="4.02104">
        <ele>566</ele>
        <time>2018-04-16T10:25:41Z</time>
      </trkpt>
      <trkpt lat="44.35559" lon="4.0213">
        <ele>567</ele>
        <time>2018-04-16T10:25:52Z</time>
      </trkpt>
      <trkpt lat="44.35563" lon="4.02133">
        <ele>568</ele>
        <time>2018-04-16T10:26:00Z</time>
      </trkpt>
      <trkpt lat="44.35568" lon="4.02132">
        <ele>568</ele>
        <time>2018-04-16T10:27:49Z</time>
      </trkpt>
      <trkpt lat="44.35568" lon="4.02132">
        <ele>568</ele>
        <time>2018-04-16T10:28:14Z</time>
      </trkpt>
      <trkpt lat="44.3557" lon="4.02131">
        <ele>568</ele>
        <time>2018-04-16T10:28:25Z</time>
      </trkpt>
      <trkpt lat="44.35577" lon="4.02128">
        <ele>568</ele>
        <time>2018-04-16T10:28:30Z</time>
      </trkpt>
      <trkpt lat="44.35584" lon="4.02121">
        <ele>569</ele>
        <time>2018-04-16T10:28:35Z</time>
      </trkpt>
      <trkpt lat="44.356" lon="4.02109">
        <ele>570</ele>
        <time>2018-04-16T10:28:46Z</time>
      </trkpt>
      <trkpt lat="44.35607" lon="4.02109">
        <ele>571</ele>
        <time>2018-04-16T10:28:51Z</time>
      </trkpt>
      <trkpt lat="44.35613" lon="4.02109">
        <ele>572</ele>
        <time>2018-04-16T10:28:55Z</time>
      </trkpt>
      <trkpt lat="44.35623" lon="4.02112">
        <ele>573</ele>
        <time>2018-04-16T10:29:00Z</time>
      </trkpt>
      <trkpt lat="44.35633" lon="4.02114">
        <ele>574</ele>
        <time>2018-04-16T10:29:05Z</time>
      </trkpt>
      <trkpt lat="44.35639" lon="4.02118">
        <ele>575</ele>
        <time>2018-04-16T10:29:09Z</time>
      </trkpt>
      <trkpt lat="44.35641" lon="4.02119">
        <ele>576</ele>
        <time>2018-04-16T10:29:10Z</time>
      </trkpt>
      <trkpt lat="44.35665" lon="4.0213">
        <ele>577</ele>
        <time>2018-04-16T10:29:24Z</time>
      </trkpt>
      <trkpt lat="44.3568" lon="4.02127">
        <ele>578</ele>
        <time>2018-04-16T10:29:32Z</time>
      </trkpt>
      <trkpt lat="44.35687" lon="4.02098">
        <ele>579</ele>
        <time>2018-04-16T10:29:44Z</time>
      </trkpt>
      <trkpt lat="44.35685" lon="4.02079">
        <ele>580</ele>
        <time>2018-04-16T10:29:51Z</time>
      </trkpt>
      <trkpt lat="44.35682" lon="4.02059">
        <ele>581</ele>
        <time>2018-04-16T10:29:59Z</time>
      </trkpt>
      <trkpt lat="44.35678" lon="4.02036">
        <ele>582</ele>
        <time>2018-04-16T10:30:08Z</time>
      </trkpt>
      <trkpt lat="44.35675" lon="4.0202">
        <ele>583</ele>
        <time>2018-04-16T10:30:16Z</time>
      </trkpt>
      <trkpt lat="44.35674" lon="4.02005">
        <ele>584</ele>
        <time>2018-04-16T10:30:22Z</time>
      </trkpt>
      <trkpt lat="44.35674" lon="4.01993">
        <ele>585</ele>
        <time>2018-04-16T10:30:27Z</time>
      </trkpt>
      <trkpt lat="44.35677" lon="4.01985">
        <ele>586</ele>
        <time>2018-04-16T10:30:31Z</time>
      </trkpt>
      <trkpt lat="44.35696" lon="4.01967">
        <ele>587</ele>
        <time>2018-04-16T10:30:44Z</time>
      </trkpt>
      <trkpt lat="44.3571" lon="4.01963">
        <ele>589</ele>
        <time>2018-04-16T10:30:52Z</time>
      </trkpt>
      <trkpt lat="44.35726" lon="4.01964">
        <ele>590</ele>
        <time>2018-04-16T10:31:01Z</time>
      </trkpt>
      <trkpt lat="44.35734" lon="4.01964">
        <ele>591</ele>
        <time>2018-04-16T10:31:07Z</time>
      </trkpt>
      <trkpt lat="44.35746" lon="4.01966">
        <ele>592</ele>
        <time>2018-04-16T10:31:15Z</time>
      </trkpt>
      <trkpt lat="44.35754" lon="4.01967">
        <ele>593</ele>
        <time>2018-04-16T10:31:21Z</time>
      </trkpt>
      <trkpt lat="44.35759" lon="4.01968">
        <ele>594</ele>
        <time>2018-04-16T10:31:25Z</time>
      </trkpt>
      <trkpt lat="44.35768" lon="4.0197">
        <ele>595</ele>
        <time>2018-04-16T10:31:31Z</time>
      </trkpt>
      <trkpt lat="44.35786" lon="4.01977">
        <ele>596</ele>
        <time>2018-04-16T10:31:43Z</time>
      </trkpt>
      <trkpt lat="44.35794" lon="4.0198">
        <ele>597</ele>
        <time>2018-04-16T10:31:48Z</time>
      </trkpt>
      <trkpt lat="44.35805" lon="4.01987">
        <ele>597</ele>
        <time>2018-04-16T10:31:56Z</time>
      </trkpt>
      <trkpt lat="44.35818" lon="4.01994">
        <ele>599</ele>
        <time>2018-04-16T10:32:04Z</time>
      </trkpt>
      <trkpt lat="44.35824" lon="4.02">
        <ele>600</ele>
        <time>2018-04-16T10:32:09Z</time>
      </trkpt>
      <trkpt lat="44.3583" lon="4.02006">
        <ele>601</ele>
        <time>2018-04-16T10:32:13Z</time>
      </trkpt>
      <trkpt lat="44.35836" lon="4.02013">
        <ele>602</ele>
        <time>2018-04-16T10:32:18Z</time>
      </trkpt>
      <trkpt lat="44.35845" lon="4.02032">
        <ele>603</ele>
        <time>2018-04-16T10:32:29Z</time>
      </trkpt>
      <trkpt lat="44.35849" lon="4.02044">
        <ele>605</ele>
        <time>2018-04-16T10:32:35Z</time>
      </trkpt>
      <trkpt lat="44.35854" lon="4.02066">
        <ele>606</ele>
        <time>2018-04-16T10:32:45Z</time>
      </trkpt>
      <trkpt lat="44.35855" lon="4.0208">
        <ele>607</ele>
        <time>2018-04-16T10:32:52Z</time>
      </trkpt>
      <trkpt lat="44.35859" lon="4.02096">
        <ele>608</ele>
        <time>2018-04-16T10:33:00Z</time>
      </trkpt>
      <trkpt lat="44.35868" lon="4.02109">
        <ele>609</ele>
        <time>2018-04-16T10:33:08Z</time>
      </trkpt>
      <trkpt lat="44.35877" lon="4.02118">
        <ele>610</ele>
        <time>2018-04-16T10:33:14Z</time>
      </trkpt>
      <trkpt lat="44.35886" lon="4.02125">
        <ele>610</ele>
        <time>2018-04-16T10:33:19Z</time>
      </trkpt>
      <trkpt lat="44.35905" lon="4.02134">
        <ele>611</ele>
        <time>2018-04-16T10:33:28Z</time>
      </trkpt>
      <trkpt lat="44.35921" lon="4.02147">
        <ele>612</ele>
        <time>2018-04-16T10:33:39Z</time>
      </trkpt>
      <trkpt lat="44.35934" lon="4.02139">
        <ele>613</ele>
        <time>2018-04-16T10:33:46Z</time>
      </trkpt>
      <trkpt lat="44.35959" lon="4.0211">
        <ele>614</ele>
        <time>2018-04-16T10:34:03Z</time>
      </trkpt>
      <trkpt lat="44.35974" lon="4.02101">
        <ele>615</ele>
        <time>2018-04-16T10:34:12Z</time>
      </trkpt>
      <trkpt lat="44.35986" lon="4.02095">
        <ele>616</ele>
        <time>2018-04-16T10:34:19Z</time>
      </trkpt>
      <trkpt lat="44.35999" lon="4.02093">
        <ele>617</ele>
        <time>2018-04-16T10:34:27Z</time>
      </trkpt>
      <trkpt lat="44.3601" lon="4.02096">
        <ele>619</ele>
        <time>2018-04-16T10:34:34Z</time>
      </trkpt>
      <trkpt lat="44.36016" lon="4.02102">
        <ele>619</ele>
        <time>2018-04-16T10:34:39Z</time>
      </trkpt>
      <trkpt lat="44.36019" lon="4.02104">
        <ele>620</ele>
        <time>2018-04-16T10:34:41Z</time>
      </trkpt>
      <trkpt lat="44.3603" lon="4.02109">
        <ele>621</ele>
        <time>2018-04-16T10:34:49Z</time>
      </trkpt>
      <trkpt lat="44.36031" lon="4.02111">
        <ele>621</ele>
        <time>2018-04-16T10:34:50Z</time>
      </trkpt>
      <trkpt lat="44.36029" lon="4.02119">
        <ele>622</ele>
        <time>2018-04-16T10:34:58Z</time>
      </trkpt>
      <trkpt lat="44.36023" lon="4.02114">
        <ele>622</ele>
        <time>2018-04-16T10:35:03Z</time>
      </trkpt>
      <trkpt lat="44.36008" lon="4.02112">
        <ele>623</ele>
        <time>2018-04-16T10:35:12Z</time>
      </trkpt>
      <trkpt lat="44.35998" lon="4.02113">
        <ele>624</ele>
        <time>2018-04-16T10:35:18Z</time>
      </trkpt>
      <trkpt lat="44.35989" lon="4.02118">
        <ele>625</ele>
        <time>2018-04-16T10:35:25Z</time>
      </trkpt>
      <trkpt lat="44.3598" lon="4.02127">
        <ele>626</ele>
        <time>2018-04-16T10:35:32Z</time>
      </trkpt>
      <trkpt lat="44.35966" lon="4.02144">
        <ele>628</ele>
        <time>2018-04-16T10:35:42Z</time>
      </trkpt>
      <trkpt lat="44.35957" lon="4.02163">
        <ele>629</ele>
        <time>2018-04-16T10:35:51Z</time>
      </trkpt>
      <trkpt lat="44.35952" lon="4.02176">
        <ele>630</ele>
        <time>2018-04-16T10:35:58Z</time>
      </trkpt>
      <trkpt lat="44.35947" lon="4.02184">
        <ele>631</ele>
        <time>2018-04-16T10:36:02Z</time>
      </trkpt>
      <trkpt lat="44.35939" lon="4.0219">
        <ele>632</ele>
        <time>2018-04-16T10:36:07Z</time>
      </trkpt>
      <trkpt lat="44.35926" lon="4.02192">
        <ele>633</ele>
        <time>2018-04-16T10:36:14Z</time>
      </trkpt>
      <trkpt lat="44.35908" lon="4.0219">
        <ele>634</ele>
        <time>2018-04-16T10:36:23Z</time>
      </trkpt>
      <trkpt lat="44.35886" lon="4.02188">
        <ele>635</ele>
        <time>2018-04-16T10:36:34Z</time>
      </trkpt>
      <trkpt lat="44.35866" lon="4.02185">
        <ele>636</ele>
        <time>2018-04-16T10:36:45Z</time>
      </trkpt>
      <trkpt lat="44.35862" lon="4.02184">
        <ele>637</ele>
        <time>2018-04-16T10:36:47Z</time>
      </trkpt>
      <trkpt lat="44.35856" lon="4.02183">
        <ele>637</ele>
        <time>2018-04-16T10:36:51Z</time>
      </trkpt>
      <trkpt lat="44.35843" lon="4.02183">
        <ele>639</ele>
        <time>2018-04-16T10:36:58Z</time>
      </trkpt>
      <trkpt lat="44.35832" lon="4.02183">
        <ele>640</ele>
        <time>2018-04-16T10:37:05Z</time>
      </trkpt>
      <trkpt lat="44.3582" lon="4.02183">
        <ele>641</ele>
        <time>2018-04-16T10:37:13Z</time>
      </trkpt>
      <trkpt lat="44.35809" lon="4.02188">
        <ele>642</ele>
        <time>2018-04-16T10:37:21Z</time>
      </trkpt>
      <trkpt lat="44.35808" lon="4.02189">
        <ele>642</ele>
        <time>2018-04-16T10:37:22Z</time>
      </trkpt>
      <trkpt lat="44.35805" lon="4.02196">
        <ele>642</ele>
        <time>2018-04-16T10:37:25Z</time>
      </trkpt>
      <trkpt lat="44.35807" lon="4.02213">
        <ele>643</ele>
        <time>2018-04-16T10:37:33Z</time>
      </trkpt>
      <trkpt lat="44.35818" lon="4.02212">
        <ele>644</ele>
        <time>2018-04-16T10:37:40Z</time>
      </trkpt>
      <trkpt lat="44.35826" lon="4.02211">
        <ele>645</ele>
        <time>2018-04-16T10:37:46Z</time>
      </trkpt>
      <trkpt lat="44.35835" lon="4.0221">
        <ele>646</ele>
        <time>2018-04-16T10:37:54Z</time>
      </trkpt>
      <trkpt lat="44.35836" lon="4.02211">
        <ele>646</ele>
        <time>2018-04-16T10:37:55Z</time>
      </trkpt>
      <trkpt lat="44.35841" lon="4.02213">
        <ele>647</ele>
        <time>2018-04-16T10:38:00Z</time>
      </trkpt>
      <trkpt lat="44.35846" lon="4.02215">
        <ele>648</ele>
        <time>2018-04-16T10:38:03Z</time>
      </trkpt>
      <trkpt lat="44.35851" lon="4.02217">
        <ele>649</ele>
        <time>2018-04-16T10:38:06Z</time>
      </trkpt>
      <trkpt lat="44.35864" lon="4.02223">
        <ele>650</ele>
        <time>2018-04-16T10:38:15Z</time>
      </trkpt>
      <trkpt lat="44.35879" lon="4.02231">
        <ele>651</ele>
        <time>2018-04-16T10:38:27Z</time>
      </trkpt>
      <trkpt lat="44.35892" lon="4.02236">
        <ele>652</ele>
        <time>2018-04-16T10:38:37Z</time>
      </trkpt>
      <trkpt lat="44.35896" lon="4.02238">
        <ele>652</ele>
        <time>2018-04-16T10:38:40Z</time>
      </trkpt>
      <trkpt lat="44.35904" lon="4.02242">
        <ele>653</ele>
        <time>2018-04-16T10:38:46Z</time>
      </trkpt>
      <trkpt lat="44.35905" lon="4.02242">
        <ele>653</ele>
        <time>2018-04-16T10:38:47Z</time>
      </trkpt>
      <trkpt lat="44.35915" lon="4.02246">
        <ele>654</ele>
        <time>2018-04-16T10:38:54Z</time>
      </trkpt>
      <trkpt lat="44.35916" lon="4.02247">
        <ele>654</ele>
        <time>2018-04-16T10:38:55Z</time>
      </trkpt>
      <trkpt lat="44.35925" lon="4.02249">
        <ele>655</ele>
        <time>2018-04-16T10:39:01Z</time>
      </trkpt>
      <trkpt lat="44.35936" lon="4.0225">
        <ele>656</ele>
        <time>2018-04-16T10:39:08Z</time>
      </trkpt>
      <trkpt lat="44.35948" lon="4.02247">
        <ele>657</ele>
        <time>2018-04-16T10:39:17Z</time>
      </trkpt>
      <trkpt lat="44.35952" lon="4.02248">
        <ele>657</ele>
        <time>2018-04-16T10:39:20Z</time>
      </trkpt>
      <trkpt lat="44.35954" lon="4.0225">
        <ele>657</ele>
        <time>2018-04-16T10:39:22Z</time>
      </trkpt>
      <trkpt lat="44.35953" lon="4.02256">
        <ele>658</ele>
        <time>2018-04-16T10:39:26Z</time>
      </trkpt>
      <trkpt lat="44.35951" lon="4.02257">
        <ele>658</ele>
        <time>2018-04-16T10:39:28Z</time>
      </trkpt>
      <trkpt lat="44.35939" lon="4.0226">
        <ele>659</ele>
        <time>2018-04-16T10:39:36Z</time>
      </trkpt>
      <trkpt lat="44.3592" lon="4.02263">
        <ele>660</ele>
        <time>2018-04-16T10:39:50Z</time>
      </trkpt>
      <trkpt lat="44.35899" lon="4.02264">
        <ele>661</ele>
        <time>2018-04-16T10:40:04Z</time>
      </trkpt>
      <trkpt lat="44.35889" lon="4.02263">
        <ele>662</ele>
        <time>2018-04-16T10:40:11Z</time>
      </trkpt>
      <trkpt lat="44.35875" lon="4.02265">
        <ele>664</ele>
        <time>2018-04-16T10:40:21Z</time>
      </trkpt>
      <trkpt lat="44.35856" lon="4.02267">
        <ele>665</ele>
        <time>2018-04-16T10:40:35Z</time>
      </trkpt>
      <trkpt lat="44.35844" lon="4.02268">
        <ele>666</ele>
        <time>2018-04-16T10:40:43Z</time>
      </trkpt>
      <trkpt lat="44.35831" lon="4.02277">
        <ele>667</ele>
        <time>2018-04-16T10:40:54Z</time>
      </trkpt>
      <trkpt lat="44.35831" lon="4.02278">
        <ele>667</ele>
        <time>2018-04-16T10:40:55Z</time>
      </trkpt>
      <trkpt lat="44.35833" lon="4.02287">
        <ele>667</ele>
        <time>2018-04-16T10:41:00Z</time>
      </trkpt>
      <trkpt lat="44.35841" lon="4.02288">
        <ele>668</ele>
        <time>2018-04-16T10:41:06Z</time>
      </trkpt>
      <trkpt lat="44.35853" lon="4.02284">
        <ele>669</ele>
        <time>2018-04-16T10:41:14Z</time>
      </trkpt>
      <trkpt lat="44.35866" lon="4.02283">
        <ele>670</ele>
        <time>2018-04-16T10:41:22Z</time>
      </trkpt>
      <trkpt lat="44.35883" lon="4.02288">
        <ele>671</ele>
        <time>2018-04-16T10:41:34Z</time>
      </trkpt>
      <trkpt lat="44.35894" lon="4.02293">
        <ele>672</ele>
        <time>2018-04-16T10:41:42Z</time>
      </trkpt>
      <trkpt lat="44.35905" lon="4.02296">
        <ele>673</ele>
        <time>2018-04-16T10:41:49Z</time>
      </trkpt>
      <trkpt lat="44.35919" lon="4.023">
        <ele>674</ele>
        <time>2018-04-16T10:41:58Z</time>
      </trkpt>
      <trkpt lat="44.35939" lon="4.02303">
        <ele>675</ele>
        <time>2018-04-16T10:42:12Z</time>
      </trkpt>
      <trkpt lat="44.35949" lon="4.02303">
        <ele>676</ele>
        <time>2018-04-16T10:42:20Z</time>
      </trkpt>
      <trkpt lat="44.35952" lon="4.02303">
        <ele>677</ele>
        <time>2018-04-16T10:42:22Z</time>
      </trkpt>
      <trkpt lat="44.35959" lon="4.02303">
        <ele>677</ele>
        <time>2018-04-16T10:42:27Z</time>
      </trkpt>
      <trkpt lat="44.3597" lon="4.02302">
        <ele>678</ele>
        <time>2018-04-16T10:42:35Z</time>
      </trkpt>
      <trkpt lat="44.35971" lon="4.02303">
        <ele>679</ele>
        <time>2018-04-16T10:42:36Z</time>
      </trkpt>
      <trkpt lat="44.35978" lon="4.02304">
        <ele>680</ele>
        <time>2018-04-16T10:42:41Z</time>
      </trkpt>
      <trkpt lat="44.35986" lon="4.02302">
        <ele>680</ele>
        <time>2018-04-16T10:42:46Z</time>
      </trkpt>
      <trkpt lat="44.35989" lon="4.02302">
        <ele>680</ele>
        <time>2018-04-16T10:42:49Z</time>
      </trkpt>
      <trkpt lat="44.35992" lon="4.023">
        <ele>681</ele>
        <time>2018-04-16T10:42:51Z</time>
      </trkpt>
      <trkpt lat="44.36001" lon="4.02298">
        <ele>682</ele>
        <time>2018-04-16T10:42:57Z</time>
      </trkpt>
      <trkpt lat="44.36014" lon="4.02299">
        <ele>683</ele>
        <time>2018-04-16T10:43:05Z</time>
      </trkpt>
      <trkpt lat="44.36024" lon="4.023">
        <ele>684</ele>
        <time>2018-04-16T10:43:11Z</time>
      </trkpt>
      <trkpt lat="44.36027" lon="4.02301">
        <ele>684</ele>
        <time>2018-04-16T10:43:14Z</time>
      </trkpt>
      <trkpt lat="44.36031" lon="4.02301">
        <ele>685</ele>
        <time>2018-04-16T10:43:17Z</time>
      </trkpt>
      <trkpt lat="44.36044" lon="4.02303">
        <ele>686</ele>
        <time>2018-04-16T10:43:25Z</time>
      </trkpt>
      <trkpt lat="44.36055" lon="4.02302">
        <ele>687</ele>
        <time>2018-04-16T10:43:32Z</time>
      </trkpt>
      <trkpt lat="44.36069" lon="4.02299">
        <ele>688</ele>
        <time>2018-04-16T10:43:41Z</time>
      </trkpt>
      <trkpt lat="44.36085" lon="4.02293">
        <ele>689</ele>
        <time>2018-04-16T10:43:52Z</time>
      </trkpt>
      <trkpt lat="44.36093" lon="4.02292">
        <ele>690</ele>
        <time>2018-04-16T10:44:04Z</time>
      </trkpt>
      <trkpt lat="44.36112" lon="4.02285">
        <ele>691</ele>
        <time>2018-04-16T10:44:54Z</time>
      </trkpt>
      <trkpt lat="44.36115" lon="4.02285">
        <ele>692</ele>
        <time>2018-04-16T10:44:56Z</time>
      </trkpt>
      <trkpt lat="44.36131" lon="4.02281">
        <ele>693</ele>
        <time>2018-04-16T10:45:06Z</time>
      </trkpt>
      <trkpt lat="44.36148" lon="4.02275">
        <ele>694</ele>
        <time>2018-04-16T10:45:17Z</time>
      </trkpt>
      <trkpt lat="44.36159" lon="4.0227">
        <ele>695</ele>
        <time>2018-04-16T10:45:25Z</time>
      </trkpt>
      <trkpt lat="44.36174" lon="4.02259">
        <ele>696</ele>
        <time>2018-04-16T10:45:36Z</time>
      </trkpt>
      <trkpt lat="44.36177" lon="4.02259">
        <ele>696</ele>
        <time>2018-04-16T10:45:38Z</time>
      </trkpt>
      <trkpt lat="44.36179" lon="4.02261">
        <ele>697</ele>
        <time>2018-04-16T10:45:40Z</time>
      </trkpt>
      <trkpt lat="44.3618" lon="4.02265">
        <ele>697</ele>
        <time>2018-04-16T10:45:42Z</time>
      </trkpt>
      <trkpt lat="44.36175" lon="4.02273">
        <ele>698</ele>
        <time>2018-04-16T10:45:47Z</time>
      </trkpt>
      <trkpt lat="44.36173" lon="4.02274">
        <ele>698</ele>
        <time>2018-04-16T10:45:49Z</time>
      </trkpt>
      <trkpt lat="44.36173" lon="4.02276">
        <ele>699</ele>
        <time>2018-04-16T10:45:58Z</time>
      </trkpt>
      <trkpt lat="44.3616" lon="4.0229">
        <ele>700</ele>
        <time>2018-04-16T10:46:12Z</time>
      </trkpt>
      <trkpt lat="44.36138" lon="4.02304">
        <ele>701</ele>
        <time>2018-04-16T10:46:26Z</time>
      </trkpt>
      <trkpt lat="44.36126" lon="4.02311">
        <ele>702</ele>
        <time>2018-04-16T10:46:34Z</time>
      </trkpt>
      <trkpt lat="44.36117" lon="4.02317">
        <ele>703</ele>
        <time>2018-04-16T10:46:40Z</time>
      </trkpt>
      <trkpt lat="44.36102" lon="4.02325">
        <ele>704</ele>
        <time>2018-04-16T10:46:50Z</time>
      </trkpt>
      <trkpt lat="44.36063" lon="4.02345">
        <ele>705</ele>
        <time>2018-04-16T10:47:15Z</time>
      </trkpt>
      <trkpt lat="44.36044" lon="4.02354">
        <ele>707</ele>
        <time>2018-04-16T10:47:28Z</time>
      </trkpt>
      <trkpt lat="44.36039" lon="4.02357">
        <ele>707</ele>
        <time>2018-04-16T10:47:32Z</time>
      </trkpt>
      <trkpt lat="44.36031" lon="4.02359">
        <ele>708</ele>
        <time>2018-04-16T10:47:38Z</time>
      </trkpt>
      <trkpt lat="44.36026" lon="4.0236">
        <ele>708</ele>
        <time>2018-04-16T10:47:41Z</time>
      </trkpt>
      <trkpt lat="44.36021" lon="4.0236">
        <ele>709</ele>
        <time>2018-04-16T10:47:44Z</time>
      </trkpt>
      <trkpt lat="44.36007" lon="4.02366">
        <ele>710</ele>
        <time>2018-04-16T10:47:53Z</time>
      </trkpt>
      <trkpt lat="44.35999" lon="4.02372">
        <ele>711</ele>
        <time>2018-04-16T10:47:58Z</time>
      </trkpt>
      <trkpt lat="44.35999" lon="4.02374">
        <ele>711</ele>
        <time>2018-04-16T10:47:59Z</time>
      </trkpt>
      <trkpt lat="44.36006" lon="4.02381">
        <ele>712</ele>
        <time>2018-04-16T10:48:08Z</time>
      </trkpt>
      <trkpt lat="44.36009" lon="4.02381">
        <ele>712</ele>
        <time>2018-04-16T10:48:10Z</time>
      </trkpt>
      <trkpt lat="44.3602" lon="4.02377">
        <ele>713</ele>
        <time>2018-04-16T10:48:17Z</time>
      </trkpt>
      <trkpt lat="44.36031" lon="4.02374">
        <ele>714</ele>
        <time>2018-04-16T10:48:25Z</time>
      </trkpt>
      <trkpt lat="44.36045" lon="4.02374">
        <ele>715</ele>
        <time>2018-04-16T10:48:34Z</time>
      </trkpt>
      <trkpt lat="44.36054" lon="4.02373">
        <ele>716</ele>
        <time>2018-04-16T10:48:40Z</time>
      </trkpt>
      <trkpt lat="44.36064" lon="4.02371">
        <ele>717</ele>
        <time>2018-04-16T10:48:47Z</time>
      </trkpt>
      <trkpt lat="44.36077" lon="4.02368">
        <ele>719</ele>
        <time>2018-04-16T10:48:56Z</time>
      </trkpt>
      <trkpt lat="44.36088" lon="4.02365">
        <ele>719</ele>
        <time>2018-04-16T10:49:04Z</time>
      </trkpt>
      <trkpt lat="44.36089" lon="4.02365">
        <ele>720</ele>
        <time>2018-04-16T10:49:05Z</time>
      </trkpt>
      <trkpt lat="44.36098" lon="4.02362">
        <ele>721</ele>
        <time>2018-04-16T10:49:11Z</time>
      </trkpt>
      <trkpt lat="44.36117" lon="4.02356">
        <ele>722</ele>
        <time>2018-04-16T10:49:23Z</time>
      </trkpt>
      <trkpt lat="44.36129" lon="4.02357">
        <ele>723</ele>
        <time>2018-04-16T10:49:30Z</time>
      </trkpt>
      <trkpt lat="44.36137" lon="4.02357">
        <ele>724</ele>
        <time>2018-04-16T10:49:35Z</time>
      </trkpt>
      <trkpt lat="44.36149" lon="4.02357">
        <ele>725</ele>
        <time>2018-04-16T10:49:42Z</time>
      </trkpt>
      <trkpt lat="44.36166" lon="4.02355">
        <ele>726</ele>
        <time>2018-04-16T10:49:52Z</time>
      </trkpt>
      <trkpt lat="44.36178" lon="4.02353">
        <ele>727</ele>
        <time>2018-04-16T10:49:59Z</time>
      </trkpt>
      <trkpt lat="44.36191" lon="4.02351">
        <ele>728</ele>
        <time>2018-04-16T10:50:07Z</time>
      </trkpt>
      <trkpt lat="44.36205" lon="4.02349">
        <ele>729</ele>
        <time>2018-04-16T10:50:16Z</time>
      </trkpt>
      <trkpt lat="44.36216" lon="4.02348">
        <ele>731</ele>
        <time>2018-04-16T10:50:23Z</time>
      </trkpt>
      <trkpt lat="44.36225" lon="4.02345">
        <ele>732</ele>
        <time>2018-04-16T10:50:29Z</time>
      </trkpt>
      <trkpt lat="44.3623" lon="4.02344">
        <ele>733</ele>
        <time>2018-04-16T10:50:33Z</time>
      </trkpt>
      <trkpt lat="44.36231" lon="4.02344">
        <ele>733</ele>
        <time>2018-04-16T10:50:34Z</time>
      </trkpt>
      <trkpt lat="44.36249" lon="4.0234">
        <ele>734</ele>
        <time>2018-04-16T10:50:47Z</time>
      </trkpt>
      <trkpt lat="44.36259" lon="4.02335">
        <ele>735</ele>
        <time>2018-04-16T10:50:54Z</time>
      </trkpt>
      <trkpt lat="44.3627" lon="4.02328">
        <ele>736</ele>
        <time>2018-04-16T10:51:02Z</time>
      </trkpt>
      <trkpt lat="44.36277" lon="4.0232">
        <ele>737</ele>
        <time>2018-04-16T10:51:08Z</time>
      </trkpt>
      <trkpt lat="44.36284" lon="4.02303">
        <ele>738</ele>
        <time>2018-04-16T10:51:17Z</time>
      </trkpt>
      <trkpt lat="44.36285" lon="4.02298">
        <ele>739</ele>
        <time>2018-04-16T10:51:19Z</time>
      </trkpt>
      <trkpt lat="44.36286" lon="4.02283">
        <ele>739</ele>
        <time>2018-04-16T10:51:25Z</time>
      </trkpt>
      <trkpt lat="44.36285" lon="4.02278">
        <ele>740</ele>
        <time>2018-04-16T10:51:27Z</time>
      </trkpt>
      <trkpt lat="44.36285" lon="4.0226">
        <ele>740</ele>
        <time>2018-04-16T10:51:35Z</time>
      </trkpt>
      <trkpt lat="44.36284" lon="4.02251">
        <ele>741</ele>
        <time>2018-04-16T10:51:39Z</time>
      </trkpt>
      <trkpt lat="44.36289" lon="4.02231">
        <ele>741</ele>
        <time>2018-04-16T10:51:49Z</time>
      </trkpt>
      <trkpt lat="44.36299" lon="4.02218">
        <ele>743</ele>
        <time>2018-04-16T10:51:58Z</time>
      </trkpt>
      <trkpt lat="44.36306" lon="4.02212">
        <ele>744</ele>
        <time>2018-04-16T10:52:03Z</time>
      </trkpt>
      <trkpt lat="44.36321" lon="4.02196">
        <ele>745</ele>
        <time>2018-04-16T10:52:15Z</time>
      </trkpt>
      <trkpt lat="44.36332" lon="4.0218">
        <ele>746</ele>
        <time>2018-04-16T10:52:26Z</time>
      </trkpt>
      <trkpt lat="44.36332" lon="4.02177">
        <ele>746</ele>
        <time>2018-04-16T10:52:27Z</time>
      </trkpt>
      <trkpt lat="44.36337" lon="4.02169">
        <ele>747</ele>
        <time>2018-04-16T10:52:32Z</time>
      </trkpt>
      <trkpt lat="44.36342" lon="4.0217">
        <ele>748</ele>
        <time>2018-04-16T10:52:36Z</time>
      </trkpt>
      <trkpt lat="44.36343" lon="4.02173">
        <ele>748</ele>
        <time>2018-04-16T10:52:38Z</time>
      </trkpt>
      <trkpt lat="44.36339" lon="4.02182">
        <ele>749</ele>
        <time>2018-04-16T10:52:43Z</time>
      </trkpt>
      <trkpt lat="44.36338" lon="4.02184">
        <ele>749</ele>
        <time>2018-04-16T10:52:44Z</time>
      </trkpt>
      <trkpt lat="44.36325" lon="4.02207">
        <ele>750</ele>
        <time>2018-04-16T10:52:58Z</time>
      </trkpt>
      <trkpt lat="44.36315" lon="4.02234">
        <ele>751</ele>
        <time>2018-04-16T10:53:11Z</time>
      </trkpt>
      <trkpt lat="44.36311" lon="4.02251">
        <ele>752</ele>
        <time>2018-04-16T10:53:19Z</time>
      </trkpt>
      <trkpt lat="44.36311" lon="4.02261">
        <ele>753</ele>
        <time>2018-04-16T10:53:25Z</time>
      </trkpt>
      <trkpt lat="44.36312" lon="4.02286">
        <ele>754</ele>
        <time>2018-04-16T10:53:36Z</time>
      </trkpt>
      <trkpt lat="44.36314" lon="4.02306">
        <ele>756</ele>
        <time>2018-04-16T10:53:45Z</time>
      </trkpt>
      <trkpt lat="44.36315" lon="4.02328">
        <ele>757</ele>
        <time>2018-04-16T10:53:55Z</time>
      </trkpt>
      <trkpt lat="44.36315" lon="4.02337">
        <ele>758</ele>
        <time>2018-04-16T10:53:59Z</time>
      </trkpt>
      <trkpt lat="44.36316" lon="4.0235">
        <ele>759</ele>
        <time>2018-04-16T10:54:05Z</time>
      </trkpt>
      <trkpt lat="44.3632" lon="4.02362">
        <ele>760</ele>
        <time>2018-04-16T10:54:11Z</time>
      </trkpt>
      <trkpt lat="44.3633" lon="4.02371">
        <ele>761</ele>
        <time>2018-04-16T10:54:19Z</time>
      </trkpt>
      <trkpt lat="44.36334" lon="4.02376">
        <ele>762</ele>
        <time>2018-04-16T10:54:24Z</time>
      </trkpt>
      <trkpt lat="44.36337" lon="4.02378">
        <ele>763</ele>
        <time>2018-04-16T10:54:30Z</time>
      </trkpt>
      <trkpt lat="44.36337" lon="4.02378">
        <ele>764</ele>
        <time>2018-04-16T10:54:54Z</time>
      </trkpt>
      <trkpt lat="44.36334" lon="4.02386">
        <ele>764</ele>
        <time>2018-04-16T10:54:59Z</time>
      </trkpt>
      <trkpt lat="44.36328" lon="4.02392">
        <ele>764</ele>
        <time>2018-04-16T10:55:04Z</time>
      </trkpt>
      <trkpt lat="44.36327" lon="4.024">
        <ele>764</ele>
        <time>2018-04-16T10:55:09Z</time>
      </trkpt>
      <trkpt lat="44.36332" lon="4.02417">
        <ele>765</ele>
        <time>2018-04-16T10:55:18Z</time>
      </trkpt>
      <trkpt lat="44.36332" lon="4.02428">
        <ele>766</ele>
        <time>2018-04-16T10:55:23Z</time>
      </trkpt>
      <trkpt lat="44.36328" lon="4.02437">
        <ele>767</ele>
        <time>2018-04-16T10:55:29Z</time>
      </trkpt>
      <trkpt lat="44.36326" lon="4.0244">
        <ele>767</ele>
        <time>2018-04-16T10:55:32Z</time>
      </trkpt>
      <trkpt lat="44.36324" lon="4.02443">
        <ele>768</ele>
        <time>2018-04-16T10:55:34Z</time>
      </trkpt>
      <trkpt lat="44.36317" lon="4.02456">
        <ele>768</ele>
        <time>2018-04-16T10:55:43Z</time>
      </trkpt>
      <trkpt lat="44.36307" lon="4.02468">
        <ele>770</ele>
        <time>2018-04-16T10:55:54Z</time>
      </trkpt>
      <trkpt lat="44.36288" lon="4.02508">
        <ele>771</ele>
        <time>2018-04-16T10:57:28Z</time>
      </trkpt>
      <trkpt lat="44.36285" lon="4.02523">
        <ele>769</ele>
        <time>2018-04-16T10:59:24Z</time>
      </trkpt>
      <trkpt lat="44.36285" lon="4.02525">
        <ele>770</ele>
        <time>2018-04-16T11:01:29Z</time>
      </trkpt>
      <trkpt lat="44.36279" lon="4.02536">
        <ele>771</ele>
        <time>2018-04-16T11:02:11Z</time>
      </trkpt>
      <trkpt lat="44.36275" lon="4.02545">
        <ele>771</ele>
        <time>2018-04-16T11:02:16Z</time>
      </trkpt>
      <trkpt lat="44.36272" lon="4.02552">
        <ele>772</ele>
        <time>2018-04-16T11:02:20Z</time>
      </trkpt>
      <trkpt lat="44.36266" lon="4.02565">
        <ele>772</ele>
        <time>2018-04-16T11:02:28Z</time>
      </trkpt>
      <trkpt lat="44.36261" lon="4.02578">
        <ele>773</ele>
        <time>2018-04-16T11:02:36Z</time>
      </trkpt>
      <trkpt lat="44.36258" lon="4.02588">
        <ele>774</ele>
        <time>2018-04-16T11:02:41Z</time>
      </trkpt>
      <trkpt lat="44.36255" lon="4.02598">
        <ele>776</ele>
        <time>2018-04-16T11:02:46Z</time>
      </trkpt>
      <trkpt lat="44.36251" lon="4.02611">
        <ele>777</ele>
        <time>2018-04-16T11:02:53Z</time>
      </trkpt>
      <trkpt lat="44.36246" lon="4.02624">
        <ele>778</ele>
        <time>2018-04-16T11:03:00Z</time>
      </trkpt>
      <trkpt lat="44.36239" lon="4.02642">
        <ele>779</ele>
        <time>2018-04-16T11:03:10Z</time>
      </trkpt>
      <trkpt lat="44.3622" lon="4.02673">
        <ele>780</ele>
        <time>2018-04-16T11:03:30Z</time>
      </trkpt>
      <trkpt lat="44.36219" lon="4.02675">
        <ele>780</ele>
        <time>2018-04-16T11:03:31Z</time>
      </trkpt>
      <trkpt lat="44.36201" lon="4.02698">
        <ele>781</ele>
        <time>2018-04-16T11:03:48Z</time>
      </trkpt>
      <trkpt lat="44.36191" lon="4.02703">
        <ele>782</ele>
        <time>2018-04-16T11:03:56Z</time>
      </trkpt>
      <trkpt lat="44.36178" lon="4.02714">
        <ele>783</ele>
        <time>2018-04-16T11:04:06Z</time>
      </trkpt>
      <trkpt lat="44.36165" lon="4.02725">
        <ele>784</ele>
        <time>2018-04-16T11:04:16Z</time>
      </trkpt>
      <trkpt lat="44.36161" lon="4.02726">
        <ele>784</ele>
        <time>2018-04-16T11:04:19Z</time>
      </trkpt>
      <trkpt lat="44.36136" lon="4.02739">
        <ele>785</ele>
        <time>2018-04-16T11:04:37Z</time>
      </trkpt>
      <trkpt lat="44.36133" lon="4.0274">
        <ele>785</ele>
        <time>2018-04-16T11:04:39Z</time>
      </trkpt>
      <trkpt lat="44.36126" lon="4.02744">
        <ele>785</ele>
        <time>2018-04-16T11:04:44Z</time>
      </trkpt>
      <trkpt lat="44.36124" lon="4.02744">
        <ele>785</ele>
        <time>2018-04-16T11:04:46Z</time>
      </trkpt>
      <trkpt lat="44.36097" lon="4.02762">
        <ele>786</ele>
        <time>2018-04-16T11:05:02Z</time>
      </trkpt>
      <trkpt lat="44.36076" lon="4.02782">
        <ele>787</ele>
        <time>2018-04-16T11:05:15Z</time>
      </trkpt>
      <trkpt lat="44.36053" lon="4.02807">
        <ele>788</ele>
        <time>2018-04-16T11:05:30Z</time>
      </trkpt>
      <trkpt lat="44.36025" lon="4.02837">
        <ele>789</ele>
        <time>2018-04-16T11:05:45Z</time>
      </trkpt>
      <trkpt lat="44.35995" lon="4.02862">
        <ele>790</ele>
        <time>2018-04-16T11:06:02Z</time>
      </trkpt>
      <trkpt lat="44.35967" lon="4.02862">
        <ele>791</ele>
        <time>2018-04-16T11:06:16Z</time>
      </trkpt>
      <trkpt lat="44.3594" lon="4.02854">
        <ele>791</ele>
        <time>2018-04-16T11:06:28Z</time>
      </trkpt>
      <trkpt lat="44.35885" lon="4.02856">
        <ele>790</ele>
        <time>2018-04-16T11:06:50Z</time>
      </trkpt>
      <trkpt lat="44.35829" lon="4.02848">
        <ele>791</ele>
        <time>2018-04-16T11:07:07Z</time>
      </trkpt>
      <trkpt lat="44.35821" lon="4.02845">
        <ele>790</ele>
        <time>2018-04-16T11:07:09Z</time>
      </trkpt>
      <trkpt lat="44.35811" lon="4.02841">
        <ele>790</ele>
        <time>2018-04-16T11:07:11Z</time>
      </trkpt>
      <trkpt lat="44.35791" lon="4.02834">
        <ele>789</ele>
        <time>2018-04-16T11:07:16Z</time>
      </trkpt>
      <trkpt lat="44.35755" lon="4.02832">
        <ele>787</ele>
        <time>2018-04-16T11:07:25Z</time>
      </trkpt>
      <trkpt lat="44.35741" lon="4.02838">
        <ele>786</ele>
        <time>2018-04-16T11:07:29Z</time>
      </trkpt>
      <trkpt lat="44.35692" lon="4.02851">
        <ele>785</ele>
        <time>2018-04-16T11:07:44Z</time>
      </trkpt>
      <trkpt lat="44.35638" lon="4.02833">
        <ele>786</ele>
        <time>2018-04-16T11:08:07Z</time>
      </trkpt>
      <trkpt lat="44.35618" lon="4.02826">
        <ele>786</ele>
        <time>2018-04-16T11:08:14Z</time>
      </trkpt>
      <trkpt lat="44.35581" lon="4.02828">
        <ele>786</ele>
        <time>2018-04-16T11:08:34Z</time>
      </trkpt>
      <trkpt lat="44.35565" lon="4.02828">
        <ele>787</ele>
        <time>2018-04-16T11:08:42Z</time>
      </trkpt>
      <trkpt lat="44.35539" lon="4.02825">
        <ele>788</ele>
        <time>2018-04-16T11:08:54Z</time>
      </trkpt>
      <trkpt lat="44.35513" lon="4.02838">
        <ele>789</ele>
        <time>2018-04-16T11:09:19Z</time>
      </trkpt>
      <trkpt lat="44.3551" lon="4.02843">
        <ele>789</ele>
        <time>2018-04-16T11:10:02Z</time>
      </trkpt>
      <trkpt lat="44.35498" lon="4.02848">
        <ele>790</ele>
        <time>2018-04-16T11:10:12Z</time>
      </trkpt>
      <trkpt lat="44.3549" lon="4.02852">
        <ele>791</ele>
        <time>2018-04-16T11:10:18Z</time>
      </trkpt>
      <trkpt lat="44.35485" lon="4.02854">
        <ele>791</ele>
        <time>2018-04-16T11:10:22Z</time>
      </trkpt>
      <trkpt lat="44.35481" lon="4.02856">
        <ele>792</ele>
        <time>2018-04-16T11:10:25Z</time>
      </trkpt>
      <trkpt lat="44.35475" lon="4.02859">
        <ele>792</ele>
        <time>2018-04-16T11:10:29Z</time>
      </trkpt>
      <trkpt lat="44.35469" lon="4.02863">
        <ele>793</ele>
        <time>2018-04-16T11:10:33Z</time>
      </trkpt>
      <trkpt lat="44.35461" lon="4.02866">
        <ele>794</ele>
        <time>2018-04-16T11:10:39Z</time>
      </trkpt>
      <trkpt lat="44.35455" lon="4.02868">
        <ele>794</ele>
        <time>2018-04-16T11:10:44Z</time>
      </trkpt>
      <trkpt lat="44.35451" lon="4.02868">
        <ele>795</ele>
        <time>2018-04-16T11:10:47Z</time>
      </trkpt>
      <trkpt lat="44.35442" lon="4.02873">
        <ele>796</ele>
        <time>2018-04-16T11:10:53Z</time>
      </trkpt>
      <trkpt lat="44.35425" lon="4.02884">
        <ele>797</ele>
        <time>2018-04-16T11:11:06Z</time>
      </trkpt>
      <trkpt lat="44.354" lon="4.02897">
        <ele>797</ele>
        <time>2018-04-16T11:11:20Z</time>
      </trkpt>
      <trkpt lat="44.35389" lon="4.02906">
        <ele>797</ele>
        <time>2018-04-16T11:11:28Z</time>
      </trkpt>
      <trkpt lat="44.3538" lon="4.02915">
        <ele>798</ele>
        <time>2018-04-16T11:11:35Z</time>
      </trkpt>
      <trkpt lat="44.35379" lon="4.02918">
        <ele>798</ele>
        <time>2018-04-16T11:11:38Z</time>
      </trkpt>
      <trkpt lat="44.35376" lon="4.0293">
        <ele>799</ele>
        <time>2018-04-16T11:11:45Z</time>
      </trkpt>
      <trkpt lat="44.35372" lon="4.02939">
        <ele>799</ele>
        <time>2018-04-16T11:11:50Z</time>
      </trkpt>
      <trkpt lat="44.3537" lon="4.02953">
        <ele>799</ele>
        <time>2018-04-16T11:11:55Z</time>
      </trkpt>
      <trkpt lat="44.35363" lon="4.02966">
        <ele>799</ele>
        <time>2018-04-16T11:12:00Z</time>
      </trkpt>
      <trkpt lat="44.35363" lon="4.02969">
        <ele>799</ele>
        <time>2018-04-16T11:12:01Z</time>
      </trkpt>
      <trkpt lat="44.35362" lon="4.02976">
        <ele>798</ele>
        <time>2018-04-16T11:12:05Z</time>
      </trkpt>
      <trkpt lat="44.3536" lon="4.02981">
        <ele>798</ele>
        <time>2018-04-16T11:12:08Z</time>
      </trkpt>
      <trkpt lat="44.35355" lon="4.02996">
        <ele>798</ele>
        <time>2018-04-16T11:12:18Z</time>
      </trkpt>
      <trkpt lat="44.35354" lon="4.03005">
        <ele>799</ele>
        <time>2018-04-16T11:12:26Z</time>
      </trkpt>
      <trkpt lat="44.35354" lon="4.03013">
        <ele>799</ele>
        <time>2018-04-16T11:12:58Z</time>
      </trkpt>
      <trkpt lat="44.35353" lon="4.03019">
        <ele>799</ele>
        <time>2018-04-16T11:13:01Z</time>
      </trkpt>
      <trkpt lat="44.35353" lon="4.03031">
        <ele>799</ele>
        <time>2018-04-16T11:13:05Z</time>
      </trkpt>
      <trkpt lat="44.35349" lon="4.03059">
        <ele>798</ele>
        <time>2018-04-16T11:13:12Z</time>
      </trkpt>
      <trkpt lat="44.35347" lon="4.03135">
        <ele>798</ele>
        <time>2018-04-16T11:13:40Z</time>
      </trkpt>
      <trkpt lat="44.35349" lon="4.03152">
        <ele>799</ele>
        <time>2018-04-16T11:13:50Z</time>
      </trkpt>
      <trkpt lat="44.35348" lon="4.03157">
        <ele>799</ele>
        <time>2018-04-16T11:13:52Z</time>
      </trkpt>
      <trkpt lat="44.35345" lon="4.03172">
        <ele>800</ele>
        <time>2018-04-16T11:14:02Z</time>
      </trkpt>
      <trkpt lat="44.35344" lon="4.03176">
        <ele>800</ele>
        <time>2018-04-16T11:14:05Z</time>
      </trkpt>
      <trkpt lat="44.35343" lon="4.03184">
        <ele>801</ele>
        <time>2018-04-16T11:14:10Z</time>
      </trkpt>
      <trkpt lat="44.35343" lon="4.03188">
        <ele>801</ele>
        <time>2018-04-16T11:14:12Z</time>
      </trkpt>
      <trkpt lat="44.35336" lon="4.03206">
        <ele>802</ele>
        <time>2018-04-16T11:14:24Z</time>
      </trkpt>
      <trkpt lat="44.35335" lon="4.0321">
        <ele>803</ele>
        <time>2018-04-16T11:14:28Z</time>
      </trkpt>
      <trkpt lat="44.35334" lon="4.03216">
        <ele>803</ele>
        <time>2018-04-16T11:14:32Z</time>
      </trkpt>
      <trkpt lat="44.35333" lon="4.03221">
        <ele>804</ele>
        <time>2018-04-16T11:14:36Z</time>
      </trkpt>
      <trkpt lat="44.35331" lon="4.0323">
        <ele>805</ele>
        <time>2018-04-16T11:14:44Z</time>
      </trkpt>
      <trkpt lat="44.35331" lon="4.03231">
        <ele>805</ele>
        <time>2018-04-16T11:14:45Z</time>
      </trkpt>
      <trkpt lat="44.35329" lon="4.03244">
        <ele>806</ele>
        <time>2018-04-16T11:14:55Z</time>
      </trkpt>
      <trkpt lat="44.35327" lon="4.03279">
        <ele>808</ele>
        <time>2018-04-16T11:15:19Z</time>
      </trkpt>
      <trkpt lat="44.35326" lon="4.03284">
        <ele>809</ele>
        <time>2018-04-16T11:15:27Z</time>
      </trkpt>
      <trkpt lat="44.35326" lon="4.03284">
        <ele>810</ele>
        <time>2018-04-16T11:15:32Z</time>
      </trkpt>
      <trkpt lat="44.35324" lon="4.03296">
        <ele>811</ele>
        <time>2018-04-16T11:15:55Z</time>
      </trkpt>
      <trkpt lat="44.35323" lon="4.03299">
        <ele>811</ele>
        <time>2018-04-16T11:15:58Z</time>
      </trkpt>
      <trkpt lat="44.35323" lon="4.03305">
        <ele>812</ele>
        <time>2018-04-16T11:16:03Z</time>
      </trkpt>
      <trkpt lat="44.35321" lon="4.03311">
        <ele>813</ele>
        <time>2018-04-16T11:16:09Z</time>
      </trkpt>
      <trkpt lat="44.35321" lon="4.03315">
        <ele>814</ele>
        <time>2018-04-16T11:16:14Z</time>
      </trkpt>
      <trkpt lat="44.35321" lon="4.03317">
        <ele>815</ele>
        <time>2018-04-16T11:16:22Z</time>
      </trkpt>
      <trkpt lat="44.35318" lon="4.0333">
        <ele>816</ele>
        <time>2018-04-16T11:16:41Z</time>
      </trkpt>
      <trkpt lat="44.35317" lon="4.03336">
        <ele>817</ele>
        <time>2018-04-16T11:16:46Z</time>
      </trkpt>
      <trkpt lat="44.35317" lon="4.03342">
        <ele>819</ele>
        <time>2018-04-16T11:16:52Z</time>
      </trkpt>
      <trkpt lat="44.35319" lon="4.03346">
        <ele>820</ele>
        <time>2018-04-16T11:16:57Z</time>
      </trkpt>
      <trkpt lat="44.35321" lon="4.03353">
        <ele>821</ele>
        <time>2018-04-16T11:17:07Z</time>
      </trkpt>
      <trkpt lat="44.35321" lon="4.03354">
        <ele>821</ele>
        <time>2018-04-16T11:17:08Z</time>
      </trkpt>
      <trkpt lat="44.35322" lon="4.03357">
        <ele>822</ele>
        <time>2018-04-16T11:17:18Z</time>
      </trkpt>
      <trkpt lat="44.35325" lon="4.03365">
        <ele>824</ele>
        <time>2018-04-16T11:17:37Z</time>
      </trkpt>
      <trkpt lat="44.35326" lon="4.03374">
        <ele>825</ele>
        <time>2018-04-16T11:17:48Z</time>
      </trkpt>
      <trkpt lat="44.35327" lon="4.03379">
        <ele>826</ele>
        <time>2018-04-16T11:17:55Z</time>
      </trkpt>
      <trkpt lat="44.35327" lon="4.03379">
        <ele>827</ele>
        <time>2018-04-16T11:18:00Z</time>
      </trkpt>
      <trkpt lat="44.35329" lon="4.03385">
        <ele>828</ele>
        <time>2018-04-16T11:18:11Z</time>
      </trkpt>
      <trkpt lat="44.35328" lon="4.03386">
        <ele>828</ele>
        <time>2018-04-16T11:18:12Z</time>
      </trkpt>
      <trkpt lat="44.35328" lon="4.03393">
        <ele>829</ele>
        <time>2018-04-16T11:18:22Z</time>
      </trkpt>
      <trkpt lat="44.35327" lon="4.03395">
        <ele>830</ele>
        <time>2018-04-16T11:18:29Z</time>
      </trkpt>
      <trkpt lat="44.35326" lon="4.03396">
        <ele>831</ele>
        <time>2018-04-16T11:18:34Z</time>
      </trkpt>
      <trkpt lat="44.3533" lon="4.03407">
        <ele>833</ele>
        <time>2018-04-16T11:18:54Z</time>
      </trkpt>
      <trkpt lat="44.35331" lon="4.03409">
        <ele>834</ele>
        <time>2018-04-16T11:18:59Z</time>
      </trkpt>
      <trkpt lat="44.35331" lon="4.03412">
        <ele>835</ele>
        <time>2018-04-16T11:19:05Z</time>
      </trkpt>
      <trkpt lat="44.3533" lon="4.03415">
        <ele>836</ele>
        <time>2018-04-16T11:19:17Z</time>
      </trkpt>
      <trkpt lat="44.35331" lon="4.03425">
        <ele>837</ele>
        <time>2018-04-16T11:20:28Z</time>
      </trkpt>
      <trkpt lat="44.35331" lon="4.03428">
        <ele>838</ele>
        <time>2018-04-16T11:20:31Z</time>
      </trkpt>
      <trkpt lat="44.35332" lon="4.03433">
        <ele>839</ele>
        <time>2018-04-16T11:20:37Z</time>
      </trkpt>
      <trkpt lat="44.35334" lon="4.03438">
        <ele>840</ele>
        <time>2018-04-16T11:20:46Z</time>
      </trkpt>
      <trkpt lat="44.35334" lon="4.03438">
        <ele>841</ele>
        <time>2018-04-16T11:20:54Z</time>
      </trkpt>
      <trkpt lat="44.35338" lon="4.03445">
        <ele>842</ele>
        <time>2018-04-16T11:21:11Z</time>
      </trkpt>
      <trkpt lat="44.35338" lon="4.03445">
        <ele>843</ele>
        <time>2018-04-16T11:21:15Z</time>
      </trkpt>
      <trkpt lat="44.35339" lon="4.03454">
        <ele>845</ele>
        <time>2018-04-16T11:21:44Z</time>
      </trkpt>
      <trkpt lat="44.35341" lon="4.03458">
        <ele>846</ele>
        <time>2018-04-16T11:22:00Z</time>
      </trkpt>
      <trkpt lat="44.35343" lon="4.03462">
        <ele>847</ele>
        <time>2018-04-16T11:22:15Z</time>
      </trkpt>
      <trkpt lat="44.35343" lon="4.03468">
        <ele>848</ele>
        <time>2018-04-16T11:22:29Z</time>
      </trkpt>
      <trkpt lat="44.35343" lon="4.03469">
        <ele>848</ele>
        <time>2018-04-16T11:22:30Z</time>
      </trkpt>
      <trkpt lat="44.35342" lon="4.03473">
        <ele>849</ele>
        <time>2018-04-16T11:22:41Z</time>
      </trkpt>
      <trkpt lat="44.35343" lon="4.03473">
        <ele>850</ele>
        <time>2018-04-16T11:22:47Z</time>
      </trkpt>
      <trkpt lat="44.35342" lon="4.03474">
        <ele>851</ele>
        <time>2018-04-16T11:22:54Z</time>
      </trkpt>
      <trkpt lat="44.35342" lon="4.03488">
        <ele>851</ele>
        <time>2018-04-16T11:24:25Z</time>
      </trkpt>
      <trkpt lat="44.35339" lon="4.03502">
        <ele>852</ele>
        <time>2018-04-16T11:24:50Z</time>
      </trkpt>
      <trkpt lat="44.35339" lon="4.03506">
        <ele>852</ele>
        <time>2018-04-16T11:24:53Z</time>
      </trkpt>
      <trkpt lat="44.35345" lon="4.03527">
        <ele>852</ele>
        <time>2018-04-16T11:25:14Z</time>
      </trkpt>
      <trkpt lat="44.35346" lon="4.03529">
        <ele>851</ele>
        <time>2018-04-16T11:25:26Z</time>
      </trkpt>
      <trkpt lat="44.35348" lon="4.0354">
        <ele>852</ele>
        <time>2018-04-16T11:25:41Z</time>
      </trkpt>
      <trkpt lat="44.35349" lon="4.03544">
        <ele>853</ele>
        <time>2018-04-16T11:25:47Z</time>
      </trkpt>
      <trkpt lat="44.35349" lon="4.03546">
        <ele>854</ele>
        <time>2018-04-16T11:25:50Z</time>
      </trkpt>
      <trkpt lat="44.35351" lon="4.03548">
        <ele>855</ele>
        <time>2018-04-16T11:25:56Z</time>
      </trkpt>
      <trkpt lat="44.3535" lon="4.03552">
        <ele>857</ele>
        <time>2018-04-16T11:26:29Z</time>
      </trkpt>
      <trkpt lat="44.35347" lon="4.03562">
        <ele>858</ele>
        <time>2018-04-16T11:27:02Z</time>
      </trkpt>
      <trkpt lat="44.35347" lon="4.03567">
        <ele>859</ele>
        <time>2018-04-16T11:27:09Z</time>
      </trkpt>
      <trkpt lat="44.35346" lon="4.03569">
        <ele>860</ele>
        <time>2018-04-16T11:27:14Z</time>
      </trkpt>
      <trkpt lat="44.35347" lon="4.03569">
        <ele>862</ele>
        <time>2018-04-16T11:27:17Z</time>
      </trkpt>
      <trkpt lat="44.35345" lon="4.03578">
        <ele>862</ele>
        <time>2018-04-16T11:27:29Z</time>
      </trkpt>
      <trkpt lat="44.35344" lon="4.03581">
        <ele>862</ele>
        <time>2018-04-16T11:27:32Z</time>
      </trkpt>
      <trkpt lat="44.35337" lon="4.0359">
        <ele>861</ele>
        <time>2018-04-16T11:27:47Z</time>
      </trkpt>
      <trkpt lat="44.35335" lon="4.03596">
        <ele>862</ele>
        <time>2018-04-16T11:28:12Z</time>
      </trkpt>
      <trkpt lat="44.35335" lon="4.03597">
        <ele>863</ele>
        <time>2018-04-16T11:28:18Z</time>
      </trkpt>
      <trkpt lat="44.35335" lon="4.03597">
        <ele>863</ele>
        <time>2018-04-16T11:29:41Z</time>
      </trkpt>
      <trkpt lat="44.35335" lon="4.03597">
        <ele>863</ele>
        <time>2018-04-16T11:30:27Z</time>
      </trkpt>
      <trkpt lat="44.35335" lon="4.03597">
        <ele>863</ele>
        <time>2018-04-16T11:30:54Z</time>
      </trkpt>
      <trkpt lat="44.35335" lon="4.03598">
        <ele>863</ele>
        <time>2018-04-16T11:31:56Z</time>
      </trkpt>
      <trkpt lat="44.35336" lon="4.03598">
        <ele>863</ele>
        <time>2018-04-16T11:32:41Z</time>
      </trkpt>
      <trkpt lat="44.35336" lon="4.03598">
        <ele>863</ele>
        <time>2018-04-16T11:33:13Z</time>
      </trkpt>
      <trkpt lat="44.35335" lon="4.03607">
        <ele>864</ele>
        <time>2018-04-16T11:36:58Z</time>
      </trkpt>
      <trkpt lat="44.3534" lon="4.03617">
        <ele>865</ele>
        <time>2018-04-16T11:37:13Z</time>
      </trkpt>
      <trkpt lat="44.35345" lon="4.03637">
        <ele>864</ele>
        <time>2018-04-16T11:37:39Z</time>
      </trkpt>
      <trkpt lat="44.35345" lon="4.03649">
        <ele>865</ele>
        <time>2018-04-16T11:38:01Z</time>
      </trkpt>
      <trkpt lat="44.35345" lon="4.03651">
        <ele>866</ele>
        <time>2018-04-16T11:38:08Z</time>
      </trkpt>
      <trkpt lat="44.35344" lon="4.03652">
        <ele>867</ele>
        <time>2018-04-16T11:38:19Z</time>
      </trkpt>
      <trkpt lat="44.35342" lon="4.03652">
        <ele>868</ele>
        <time>2018-04-16T11:38:34Z</time>
      </trkpt>
      <trkpt lat="44.35338" lon="4.03655">
        <ele>869</ele>
        <time>2018-04-16T11:38:46Z</time>
      </trkpt>
      <trkpt lat="44.35337" lon="4.03656">
        <ele>870</ele>
        <time>2018-04-16T11:38:55Z</time>
      </trkpt>
      <trkpt lat="44.35333" lon="4.03686">
        <ele>869</ele>
        <time>2018-04-16T11:39:22Z</time>
      </trkpt>
      <trkpt lat="44.35332" lon="4.03688">
        <ele>869</ele>
        <time>2018-04-16T11:39:25Z</time>
      </trkpt>
      <trkpt lat="44.35332" lon="4.03691">
        <ele>868</ele>
        <time>2018-04-16T11:39:27Z</time>
      </trkpt>
      <trkpt lat="44.35336" lon="4.03696">
        <ele>868</ele>
        <time>2018-04-16T11:39:34Z</time>
      </trkpt>
      <trkpt lat="44.35338" lon="4.03707">
        <ele>870</ele>
        <time>2018-04-16T11:39:46Z</time>
      </trkpt>
      <trkpt lat="44.35336" lon="4.03717">
        <ele>871</ele>
        <time>2018-04-16T11:40:02Z</time>
      </trkpt>
      <trkpt lat="44.35329" lon="4.03745">
        <ele>870</ele>
        <time>2018-04-16T11:40:11Z</time>
      </trkpt>
      <trkpt lat="44.35328" lon="4.03746">
        <ele>869</ele>
        <time>2018-04-16T11:40:15Z</time>
      </trkpt>
      <trkpt lat="44.35328" lon="4.03746">
        <ele>868</ele>
        <time>2018-04-16T11:40:20Z</time>
      </trkpt>
      <trkpt lat="44.35328" lon="4.0375">
        <ele>868</ele>
        <time>2018-04-16T11:40:24Z</time>
      </trkpt>
      <trkpt lat="44.35323" lon="4.03757">
        <ele>867</ele>
        <time>2018-04-16T11:40:34Z</time>
      </trkpt>
      <trkpt lat="44.35322" lon="4.0376">
        <ele>866</ele>
        <time>2018-04-16T11:40:38Z</time>
      </trkpt>
      <trkpt lat="44.35322" lon="4.03763">
        <ele>866</ele>
        <time>2018-04-16T11:40:42Z</time>
      </trkpt>
      <trkpt lat="44.35322" lon="4.03765">
        <ele>866</ele>
        <time>2018-04-16T11:40:45Z</time>
      </trkpt>
      <trkpt lat="44.35322" lon="4.03766">
        <ele>865</ele>
        <time>2018-04-16T11:40:46Z</time>
      </trkpt>
      <trkpt lat="44.35319" lon="4.0377">
        <ele>864</ele>
        <time>2018-04-16T11:40:50Z</time>
      </trkpt>
      <trkpt lat="44.35318" lon="4.03774">
        <ele>863</ele>
        <time>2018-04-16T11:40:57Z</time>
      </trkpt>
      <trkpt lat="44.35315" lon="4.03779">
        <ele>862</ele>
        <time>2018-04-16T11:41:12Z</time>
      </trkpt>
      <trkpt lat="44.35315" lon="4.03781">
        <ele>862</ele>
        <time>2018-04-16T11:41:13Z</time>
      </trkpt>
      <trkpt lat="44.35314" lon="4.03782">
        <ele>861</ele>
        <time>2018-04-16T11:41:19Z</time>
      </trkpt>
      <trkpt lat="44.35311" lon="4.03788">
        <ele>860</ele>
        <time>2018-04-16T11:41:23Z</time>
      </trkpt>
      <trkpt lat="44.35309" lon="4.03796">
        <ele>859</ele>
        <time>2018-04-16T11:41:30Z</time>
      </trkpt>
      <trkpt lat="44.35309" lon="4.03797">
        <ele>858</ele>
        <time>2018-04-16T11:41:33Z</time>
      </trkpt>
      <trkpt lat="44.35309" lon="4.03798">
        <ele>857</ele>
        <time>2018-04-16T11:41:36Z</time>
      </trkpt>
      <trkpt lat="44.35308" lon="4.03801">
        <ele>856</ele>
        <time>2018-04-16T11:41:40Z</time>
      </trkpt>
      <trkpt lat="44.35308" lon="4.03805">
        <ele>855</ele>
        <time>2018-04-16T11:41:48Z</time>
      </trkpt>
      <trkpt lat="44.35308" lon="4.03806">
        <ele>855</ele>
        <time>2018-04-16T11:41:49Z</time>
      </trkpt>
      <trkpt lat="44.35303" lon="4.03816">
        <ele>854</ele>
        <time>2018-04-16T11:41:54Z</time>
      </trkpt>
      <trkpt lat="44.35298" lon="4.03824">
        <ele>854</ele>
        <time>2018-04-16T11:41:56Z</time>
      </trkpt>
      <trkpt lat="44.35292" lon="4.03834">
        <ele>854</ele>
        <time>2018-04-16T11:41:58Z</time>
      </trkpt>
      <trkpt lat="44.35286" lon="4.03844">
        <ele>853</ele>
        <time>2018-04-16T11:42:00Z</time>
      </trkpt>
      <trkpt lat="44.35283" lon="4.03849">
        <ele>853</ele>
        <time>2018-04-16T11:42:01Z</time>
      </trkpt>
      <trkpt lat="44.35279" lon="4.03855">
        <ele>851</ele>
        <time>2018-04-16T11:42:03Z</time>
      </trkpt>
      <trkpt lat="44.35277" lon="4.03856">
        <ele>850</ele>
        <time>2018-04-16T11:42:04Z</time>
      </trkpt>
      <trkpt lat="44.35276" lon="4.03857">
        <ele>849</ele>
        <time>2018-04-16T11:42:05Z</time>
      </trkpt>
      <trkpt lat="44.35274" lon="4.03861">
        <ele>847</ele>
        <time>2018-04-16T11:42:07Z</time>
      </trkpt>
      <trkpt lat="44.35272" lon="4.03865">
        <ele>846</ele>
        <time>2018-04-16T11:42:08Z</time>
      </trkpt>
      <trkpt lat="44.35265" lon="4.03875">
        <ele>844</ele>
        <time>2018-04-16T11:42:11Z</time>
      </trkpt>
      <trkpt lat="44.35262" lon="4.03883">
        <ele>844</ele>
        <time>2018-04-16T11:42:13Z</time>
      </trkpt>
      <trkpt lat="44.35259" lon="4.03892">
        <ele>843</ele>
        <time>2018-04-16T11:42:15Z</time>
      </trkpt>
      <trkpt lat="44.35255" lon="4.03903">
        <ele>842</ele>
        <time>2018-04-16T11:42:17Z</time>
      </trkpt>
      <trkpt lat="44.35253" lon="4.03908">
        <ele>841</ele>
        <time>2018-04-16T11:42:18Z</time>
      </trkpt>
      <trkpt lat="44.35248" lon="4.03917">
        <ele>839</ele>
        <time>2018-04-16T11:42:20Z</time>
      </trkpt>
      <trkpt lat="44.35245" lon="4.03926">
        <ele>838</ele>
        <time>2018-04-16T11:42:22Z</time>
      </trkpt>
      <trkpt lat="44.35241" lon="4.03934">
        <ele>837</ele>
        <time>2018-04-16T11:42:24Z</time>
      </trkpt>
      <trkpt lat="44.35239" lon="4.03938">
        <ele>835</ele>
        <time>2018-04-16T11:42:25Z</time>
      </trkpt>
      <trkpt lat="44.35237" lon="4.03942">
        <ele>834</ele>
        <time>2018-04-16T11:42:26Z</time>
      </trkpt>
      <trkpt lat="44.35235" lon="4.03954">
        <ele>833</ele>
        <time>2018-04-16T11:42:29Z</time>
      </trkpt>
      <trkpt lat="44.35233" lon="4.03964">
        <ele>832</ele>
        <time>2018-04-16T11:42:32Z</time>
      </trkpt>
      <trkpt lat="44.35229" lon="4.03976">
        <ele>830</ele>
        <time>2018-04-16T11:42:36Z</time>
      </trkpt>
      <trkpt lat="44.35226" lon="4.03984">
        <ele>829</ele>
        <time>2018-04-16T11:42:38Z</time>
      </trkpt>
      <trkpt lat="44.35224" lon="4.03988">
        <ele>829</ele>
        <time>2018-04-16T11:42:39Z</time>
      </trkpt>
      <trkpt lat="44.35219" lon="4.03994">
        <ele>828</ele>
        <time>2018-04-16T11:42:42Z</time>
      </trkpt>
      <trkpt lat="44.35218" lon="4.03994">
        <ele>828</ele>
        <time>2018-04-16T11:42:43Z</time>
      </trkpt>
      <trkpt lat="44.35216" lon="4.03995">
        <ele>828</ele>
        <time>2018-04-16T11:42:44Z</time>
      </trkpt>
      <trkpt lat="44.35213" lon="4.04006">
        <ele>827</ele>
        <time>2018-04-16T11:42:49Z</time>
      </trkpt>
      <trkpt lat="44.3521" lon="4.0401">
        <ele>827</ele>
        <time>2018-04-16T11:42:51Z</time>
      </trkpt>
      <trkpt lat="44.35205" lon="4.04023">
        <ele>827</ele>
        <time>2018-04-16T11:43:01Z</time>
      </trkpt>
      <trkpt lat="44.35205" lon="4.04027">
        <ele>827</ele>
        <time>2018-04-16T11:43:03Z</time>
      </trkpt>
      <trkpt lat="44.35202" lon="4.04031">
        <ele>827</ele>
        <time>2018-04-16T11:43:06Z</time>
      </trkpt>
      <trkpt lat="44.352" lon="4.04034">
        <ele>827</ele>
        <time>2018-04-16T11:43:09Z</time>
      </trkpt>
      <trkpt lat="44.35196" lon="4.04046">
        <ele>828</ele>
        <time>2018-04-16T11:43:17Z</time>
      </trkpt>
      <trkpt lat="44.35194" lon="4.04051">
        <ele>829</ele>
        <time>2018-04-16T11:43:22Z</time>
      </trkpt>
      <trkpt lat="44.35194" lon="4.04052">
        <ele>830</ele>
        <time>2018-04-16T11:43:30Z</time>
      </trkpt>
      <trkpt lat="44.35194" lon="4.04053">
        <ele>830</ele>
        <time>2018-04-16T11:43:31Z</time>
      </trkpt>
      <trkpt lat="44.35194" lon="4.04065">
        <ele>830</ele>
        <time>2018-04-16T11:43:38Z</time>
      </trkpt>
      <trkpt lat="44.35191" lon="4.04077">
        <ele>831</ele>
        <time>2018-04-16T11:43:46Z</time>
      </trkpt>
      <trkpt lat="44.35187" lon="4.0409">
        <ele>832</ele>
        <time>2018-04-16T11:43:55Z</time>
      </trkpt>
      <trkpt lat="44.35183" lon="4.041">
        <ele>833</ele>
        <time>2018-04-16T11:44:04Z</time>
      </trkpt>
      <trkpt lat="44.35181" lon="4.0411">
        <ele>834</ele>
        <time>2018-04-16T11:44:11Z</time>
      </trkpt>
      <trkpt lat="44.35178" lon="4.04123">
        <ele>835</ele>
        <time>2018-04-16T11:44:18Z</time>
      </trkpt>
      <trkpt lat="44.35175" lon="4.0415">
        <ele>836</ele>
        <time>2018-04-16T11:44:35Z</time>
      </trkpt>
      <trkpt lat="44.35174" lon="4.04155">
        <ele>836</ele>
        <time>2018-04-16T11:44:40Z</time>
      </trkpt>
      <trkpt lat="44.35175" lon="4.04159">
        <ele>837</ele>
        <time>2018-04-16T11:44:43Z</time>
      </trkpt>
      <trkpt lat="44.35179" lon="4.0417">
        <ele>838</ele>
        <time>2018-04-16T11:44:54Z</time>
      </trkpt>
      <trkpt lat="44.35181" lon="4.04173">
        <ele>839</ele>
        <time>2018-04-16T11:45:00Z</time>
      </trkpt>
      <trkpt lat="44.3518" lon="4.04203">
        <ele>840</ele>
        <time>2018-04-16T11:45:13Z</time>
      </trkpt>
      <trkpt lat="44.35175" lon="4.04207">
        <ele>841</ele>
        <time>2018-04-16T11:45:20Z</time>
      </trkpt>
      <trkpt lat="44.35173" lon="4.04207">
        <ele>842</ele>
        <time>2018-04-16T11:45:22Z</time>
      </trkpt>
      <trkpt lat="44.35164" lon="4.04211">
        <ele>843</ele>
        <time>2018-04-16T11:45:27Z</time>
      </trkpt>
      <trkpt lat="44.35158" lon="4.04212">
        <ele>843</ele>
        <time>2018-04-16T11:45:30Z</time>
      </trkpt>
      <trkpt lat="44.35147" lon="4.04213">
        <ele>843</ele>
        <time>2018-04-16T11:45:36Z</time>
      </trkpt>
      <trkpt lat="44.3513" lon="4.04219">
        <ele>842</ele>
        <time>2018-04-16T11:45:43Z</time>
      </trkpt>
      <trkpt lat="44.35121" lon="4.04232">
        <ele>842</ele>
        <time>2018-04-16T11:45:46Z</time>
      </trkpt>
      <trkpt lat="44.35117" lon="4.04234">
        <ele>841</ele>
        <time>2018-04-16T11:45:47Z</time>
      </trkpt>
      <trkpt lat="44.35104" lon="4.04242">
        <ele>840</ele>
        <time>2018-04-16T11:45:50Z</time>
      </trkpt>
      <trkpt lat="44.35088" lon="4.04251">
        <ele>839</ele>
        <time>2018-04-16T11:45:53Z</time>
      </trkpt>
      <trkpt lat="44.35083" lon="4.04256">
        <ele>838</ele>
        <time>2018-04-16T11:45:54Z</time>
      </trkpt>
      <trkpt lat="44.35078" lon="4.04262">
        <ele>838</ele>
        <time>2018-04-16T11:45:55Z</time>
      </trkpt>
      <trkpt lat="44.35066" lon="4.04273">
        <ele>836</ele>
        <time>2018-04-16T11:45:57Z</time>
      </trkpt>
      <trkpt lat="44.3506" lon="4.0428">
        <ele>835</ele>
        <time>2018-04-16T11:45:58Z</time>
      </trkpt>
      <trkpt lat="44.3505" lon="4.04294">
        <ele>833</ele>
        <time>2018-04-16T11:46:00Z</time>
      </trkpt>
      <trkpt lat="44.35042" lon="4.04304">
        <ele>831</ele>
        <time>2018-04-16T11:46:02Z</time>
      </trkpt>
      <trkpt lat="44.35036" lon="4.04315">
        <ele>830</ele>
        <time>2018-04-16T11:46:04Z</time>
      </trkpt>
      <trkpt lat="44.3503" lon="4.04325">
        <ele>829</ele>
        <time>2018-04-16T11:46:06Z</time>
      </trkpt>
      <trkpt lat="44.35027" lon="4.0433">
        <ele>829</ele>
        <time>2018-04-16T11:46:07Z</time>
      </trkpt>
      <trkpt lat="44.35019" lon="4.04338">
        <ele>828</ele>
        <time>2018-04-16T11:46:09Z</time>
      </trkpt>
      <trkpt lat="44.35012" lon="4.04346">
        <ele>827</ele>
        <time>2018-04-16T11:46:11Z</time>
      </trkpt>
      <trkpt lat="44.35005" lon="4.04355">
        <ele>827</ele>
        <time>2018-04-16T11:46:13Z</time>
      </trkpt>
      <trkpt lat="44.34995" lon="4.0437">
        <ele>825</ele>
        <time>2018-04-16T11:46:16Z</time>
      </trkpt>
      <trkpt lat="44.34991" lon="4.04375">
        <ele>825</ele>
        <time>2018-04-16T11:46:17Z</time>
      </trkpt>
      <trkpt lat="44.34985" lon="4.04383">
        <ele>824</ele>
        <time>2018-04-16T11:46:19Z</time>
      </trkpt>
      <trkpt lat="44.34973" lon="4.04396">
        <ele>823</ele>
        <time>2018-04-16T11:46:23Z</time>
      </trkpt>
      <trkpt lat="44.34962" lon="4.04408">
        <ele>822</ele>
        <time>2018-04-16T11:46:27Z</time>
      </trkpt>
      <trkpt lat="44.34961" lon="4.04411">
        <ele>821</ele>
        <time>2018-04-16T11:46:29Z</time>
      </trkpt>
      <trkpt lat="44.3496" lon="4.04412">
        <ele>820</ele>
        <time>2018-04-16T11:46:30Z</time>
      </trkpt>
      <trkpt lat="44.34958" lon="4.04413">
        <ele>819</ele>
        <time>2018-04-16T11:46:31Z</time>
      </trkpt>
      <trkpt lat="44.34949" lon="4.04422">
        <ele>818</ele>
        <time>2018-04-16T11:46:35Z</time>
      </trkpt>
      <trkpt lat="44.34942" lon="4.04429">
        <ele>818</ele>
        <time>2018-04-16T11:46:37Z</time>
      </trkpt>
      <trkpt lat="44.34936" lon="4.04439">
        <ele>818</ele>
        <time>2018-04-16T11:46:39Z</time>
      </trkpt>
      <trkpt lat="44.34924" lon="4.04449">
        <ele>817</ele>
        <time>2018-04-16T11:46:42Z</time>
      </trkpt>
      <trkpt lat="44.34921" lon="4.04453">
        <ele>816</ele>
        <time>2018-04-16T11:46:43Z</time>
      </trkpt>
      <trkpt lat="44.34914" lon="4.04462">
        <ele>815</ele>
        <time>2018-04-16T11:46:45Z</time>
      </trkpt>
      <trkpt lat="44.34907" lon="4.04472">
        <ele>814</ele>
        <time>2018-04-16T11:46:47Z</time>
      </trkpt>
      <trkpt lat="44.349" lon="4.04481">
        <ele>813</ele>
        <time>2018-04-16T11:46:49Z</time>
      </trkpt>
      <trkpt lat="44.34897" lon="4.04486">
        <ele>812</ele>
        <time>2018-04-16T11:46:50Z</time>
      </trkpt>
      <trkpt lat="44.34893" lon="4.04492">
        <ele>811</ele>
        <time>2018-04-16T11:46:51Z</time>
      </trkpt>
      <trkpt lat="44.34885" lon="4.04506">
        <ele>810</ele>
        <time>2018-04-16T11:46:53Z</time>
      </trkpt>
      <trkpt lat="44.34873" lon="4.04526">
        <ele>809</ele>
        <time>2018-04-16T11:46:56Z</time>
      </trkpt>
      <trkpt lat="44.34866" lon="4.04537">
        <ele>809</ele>
        <time>2018-04-16T11:46:58Z</time>
      </trkpt>
      <trkpt lat="44.34857" lon="4.04548">
        <ele>808</ele>
        <time>2018-04-16T11:47:01Z</time>
      </trkpt>
      <trkpt lat="44.34853" lon="4.0456">
        <ele>807</ele>
        <time>2018-04-16T11:47:04Z</time>
      </trkpt>
      <trkpt lat="44.34851" lon="4.04563">
        <ele>806</ele>
        <time>2018-04-16T11:47:07Z</time>
      </trkpt>
      <trkpt lat="44.34834" lon="4.04605">
        <ele>806</ele>
        <time>2018-04-16T11:47:21Z</time>
      </trkpt>
      <trkpt lat="44.34829" lon="4.04615">
        <ele>805</ele>
        <time>2018-04-16T11:47:23Z</time>
      </trkpt>
      <trkpt lat="44.34815" lon="4.04642">
        <ele>804</ele>
        <time>2018-04-16T11:47:29Z</time>
      </trkpt>
      <trkpt lat="44.34812" lon="4.04646">
        <ele>803</ele>
        <time>2018-04-16T11:47:30Z</time>
      </trkpt>
      <trkpt lat="44.3481" lon="4.04652">
        <ele>802</ele>
        <time>2018-04-16T11:47:31Z</time>
      </trkpt>
      <trkpt lat="44.34804" lon="4.04663">
        <ele>801</ele>
        <time>2018-04-16T11:47:33Z</time>
      </trkpt>
      <trkpt lat="44.34797" lon="4.04675">
        <ele>800</ele>
        <time>2018-04-16T11:47:35Z</time>
      </trkpt>
      <trkpt lat="44.34794" lon="4.04681">
        <ele>799</ele>
        <time>2018-04-16T11:47:36Z</time>
      </trkpt>
      <trkpt lat="44.34787" lon="4.04693">
        <ele>799</ele>
        <time>2018-04-16T11:47:38Z</time>
      </trkpt>
      <trkpt lat="44.34773" lon="4.04707">
        <ele>798</ele>
        <time>2018-04-16T11:47:41Z</time>
      </trkpt>
      <trkpt lat="44.34767" lon="4.0471">
        <ele>797</ele>
        <time>2018-04-16T11:47:43Z</time>
      </trkpt>
      <trkpt lat="44.34763" lon="4.04712">
        <ele>795</ele>
        <time>2018-04-16T11:47:45Z</time>
      </trkpt>
      <trkpt lat="44.34761" lon="4.04712">
        <ele>794</ele>
        <time>2018-04-16T11:47:46Z</time>
      </trkpt>
      <trkpt lat="44.34756" lon="4.04713">
        <ele>793</ele>
        <time>2018-04-16T11:47:48Z</time>
      </trkpt>
      <trkpt lat="44.34751" lon="4.04714">
        <ele>791</ele>
        <time>2018-04-16T11:47:50Z</time>
      </trkpt>
      <trkpt lat="44.34742" lon="4.04713">
        <ele>790</ele>
        <time>2018-04-16T11:47:53Z</time>
      </trkpt>
      <trkpt lat="44.34731" lon="4.04714">
        <ele>789</ele>
        <time>2018-04-16T11:47:56Z</time>
      </trkpt>
      <trkpt lat="44.34724" lon="4.04712">
        <ele>788</ele>
        <time>2018-04-16T11:47:58Z</time>
      </trkpt>
      <trkpt lat="44.34719" lon="4.04713">
        <ele>787</ele>
        <time>2018-04-16T11:47:59Z</time>
      </trkpt>
      <trkpt lat="44.34714" lon="4.04714">
        <ele>786</ele>
        <time>2018-04-16T11:48:00Z</time>
      </trkpt>
      <trkpt lat="44.34706" lon="4.04716">
        <ele>785</ele>
        <time>2018-04-16T11:48:02Z</time>
      </trkpt>
      <trkpt lat="44.34701" lon="4.04716">
        <ele>784</ele>
        <time>2018-04-16T11:48:03Z</time>
      </trkpt>
      <trkpt lat="44.34697" lon="4.04715">
        <ele>782</ele>
        <time>2018-04-16T11:48:04Z</time>
      </trkpt>
      <trkpt lat="44.34688" lon="4.04715">
        <ele>780</ele>
        <time>2018-04-16T11:48:06Z</time>
      </trkpt>
      <trkpt lat="44.34684" lon="4.04715">
        <ele>779</ele>
        <time>2018-04-16T11:48:07Z</time>
      </trkpt>
      <trkpt lat="44.34679" lon="4.04715">
        <ele>778</ele>
        <time>2018-04-16T11:48:08Z</time>
      </trkpt>
      <trkpt lat="44.34674" lon="4.04715">
        <ele>776</ele>
        <time>2018-04-16T11:48:09Z</time>
      </trkpt>
      <trkpt lat="44.34663" lon="4.04713">
        <ele>774</ele>
        <time>2018-04-16T11:48:11Z</time>
      </trkpt>
      <trkpt lat="44.34658" lon="4.04715">
        <ele>773</ele>
        <time>2018-04-16T11:48:12Z</time>
      </trkpt>
      <trkpt lat="44.34649" lon="4.04717">
        <ele>771</ele>
        <time>2018-04-16T11:48:14Z</time>
      </trkpt>
      <trkpt lat="44.34646" lon="4.04717">
        <ele>770</ele>
        <time>2018-04-16T11:48:15Z</time>
      </trkpt>
      <trkpt lat="44.34641" lon="4.04718">
        <ele>768</ele>
        <time>2018-04-16T11:48:17Z</time>
      </trkpt>
      <trkpt lat="44.34639" lon="4.0472">
        <ele>767</ele>
        <time>2018-04-16T11:48:18Z</time>
      </trkpt>
      <trkpt lat="44.34637" lon="4.04722">
        <ele>766</ele>
        <time>2018-04-16T11:48:19Z</time>
      </trkpt>
      <trkpt lat="44.34635" lon="4.04725">
        <ele>765</ele>
        <time>2018-04-16T11:48:20Z</time>
      </trkpt>
      <trkpt lat="44.3463" lon="4.04734">
        <ele>763</ele>
        <time>2018-04-16T11:48:22Z</time>
      </trkpt>
      <trkpt lat="44.34616" lon="4.04758">
        <ele>762</ele>
        <time>2018-04-16T11:48:27Z</time>
      </trkpt>
      <trkpt lat="44.34602" lon="4.04772">
        <ele>761</ele>
        <time>2018-04-16T11:48:31Z</time>
      </trkpt>
      <trkpt lat="44.34595" lon="4.04782">
        <ele>759</ele>
        <time>2018-04-16T11:48:33Z</time>
      </trkpt>
      <trkpt lat="44.34583" lon="4.04803">
        <ele>758</ele>
        <time>2018-04-16T11:48:37Z</time>
      </trkpt>
      <trkpt lat="44.3458" lon="4.04808">
        <ele>758</ele>
        <time>2018-04-16T11:48:38Z</time>
      </trkpt>
      <trkpt lat="44.34576" lon="4.0482">
        <ele>757</ele>
        <time>2018-04-16T11:48:40Z</time>
      </trkpt>
      <trkpt lat="44.34564" lon="4.04853">
        <ele>756</ele>
        <time>2018-04-16T11:48:45Z</time>
      </trkpt>
      <trkpt lat="44.3456" lon="4.04858">
        <ele>755</ele>
        <time>2018-04-16T11:48:46Z</time>
      </trkpt>
      <trkpt lat="44.34554" lon="4.04868">
        <ele>754</ele>
        <time>2018-04-16T11:48:48Z</time>
      </trkpt>
      <trkpt lat="44.34543" lon="4.0488">
        <ele>752</ele>
        <time>2018-04-16T11:48:51Z</time>
      </trkpt>
      <trkpt lat="44.34536" lon="4.04888">
        <ele>751</ele>
        <time>2018-04-16T11:48:53Z</time>
      </trkpt>
      <trkpt lat="44.34529" lon="4.049">
        <ele>750</ele>
        <time>2018-04-16T11:48:55Z</time>
      </trkpt>
      <trkpt lat="44.34514" lon="4.04927">
        <ele>749</ele>
        <time>2018-04-16T11:48:59Z</time>
      </trkpt>
      <trkpt lat="44.34498" lon="4.04946">
        <ele>748</ele>
        <time>2018-04-16T11:49:02Z</time>
      </trkpt>
      <trkpt lat="44.34493" lon="4.0495">
        <ele>748</ele>
        <time>2018-04-16T11:49:03Z</time>
      </trkpt>
      <trkpt lat="44.34485" lon="4.04958">
        <ele>747</ele>
        <time>2018-04-16T11:49:05Z</time>
      </trkpt>
      <trkpt lat="44.34479" lon="4.04966">
        <ele>745</ele>
        <time>2018-04-16T11:49:07Z</time>
      </trkpt>
      <trkpt lat="44.34475" lon="4.04973">
        <ele>743</ele>
        <time>2018-04-16T11:49:09Z</time>
      </trkpt>
      <trkpt lat="44.3447" lon="4.04986">
        <ele>742</ele>
        <time>2018-04-16T11:49:12Z</time>
      </trkpt>
      <trkpt lat="44.34469" lon="4.04993">
        <ele>741</ele>
        <time>2018-04-16T11:49:14Z</time>
      </trkpt>
      <trkpt lat="44.34468" lon="4.05001">
        <ele>739</ele>
        <time>2018-04-16T11:49:18Z</time>
      </trkpt>
      <trkpt lat="44.34465" lon="4.05006">
        <ele>739</ele>
        <time>2018-04-16T11:49:20Z</time>
      </trkpt>
      <trkpt lat="44.3446" lon="4.05028">
        <ele>738</ele>
        <time>2018-04-16T11:49:25Z</time>
      </trkpt>
      <trkpt lat="44.34459" lon="4.05034">
        <ele>738</ele>
        <time>2018-04-16T11:49:26Z</time>
      </trkpt>
      <trkpt lat="44.34451" lon="4.05061">
        <ele>737</ele>
        <time>2018-04-16T11:49:30Z</time>
      </trkpt>
      <trkpt lat="44.34448" lon="4.05067">
        <ele>737</ele>
        <time>2018-04-16T11:49:31Z</time>
      </trkpt>
      <trkpt lat="44.34446" lon="4.05072">
        <ele>735</ele>
        <time>2018-04-16T11:49:32Z</time>
      </trkpt>
      <trkpt lat="44.34441" lon="4.05078">
        <ele>733</ele>
        <time>2018-04-16T11:49:34Z</time>
      </trkpt>
      <trkpt lat="44.34439" lon="4.05082">
        <ele>732</ele>
        <time>2018-04-16T11:49:35Z</time>
      </trkpt>
      <trkpt lat="44.34437" lon="4.05085">
        <ele>732</ele>
        <time>2018-04-16T11:49:36Z</time>
      </trkpt>
      <trkpt lat="44.34418" lon="4.05103">
        <ele>731</ele>
        <time>2018-04-16T11:49:45Z</time>
      </trkpt>
      <trkpt lat="44.34408" lon="4.05112">
        <ele>731</ele>
        <time>2018-04-16T11:49:52Z</time>
      </trkpt>
      <trkpt lat="44.34404" lon="4.05112">
        <ele>730</ele>
        <time>2018-04-16T11:49:54Z</time>
      </trkpt>
      <trkpt lat="44.34383" lon="4.05122">
        <ele>729</ele>
        <time>2018-04-16T11:50:01Z</time>
      </trkpt>
      <trkpt lat="44.3438" lon="4.05125">
        <ele>729</ele>
        <time>2018-04-16T11:50:02Z</time>
      </trkpt>
      <trkpt lat="44.34376" lon="4.05129">
        <ele>728</ele>
        <time>2018-04-16T11:50:03Z</time>
      </trkpt>
      <trkpt lat="44.34366" lon="4.05139">
        <ele>727</ele>
        <time>2018-04-16T11:50:06Z</time>
      </trkpt>
      <trkpt lat="44.34361" lon="4.05145">
        <ele>724</ele>
        <time>2018-04-16T11:50:08Z</time>
      </trkpt>
      <trkpt lat="44.34356" lon="4.05153">
        <ele>723</ele>
        <time>2018-04-16T11:50:10Z</time>
      </trkpt>
      <trkpt lat="44.3435" lon="4.0516">
        <ele>722</ele>
        <time>2018-04-16T11:50:12Z</time>
      </trkpt>
      <trkpt lat="44.34347" lon="4.05164">
        <ele>722</ele>
        <time>2018-04-16T11:50:13Z</time>
      </trkpt>
      <trkpt lat="44.34342" lon="4.05173">
        <ele>720</ele>
        <time>2018-04-16T11:50:15Z</time>
      </trkpt>
      <trkpt lat="44.34336" lon="4.05185">
        <ele>719</ele>
        <time>2018-04-16T11:50:18Z</time>
      </trkpt>
      <trkpt lat="44.34325" lon="4.05202">
        <ele>718</ele>
        <time>2018-04-16T11:50:23Z</time>
      </trkpt>
      <trkpt lat="44.34314" lon="4.05217">
        <ele>717</ele>
        <time>2018-04-16T11:50:27Z</time>
      </trkpt>
      <trkpt lat="44.34298" lon="4.0524">
        <ele>715</ele>
        <time>2018-04-16T11:50:34Z</time>
      </trkpt>
      <trkpt lat="44.34291" lon="4.05245">
        <ele>713</ele>
        <time>2018-04-16T11:50:37Z</time>
      </trkpt>
      <trkpt lat="44.34287" lon="4.0525">
        <ele>712</ele>
        <time>2018-04-16T11:50:39Z</time>
      </trkpt>
      <trkpt lat="44.34285" lon="4.05254">
        <ele>711</ele>
        <time>2018-04-16T11:50:40Z</time>
      </trkpt>
      <trkpt lat="44.34283" lon="4.05258">
        <ele>711</ele>
        <time>2018-04-16T11:50:41Z</time>
      </trkpt>
      <trkpt lat="44.34277" lon="4.05265">
        <ele>709</ele>
        <time>2018-04-16T11:50:43Z</time>
      </trkpt>
      <trkpt lat="44.34271" lon="4.05271">
        <ele>708</ele>
        <time>2018-04-16T11:50:45Z</time>
      </trkpt>
      <trkpt lat="44.34265" lon="4.05276">
        <ele>707</ele>
        <time>2018-04-16T11:50:47Z</time>
      </trkpt>
      <trkpt lat="44.34262" lon="4.05279">
        <ele>706</ele>
        <time>2018-04-16T11:50:48Z</time>
      </trkpt>
      <trkpt lat="44.34259" lon="4.05283">
        <ele>704</ele>
        <time>2018-04-16T11:50:49Z</time>
      </trkpt>
      <trkpt lat="44.34256" lon="4.05286">
        <ele>703</ele>
        <time>2018-04-16T11:50:50Z</time>
      </trkpt>
      <trkpt lat="44.34252" lon="4.0529">
        <ele>702</ele>
        <time>2018-04-16T11:50:51Z</time>
      </trkpt>
      <trkpt lat="44.34244" lon="4.05297">
        <ele>701</ele>
        <time>2018-04-16T11:50:53Z</time>
      </trkpt>
      <trkpt lat="44.34235" lon="4.05297">
        <ele>699</ele>
        <time>2018-04-16T11:50:56Z</time>
      </trkpt>
      <trkpt lat="44.34234" lon="4.05296">
        <ele>698</ele>
        <time>2018-04-16T11:50:57Z</time>
      </trkpt>
      <trkpt lat="44.34231" lon="4.05297">
        <ele>695</ele>
        <time>2018-04-16T11:50:58Z</time>
      </trkpt>
      <trkpt lat="44.34225" lon="4.05299">
        <ele>693</ele>
        <time>2018-04-16T11:51:00Z</time>
      </trkpt>
      <trkpt lat="44.34221" lon="4.05299">
        <ele>692</ele>
        <time>2018-04-16T11:51:01Z</time>
      </trkpt>
      <trkpt lat="44.34217" lon="4.05299">
        <ele>691</ele>
        <time>2018-04-16T11:51:02Z</time>
      </trkpt>
      <trkpt lat="44.34208" lon="4.05299">
        <ele>689</ele>
        <time>2018-04-16T11:51:04Z</time>
      </trkpt>
      <trkpt lat="44.34195" lon="4.05303">
        <ele>687</ele>
        <time>2018-04-16T11:51:08Z</time>
      </trkpt>
      <trkpt lat="44.34189" lon="4.05307">
        <ele>685</ele>
        <time>2018-04-16T11:51:10Z</time>
      </trkpt>
      <trkpt lat="44.34185" lon="4.0531">
        <ele>684</ele>
        <time>2018-04-16T11:51:11Z</time>
      </trkpt>
      <trkpt lat="44.34178" lon="4.05316">
        <ele>683</ele>
        <time>2018-04-16T11:51:13Z</time>
      </trkpt>
      <trkpt lat="44.34171" lon="4.05321">
        <ele>681</ele>
        <time>2018-04-16T11:51:15Z</time>
      </trkpt>
      <trkpt lat="44.34165" lon="4.05328">
        <ele>680</ele>
        <time>2018-04-16T11:51:17Z</time>
      </trkpt>
      <trkpt lat="44.3416" lon="4.05331">
        <ele>679</ele>
        <time>2018-04-16T11:51:18Z</time>
      </trkpt>
      <trkpt lat="44.34154" lon="4.05335">
        <ele>678</ele>
        <time>2018-04-16T11:51:19Z</time>
      </trkpt>
      <trkpt lat="44.34149" lon="4.0534">
        <ele>677</ele>
        <time>2018-04-16T11:51:20Z</time>
      </trkpt>
      <trkpt lat="44.34147" lon="4.05345">
        <ele>676</ele>
        <time>2018-04-16T11:51:21Z</time>
      </trkpt>
      <trkpt lat="44.34144" lon="4.05357">
        <ele>674</ele>
        <time>2018-04-16T11:51:23Z</time>
      </trkpt>
      <trkpt lat="44.34141" lon="4.05364">
        <ele>672</ele>
        <time>2018-04-16T11:51:25Z</time>
      </trkpt>
      <trkpt lat="44.34139" lon="4.05367">
        <ele>671</ele>
        <time>2018-04-16T11:51:26Z</time>
      </trkpt>
      <trkpt lat="44.34138" lon="4.05368">
        <ele>667</ele>
        <time>2018-04-16T11:51:27Z</time>
      </trkpt>
      <trkpt lat="44.34137" lon="4.05369">
        <ele>664</ele>
        <time>2018-04-16T11:51:28Z</time>
      </trkpt>
      <trkpt lat="44.34137" lon="4.0537">
        <ele>663</ele>
        <time>2018-04-16T11:51:29Z</time>
      </trkpt>
      <trkpt lat="44.34136" lon="4.05371">
        <ele>661</ele>
        <time>2018-04-16T11:51:31Z</time>
      </trkpt>
      <trkpt lat="44.34136" lon="4.05371">
        <ele>661</ele>
        <time>2018-04-16T11:51:32Z</time>
      </trkpt>
      <trkpt lat="44.34136" lon="4.05371">
        <ele>660</ele>
        <time>2018-04-16T11:51:33Z</time>
      </trkpt>
      <trkpt lat="44.34133" lon="4.05376">
        <ele>659</ele>
        <time>2018-04-16T11:51:45Z</time>
      </trkpt>
      <trkpt lat="44.34132" lon="4.0538">
        <ele>658</ele>
        <time>2018-04-16T11:51:59Z</time>
      </trkpt>
      <trkpt lat="44.34131" lon="4.05384">
        <ele>657</ele>
        <time>2018-04-16T11:52:06Z</time>
      </trkpt>
      <trkpt lat="44.34128" lon="4.05404">
        <ele>657</ele>
        <time>2018-04-16T11:52:10Z</time>
      </trkpt>
      <trkpt lat="44.34134" lon="4.05446">
        <ele>657</ele>
        <time>2018-04-16T11:52:16Z</time>
      </trkpt>
      <trkpt lat="44.34129" lon="4.05455">
        <ele>655</ele>
        <time>2018-04-16T11:52:18Z</time>
      </trkpt>
      <trkpt lat="44.34126" lon="4.0546">
        <ele>654</ele>
        <time>2018-04-16T11:52:19Z</time>
      </trkpt>
      <trkpt lat="44.34123" lon="4.05465">
        <ele>653</ele>
        <time>2018-04-16T11:52:20Z</time>
      </trkpt>
      <trkpt lat="44.3412" lon="4.0547">
        <ele>652</ele>
        <time>2018-04-16T11:52:21Z</time>
      </trkpt>
      <trkpt lat="44.34114" lon="4.05482">
        <ele>650</ele>
        <time>2018-04-16T11:52:23Z</time>
      </trkpt>
      <trkpt lat="44.34105" lon="4.05499">
        <ele>648</ele>
        <time>2018-04-16T11:52:25Z</time>
      </trkpt>
      <trkpt lat="44.341" lon="4.05508">
        <ele>646</ele>
        <time>2018-04-16T11:52:26Z</time>
      </trkpt>
      <trkpt lat="44.34094" lon="4.05517">
        <ele>644</ele>
        <time>2018-04-16T11:52:27Z</time>
      </trkpt>
      <trkpt lat="44.34089" lon="4.05527">
        <ele>643</ele>
        <time>2018-04-16T11:52:28Z</time>
      </trkpt>
      <trkpt lat="44.34084" lon="4.05539">
        <ele>641</ele>
        <time>2018-04-16T11:52:29Z</time>
      </trkpt>
      <trkpt lat="44.3408" lon="4.0555">
        <ele>640</ele>
        <time>2018-04-16T11:52:30Z</time>
      </trkpt>
      <trkpt lat="44.34076" lon="4.05561">
        <ele>639</ele>
        <time>2018-04-16T11:52:31Z</time>
      </trkpt>
      <trkpt lat="44.34071" lon="4.05569">
        <ele>637</ele>
        <time>2018-04-16T11:52:32Z</time>
      </trkpt>
      <trkpt lat="44.34066" lon="4.05577">
        <ele>635</ele>
        <time>2018-04-16T11:52:33Z</time>
      </trkpt>
      <trkpt lat="44.3406" lon="4.05585">
        <ele>632</ele>
        <time>2018-04-16T11:52:34Z</time>
      </trkpt>
      <trkpt lat="44.34053" lon="4.05591">
        <ele>630</ele>
        <time>2018-04-16T11:52:35Z</time>
      </trkpt>
      <trkpt lat="44.34047" lon="4.05597">
        <ele>628</ele>
        <time>2018-04-16T11:52:36Z</time>
      </trkpt>
      <trkpt lat="44.34041" lon="4.05603">
        <ele>627</ele>
        <time>2018-04-16T11:52:37Z</time>
      </trkpt>
      <trkpt lat="44.34037" lon="4.0561">
        <ele>625</ele>
        <time>2018-04-16T11:52:38Z</time>
      </trkpt>
      <trkpt lat="44.34034" lon="4.05621">
        <ele>623</ele>
        <time>2018-04-16T11:52:39Z</time>
      </trkpt>
      <trkpt lat="44.34033" lon="4.05631">
        <ele>622</ele>
        <time>2018-04-16T11:52:40Z</time>
      </trkpt>
      <trkpt lat="44.34031" lon="4.0564">
        <ele>620</ele>
        <time>2018-04-16T11:52:41Z</time>
      </trkpt>
      <trkpt lat="44.34029" lon="4.05648">
        <ele>619</ele>
        <time>2018-04-16T11:52:42Z</time>
      </trkpt>
      <trkpt lat="44.34027" lon="4.05656">
        <ele>617</ele>
        <time>2018-04-16T11:52:43Z</time>
      </trkpt>
      <trkpt lat="44.34025" lon="4.05669">
        <ele>615</ele>
        <time>2018-04-16T11:52:45Z</time>
      </trkpt>
      <trkpt lat="44.34025" lon="4.05674">
        <ele>614</ele>
        <time>2018-04-16T11:52:46Z</time>
      </trkpt>
      <trkpt lat="44.34024" lon="4.05684">
        <ele>613</ele>
        <time>2018-04-16T11:52:48Z</time>
      </trkpt>
      <trkpt lat="44.34025" lon="4.05689">
        <ele>613</ele>
        <time>2018-04-16T11:52:49Z</time>
      </trkpt>
      <trkpt lat="44.3403" lon="4.05712">
        <ele>612</ele>
        <time>2018-04-16T11:52:56Z</time>
      </trkpt>
      <trkpt lat="44.34031" lon="4.05712">
        <ele>611</ele>
        <time>2018-04-16T11:54:11Z</time>
      </trkpt>
      <trkpt lat="44.34032" lon="4.05712">
        <ele>612</ele>
        <time>2018-04-16T11:56:49Z</time>
      </trkpt>
      <trkpt lat="44.34034" lon="4.0572">
        <ele>611</ele>
        <time>2018-04-16T11:58:30Z</time>
      </trkpt>
      <trkpt lat="44.34036" lon="4.05717">
        <ele>611</ele>
        <time>2018-04-16T11:58:49Z</time>
      </trkpt>
      <trkpt lat="44.34046" lon="4.05708">
        <ele>611</ele>
        <time>2018-04-16T11:58:57Z</time>
      </trkpt>
      <trkpt lat="44.34056" lon="4.05699">
        <ele>610</ele>
        <time>2018-04-16T11:59:00Z</time>
      </trkpt>
      <trkpt lat="44.3406" lon="4.05689">
        <ele>610</ele>
        <time>2018-04-16T11:59:02Z</time>
      </trkpt>
      <trkpt lat="44.34069" lon="4.05674">
        <ele>609</ele>
        <time>2018-04-16T11:59:05Z</time>
      </trkpt>
      <trkpt lat="44.34079" lon="4.0567">
        <ele>607</ele>
        <time>2018-04-16T11:59:07Z</time>
      </trkpt>
      <trkpt lat="44.34086" lon="4.05675">
        <ele>606</ele>
        <time>2018-04-16T11:59:09Z</time>
      </trkpt>
      <trkpt lat="44.34089" lon="4.05681">
        <ele>605</ele>
        <time>2018-04-16T11:59:12Z</time>
      </trkpt>
      <trkpt lat="44.3409" lon="4.05682">
        <ele>605</ele>
        <time>2018-04-16T11:59:13Z</time>
      </trkpt>
      <trkpt lat="44.341" lon="4.05695">
        <ele>605</ele>
        <time>2018-04-16T11:59:24Z</time>
      </trkpt>
      <trkpt lat="44.34108" lon="4.057">
        <ele>606</ele>
        <time>2018-04-16T11:59:30Z</time>
      </trkpt>
      <trkpt lat="44.34117" lon="4.05702">
        <ele>607</ele>
        <time>2018-04-16T11:59:36Z</time>
      </trkpt>
      <trkpt lat="44.34123" lon="4.05704">
        <ele>608</ele>
        <time>2018-04-16T11:59:39Z</time>
      </trkpt>
      <trkpt lat="44.34131" lon="4.05708">
        <ele>609</ele>
        <time>2018-04-16T11:59:44Z</time>
      </trkpt>
      <trkpt lat="44.34143" lon="4.05713">
        <ele>610</ele>
        <time>2018-04-16T11:59:52Z</time>
      </trkpt>
      <trkpt lat="44.34159" lon="4.05716">
        <ele>611</ele>
        <time>2018-04-16T12:00:01Z</time>
      </trkpt>
      <trkpt lat="44.34165" lon="4.05718">
        <ele>612</ele>
        <time>2018-04-16T12:00:08Z</time>
      </trkpt>
      <trkpt lat="44.34168" lon="4.0572">
        <ele>613</ele>
        <time>2018-04-16T12:00:15Z</time>
      </trkpt>
      <trkpt lat="44.34169" lon="4.05721">
        <ele>613</ele>
        <time>2018-04-16T12:00:16Z</time>
      </trkpt>
      <trkpt lat="44.34215" lon="4.05762">
        <ele>613</ele>
        <time>2018-04-16T12:00:40Z</time>
      </trkpt>
      <trkpt lat="44.34239" lon="4.05761">
        <ele>613</ele>
        <time>2018-04-16T12:00:45Z</time>
      </trkpt>
      <trkpt lat="44.34249" lon="4.05763">
        <ele>612</ele>
        <time>2018-04-16T12:00:47Z</time>
      </trkpt>
      <trkpt lat="44.34258" lon="4.05765">
        <ele>611</ele>
        <time>2018-04-16T12:00:49Z</time>
      </trkpt>
      <trkpt lat="44.34264" lon="4.05764">
        <ele>610</ele>
        <time>2018-04-16T12:00:50Z</time>
      </trkpt>
      <trkpt lat="44.34282" lon="4.05759">
        <ele>609</ele>
        <time>2018-04-16T12:00:53Z</time>
      </trkpt>
      <trkpt lat="44.34294" lon="4.05757">
        <ele>609</ele>
        <time>2018-04-16T12:00:55Z</time>
      </trkpt>
      <trkpt lat="44.34309" lon="4.05754">
        <ele>608</ele>
        <time>2018-04-16T12:00:58Z</time>
      </trkpt>
      <trkpt lat="44.34328" lon="4.05767">
        <ele>608</ele>
        <time>2018-04-16T12:01:02Z</time>
      </trkpt>
      <trkpt lat="44.34333" lon="4.0578">
        <ele>607</ele>
        <time>2018-04-16T12:01:04Z</time>
      </trkpt>
      <trkpt lat="44.34342" lon="4.05807">
        <ele>607</ele>
        <time>2018-04-16T12:01:07Z</time>
      </trkpt>
      <trkpt lat="44.34351" lon="4.05828">
        <ele>607</ele>
        <time>2018-04-16T12:01:09Z</time>
      </trkpt>
      <trkpt lat="44.34365" lon="4.05866">
        <ele>606</ele>
        <time>2018-04-16T12:01:13Z</time>
      </trkpt>
      <trkpt lat="44.34367" lon="4.05876">
        <ele>605</ele>
        <time>2018-04-16T12:01:14Z</time>
      </trkpt>
      <trkpt lat="44.34369" lon="4.05885">
        <ele>604</ele>
        <time>2018-04-16T12:01:15Z</time>
      </trkpt>
      <trkpt lat="44.34372" lon="4.05893">
        <ele>603</ele>
        <time>2018-04-16T12:01:16Z</time>
      </trkpt>
      <trkpt lat="44.34375" lon="4.059">
        <ele>601</ele>
        <time>2018-04-16T12:01:17Z</time>
      </trkpt>
      <trkpt lat="44.34379" lon="4.05906">
        <ele>600</ele>
        <time>2018-04-16T12:01:18Z</time>
      </trkpt>
      <trkpt lat="44.34381" lon="4.0591">
        <ele>599</ele>
        <time>2018-04-16T12:01:19Z</time>
      </trkpt>
      <trkpt lat="44.34383" lon="4.05914">
        <ele>598</ele>
        <time>2018-04-16T12:01:21Z</time>
      </trkpt>
      <trkpt lat="44.34385" lon="4.05915">
        <ele>598</ele>
        <time>2018-04-16T12:02:17Z</time>
      </trkpt>
      <trkpt lat="44.34406" lon="4.05935">
        <ele>598</ele>
        <time>2018-04-16T12:02:24Z</time>
      </trkpt>
      <trkpt lat="44.34442" lon="4.0596">
        <ele>596</ele>
        <time>2018-04-16T12:02:30Z</time>
      </trkpt>
      <trkpt lat="44.34457" lon="4.05967">
        <ele>595</ele>
        <time>2018-04-16T12:02:32Z</time>
      </trkpt>
      <trkpt lat="44.34472" lon="4.05975">
        <ele>594</ele>
        <time>2018-04-16T12:02:34Z</time>
      </trkpt>
      <trkpt lat="44.34488" lon="4.05987">
        <ele>592</ele>
        <time>2018-04-16T12:02:36Z</time>
      </trkpt>
      <trkpt lat="44.34503" lon="4.06003">
        <ele>591</ele>
        <time>2018-04-16T12:02:38Z</time>
      </trkpt>
      <trkpt lat="44.3451" lon="4.06009">
        <ele>590</ele>
        <time>2018-04-16T12:02:39Z</time>
      </trkpt>
      <trkpt lat="44.34516" lon="4.06014">
        <ele>589</ele>
        <time>2018-04-16T12:02:40Z</time>
      </trkpt>
      <trkpt lat="44.34528" lon="4.0602">
        <ele>587</ele>
        <time>2018-04-16T12:02:42Z</time>
      </trkpt>
      <trkpt lat="44.34533" lon="4.06021">
        <ele>586</ele>
        <time>2018-04-16T12:02:43Z</time>
      </trkpt>
      <trkpt lat="44.34538" lon="4.06021">
        <ele>584</ele>
        <time>2018-04-16T12:02:44Z</time>
      </trkpt>
      <trkpt lat="44.34542" lon="4.06022">
        <ele>583</ele>
        <time>2018-04-16T12:02:45Z</time>
      </trkpt>
      <trkpt lat="44.34547" lon="4.06022">
        <ele>582</ele>
        <time>2018-04-16T12:02:46Z</time>
      </trkpt>
      <trkpt lat="44.34559" lon="4.06022">
        <ele>580</ele>
        <time>2018-04-16T12:02:48Z</time>
      </trkpt>
      <trkpt lat="44.34567" lon="4.06025">
        <ele>580</ele>
        <time>2018-04-16T12:02:49Z</time>
      </trkpt>
      <trkpt lat="44.34583" lon="4.06032">
        <ele>579</ele>
        <time>2018-04-16T12:02:51Z</time>
      </trkpt>
      <trkpt lat="44.34611" lon="4.06041">
        <ele>578</ele>
        <time>2018-04-16T12:02:54Z</time>
      </trkpt>
      <trkpt lat="44.3462" lon="4.06042">
        <ele>578</ele>
        <time>2018-04-16T12:02:55Z</time>
      </trkpt>
      <trkpt lat="44.34638" lon="4.06041">
        <ele>577</ele>
        <time>2018-04-16T12:02:57Z</time>
      </trkpt>
      <trkpt lat="44.34648" lon="4.06039">
        <ele>576</ele>
        <time>2018-04-16T12:02:58Z</time>
      </trkpt>
      <trkpt lat="44.34656" lon="4.0604">
        <ele>575</ele>
        <time>2018-04-16T12:02:59Z</time>
      </trkpt>
      <trkpt lat="44.34672" lon="4.06045">
        <ele>573</ele>
        <time>2018-04-16T12:03:01Z</time>
      </trkpt>
      <trkpt lat="44.34679" lon="4.06047">
        <ele>571</ele>
        <time>2018-04-16T12:03:02Z</time>
      </trkpt>
      <trkpt lat="44.34686" lon="4.06048">
        <ele>570</ele>
        <time>2018-04-16T12:03:03Z</time>
      </trkpt>
      <trkpt lat="44.34695" lon="4.06048">
        <ele>569</ele>
        <time>2018-04-16T12:03:05Z</time>
      </trkpt>
      <trkpt lat="44.34699" lon="4.06046">
        <ele>568</ele>
        <time>2018-04-16T12:03:06Z</time>
      </trkpt>
      <trkpt lat="44.34719" lon="4.06017">
        <ele>567</ele>
        <time>2018-04-16T12:03:12Z</time>
      </trkpt>
      <trkpt lat="44.34722" lon="4.06009">
        <ele>567</ele>
        <time>2018-04-16T12:03:13Z</time>
      </trkpt>
      <trkpt lat="44.34728" lon="4.05993">
        <ele>567</ele>
        <time>2018-04-16T12:03:15Z</time>
      </trkpt>
      <trkpt lat="44.34745" lon="4.0597">
        <ele>566</ele>
        <time>2018-04-16T12:03:18Z</time>
      </trkpt>
      <trkpt lat="44.34755" lon="4.05951">
        <ele>564</ele>
        <time>2018-04-16T12:03:20Z</time>
      </trkpt>
      <trkpt lat="44.34757" lon="4.05941">
        <ele>563</ele>
        <time>2018-04-16T12:03:21Z</time>
      </trkpt>
      <trkpt lat="44.34757" lon="4.05923">
        <ele>561</ele>
        <time>2018-04-16T12:03:23Z</time>
      </trkpt>
      <trkpt lat="44.34759" lon="4.0591">
        <ele>560</ele>
        <time>2018-04-16T12:03:25Z</time>
      </trkpt>
      <trkpt lat="44.34764" lon="4.05913">
        <ele>558</ele>
        <time>2018-04-16T12:03:27Z</time>
      </trkpt>
      <trkpt lat="44.34767" lon="4.0592">
        <ele>557</ele>
        <time>2018-04-16T12:03:28Z</time>
      </trkpt>
      <trkpt lat="44.34768" lon="4.05932">
        <ele>555</ele>
        <time>2018-04-16T12:03:30Z</time>
      </trkpt>
      <trkpt lat="44.34771" lon="4.05948">
        <ele>554</ele>
        <time>2018-04-16T12:03:34Z</time>
      </trkpt>
      <trkpt lat="44.3477" lon="4.05954">
        <ele>552</ele>
        <time>2018-04-16T12:03:36Z</time>
      </trkpt>
      <trkpt lat="44.34769" lon="4.0596">
        <ele>551</ele>
        <time>2018-04-16T12:03:38Z</time>
      </trkpt>
      <trkpt lat="44.34768" lon="4.05963">
        <ele>551</ele>
        <time>2018-04-16T12:03:39Z</time>
      </trkpt>
      <trkpt lat="44.34768" lon="4.05969">
        <ele>549</ele>
        <time>2018-04-16T12:03:45Z</time>
      </trkpt>
      <trkpt lat="44.3477" lon="4.0597">
        <ele>548</ele>
        <time>2018-04-16T12:03:49Z</time>
      </trkpt>
      <trkpt lat="44.34772" lon="4.0597">
        <ele>548</ele>
        <time>2018-04-16T12:03:56Z</time>
      </trkpt>
      <trkpt lat="44.34784" lon="4.0595">
        <ele>547</ele>
        <time>2018-04-16T12:04:06Z</time>
      </trkpt>
      <trkpt lat="44.34788" lon="4.05942">
        <ele>546</ele>
        <time>2018-04-16T12:04:10Z</time>
      </trkpt>
      <trkpt lat="44.34789" lon="4.05939">
        <ele>546</ele>
        <time>2018-04-16T12:04:12Z</time>
      </trkpt>
      <trkpt lat="44.34797" lon="4.05929">
        <ele>544</ele>
        <time>2018-04-16T12:04:49Z</time>
      </trkpt>
      <trkpt lat="44.34799" lon="4.05929">
        <ele>544</ele>
        <time>2018-04-16T12:04:51Z</time>
      </trkpt>
      <trkpt lat="44.34803" lon="4.0593">
        <ele>543</ele>
        <time>2018-04-16T12:04:56Z</time>
      </trkpt>
      <trkpt lat="44.34805" lon="4.05932">
        <ele>542</ele>
        <time>2018-04-16T12:04:58Z</time>
      </trkpt>
      <trkpt lat="44.34807" lon="4.05933">
        <ele>541</ele>
        <time>2018-04-16T12:05:00Z</time>
      </trkpt>
      <trkpt lat="44.34813" lon="4.05937">
        <ele>539</ele>
        <time>2018-04-16T12:05:03Z</time>
      </trkpt>
      <trkpt lat="44.34816" lon="4.05938">
        <ele>538</ele>
        <time>2018-04-16T12:05:06Z</time>
      </trkpt>
      <trkpt lat="44.34817" lon="4.05938">
        <ele>536</ele>
        <time>2018-04-16T12:05:08Z</time>
      </trkpt>
      <trkpt lat="44.34818" lon="4.05937">
        <ele>535</ele>
        <time>2018-04-16T12:05:10Z</time>
      </trkpt>
      <trkpt lat="44.34818" lon="4.05937">
        <ele>534</ele>
        <time>2018-04-16T12:05:12Z</time>
      </trkpt>
      <trkpt lat="44.3482" lon="4.05936">
        <ele>533</ele>
        <time>2018-04-16T12:05:15Z</time>
      </trkpt>
      <trkpt lat="44.34822" lon="4.05933">
        <ele>531</ele>
        <time>2018-04-16T12:05:20Z</time>
      </trkpt>
      <trkpt lat="44.34824" lon="4.0593">
        <ele>530</ele>
        <time>2018-04-16T12:05:26Z</time>
      </trkpt>
      <trkpt lat="44.34826" lon="4.05928">
        <ele>530</ele>
        <time>2018-04-16T12:05:28Z</time>
      </trkpt>
      <trkpt lat="44.34835" lon="4.05921">
        <ele>529</ele>
        <time>2018-04-16T12:05:33Z</time>
      </trkpt>
      <trkpt lat="44.34859" lon="4.05922">
        <ele>528</ele>
        <time>2018-04-16T12:05:41Z</time>
      </trkpt>
      <trkpt lat="44.34883" lon="4.05924">
        <ele>527</ele>
        <time>2018-04-16T12:05:48Z</time>
      </trkpt>
      <trkpt lat="44.34906" lon="4.05916">
        <ele>526</ele>
        <time>2018-04-16T12:05:56Z</time>
      </trkpt>
      <trkpt lat="44.34939" lon="4.05894">
        <ele>524</ele>
        <time>2018-04-16T12:06:05Z</time>
      </trkpt>
      <trkpt lat="44.34974" lon="4.05876">
        <ele>524</ele>
        <time>2018-04-16T12:06:13Z</time>
      </trkpt>
      <trkpt lat="44.34979" lon="4.05875">
        <ele>523</ele>
        <time>2018-04-16T12:06:14Z</time>
      </trkpt>
      <trkpt lat="44.34988" lon="4.05875">
        <ele>523</ele>
        <time>2018-04-16T12:06:16Z</time>
      </trkpt>
      <trkpt lat="44.35001" lon="4.05874">
        <ele>522</ele>
        <time>2018-04-16T12:06:19Z</time>
      </trkpt>
      <trkpt lat="44.35006" lon="4.05872">
        <ele>522</ele>
        <time>2018-04-16T12:06:20Z</time>
      </trkpt>
      <trkpt lat="44.35033" lon="4.05852">
        <ele>521</ele>
        <time>2018-04-16T12:06:26Z</time>
      </trkpt>
      <trkpt lat="44.35071" lon="4.05851">
        <ele>520</ele>
        <time>2018-04-16T12:06:34Z</time>
      </trkpt>
      <trkpt lat="44.35092" lon="4.05867">
        <ele>519</ele>
        <time>2018-04-16T12:06:38Z</time>
      </trkpt>
      <trkpt lat="44.35109" lon="4.05889">
        <ele>519</ele>
        <time>2018-04-16T12:06:42Z</time>
      </trkpt>
      <trkpt lat="44.35117" lon="4.059">
        <ele>518</ele>
        <time>2018-04-16T12:06:44Z</time>
      </trkpt>
      <trkpt lat="44.35122" lon="4.05904">
        <ele>518</ele>
        <time>2018-04-16T12:06:45Z</time>
      </trkpt>
      <trkpt lat="44.35131" lon="4.05911">
        <ele>517</ele>
        <time>2018-04-16T12:06:47Z</time>
      </trkpt>
      <trkpt lat="44.35144" lon="4.05917">
        <ele>516</ele>
        <time>2018-04-16T12:06:50Z</time>
      </trkpt>
      <trkpt lat="44.35168" lon="4.05925">
        <ele>515</ele>
        <time>2018-04-16T12:06:55Z</time>
      </trkpt>
      <trkpt lat="44.35173" lon="4.05926">
        <ele>515</ele>
        <time>2018-04-16T12:06:56Z</time>
      </trkpt>
      <trkpt lat="44.35205" lon="4.05931">
        <ele>514</ele>
        <time>2018-04-16T12:07:03Z</time>
      </trkpt>
      <trkpt lat="44.35211" lon="4.05933">
        <ele>514</ele>
        <time>2018-04-16T12:07:04Z</time>
      </trkpt>
      <trkpt lat="44.35224" lon="4.0595">
        <ele>513</ele>
        <time>2018-04-16T12:07:08Z</time>
      </trkpt>
      <trkpt lat="44.35245" lon="4.06">
        <ele>514</ele>
        <time>2018-04-16T12:07:24Z</time>
      </trkpt>
      <trkpt lat="44.35246" lon="4.06015">
        <ele>514</ele>
        <time>2018-04-16T12:07:31Z</time>
      </trkpt>
      <trkpt lat="44.35245" lon="4.06024">
        <ele>513</ele>
        <time>2018-04-16T12:07:35Z</time>
      </trkpt>
      <trkpt lat="44.35247" lon="4.06027">
        <ele>513</ele>
        <time>2018-04-16T12:07:37Z</time>
      </trkpt>
      <trkpt lat="44.3525" lon="4.06033">
        <ele>511</ele>
        <time>2018-04-16T12:07:40Z</time>
      </trkpt>
      <trkpt lat="44.35253" lon="4.06039">
        <ele>510</ele>
        <time>2018-04-16T12:07:42Z</time>
      </trkpt>
      <trkpt lat="44.35255" lon="4.06045">
        <ele>509</ele>
        <time>2018-04-16T12:07:44Z</time>
      </trkpt>
      <trkpt lat="44.35257" lon="4.06052">
        <ele>508</ele>
        <time>2018-04-16T12:07:46Z</time>
      </trkpt>
      <trkpt lat="44.35262" lon="4.06065">
        <ele>505</ele>
        <time>2018-04-16T12:07:50Z</time>
      </trkpt>
      <trkpt lat="44.35263" lon="4.06068">
        <ele>504</ele>
        <time>2018-04-16T12:07:52Z</time>
      </trkpt>
      <trkpt lat="44.35263" lon="4.06069">
        <ele>502</ele>
        <time>2018-04-16T12:07:54Z</time>
      </trkpt>
      <trkpt lat="44.35264" lon="4.0607">
        <ele>501</ele>
        <time>2018-04-16T12:07:57Z</time>
      </trkpt>
      <trkpt lat="44.35264" lon="4.0607">
        <ele>500</ele>
        <time>2018-04-16T12:08:01Z</time>
      </trkpt>
      <trkpt lat="44.35264" lon="4.0607">
        <ele>500</ele>
        <time>2018-04-16T12:08:26Z</time>
      </trkpt>
      <trkpt lat="44.3527" lon="4.06077">
        <ele>500</ele>
        <time>2018-04-16T12:09:09Z</time>
      </trkpt>
      <trkpt lat="44.35289" lon="4.06081">
        <ele>500</ele>
        <time>2018-04-16T12:09:13Z</time>
      </trkpt>
      <trkpt lat="44.35306" lon="4.06087">
        <ele>499</ele>
        <time>2018-04-16T12:09:16Z</time>
      </trkpt>
      <trkpt lat="44.35316" lon="4.06091">
        <ele>497</ele>
        <time>2018-04-16T12:09:18Z</time>
      </trkpt>
      <trkpt lat="44.3532" lon="4.06093">
        <ele>496</ele>
        <time>2018-04-16T12:09:19Z</time>
      </trkpt>
      <trkpt lat="44.35327" lon="4.06096">
        <ele>494</ele>
        <time>2018-04-16T12:09:21Z</time>
      </trkpt>
      <trkpt lat="44.35337" lon="4.06104">
        <ele>493</ele>
        <time>2018-04-16T12:09:24Z</time>
      </trkpt>
      <trkpt lat="44.35377" lon="4.06153">
        <ele>493</ele>
        <time>2018-04-16T12:09:36Z</time>
      </trkpt>
      <trkpt lat="44.35384" lon="4.06173">
        <ele>492</ele>
        <time>2018-04-16T12:09:42Z</time>
      </trkpt>
      <trkpt lat="44.35386" lon="4.06174">
        <ele>490</ele>
        <time>2018-04-16T12:09:44Z</time>
      </trkpt>
      <trkpt lat="44.35391" lon="4.06177">
        <ele>488</ele>
        <time>2018-04-16T12:09:48Z</time>
      </trkpt>
      <trkpt lat="44.35392" lon="4.06182">
        <ele>487</ele>
        <time>2018-04-16T12:09:50Z</time>
      </trkpt>
      <trkpt lat="44.35392" lon="4.06184">
        <ele>486</ele>
        <time>2018-04-16T12:09:51Z</time>
      </trkpt>
      <trkpt lat="44.35394" lon="4.06187">
        <ele>486</ele>
        <time>2018-04-16T12:09:52Z</time>
      </trkpt>
      <trkpt lat="44.35396" lon="4.06193">
        <ele>484</ele>
        <time>2018-04-16T12:09:55Z</time>
      </trkpt>
      <trkpt lat="44.35394" lon="4.06199">
        <ele>483</ele>
        <time>2018-04-16T12:09:58Z</time>
      </trkpt>
      <trkpt lat="44.35393" lon="4.06202">
        <ele>482</ele>
        <time>2018-04-16T12:10:00Z</time>
      </trkpt>
      <trkpt lat="44.35393" lon="4.06206">
        <ele>480</ele>
        <time>2018-04-16T12:10:03Z</time>
      </trkpt>
      <trkpt lat="44.35393" lon="4.06206">
        <ele>479</ele>
        <time>2018-04-16T12:10:05Z</time>
      </trkpt>
      <trkpt lat="44.35396" lon="4.06208">
        <ele>477</ele>
        <time>2018-04-16T12:10:07Z</time>
      </trkpt>
      <trkpt lat="44.35401" lon="4.0621">
        <ele>476</ele>
        <time>2018-04-16T12:10:09Z</time>
      </trkpt>
      <trkpt lat="44.35408" lon="4.06211">
        <ele>475</ele>
        <time>2018-04-16T12:10:12Z</time>
      </trkpt>
      <trkpt lat="44.35413" lon="4.06211">
        <ele>473</ele>
        <time>2018-04-16T12:10:16Z</time>
      </trkpt>
      <trkpt lat="44.35415" lon="4.06212">
        <ele>472</ele>
        <time>2018-04-16T12:10:18Z</time>
      </trkpt>
      <trkpt lat="44.35416" lon="4.06221">
        <ele>471</ele>
        <time>2018-04-16T12:10:21Z</time>
      </trkpt>
      <trkpt lat="44.35416" lon="4.06227">
        <ele>469</ele>
        <time>2018-04-16T12:10:24Z</time>
      </trkpt>
      <trkpt lat="44.35418" lon="4.06229">
        <ele>468</ele>
        <time>2018-04-16T12:10:27Z</time>
      </trkpt>
      <trkpt lat="44.35421" lon="4.06229">
        <ele>467</ele>
        <time>2018-04-16T12:10:29Z</time>
      </trkpt>
      <trkpt lat="44.35422" lon="4.06228">
        <ele>466</ele>
        <time>2018-04-16T12:10:30Z</time>
      </trkpt>
      <trkpt lat="44.35424" lon="4.06227">
        <ele>465</ele>
        <time>2018-04-16T12:10:31Z</time>
      </trkpt>
      <trkpt lat="44.35427" lon="4.06225">
        <ele>464</ele>
        <time>2018-04-16T12:10:34Z</time>
      </trkpt>
      <trkpt lat="44.35428" lon="4.06226">
        <ele>463</ele>
        <time>2018-04-16T12:10:38Z</time>
      </trkpt>
      <trkpt lat="44.35428" lon="4.06227">
        <ele>462</ele>
        <time>2018-04-16T12:10:39Z</time>
      </trkpt>
      <trkpt lat="44.35427" lon="4.06231">
        <ele>461</ele>
        <time>2018-04-16T12:10:41Z</time>
      </trkpt>
      <trkpt lat="44.35424" lon="4.06254">
        <ele>460</ele>
        <time>2018-04-16T12:10:47Z</time>
      </trkpt>
      <trkpt lat="44.35422" lon="4.0627">
        <ele>459</ele>
        <time>2018-04-16T12:10:50Z</time>
      </trkpt>
      <trkpt lat="44.3542" lon="4.06276">
        <ele>458</ele>
        <time>2018-04-16T12:10:51Z</time>
      </trkpt>
      <trkpt lat="44.35416" lon="4.06284">
        <ele>456</ele>
        <time>2018-04-16T12:10:53Z</time>
      </trkpt>
      <trkpt lat="44.35413" lon="4.06287">
        <ele>456</ele>
        <time>2018-04-16T12:10:54Z</time>
      </trkpt>
      <trkpt lat="44.35412" lon="4.06289">
        <ele>454</ele>
        <time>2018-04-16T12:10:55Z</time>
      </trkpt>
      <trkpt lat="44.35411" lon="4.06292">
        <ele>453</ele>
        <time>2018-04-16T12:10:56Z</time>
      </trkpt>
      <trkpt lat="44.35411" lon="4.06293">
        <ele>451</ele>
        <time>2018-04-16T12:10:57Z</time>
      </trkpt>
      <trkpt lat="44.35412" lon="4.06295">
        <ele>449</ele>
        <time>2018-04-16T12:10:58Z</time>
      </trkpt>
      <trkpt lat="44.35413" lon="4.06297">
        <ele>448</ele>
        <time>2018-04-16T12:10:59Z</time>
      </trkpt>
      <trkpt lat="44.35414" lon="4.06301">
        <ele>447</ele>
        <time>2018-04-16T12:11:00Z</time>
      </trkpt>
      <trkpt lat="44.35413" lon="4.06303">
        <ele>446</ele>
        <time>2018-04-16T12:11:01Z</time>
      </trkpt>
      <trkpt lat="44.35412" lon="4.06305">
        <ele>445</ele>
        <time>2018-04-16T12:11:02Z</time>
      </trkpt>
      <trkpt lat="44.35412" lon="4.06308">
        <ele>443</ele>
        <time>2018-04-16T12:11:04Z</time>
      </trkpt>
      <trkpt lat="44.35412" lon="4.06309">
        <ele>443</ele>
        <time>2018-04-16T12:11:05Z</time>
      </trkpt>
      <trkpt lat="44.35412" lon="4.06312">
        <ele>442</ele>
        <time>2018-04-16T12:11:06Z</time>
      </trkpt>
      <trkpt lat="44.35416" lon="4.06316">
        <ele>441</ele>
        <time>2018-04-16T12:11:09Z</time>
      </trkpt>
      <trkpt lat="44.35419" lon="4.06317">
        <ele>440</ele>
        <time>2018-04-16T12:11:11Z</time>
      </trkpt>
      <trkpt lat="44.35421" lon="4.0632">
        <ele>438</ele>
        <time>2018-04-16T12:11:14Z</time>
      </trkpt>
      <trkpt lat="44.35422" lon="4.06322">
        <ele>437</ele>
        <time>2018-04-16T12:11:16Z</time>
      </trkpt>
      <trkpt lat="44.35421" lon="4.06324">
        <ele>436</ele>
        <time>2018-04-16T12:11:17Z</time>
      </trkpt>
      <trkpt lat="44.3542" lon="4.06328">
        <ele>436</ele>
        <time>2018-04-16T12:11:19Z</time>
      </trkpt>
      <trkpt lat="44.3542" lon="4.06336">
        <ele>435</ele>
        <time>2018-04-16T12:11:21Z</time>
      </trkpt>
      <trkpt lat="44.3542" lon="4.0634">
        <ele>435</ele>
        <time>2018-04-16T12:11:22Z</time>
      </trkpt>
      <trkpt lat="44.35419" lon="4.06359">
        <ele>433</ele>
        <time>2018-04-16T12:11:26Z</time>
      </trkpt>
      <trkpt lat="44.3542" lon="4.06366">
        <ele>432</ele>
        <time>2018-04-16T12:11:29Z</time>
      </trkpt>
      <trkpt lat="44.35421" lon="4.06367">
        <ele>431</ele>
        <time>2018-04-16T12:11:30Z</time>
      </trkpt>
      <trkpt lat="44.35422" lon="4.06368">
        <ele>429</ele>
        <time>2018-04-16T12:11:31Z</time>
      </trkpt>
      <trkpt lat="44.35423" lon="4.06368">
        <ele>428</ele>
        <time>2018-04-16T12:11:32Z</time>
      </trkpt>
      <trkpt lat="44.35424" lon="4.06369">
        <ele>426</ele>
        <time>2018-04-16T12:11:34Z</time>
      </trkpt>
      <trkpt lat="44.35424" lon="4.0637">
        <ele>425</ele>
        <time>2018-04-16T12:11:35Z</time>
      </trkpt>
      <trkpt lat="44.35424" lon="4.0637">
        <ele>424</ele>
        <time>2018-04-16T12:11:37Z</time>
      </trkpt>
      <trkpt lat="44.35424" lon="4.06371">
        <ele>422</ele>
        <time>2018-04-16T12:11:39Z</time>
      </trkpt>
      <trkpt lat="44.35423" lon="4.06376">
        <ele>421</ele>
        <time>2018-04-16T12:11:57Z</time>
      </trkpt>
      <trkpt lat="44.35419" lon="4.06388">
        <ele>421</ele>
        <time>2018-04-16T12:12:03Z</time>
      </trkpt>
      <trkpt lat="44.35424" lon="4.06393">
        <ele>420</ele>
        <time>2018-04-16T12:12:08Z</time>
      </trkpt>
      <trkpt lat="44.35424" lon="4.06396">
        <ele>419</ele>
        <time>2018-04-16T12:12:10Z</time>
      </trkpt>
      <trkpt lat="44.3542" lon="4.06403">
        <ele>417</ele>
        <time>2018-04-16T12:12:13Z</time>
      </trkpt>
      <trkpt lat="44.35419" lon="4.06407">
        <ele>416</ele>
        <time>2018-04-16T12:12:15Z</time>
      </trkpt>
      <trkpt lat="44.35419" lon="4.06409">
        <ele>416</ele>
        <time>2018-04-16T12:12:16Z</time>
      </trkpt>
      <trkpt lat="44.35421" lon="4.06419">
        <ele>415</ele>
        <time>2018-04-16T12:12:20Z</time>
      </trkpt>
      <trkpt lat="44.35418" lon="4.06421">
        <ele>413</ele>
        <time>2018-04-16T12:12:23Z</time>
      </trkpt>
      <trkpt lat="44.35418" lon="4.06426">
        <ele>412</ele>
        <time>2018-04-16T12:12:25Z</time>
      </trkpt>
      <trkpt lat="44.3542" lon="4.06432">
        <ele>411</ele>
        <time>2018-04-16T12:12:27Z</time>
      </trkpt>
      <trkpt lat="44.35422" lon="4.06438">
        <ele>409</ele>
        <time>2018-04-16T12:12:30Z</time>
      </trkpt>
      <trkpt lat="44.35423" lon="4.06439">
        <ele>409</ele>
        <time>2018-04-16T12:12:31Z</time>
      </trkpt>
      <trkpt lat="44.35427" lon="4.06441">
        <ele>407</ele>
        <time>2018-04-16T12:12:33Z</time>
      </trkpt>
      <trkpt lat="44.35429" lon="4.06442">
        <ele>407</ele>
        <time>2018-04-16T12:12:34Z</time>
      </trkpt>
      <trkpt lat="44.3543" lon="4.06444">
        <ele>406</ele>
        <time>2018-04-16T12:12:35Z</time>
      </trkpt>
      <trkpt lat="44.35432" lon="4.06457">
        <ele>405</ele>
        <time>2018-04-16T12:12:38Z</time>
      </trkpt>
      <trkpt lat="44.35425" lon="4.06464">
        <ele>403</ele>
        <time>2018-04-16T12:12:41Z</time>
      </trkpt>
      <trkpt lat="44.3542" lon="4.06464">
        <ele>402</ele>
        <time>2018-04-16T12:12:45Z</time>
      </trkpt>
      <trkpt lat="44.3542" lon="4.06466">
        <ele>402</ele>
        <time>2018-04-16T12:12:46Z</time>
      </trkpt>
      <trkpt lat="44.35421" lon="4.0647">
        <ele>401</ele>
        <time>2018-04-16T12:12:47Z</time>
      </trkpt>
      <trkpt lat="44.35422" lon="4.0648">
        <ele>400</ele>
        <time>2018-04-16T12:12:49Z</time>
      </trkpt>
      <trkpt lat="44.35424" lon="4.06494">
        <ele>399</ele>
        <time>2018-04-16T12:12:51Z</time>
      </trkpt>
      <trkpt lat="44.35429" lon="4.06503">
        <ele>397</ele>
        <time>2018-04-16T12:12:53Z</time>
      </trkpt>
      <trkpt lat="44.35435" lon="4.06508">
        <ele>396</ele>
        <time>2018-04-16T12:12:55Z</time>
      </trkpt>
      <trkpt lat="44.35438" lon="4.06509">
        <ele>395</ele>
        <time>2018-04-16T12:12:56Z</time>
      </trkpt>
      <trkpt lat="44.3544" lon="4.06508">
        <ele>394</ele>
        <time>2018-04-16T12:12:57Z</time>
      </trkpt>
      <trkpt lat="44.35443" lon="4.06507">
        <ele>393</ele>
        <time>2018-04-16T12:12:58Z</time>
      </trkpt>
      <trkpt lat="44.35447" lon="4.06505">
        <ele>391</ele>
        <time>2018-04-16T12:13:00Z</time>
      </trkpt>
      <trkpt lat="44.3545" lon="4.06504">
        <ele>389</ele>
        <time>2018-04-16T12:13:02Z</time>
      </trkpt>
      <trkpt lat="44.35452" lon="4.06506">
        <ele>387</ele>
        <time>2018-04-16T12:13:04Z</time>
      </trkpt>
      <trkpt lat="44.35453" lon="4.06509">
        <ele>385</ele>
        <time>2018-04-16T12:13:05Z</time>
      </trkpt>
      <trkpt lat="44.35452" lon="4.06517">
        <ele>384</ele>
        <time>2018-04-16T12:13:07Z</time>
      </trkpt>
      <trkpt lat="44.35447" lon="4.06532">
        <ele>383</ele>
        <time>2018-04-16T12:13:10Z</time>
      </trkpt>
      <trkpt lat="44.35445" lon="4.06537">
        <ele>383</ele>
        <time>2018-04-16T12:13:11Z</time>
      </trkpt>
      <trkpt lat="44.35441" lon="4.06546">
        <ele>382</ele>
        <time>2018-04-16T12:13:14Z</time>
      </trkpt>
      <trkpt lat="44.35443" lon="4.06547">
        <ele>380</ele>
        <time>2018-04-16T12:13:17Z</time>
      </trkpt>
      <trkpt lat="44.35447" lon="4.06547">
        <ele>378</ele>
        <time>2018-04-16T12:13:19Z</time>
      </trkpt>
      <trkpt lat="44.3545" lon="4.06546">
        <ele>377</ele>
        <time>2018-04-16T12:13:21Z</time>
      </trkpt>
      <trkpt lat="44.35452" lon="4.06548">
        <ele>376</ele>
        <time>2018-04-16T12:13:23Z</time>
      </trkpt>
      <trkpt lat="44.35451" lon="4.06549">
        <ele>375</ele>
        <time>2018-04-16T12:13:24Z</time>
      </trkpt>
      <trkpt lat="44.35449" lon="4.06553">
        <ele>374</ele>
        <time>2018-04-16T12:13:26Z</time>
      </trkpt>
      <trkpt lat="44.35444" lon="4.0656">
        <ele>373</ele>
        <time>2018-04-16T12:13:28Z</time>
      </trkpt>
      <trkpt lat="44.35442" lon="4.06565">
        <ele>372</ele>
        <time>2018-04-16T12:13:29Z</time>
      </trkpt>
      <trkpt lat="44.35432" lon="4.06575">
        <ele>371</ele>
        <time>2018-04-16T12:13:33Z</time>
      </trkpt>
      <trkpt lat="44.35432" lon="4.06581">
        <ele>370</ele>
        <time>2018-04-16T12:13:37Z</time>
      </trkpt>
      <trkpt lat="44.35434" lon="4.06583">
        <ele>368</ele>
        <time>2018-04-16T12:13:39Z</time>
      </trkpt>
      <trkpt lat="44.35437" lon="4.06583">
        <ele>366</ele>
        <time>2018-04-16T12:13:42Z</time>
      </trkpt>
      <trkpt lat="44.35439" lon="4.06583">
        <ele>365</ele>
        <time>2018-04-16T12:13:44Z</time>
      </trkpt>
      <trkpt lat="44.35439" lon="4.06585">
        <ele>364</ele>
        <time>2018-04-16T12:13:47Z</time>
      </trkpt>
      <trkpt lat="44.35432" lon="4.06592">
        <ele>363</ele>
        <time>2018-04-16T12:13:51Z</time>
      </trkpt>
      <trkpt lat="44.35426" lon="4.06595">
        <ele>362</ele>
        <time>2018-04-16T12:13:59Z</time>
      </trkpt>
      <trkpt lat="44.35426" lon="4.06596">
        <ele>362</ele>
        <time>2018-04-16T12:14:00Z</time>
      </trkpt>
      <trkpt lat="44.3543" lon="4.06605">
        <ele>361</ele>
        <time>2018-04-16T12:14:03Z</time>
      </trkpt>
      <trkpt lat="44.35431" lon="4.06606">
        <ele>361</ele>
        <time>2018-04-16T12:14:04Z</time>
      </trkpt>
      <trkpt lat="44.3544" lon="4.06608">
        <ele>359</ele>
        <time>2018-04-16T12:14:08Z</time>
      </trkpt>
      <trkpt lat="44.35448" lon="4.06606">
        <ele>358</ele>
        <time>2018-04-16T12:14:11Z</time>
      </trkpt>
      <trkpt lat="44.35452" lon="4.06604">
        <ele>358</ele>
        <time>2018-04-16T12:14:12Z</time>
      </trkpt>
      <trkpt lat="44.35459" lon="4.066">
        <ele>357</ele>
        <time>2018-04-16T12:14:14Z</time>
      </trkpt>
      <trkpt lat="44.35463" lon="4.06599">
        <ele>356</ele>
        <time>2018-04-16T12:14:16Z</time>
      </trkpt>
      <trkpt lat="44.35463" lon="4.066">
        <ele>356</ele>
        <time>2018-04-16T12:14:17Z</time>
      </trkpt>
      <trkpt lat="44.3546" lon="4.06603">
        <ele>354</ele>
        <time>2018-04-16T12:14:20Z</time>
      </trkpt>
      <trkpt lat="44.3546" lon="4.06607">
        <ele>352</ele>
        <time>2018-04-16T12:14:22Z</time>
      </trkpt>
      <trkpt lat="44.35459" lon="4.06613">
        <ele>351</ele>
        <time>2018-04-16T12:14:25Z</time>
      </trkpt>
      <trkpt lat="44.35457" lon="4.06618">
        <ele>349</ele>
        <time>2018-04-16T12:14:31Z</time>
      </trkpt>
      <trkpt lat="44.35454" lon="4.06623">
        <ele>347</ele>
        <time>2018-04-16T12:14:33Z</time>
      </trkpt>
      <trkpt lat="44.35452" lon="4.06627">
        <ele>346</ele>
        <time>2018-04-16T12:14:35Z</time>
      </trkpt>
      <trkpt lat="44.35451" lon="4.06629">
        <ele>346</ele>
        <time>2018-04-16T12:14:36Z</time>
      </trkpt>
      <trkpt lat="44.3544" lon="4.06644">
        <ele>345</ele>
        <time>2018-04-16T12:14:41Z</time>
      </trkpt>
      <trkpt lat="44.35428" lon="4.06657">
        <ele>344</ele>
        <time>2018-04-16T12:14:47Z</time>
      </trkpt>
      <trkpt lat="44.35428" lon="4.06658">
        <ele>344</ele>
        <time>2018-04-16T12:14:48Z</time>
      </trkpt>
      <trkpt lat="44.35429" lon="4.06661">
        <ele>343</ele>
        <time>2018-04-16T12:14:53Z</time>
      </trkpt>
      <trkpt lat="44.3543" lon="4.06662">
        <ele>342</ele>
        <time>2018-04-16T12:15:03Z</time>
      </trkpt>
      <trkpt lat="44.35431" lon="4.06662">
        <ele>342</ele>
        <time>2018-04-16T12:15:04Z</time>
      </trkpt>
      <trkpt lat="44.35431" lon="4.06662">
        <ele>342</ele>
        <time>2018-04-16T12:15:05Z</time>
      </trkpt>
      <trkpt lat="44.35443" lon="4.06661">
        <ele>342</ele>
        <time>2018-04-16T12:15:10Z</time>
      </trkpt>
      <trkpt lat="44.35447" lon="4.06655">
        <ele>340</ele>
        <time>2018-04-16T12:15:16Z</time>
      </trkpt>
      <trkpt lat="44.35448" lon="4.06654">
        <ele>339</ele>
        <time>2018-04-16T12:15:19Z</time>
      </trkpt>
      <trkpt lat="44.35447" lon="4.06655">
        <ele>339</ele>
        <time>2018-04-16T12:15:21Z</time>
      </trkpt>
      <trkpt lat="44.35445" lon="4.06659">
        <ele>338</ele>
        <time>2018-04-16T12:15:23Z</time>
      </trkpt>
      <trkpt lat="44.35438" lon="4.06674">
        <ele>337</ele>
        <time>2018-04-16T12:15:27Z</time>
      </trkpt>
      <trkpt lat="44.35431" lon="4.06682">
        <ele>336</ele>
        <time>2018-04-16T12:15:30Z</time>
      </trkpt>
      <trkpt lat="44.35429" lon="4.06686">
        <ele>334</ele>
        <time>2018-04-16T12:15:32Z</time>
      </trkpt>
      <trkpt lat="44.35425" lon="4.06691">
        <ele>333</ele>
        <time>2018-04-16T12:15:34Z</time>
      </trkpt>
      <trkpt lat="44.35421" lon="4.06694">
        <ele>331</ele>
        <time>2018-04-16T12:15:36Z</time>
      </trkpt>
      <trkpt lat="44.35416" lon="4.06696">
        <ele>330</ele>
        <time>2018-04-16T12:15:38Z</time>
      </trkpt>
      <trkpt lat="44.35409" lon="4.06699">
        <ele>329</ele>
        <time>2018-04-16T12:15:41Z</time>
      </trkpt>
      <trkpt lat="44.35407" lon="4.06701">
        <ele>328</ele>
        <time>2018-04-16T12:15:42Z</time>
      </trkpt>
      <trkpt lat="44.35406" lon="4.06703">
        <ele>327</ele>
        <time>2018-04-16T12:15:43Z</time>
      </trkpt>
      <trkpt lat="44.35406" lon="4.06706">
        <ele>326</ele>
        <time>2018-04-16T12:15:46Z</time>
      </trkpt>
      <trkpt lat="44.35408" lon="4.06719">
        <ele>324</ele>
        <time>2018-04-16T12:16:09Z</time>
      </trkpt>
      <trkpt lat="44.35409" lon="4.0672">
        <ele>323</ele>
        <time>2018-04-16T12:16:13Z</time>
      </trkpt>
      <trkpt lat="44.35409" lon="4.06721">
        <ele>322</ele>
        <time>2018-04-16T12:16:16Z</time>
      </trkpt>
      <trkpt lat="44.35409" lon="4.06724">
        <ele>321</ele>
        <time>2018-04-16T12:16:19Z</time>
      </trkpt>
      <trkpt lat="44.35409" lon="4.0673">
        <ele>320</ele>
        <time>2018-04-16T12:16:25Z</time>
      </trkpt>
      <trkpt lat="44.35411" lon="4.0673">
        <ele>320</ele>
        <time>2018-04-16T12:16:26Z</time>
      </trkpt>
      <trkpt lat="44.35415" lon="4.06731">
        <ele>319</ele>
        <time>2018-04-16T12:16:29Z</time>
      </trkpt>
      <trkpt lat="44.35415" lon="4.06732">
        <ele>318</ele>
        <time>2018-04-16T12:16:31Z</time>
      </trkpt>
      <trkpt lat="44.35415" lon="4.06733">
        <ele>316</ele>
        <time>2018-04-16T12:16:33Z</time>
      </trkpt>
      <trkpt lat="44.35414" lon="4.06734">
        <ele>316</ele>
        <time>2018-04-16T12:16:34Z</time>
      </trkpt>
      <trkpt lat="44.35413" lon="4.06736">
        <ele>315</ele>
        <time>2018-04-16T12:16:35Z</time>
      </trkpt>
      <trkpt lat="44.35405" lon="4.06741">
        <ele>314</ele>
        <time>2018-04-16T12:16:38Z</time>
      </trkpt>
      <trkpt lat="44.35391" lon="4.06746">
        <ele>313</ele>
        <time>2018-04-16T12:16:43Z</time>
      </trkpt>
      <trkpt lat="44.3539" lon="4.06748">
        <ele>312</ele>
        <time>2018-04-16T12:16:44Z</time>
      </trkpt>
      <trkpt lat="44.3539" lon="4.06751">
        <ele>310</ele>
        <time>2018-04-16T12:16:46Z</time>
      </trkpt>
      <trkpt lat="44.3539" lon="4.06754">
        <ele>309</ele>
        <time>2018-04-16T12:16:48Z</time>
      </trkpt>
      <trkpt lat="44.35391" lon="4.06758">
        <ele>308</ele>
        <time>2018-04-16T12:16:51Z</time>
      </trkpt>
      <trkpt lat="44.35386" lon="4.06786">
        <ele>308</ele>
        <time>2018-04-16T12:17:00Z</time>
      </trkpt>
      <trkpt lat="44.35371" lon="4.06817">
        <ele>306</ele>
        <time>2018-04-16T12:17:08Z</time>
      </trkpt>
      <trkpt lat="44.35352" lon="4.0685">
        <ele>305</ele>
        <time>2018-04-16T12:17:17Z</time>
      </trkpt>
      <trkpt lat="44.35335" lon="4.06923">
        <ele>305</ele>
        <time>2018-04-16T12:17:37Z</time>
      </trkpt>
      <trkpt lat="44.35333" lon="4.06975">
        <ele>305</ele>
        <time>2018-04-16T12:17:56Z</time>
      </trkpt>
      <trkpt lat="44.35336" lon="4.06987">
        <ele>306</ele>
        <time>2018-04-16T12:18:02Z</time>
      </trkpt>
      <trkpt lat="44.35336" lon="4.06992">
        <ele>306</ele>
        <time>2018-04-16T12:18:05Z</time>
      </trkpt>
      <trkpt lat="44.35359" lon="4.07036">
        <ele>306</ele>
        <time>2018-04-16T12:18:51Z</time>
      </trkpt>
      <trkpt lat="44.35372" lon="4.0703">
        <ele>305</ele>
        <time>2018-04-16T12:18:55Z</time>
      </trkpt>
      <trkpt lat="44.35381" lon="4.07021">
        <ele>304</ele>
        <time>2018-04-16T12:18:58Z</time>
      </trkpt>
      <trkpt lat="44.35387" lon="4.07015">
        <ele>303</ele>
        <time>2018-04-16T12:19:01Z</time>
      </trkpt>
      <trkpt lat="44.35404" lon="4.06998">
        <ele>303</ele>
        <time>2018-04-16T12:19:11Z</time>
      </trkpt>
      <trkpt lat="44.35413" lon="4.06993">
        <ele>304</ele>
        <time>2018-04-16T12:19:41Z</time>
      </trkpt>
      <trkpt lat="44.35413" lon="4.06992">
        <ele>304</ele>
        <time>2018-04-16T12:23:16Z</time>
      </trkpt>
      <trkpt lat="44.35413" lon="4.06991">
        <ele>304</ele>
        <time>2018-04-16T12:23:54Z</time>
      </trkpt>
      <trkpt lat="44.35413" lon="4.06991">
        <ele>304</ele>
        <time>2018-04-16T12:25:16Z</time>
      </trkpt>
      <trkpt lat="44.35413" lon="4.0699">
        <ele>304</ele>
        <time>2018-04-16T12:29:19Z</time>
      </trkpt>
      <trkpt lat="44.35413" lon="4.0699">
        <ele>304</ele>
        <time>2018-04-16T12:32:41Z</time>
      </trkpt>
      <trkpt lat="44.35413" lon="4.0699">
        <ele>304</ele>
        <time>2018-04-16T12:34:25Z</time>
      </trkpt>
      <trkpt lat="44.35413" lon="4.0699">
        <ele>304</ele>
        <time>2018-04-16T12:36:51Z</time>
      </trkpt>
      <trkpt lat="44.35416" lon="4.06993">
        <ele>304</ele>
        <time>2018-04-16T12:37:24Z</time>
      </trkpt>
      <trkpt lat="44.35429" lon="4.06998">
        <ele>305</ele>
        <time>2018-04-16T12:37:36Z</time>
      </trkpt>
      <trkpt lat="44.35433" lon="4.07">
        <ele>305</ele>
        <time>2018-04-16T12:37:39Z</time>
      </trkpt>
      <trkpt lat="44.35437" lon="4.07002">
        <ele>306</ele>
        <time>2018-04-16T12:37:42Z</time>
      </trkpt>
      <trkpt lat="44.35445" lon="4.07006">
        <ele>307</ele>
        <time>2018-04-16T12:37:48Z</time>
      </trkpt>
      <trkpt lat="44.35454" lon="4.07008">
        <ele>308</ele>
        <time>2018-04-16T12:37:54Z</time>
      </trkpt>
      <trkpt lat="44.35462" lon="4.0701">
        <ele>309</ele>
        <time>2018-04-16T12:38:00Z</time>
      </trkpt>
      <trkpt lat="44.35465" lon="4.07009">
        <ele>309</ele>
        <time>2018-04-16T12:38:02Z</time>
      </trkpt>
      <trkpt lat="44.35472" lon="4.0701">
        <ele>310</ele>
        <time>2018-04-16T12:38:07Z</time>
      </trkpt>
      <trkpt lat="44.35476" lon="4.0701">
        <ele>311</ele>
        <time>2018-04-16T12:38:11Z</time>
      </trkpt>
      <trkpt lat="44.35479" lon="4.0701">
        <ele>312</ele>
        <time>2018-04-16T12:38:14Z</time>
      </trkpt>
      <trkpt lat="44.35481" lon="4.0701">
        <ele>312</ele>
        <time>2018-04-16T12:38:16Z</time>
      </trkpt>
      <trkpt lat="44.35488" lon="4.07009">
        <ele>314</ele>
        <time>2018-04-16T12:38:24Z</time>
      </trkpt>
      <trkpt lat="44.35492" lon="4.07009">
        <ele>315</ele>
        <time>2018-04-16T12:38:31Z</time>
      </trkpt>
      <trkpt lat="44.35498" lon="4.07009">
        <ele>316</ele>
        <time>2018-04-16T12:38:41Z</time>
      </trkpt>
      <trkpt lat="44.35513" lon="4.07014">
        <ele>317</ele>
        <time>2018-04-16T12:39:11Z</time>
      </trkpt>
      <trkpt lat="44.3552" lon="4.07015">
        <ele>318</ele>
        <time>2018-04-16T12:39:17Z</time>
      </trkpt>
      <trkpt lat="44.35526" lon="4.0702">
        <ele>319</ele>
        <time>2018-04-16T12:39:23Z</time>
      </trkpt>
      <trkpt lat="44.35531" lon="4.07025">
        <ele>320</ele>
        <time>2018-04-16T12:39:28Z</time>
      </trkpt>
      <trkpt lat="44.35535" lon="4.0703">
        <ele>321</ele>
        <time>2018-04-16T12:39:33Z</time>
      </trkpt>
      <trkpt lat="44.35538" lon="4.07032">
        <ele>322</ele>
        <time>2018-04-16T12:39:36Z</time>
      </trkpt>
      <trkpt lat="44.35544" lon="4.07037">
        <ele>323</ele>
        <time>2018-04-16T12:39:42Z</time>
      </trkpt>
      <trkpt lat="44.35546" lon="4.07038">
        <ele>324</ele>
        <time>2018-04-16T12:39:44Z</time>
      </trkpt>
      <trkpt lat="44.35548" lon="4.0704">
        <ele>324</ele>
        <time>2018-04-16T12:39:46Z</time>
      </trkpt>
      <trkpt lat="44.35552" lon="4.07044">
        <ele>324</ele>
        <time>2018-04-16T12:39:51Z</time>
      </trkpt>
      <trkpt lat="44.35552" lon="4.07044">
        <ele>325</ele>
        <time>2018-04-16T12:39:59Z</time>
      </trkpt>
      <trkpt lat="44.35554" lon="4.07047">
        <ele>326</ele>
        <time>2018-04-16T12:42:14Z</time>
      </trkpt>
      <trkpt lat="44.35556" lon="4.07051">
        <ele>326</ele>
        <time>2018-04-16T12:42:18Z</time>
      </trkpt>
      <trkpt lat="44.35562" lon="4.0706">
        <ele>326</ele>
        <time>2018-04-16T12:42:26Z</time>
      </trkpt>
      <trkpt lat="44.35563" lon="4.07062">
        <ele>327</ele>
        <time>2018-04-16T12:42:28Z</time>
      </trkpt>
      <trkpt lat="44.35565" lon="4.07064">
        <ele>327</ele>
        <time>2018-04-16T12:42:30Z</time>
      </trkpt>
      <trkpt lat="44.3557" lon="4.07073">
        <ele>328</ele>
        <time>2018-04-16T12:42:37Z</time>
      </trkpt>
      <trkpt lat="44.35576" lon="4.0708">
        <ele>330</ele>
        <time>2018-04-16T12:42:44Z</time>
      </trkpt>
      <trkpt lat="44.35582" lon="4.07085">
        <ele>331</ele>
        <time>2018-04-16T12:42:51Z</time>
      </trkpt>
      <trkpt lat="44.35585" lon="4.07084">
        <ele>331</ele>
        <time>2018-04-16T12:42:56Z</time>
      </trkpt>
      <trkpt lat="44.35584" lon="4.07082">
        <ele>332</ele>
        <time>2018-04-16T12:42:57Z</time>
      </trkpt>
      <trkpt lat="44.35549" lon="4.07018">
        <ele>331</ele>
        <time>2018-04-16T12:43:17Z</time>
      </trkpt>
      <trkpt lat="44.3554" lon="4.06996">
        <ele>331</ele>
        <time>2018-04-16T12:43:22Z</time>
      </trkpt>
      <trkpt lat="44.35541" lon="4.06993">
        <ele>331</ele>
        <time>2018-04-16T12:43:23Z</time>
      </trkpt>
      <trkpt lat="44.35546" lon="4.06992">
        <ele>330</ele>
        <time>2018-04-16T12:43:26Z</time>
      </trkpt>
      <trkpt lat="44.35564" lon="4.07021">
        <ele>331</ele>
        <time>2018-04-16T12:43:46Z</time>
      </trkpt>
      <trkpt lat="44.35569" lon="4.07029">
        <ele>332</ele>
        <time>2018-04-16T12:43:52Z</time>
      </trkpt>
      <trkpt lat="44.35576" lon="4.0704">
        <ele>334</ele>
        <time>2018-04-16T12:43:59Z</time>
      </trkpt>
      <trkpt lat="44.35582" lon="4.07051">
        <ele>335</ele>
        <time>2018-04-16T12:44:05Z</time>
      </trkpt>
      <trkpt lat="44.3559" lon="4.07062">
        <ele>336</ele>
        <time>2018-04-16T12:44:12Z</time>
      </trkpt>
      <trkpt lat="44.35596" lon="4.07075">
        <ele>337</ele>
        <time>2018-04-16T12:44:20Z</time>
      </trkpt>
      <trkpt lat="44.35603" lon="4.07082">
        <ele>338</ele>
        <time>2018-04-16T12:44:26Z</time>
      </trkpt>
      <trkpt lat="44.3561" lon="4.07097">
        <ele>339</ele>
        <time>2018-04-16T12:44:34Z</time>
      </trkpt>
      <trkpt lat="44.35614" lon="4.07109">
        <ele>340</ele>
        <time>2018-04-16T12:44:40Z</time>
      </trkpt>
      <trkpt lat="44.3562" lon="4.07125">
        <ele>341</ele>
        <time>2018-04-16T12:44:48Z</time>
      </trkpt>
      <trkpt lat="44.35628" lon="4.07142">
        <ele>342</ele>
        <time>2018-04-16T12:44:58Z</time>
      </trkpt>
      <trkpt lat="44.3564" lon="4.07143">
        <ele>343</ele>
        <time>2018-04-16T12:45:06Z</time>
      </trkpt>
      <trkpt lat="44.35641" lon="4.07143">
        <ele>343</ele>
        <time>2018-04-16T12:45:07Z</time>
      </trkpt>
      <trkpt lat="44.35653" lon="4.07137">
        <ele>345</ele>
        <time>2018-04-16T12:45:15Z</time>
      </trkpt>
      <trkpt lat="44.35665" lon="4.07132">
        <ele>346</ele>
        <time>2018-04-16T12:45:23Z</time>
      </trkpt>
      <trkpt lat="44.35669" lon="4.07129">
        <ele>347</ele>
        <time>2018-04-16T12:45:27Z</time>
      </trkpt>
      <trkpt lat="44.35671" lon="4.07128">
        <ele>347</ele>
        <time>2018-04-16T12:45:28Z</time>
      </trkpt>
      <trkpt lat="44.35678" lon="4.07124">
        <ele>347</ele>
        <time>2018-04-16T12:45:33Z</time>
      </trkpt>
      <trkpt lat="44.35699" lon="4.07117">
        <ele>348</ele>
        <time>2018-04-16T12:45:46Z</time>
      </trkpt>
      <trkpt lat="44.35715" lon="4.07115">
        <ele>349</ele>
        <time>2018-04-16T12:45:56Z</time>
      </trkpt>
      <trkpt lat="44.35728" lon="4.07117">
        <ele>350</ele>
        <time>2018-04-16T12:46:05Z</time>
      </trkpt>
      <trkpt lat="44.35741" lon="4.07121">
        <ele>351</ele>
        <time>2018-04-16T12:46:14Z</time>
      </trkpt>
      <trkpt lat="44.35756" lon="4.07119">
        <ele>352</ele>
        <time>2018-04-16T12:46:23Z</time>
      </trkpt>
      <trkpt lat="44.35769" lon="4.07116">
        <ele>353</ele>
        <time>2018-04-16T12:46:34Z</time>
      </trkpt>
      <trkpt lat="44.35781" lon="4.07111">
        <ele>354</ele>
        <time>2018-04-16T12:46:44Z</time>
      </trkpt>
      <trkpt lat="44.35784" lon="4.07108">
        <ele>355</ele>
        <time>2018-04-16T12:46:46Z</time>
      </trkpt>
      <trkpt lat="44.35793" lon="4.07099">
        <ele>356</ele>
        <time>2018-04-16T12:46:52Z</time>
      </trkpt>
      <trkpt lat="44.35807" lon="4.07082">
        <ele>357</ele>
        <time>2018-04-16T12:47:02Z</time>
      </trkpt>
      <trkpt lat="44.35815" lon="4.07072">
        <ele>357</ele>
        <time>2018-04-16T12:47:08Z</time>
      </trkpt>
      <trkpt lat="44.35818" lon="4.07071">
        <ele>358</ele>
        <time>2018-04-16T12:47:10Z</time>
      </trkpt>
      <trkpt lat="44.35837" lon="4.07083">
        <ele>359</ele>
        <time>2018-04-16T12:47:21Z</time>
      </trkpt>
      <trkpt lat="44.35853" lon="4.07084">
        <ele>360</ele>
        <time>2018-04-16T12:47:30Z</time>
      </trkpt>
      <trkpt lat="44.35869" lon="4.07074">
        <ele>361</ele>
        <time>2018-04-16T12:47:40Z</time>
      </trkpt>
      <trkpt lat="44.35881" lon="4.07063">
        <ele>362</ele>
        <time>2018-04-16T12:47:49Z</time>
      </trkpt>
      <trkpt lat="44.35893" lon="4.07055">
        <ele>363</ele>
        <time>2018-04-16T12:47:57Z</time>
      </trkpt>
      <trkpt lat="44.35908" lon="4.07044">
        <ele>364</ele>
        <time>2018-04-16T12:48:06Z</time>
      </trkpt>
      <trkpt lat="44.35921" lon="4.07032">
        <ele>365</ele>
        <time>2018-04-16T12:48:14Z</time>
      </trkpt>
      <trkpt lat="44.35935" lon="4.07023">
        <ele>366</ele>
        <time>2018-04-16T12:48:22Z</time>
      </trkpt>
      <trkpt lat="44.35947" lon="4.07015">
        <ele>367</ele>
        <time>2018-04-16T12:48:31Z</time>
      </trkpt>
      <trkpt lat="44.35958" lon="4.07006">
        <ele>368</ele>
        <time>2018-04-16T12:48:38Z</time>
      </trkpt>
      <trkpt lat="44.35969" lon="4.06999">
        <ele>369</ele>
        <time>2018-04-16T12:48:45Z</time>
      </trkpt>
      <trkpt lat="44.35972" lon="4.06997">
        <ele>370</ele>
        <time>2018-04-16T12:48:47Z</time>
      </trkpt>
      <trkpt lat="44.35976" lon="4.06996">
        <ele>370</ele>
        <time>2018-04-16T12:48:50Z</time>
      </trkpt>
      <trkpt lat="44.35983" lon="4.06992">
        <ele>371</ele>
        <time>2018-04-16T12:48:54Z</time>
      </trkpt>
      <trkpt lat="44.36003" lon="4.06978">
        <ele>372</ele>
        <time>2018-04-16T12:49:06Z</time>
      </trkpt>
      <trkpt lat="44.36015" lon="4.06964">
        <ele>373</ele>
        <time>2018-04-16T12:49:16Z</time>
      </trkpt>
      <trkpt lat="44.36017" lon="4.06961">
        <ele>374</ele>
        <time>2018-04-16T12:49:18Z</time>
      </trkpt>
      <trkpt lat="44.36023" lon="4.06956">
        <ele>374</ele>
        <time>2018-04-16T12:49:22Z</time>
      </trkpt>
      <trkpt lat="44.36026" lon="4.06952">
        <ele>374</ele>
        <time>2018-04-16T12:49:24Z</time>
      </trkpt>
      <trkpt lat="44.36038" lon="4.06935">
        <ele>375</ele>
        <time>2018-04-16T12:49:32Z</time>
      </trkpt>
      <trkpt lat="44.36044" lon="4.06925">
        <ele>376</ele>
        <time>2018-04-16T12:49:37Z</time>
      </trkpt>
      <trkpt lat="44.36055" lon="4.06926">
        <ele>376</ele>
        <time>2018-04-16T12:49:43Z</time>
      </trkpt>
      <trkpt lat="44.36056" lon="4.06928">
        <ele>376</ele>
        <time>2018-04-16T12:49:44Z</time>
      </trkpt>
      <trkpt lat="44.36074" lon="4.06945">
        <ele>377</ele>
        <time>2018-04-16T12:49:56Z</time>
      </trkpt>
      <trkpt lat="44.36083" lon="4.06945">
        <ele>378</ele>
        <time>2018-04-16T12:50:02Z</time>
      </trkpt>
      <trkpt lat="44.36092" lon="4.06936">
        <ele>379</ele>
        <time>2018-04-16T12:50:09Z</time>
      </trkpt>
      <trkpt lat="44.36096" lon="4.06932">
        <ele>380</ele>
        <time>2018-04-16T12:50:13Z</time>
      </trkpt>
      <trkpt lat="44.36098" lon="4.06928">
        <ele>380</ele>
        <time>2018-04-16T12:50:16Z</time>
      </trkpt>
      <trkpt lat="44.36103" lon="4.06923">
        <ele>381</ele>
        <time>2018-04-16T12:50:20Z</time>
      </trkpt>
      <trkpt lat="44.36111" lon="4.06914">
        <ele>382</ele>
        <time>2018-04-16T12:50:27Z</time>
      </trkpt>
      <trkpt lat="44.36119" lon="4.06903">
        <ele>383</ele>
        <time>2018-04-16T12:50:34Z</time>
      </trkpt>
      <trkpt lat="44.36127" lon="4.06886">
        <ele>384</ele>
        <time>2018-04-16T12:50:43Z</time>
      </trkpt>
      <trkpt lat="44.36126" lon="4.06884">
        <ele>384</ele>
        <time>2018-04-16T12:50:44Z</time>
      </trkpt>
      <trkpt lat="44.36121" lon="4.06882">
        <ele>384</ele>
        <time>2018-04-16T12:50:48Z</time>
      </trkpt>
      <trkpt lat="44.36117" lon="4.06889">
        <ele>385</ele>
        <time>2018-04-16T12:50:53Z</time>
      </trkpt>
      <trkpt lat="44.36114" lon="4.06892">
        <ele>385</ele>
        <time>2018-04-16T12:50:56Z</time>
      </trkpt>
      <trkpt lat="44.36098" lon="4.06909">
        <ele>386</ele>
        <time>2018-04-16T12:51:10Z</time>
      </trkpt>
      <trkpt lat="44.36081" lon="4.0691">
        <ele>387</ele>
        <time>2018-04-16T12:51:21Z</time>
      </trkpt>
      <trkpt lat="44.36069" lon="4.06894">
        <ele>388</ele>
        <time>2018-04-16T12:51:32Z</time>
      </trkpt>
      <trkpt lat="44.36058" lon="4.06879">
        <ele>389</ele>
        <time>2018-04-16T12:51:42Z</time>
      </trkpt>
      <trkpt lat="44.36056" lon="4.06871">
        <ele>390</ele>
        <time>2018-04-16T12:51:47Z</time>
      </trkpt>
      <trkpt lat="44.36062" lon="4.06872">
        <ele>391</ele>
        <time>2018-04-16T12:51:52Z</time>
      </trkpt>
      <trkpt lat="44.36067" lon="4.06879">
        <ele>391</ele>
        <time>2018-04-16T12:51:56Z</time>
      </trkpt>
      <trkpt lat="44.36079" lon="4.06895">
        <ele>392</ele>
        <time>2018-04-16T12:52:05Z</time>
      </trkpt>
      <trkpt lat="44.36088" lon="4.06896">
        <ele>392</ele>
        <time>2018-04-16T12:52:10Z</time>
      </trkpt>
      <trkpt lat="44.36098" lon="4.06886">
        <ele>392</ele>
        <time>2018-04-16T12:52:17Z</time>
      </trkpt>
      <trkpt lat="44.36108" lon="4.06876">
        <ele>392</ele>
        <time>2018-04-16T12:52:23Z</time>
      </trkpt>
      <trkpt lat="44.36118" lon="4.06862">
        <ele>393</ele>
        <time>2018-04-16T12:52:29Z</time>
      </trkpt>
      <trkpt lat="44.36127" lon="4.06846">
        <ele>393</ele>
        <time>2018-04-16T12:52:38Z</time>
      </trkpt>
      <trkpt lat="44.36131" lon="4.06841">
        <ele>394</ele>
        <time>2018-04-16T12:52:41Z</time>
      </trkpt>
      <trkpt lat="44.36143" lon="4.06821">
        <ele>395</ele>
        <time>2018-04-16T12:52:54Z</time>
      </trkpt>
      <trkpt lat="44.36149" lon="4.06814">
        <ele>396</ele>
        <time>2018-04-16T12:52:59Z</time>
      </trkpt>
      <trkpt lat="44.36157" lon="4.06801">
        <ele>397</ele>
        <time>2018-04-16T12:53:07Z</time>
      </trkpt>
      <trkpt lat="44.36157" lon="4.06799">
        <ele>397</ele>
        <time>2018-04-16T12:53:08Z</time>
      </trkpt>
      <trkpt lat="44.36167" lon="4.06788">
        <ele>398</ele>
        <time>2018-04-16T12:53:21Z</time>
      </trkpt>
      <trkpt lat="44.36169" lon="4.06786">
        <ele>398</ele>
        <time>2018-04-16T12:53:23Z</time>
      </trkpt>
      <trkpt lat="44.36176" lon="4.06783">
        <ele>399</ele>
        <time>2018-04-16T12:53:29Z</time>
      </trkpt>
      <trkpt lat="44.36183" lon="4.06779">
        <ele>400</ele>
        <time>2018-04-16T12:53:34Z</time>
      </trkpt>
      <trkpt lat="44.3619" lon="4.06775">
        <ele>401</ele>
        <time>2018-04-16T12:53:42Z</time>
      </trkpt>
      <trkpt lat="44.36194" lon="4.06773">
        <ele>401</ele>
        <time>2018-04-16T12:53:45Z</time>
      </trkpt>
      <trkpt lat="44.36198" lon="4.06771">
        <ele>402</ele>
        <time>2018-04-16T12:53:50Z</time>
      </trkpt>
      <trkpt lat="44.362" lon="4.0677">
        <ele>403</ele>
        <time>2018-04-16T12:53:58Z</time>
      </trkpt>
      <trkpt lat="44.362" lon="4.06769">
        <ele>403</ele>
        <time>2018-04-16T12:54:21Z</time>
      </trkpt>
      <trkpt lat="44.36203" lon="4.06767">
        <ele>403</ele>
        <time>2018-04-16T12:54:25Z</time>
      </trkpt>
      <trkpt lat="44.36207" lon="4.06766">
        <ele>403</ele>
        <time>2018-04-16T12:54:29Z</time>
      </trkpt>
      <trkpt lat="44.36214" lon="4.06766">
        <ele>404</ele>
        <time>2018-04-16T12:54:36Z</time>
      </trkpt>
      <trkpt lat="44.36215" lon="4.06767">
        <ele>404</ele>
        <time>2018-04-16T12:54:37Z</time>
      </trkpt>
      <trkpt lat="44.36226" lon="4.06776">
        <ele>405</ele>
        <time>2018-04-16T12:54:46Z</time>
      </trkpt>
      <trkpt lat="44.36238" lon="4.06777">
        <ele>406</ele>
        <time>2018-04-16T12:54:55Z</time>
      </trkpt>
      <trkpt lat="44.36252" lon="4.06778">
        <ele>407</ele>
        <time>2018-04-16T12:55:06Z</time>
      </trkpt>
      <trkpt lat="44.3627" lon="4.06781">
        <ele>408</ele>
        <time>2018-04-16T12:55:19Z</time>
      </trkpt>
      <trkpt lat="44.36288" lon="4.06788">
        <ele>409</ele>
        <time>2018-04-16T12:55:30Z</time>
      </trkpt>
      <trkpt lat="44.36294" lon="4.06793">
        <ele>409</ele>
        <time>2018-04-16T12:55:34Z</time>
      </trkpt>
      <trkpt lat="44.363" lon="4.068">
        <ele>409</ele>
        <time>2018-04-16T12:55:39Z</time>
      </trkpt>
      <trkpt lat="44.3633" lon="4.06838">
        <ele>410</ele>
        <time>2018-04-16T12:56:00Z</time>
      </trkpt>
      <trkpt lat="44.36336" lon="4.06853">
        <ele>409</ele>
        <time>2018-04-16T12:56:05Z</time>
      </trkpt>
      <trkpt lat="44.36355" lon="4.06905">
        <ele>409</ele>
        <time>2018-04-16T12:56:24Z</time>
      </trkpt>
      <trkpt lat="44.36372" lon="4.06931">
        <ele>409</ele>
        <time>2018-04-16T12:56:39Z</time>
      </trkpt>
      <trkpt lat="44.36386" lon="4.06937">
        <ele>410</ele>
        <time>2018-04-16T12:56:48Z</time>
      </trkpt>
      <trkpt lat="44.36405" lon="4.0694">
        <ele>411</ele>
        <time>2018-04-16T12:57:01Z</time>
      </trkpt>
      <trkpt lat="44.36414" lon="4.0694">
        <ele>412</ele>
        <time>2018-04-16T12:57:08Z</time>
      </trkpt>
      <trkpt lat="44.36426" lon="4.06939">
        <ele>413</ele>
        <time>2018-04-16T12:57:17Z</time>
      </trkpt>
      <trkpt lat="44.36428" lon="4.06939">
        <ele>413</ele>
        <time>2018-04-16T12:57:19Z</time>
      </trkpt>
      <trkpt lat="44.3644" lon="4.06943">
        <ele>414</ele>
        <time>2018-04-16T12:57:29Z</time>
      </trkpt>
      <trkpt lat="44.36452" lon="4.06948">
        <ele>415</ele>
        <time>2018-04-16T12:57:39Z</time>
      </trkpt>
      <trkpt lat="44.36465" lon="4.06956">
        <ele>416</ele>
        <time>2018-04-16T12:57:49Z</time>
      </trkpt>
      <trkpt lat="44.36479" lon="4.06961">
        <ele>417</ele>
        <time>2018-04-16T12:57:59Z</time>
      </trkpt>
      <trkpt lat="44.36488" lon="4.06963">
        <ele>418</ele>
        <time>2018-04-16T12:58:05Z</time>
      </trkpt>
      <trkpt lat="44.36496" lon="4.06962">
        <ele>420</ele>
        <time>2018-04-16T12:58:13Z</time>
      </trkpt>
      <trkpt lat="44.36503" lon="4.06952">
        <ele>421</ele>
        <time>2018-04-16T12:58:21Z</time>
      </trkpt>
      <trkpt lat="44.36505" lon="4.06944">
        <ele>421</ele>
        <time>2018-04-16T12:58:26Z</time>
      </trkpt>
      <trkpt lat="44.36505" lon="4.06937">
        <ele>422</ele>
        <time>2018-04-16T12:58:30Z</time>
      </trkpt>
      <trkpt lat="44.36506" lon="4.06926">
        <ele>422</ele>
        <time>2018-04-16T12:58:36Z</time>
      </trkpt>
      <trkpt lat="44.36508" lon="4.06921">
        <ele>423</ele>
        <time>2018-04-16T12:58:40Z</time>
      </trkpt>
      <trkpt lat="44.36508" lon="4.06919">
        <ele>423</ele>
        <time>2018-04-16T12:58:41Z</time>
      </trkpt>
      <trkpt lat="44.36513" lon="4.06908">
        <ele>424</ele>
        <time>2018-04-16T12:58:47Z</time>
      </trkpt>
      <trkpt lat="44.36514" lon="4.06907">
        <ele>424</ele>
        <time>2018-04-16T12:58:48Z</time>
      </trkpt>
      <trkpt lat="44.36517" lon="4.06902">
        <ele>424</ele>
        <time>2018-04-16T12:58:52Z</time>
      </trkpt>
      <trkpt lat="44.36524" lon="4.06891">
        <ele>425</ele>
        <time>2018-04-16T12:59:00Z</time>
      </trkpt>
      <trkpt lat="44.36536" lon="4.06876">
        <ele>426</ele>
        <time>2018-04-16T12:59:12Z</time>
      </trkpt>
      <trkpt lat="44.36543" lon="4.06872">
        <ele>426</ele>
        <time>2018-04-16T12:59:17Z</time>
      </trkpt>
      <trkpt lat="44.3657" lon="4.06849">
        <ele>427</ele>
        <time>2018-04-16T12:59:37Z</time>
      </trkpt>
      <trkpt lat="44.36593" lon="4.06818">
        <ele>428</ele>
        <time>2018-04-16T12:59:59Z</time>
      </trkpt>
      <trkpt lat="44.3662" lon="4.06795">
        <ele>429</ele>
        <time>2018-04-16T13:00:22Z</time>
      </trkpt>
      <trkpt lat="44.36626" lon="4.0679">
        <ele>429</ele>
        <time>2018-04-16T13:00:25Z</time>
      </trkpt>
      <trkpt lat="44.36633" lon="4.06783">
        <ele>429</ele>
        <time>2018-04-16T13:00:30Z</time>
      </trkpt>
      <trkpt lat="44.36651" lon="4.06768">
        <ele>429</ele>
        <time>2018-04-16T13:00:43Z</time>
      </trkpt>
      <trkpt lat="44.36671" lon="4.06755">
        <ele>429</ele>
        <time>2018-04-16T13:00:58Z</time>
      </trkpt>
      <trkpt lat="44.36697" lon="4.06746">
        <ele>431</ele>
        <time>2018-04-16T13:01:12Z</time>
      </trkpt>
      <trkpt lat="44.36713" lon="4.06741">
        <ele>432</ele>
        <time>2018-04-16T13:01:26Z</time>
      </trkpt>
      <trkpt lat="44.36726" lon="4.0675">
        <ele>432</ele>
        <time>2018-04-16T13:01:45Z</time>
      </trkpt>
      <trkpt lat="44.36723" lon="4.06756">
        <ele>432</ele>
        <time>2018-04-16T13:03:19Z</time>
      </trkpt>
      <trkpt lat="44.36721" lon="4.06761">
        <ele>432</ele>
        <time>2018-04-16T13:04:20Z</time>
      </trkpt>
      <trkpt lat="44.36716" lon="4.06768">
        <ele>432</ele>
        <time>2018-04-16T13:04:39Z</time>
      </trkpt>
      <trkpt lat="44.36701" lon="4.06796">
        <ele>432</ele>
        <time>2018-04-16T13:04:55Z</time>
      </trkpt>
      <trkpt lat="44.36683" lon="4.0686">
        <ele>433</ele>
        <time>2018-04-16T13:05:20Z</time>
      </trkpt>
      <trkpt lat="44.36684" lon="4.06861">
        <ele>433</ele>
        <time>2018-04-16T13:05:21Z</time>
      </trkpt>
      <trkpt lat="44.3669" lon="4.06859">
        <ele>433</ele>
        <time>2018-04-16T13:05:26Z</time>
      </trkpt>
      <trkpt lat="44.36692" lon="4.0685">
        <ele>434</ele>
        <time>2018-04-16T13:05:32Z</time>
      </trkpt>
      <trkpt lat="44.36697" lon="4.06841">
        <ele>436</ele>
        <time>2018-04-16T13:05:39Z</time>
      </trkpt>
      <trkpt lat="44.36703" lon="4.06833">
        <ele>437</ele>
        <time>2018-04-16T13:05:46Z</time>
      </trkpt>
      <trkpt lat="44.36708" lon="4.06821">
        <ele>437</ele>
        <time>2018-04-16T13:05:55Z</time>
      </trkpt>
      <trkpt lat="44.36709" lon="4.06819">
        <ele>438</ele>
        <time>2018-04-16T13:05:57Z</time>
      </trkpt>
      <trkpt lat="44.36712" lon="4.06818">
        <ele>439</ele>
        <time>2018-04-16T13:06:24Z</time>
      </trkpt>
      <trkpt lat="44.36713" lon="4.06819">
        <ele>439</ele>
        <time>2018-04-16T13:06:25Z</time>
      </trkpt>
      <trkpt lat="44.36713" lon="4.0682">
        <ele>439</ele>
        <time>2018-04-16T13:06:26Z</time>
      </trkpt>
      <trkpt lat="44.36711" lon="4.06832">
        <ele>439</ele>
        <time>2018-04-16T13:06:34Z</time>
      </trkpt>
      <trkpt lat="44.36711" lon="4.06835">
        <ele>439</ele>
        <time>2018-04-16T13:06:36Z</time>
      </trkpt>
      <trkpt lat="44.36714" lon="4.06841">
        <ele>440</ele>
        <time>2018-04-16T13:06:41Z</time>
      </trkpt>
      <trkpt lat="44.36717" lon="4.06842">
        <ele>440</ele>
        <time>2018-04-16T13:06:44Z</time>
      </trkpt>
      <trkpt lat="44.36726" lon="4.06843">
        <ele>441</ele>
        <time>2018-04-16T13:06:51Z</time>
      </trkpt>
      <trkpt lat="44.3673" lon="4.06845">
        <ele>441</ele>
        <time>2018-04-16T13:06:55Z</time>
      </trkpt>
      <trkpt lat="44.36738" lon="4.06848">
        <ele>442</ele>
        <time>2018-04-16T13:07:02Z</time>
      </trkpt>
      <trkpt lat="44.36751" lon="4.06852">
        <ele>443</ele>
        <time>2018-04-16T13:07:12Z</time>
      </trkpt>
      <trkpt lat="44.3676" lon="4.06855">
        <ele>444</ele>
        <time>2018-04-16T13:07:20Z</time>
      </trkpt>
      <trkpt lat="44.36769" lon="4.06859">
        <ele>445</ele>
        <time>2018-04-16T13:07:28Z</time>
      </trkpt>
      <trkpt lat="44.36776" lon="4.06859">
        <ele>446</ele>
        <time>2018-04-16T13:07:33Z</time>
      </trkpt>
      <trkpt lat="44.3678" lon="4.0686">
        <ele>446</ele>
        <time>2018-04-16T13:07:36Z</time>
      </trkpt>
      <trkpt lat="44.36789" lon="4.06865">
        <ele>447</ele>
        <time>2018-04-16T13:07:44Z</time>
      </trkpt>
      <trkpt lat="44.36791" lon="4.06861">
        <ele>448</ele>
        <time>2018-04-16T13:07:49Z</time>
      </trkpt>
      <trkpt lat="44.36787" lon="4.06857">
        <ele>448</ele>
        <time>2018-04-16T13:07:53Z</time>
      </trkpt>
      <trkpt lat="44.36784" lon="4.06852">
        <ele>449</ele>
        <time>2018-04-16T13:08:04Z</time>
      </trkpt>
      <trkpt lat="44.36764" lon="4.06834">
        <ele>450</ele>
        <time>2018-04-16T13:08:23Z</time>
      </trkpt>
      <trkpt lat="44.36749" lon="4.0682">
        <ele>451</ele>
        <time>2018-04-16T13:08:37Z</time>
      </trkpt>
      <trkpt lat="44.36751" lon="4.06805">
        <ele>452</ele>
        <time>2018-04-16T13:08:49Z</time>
      </trkpt>
      <trkpt lat="44.36752" lon="4.06804">
        <ele>452</ele>
        <time>2018-04-16T13:08:50Z</time>
      </trkpt>
      <trkpt lat="44.36756" lon="4.06809">
        <ele>454</ele>
        <time>2018-04-16T13:08:57Z</time>
      </trkpt>
      <trkpt lat="44.36756" lon="4.06814">
        <ele>454</ele>
        <time>2018-04-16T13:09:01Z</time>
      </trkpt>
      <trkpt lat="44.36758" lon="4.06817">
        <ele>455</ele>
        <time>2018-04-16T13:09:04Z</time>
      </trkpt>
      <trkpt lat="44.3676" lon="4.06819">
        <ele>455</ele>
        <time>2018-04-16T13:09:06Z</time>
      </trkpt>
      <trkpt lat="44.36762" lon="4.06821">
        <ele>455</ele>
        <time>2018-04-16T13:09:08Z</time>
      </trkpt>
      <trkpt lat="44.36772" lon="4.06829">
        <ele>456</ele>
        <time>2018-04-16T13:09:16Z</time>
      </trkpt>
      <trkpt lat="44.36779" lon="4.06833">
        <ele>456</ele>
        <time>2018-04-16T13:09:22Z</time>
      </trkpt>
      <trkpt lat="44.36787" lon="4.0684">
        <ele>457</ele>
        <time>2018-04-16T13:09:30Z</time>
      </trkpt>
      <trkpt lat="44.36792" lon="4.06844">
        <ele>457</ele>
        <time>2018-04-16T13:09:34Z</time>
      </trkpt>
      <trkpt lat="44.36797" lon="4.06848">
        <ele>458</ele>
        <time>2018-04-16T13:09:39Z</time>
      </trkpt>
      <trkpt lat="44.36804" lon="4.0685">
        <ele>459</ele>
        <time>2018-04-16T13:09:51Z</time>
      </trkpt>
      <trkpt lat="44.36805" lon="4.0685">
        <ele>460</ele>
        <time>2018-04-16T13:11:12Z</time>
      </trkpt>
      <trkpt lat="44.36795" lon="4.06834">
        <ele>460</ele>
        <time>2018-04-16T13:11:27Z</time>
      </trkpt>
      <trkpt lat="44.36786" lon="4.06823">
        <ele>461</ele>
        <time>2018-04-16T13:11:37Z</time>
      </trkpt>
      <trkpt lat="44.36784" lon="4.06821">
        <ele>461</ele>
        <time>2018-04-16T13:11:39Z</time>
      </trkpt>
      <trkpt lat="44.36778" lon="4.06808">
        <ele>462</ele>
        <time>2018-04-16T13:11:48Z</time>
      </trkpt>
      <trkpt lat="44.36784" lon="4.06789">
        <ele>463</ele>
        <time>2018-04-16T13:12:02Z</time>
      </trkpt>
      <trkpt lat="44.36788" lon="4.0678">
        <ele>464</ele>
        <time>2018-04-16T13:12:08Z</time>
      </trkpt>
      <trkpt lat="44.36791" lon="4.0677">
        <ele>465</ele>
        <time>2018-04-16T13:12:15Z</time>
      </trkpt>
      <trkpt lat="44.36794" lon="4.06762">
        <ele>466</ele>
        <time>2018-04-16T13:12:20Z</time>
      </trkpt>
      <trkpt lat="44.36795" lon="4.06762">
        <ele>466</ele>
        <time>2018-04-16T13:12:21Z</time>
      </trkpt>
      <trkpt lat="44.36797" lon="4.06764">
        <ele>467</ele>
        <time>2018-04-16T13:12:25Z</time>
      </trkpt>
      <trkpt lat="44.36797" lon="4.06767">
        <ele>467</ele>
        <time>2018-04-16T13:12:28Z</time>
      </trkpt>
      <trkpt lat="44.36797" lon="4.06775">
        <ele>469</ele>
        <time>2018-04-16T13:12:34Z</time>
      </trkpt>
      <trkpt lat="44.36797" lon="4.06789">
        <ele>470</ele>
        <time>2018-04-16T13:12:44Z</time>
      </trkpt>
      <trkpt lat="44.36798" lon="4.06806">
        <ele>471</ele>
        <time>2018-04-16T13:12:53Z</time>
      </trkpt>
      <trkpt lat="44.36805" lon="4.06811">
        <ele>472</ele>
        <time>2018-04-16T13:13:01Z</time>
      </trkpt>
      <trkpt lat="44.36806" lon="4.0681">
        <ele>472</ele>
        <time>2018-04-16T13:13:02Z</time>
      </trkpt>
      <trkpt lat="44.36806" lon="4.06809">
        <ele>472</ele>
        <time>2018-04-16T13:13:03Z</time>
      </trkpt>
      <trkpt lat="44.36804" lon="4.06796">
        <ele>473</ele>
        <time>2018-04-16T13:13:11Z</time>
      </trkpt>
      <trkpt lat="44.36808" lon="4.06781">
        <ele>475</ele>
        <time>2018-04-16T13:13:23Z</time>
      </trkpt>
      <trkpt lat="44.36809" lon="4.06771">
        <ele>476</ele>
        <time>2018-04-16T13:13:29Z</time>
      </trkpt>
      <trkpt lat="44.36813" lon="4.06763">
        <ele>477</ele>
        <time>2018-04-16T13:13:38Z</time>
      </trkpt>
      <trkpt lat="44.36814" lon="4.06767">
        <ele>477</ele>
        <time>2018-04-16T13:13:41Z</time>
      </trkpt>
      <trkpt lat="44.36814" lon="4.0677">
        <ele>477</ele>
        <time>2018-04-16T13:13:43Z</time>
      </trkpt>
      <trkpt lat="44.36814" lon="4.06773">
        <ele>477</ele>
        <time>2018-04-16T13:13:45Z</time>
      </trkpt>
      <trkpt lat="44.36814" lon="4.0678">
        <ele>478</ele>
        <time>2018-04-16T13:13:50Z</time>
      </trkpt>
      <trkpt lat="44.36814" lon="4.06782">
        <ele>478</ele>
        <time>2018-04-16T13:13:52Z</time>
      </trkpt>
      <trkpt lat="44.36814" lon="4.06792">
        <ele>479</ele>
        <time>2018-04-16T13:14:06Z</time>
      </trkpt>
      <trkpt lat="44.36815" lon="4.06798">
        <ele>479</ele>
        <time>2018-04-16T13:14:10Z</time>
      </trkpt>
      <trkpt lat="44.36817" lon="4.06803">
        <ele>480</ele>
        <time>2018-04-16T13:14:20Z</time>
      </trkpt>
      <trkpt lat="44.36819" lon="4.06805">
        <ele>481</ele>
        <time>2018-04-16T13:14:33Z</time>
      </trkpt>
      <trkpt lat="44.36823" lon="4.06809">
        <ele>481</ele>
        <time>2018-04-16T13:14:37Z</time>
      </trkpt>
      <trkpt lat="44.36825" lon="4.0681">
        <ele>481</ele>
        <time>2018-04-16T13:14:39Z</time>
      </trkpt>
      <trkpt lat="44.36833" lon="4.06817">
        <ele>481</ele>
        <time>2018-04-16T13:14:47Z</time>
      </trkpt>
      <trkpt lat="44.36842" lon="4.0682">
        <ele>482</ele>
        <time>2018-04-16T13:14:57Z</time>
      </trkpt>
      <trkpt lat="44.36848" lon="4.06822">
        <ele>484</ele>
        <time>2018-04-16T13:15:03Z</time>
      </trkpt>
      <trkpt lat="44.36853" lon="4.06824">
        <ele>484</ele>
        <time>2018-04-16T13:15:07Z</time>
      </trkpt>
      <trkpt lat="44.36858" lon="4.06828">
        <ele>485</ele>
        <time>2018-04-16T13:15:13Z</time>
      </trkpt>
      <trkpt lat="44.36865" lon="4.06828">
        <ele>486</ele>
        <time>2018-04-16T13:15:22Z</time>
      </trkpt>
      <trkpt lat="44.36866" lon="4.06829">
        <ele>486</ele>
        <time>2018-04-16T13:15:23Z</time>
      </trkpt>
      <trkpt lat="44.36872" lon="4.06833">
        <ele>487</ele>
        <time>2018-04-16T13:15:30Z</time>
      </trkpt>
      <trkpt lat="44.36878" lon="4.06836">
        <ele>487</ele>
        <time>2018-04-16T13:15:36Z</time>
      </trkpt>
      <trkpt lat="44.36889" lon="4.06844">
        <ele>488</ele>
        <time>2018-04-16T13:15:45Z</time>
      </trkpt>
      <trkpt lat="44.36903" lon="4.06862">
        <ele>489</ele>
        <time>2018-04-16T13:15:57Z</time>
      </trkpt>
      <trkpt lat="44.36916" lon="4.06873">
        <ele>489</ele>
        <time>2018-04-16T13:16:08Z</time>
      </trkpt>
      <trkpt lat="44.36929" lon="4.06877">
        <ele>490</ele>
        <time>2018-04-16T13:16:20Z</time>
      </trkpt>
      <trkpt lat="44.36934" lon="4.0688">
        <ele>490</ele>
        <time>2018-04-16T13:16:24Z</time>
      </trkpt>
      <trkpt lat="44.36962" lon="4.06886">
        <ele>490</ele>
        <time>2018-04-16T13:21:21Z</time>
      </trkpt>
      <trkpt lat="44.37017" lon="4.06892">
        <ele>490</ele>
        <time>2018-04-16T13:21:45Z</time>
      </trkpt>
      <trkpt lat="44.37065" lon="4.06904">
        <ele>489</ele>
        <time>2018-04-16T13:22:02Z</time>
      </trkpt>
      <trkpt lat="44.3709" lon="4.06915">
        <ele>489</ele>
        <time>2018-04-16T13:22:11Z</time>
      </trkpt>
      <trkpt lat="44.37113" lon="4.06937">
        <ele>489</ele>
        <time>2018-04-16T13:22:19Z</time>
      </trkpt>
      <trkpt lat="44.37133" lon="4.06971">
        <ele>488</ele>
        <time>2018-04-16T13:22:28Z</time>
      </trkpt>
      <trkpt lat="44.37133" lon="4.06978">
        <ele>488</ele>
        <time>2018-04-16T13:22:30Z</time>
      </trkpt>
      <trkpt lat="44.37123" lon="4.06977">
        <ele>487</ele>
        <time>2018-04-16T13:22:35Z</time>
      </trkpt>
      <trkpt lat="44.37117" lon="4.06977">
        <ele>487</ele>
        <time>2018-04-16T13:22:37Z</time>
      </trkpt>
      <trkpt lat="44.37064" lon="4.06993">
        <ele>486</ele>
        <time>2018-04-16T13:22:55Z</time>
      </trkpt>
      <trkpt lat="44.3702" lon="4.07044">
        <ele>487</ele>
        <time>2018-04-16T13:23:14Z</time>
      </trkpt>
      <trkpt lat="44.36979" lon="4.07079">
        <ele>488</ele>
        <time>2018-04-16T13:23:27Z</time>
      </trkpt>
      <trkpt lat="44.36971" lon="4.07098">
        <ele>487</ele>
        <time>2018-04-16T13:23:31Z</time>
      </trkpt>
      <trkpt lat="44.36933" lon="4.0713">
        <ele>487</ele>
        <time>2018-04-16T13:23:48Z</time>
      </trkpt>
      <trkpt lat="44.36928" lon="4.07125">
        <ele>488</ele>
        <time>2018-04-16T13:23:50Z</time>
      </trkpt>
      <trkpt lat="44.36886" lon="4.07099">
        <ele>489</ele>
        <time>2018-04-16T13:24:06Z</time>
      </trkpt>
      <trkpt lat="44.36831" lon="4.07083">
        <ele>489</ele>
        <time>2018-04-16T13:24:25Z</time>
      </trkpt>
      <trkpt lat="44.36777" lon="4.0707">
        <ele>489</ele>
        <time>2018-04-16T13:24:43Z</time>
      </trkpt>
      <trkpt lat="44.36763" lon="4.07077">
        <ele>490</ele>
        <time>2018-04-16T13:24:48Z</time>
      </trkpt>
      <trkpt lat="44.36724" lon="4.07104">
        <ele>491</ele>
        <time>2018-04-16T13:25:03Z</time>
      </trkpt>
      <trkpt lat="44.36696" lon="4.07144">
        <ele>492</ele>
        <time>2018-04-16T13:25:18Z</time>
      </trkpt>
      <trkpt lat="44.36695" lon="4.07148">
        <ele>492</ele>
        <time>2018-04-16T13:25:19Z</time>
      </trkpt>
      <trkpt lat="44.36668" lon="4.07216">
        <ele>492</ele>
        <time>2018-04-16T13:25:37Z</time>
      </trkpt>
      <trkpt lat="44.36651" lon="4.07235">
        <ele>493</ele>
        <time>2018-04-16T13:25:45Z</time>
      </trkpt>
      <trkpt lat="44.36608" lon="4.07269">
        <ele>494</ele>
        <time>2018-04-16T13:26:03Z</time>
      </trkpt>
      <trkpt lat="44.36554" lon="4.07244">
        <ele>494</ele>
        <time>2018-04-16T13:26:21Z</time>
      </trkpt>
      <trkpt lat="44.36499" lon="4.0724">
        <ele>494</ele>
        <time>2018-04-16T13:26:38Z</time>
      </trkpt>
      <trkpt lat="44.36445" lon="4.07236">
        <ele>494</ele>
        <time>2018-04-16T13:26:52Z</time>
      </trkpt>
      <trkpt lat="44.36391" lon="4.07239">
        <ele>494</ele>
        <time>2018-04-16T13:27:08Z</time>
      </trkpt>
      <trkpt lat="44.3638" lon="4.0725">
        <ele>494</ele>
        <time>2018-04-16T13:27:15Z</time>
      </trkpt>
      <trkpt lat="44.36381" lon="4.07258">
        <ele>494</ele>
        <time>2018-04-16T13:27:22Z</time>
      </trkpt>
      <trkpt lat="44.36382" lon="4.07258">
        <ele>494</ele>
        <time>2018-04-16T13:27:24Z</time>
      </trkpt>
      <trkpt lat="44.36392" lon="4.07269">
        <ele>495</ele>
        <time>2018-04-16T13:27:34Z</time>
      </trkpt>
      <trkpt lat="44.36393" lon="4.07269">
        <ele>495</ele>
        <time>2018-04-16T13:27:35Z</time>
      </trkpt>
      <trkpt lat="44.36396" lon="4.07275">
        <ele>496</ele>
        <time>2018-04-16T13:27:39Z</time>
      </trkpt>
      <trkpt lat="44.36397" lon="4.07276">
        <ele>496</ele>
        <time>2018-04-16T13:27:40Z</time>
      </trkpt>
      <trkpt lat="44.36407" lon="4.07282">
        <ele>497</ele>
        <time>2018-04-16T13:27:46Z</time>
      </trkpt>
      <trkpt lat="44.36424" lon="4.07288">
        <ele>499</ele>
        <time>2018-04-16T13:27:57Z</time>
      </trkpt>
      <trkpt lat="44.36436" lon="4.07291">
        <ele>500</ele>
        <time>2018-04-16T13:28:04Z</time>
      </trkpt>
      <trkpt lat="44.36443" lon="4.07292">
        <ele>501</ele>
        <time>2018-04-16T13:28:08Z</time>
      </trkpt>
      <trkpt lat="44.36455" lon="4.07294">
        <ele>502</ele>
        <time>2018-04-16T13:28:16Z</time>
      </trkpt>
      <trkpt lat="44.36509" lon="4.07296">
        <ele>503</ele>
        <time>2018-04-16T13:28:40Z</time>
      </trkpt>
      <trkpt lat="44.36515" lon="4.07294">
        <ele>503</ele>
        <time>2018-04-16T13:28:43Z</time>
      </trkpt>
      <trkpt lat="44.36533" lon="4.07288">
        <ele>504</ele>
        <time>2018-04-16T13:28:53Z</time>
      </trkpt>
      <trkpt lat="44.36534" lon="4.07289">
        <ele>504</ele>
        <time>2018-04-16T13:28:54Z</time>
      </trkpt>
      <trkpt lat="44.36534" lon="4.07298">
        <ele>505</ele>
        <time>2018-04-16T13:29:02Z</time>
      </trkpt>
      <trkpt lat="44.36525" lon="4.07303">
        <ele>506</ele>
        <time>2018-04-16T13:29:10Z</time>
      </trkpt>
      <trkpt lat="44.36519" lon="4.0731">
        <ele>507</ele>
        <time>2018-04-16T13:29:16Z</time>
      </trkpt>
      <trkpt lat="44.36516" lon="4.0732">
        <ele>507</ele>
        <time>2018-04-16T13:29:21Z</time>
      </trkpt>
      <trkpt lat="44.36522" lon="4.07332">
        <ele>508</ele>
        <time>2018-04-16T13:29:28Z</time>
      </trkpt>
      <trkpt lat="44.36536" lon="4.07343">
        <ele>510</ele>
        <time>2018-04-16T13:29:40Z</time>
      </trkpt>
      <trkpt lat="44.36542" lon="4.07346">
        <ele>511</ele>
        <time>2018-04-16T13:29:45Z</time>
      </trkpt>
      <trkpt lat="44.36545" lon="4.07346">
        <ele>511</ele>
        <time>2018-04-16T13:29:47Z</time>
      </trkpt>
      <trkpt lat="44.36549" lon="4.07348">
        <ele>512</ele>
        <time>2018-04-16T13:29:50Z</time>
      </trkpt>
      <trkpt lat="44.36558" lon="4.0735">
        <ele>513</ele>
        <time>2018-04-16T13:29:56Z</time>
      </trkpt>
      <trkpt lat="44.36564" lon="4.07353">
        <ele>513</ele>
        <time>2018-04-16T13:30:00Z</time>
      </trkpt>
      <trkpt lat="44.36567" lon="4.07354">
        <ele>514</ele>
        <time>2018-04-16T13:30:02Z</time>
      </trkpt>
      <trkpt lat="44.36574" lon="4.07358">
        <ele>515</ele>
        <time>2018-04-16T13:30:07Z</time>
      </trkpt>
      <trkpt lat="44.36596" lon="4.07365">
        <ele>516</ele>
        <time>2018-04-16T13:30:21Z</time>
      </trkpt>
      <trkpt lat="44.36607" lon="4.07373">
        <ele>517</ele>
        <time>2018-04-16T13:30:48Z</time>
      </trkpt>
      <trkpt lat="44.3661" lon="4.07373">
        <ele>517</ele>
        <time>2018-04-16T13:31:22Z</time>
      </trkpt>
      <trkpt lat="44.36621" lon="4.07377">
        <ele>517</ele>
        <time>2018-04-16T13:31:30Z</time>
      </trkpt>
      <trkpt lat="44.36628" lon="4.07383">
        <ele>518</ele>
        <time>2018-04-16T13:31:36Z</time>
      </trkpt>
      <trkpt lat="44.36629" lon="4.07385">
        <ele>518</ele>
        <time>2018-04-16T13:31:37Z</time>
      </trkpt>
      <trkpt lat="44.36634" lon="4.07393">
        <ele>519</ele>
        <time>2018-04-16T13:31:44Z</time>
      </trkpt>
      <trkpt lat="44.36637" lon="4.07397">
        <ele>520</ele>
        <time>2018-04-16T13:31:47Z</time>
      </trkpt>
      <trkpt lat="44.36641" lon="4.07398">
        <ele>520</ele>
        <time>2018-04-16T13:31:50Z</time>
      </trkpt>
      <trkpt lat="44.36648" lon="4.07401">
        <ele>521</ele>
        <time>2018-04-16T13:31:56Z</time>
      </trkpt>
      <trkpt lat="44.36655" lon="4.074">
        <ele>522</ele>
        <time>2018-04-16T13:32:02Z</time>
      </trkpt>
      <trkpt lat="44.36659" lon="4.074">
        <ele>523</ele>
        <time>2018-04-16T13:32:06Z</time>
      </trkpt>
      <trkpt lat="44.3666" lon="4.07399">
        <ele>524</ele>
        <time>2018-04-16T13:32:07Z</time>
      </trkpt>
      <trkpt lat="44.36662" lon="4.07396">
        <ele>524</ele>
        <time>2018-04-16T13:32:09Z</time>
      </trkpt>
      <trkpt lat="44.36667" lon="4.07393">
        <ele>524</ele>
        <time>2018-04-16T13:32:14Z</time>
      </trkpt>
      <trkpt lat="44.36671" lon="4.07391">
        <ele>525</ele>
        <time>2018-04-16T13:32:19Z</time>
      </trkpt>
      <trkpt lat="44.36674" lon="4.0739">
        <ele>526</ele>
        <time>2018-04-16T13:32:23Z</time>
      </trkpt>
      <trkpt lat="44.36675" lon="4.0739">
        <ele>527</ele>
        <time>2018-04-16T13:32:24Z</time>
      </trkpt>
      <trkpt lat="44.36679" lon="4.07398">
        <ele>528</ele>
        <time>2018-04-16T13:32:30Z</time>
      </trkpt>
      <trkpt lat="44.36679" lon="4.07399">
        <ele>528</ele>
        <time>2018-04-16T13:32:31Z</time>
      </trkpt>
      <trkpt lat="44.3668" lon="4.07411">
        <ele>529</ele>
        <time>2018-04-16T13:32:38Z</time>
      </trkpt>
      <trkpt lat="44.36677" lon="4.07427">
        <ele>530</ele>
        <time>2018-04-16T13:32:48Z</time>
      </trkpt>
      <trkpt lat="44.36676" lon="4.07429">
        <ele>531</ele>
        <time>2018-04-16T13:32:59Z</time>
      </trkpt>
      <trkpt lat="44.36675" lon="4.07434">
        <ele>531</ele>
        <time>2018-04-16T13:33:10Z</time>
      </trkpt>
      <trkpt lat="44.36674" lon="4.07457">
        <ele>532</ele>
        <time>2018-04-16T13:33:23Z</time>
      </trkpt>
      <trkpt lat="44.36676" lon="4.07472">
        <ele>533</ele>
        <time>2018-04-16T13:33:31Z</time>
      </trkpt>
      <trkpt lat="44.36681" lon="4.07495">
        <ele>534</ele>
        <time>2018-04-16T13:33:44Z</time>
      </trkpt>
      <trkpt lat="44.36686" lon="4.0751">
        <ele>535</ele>
        <time>2018-04-16T13:33:53Z</time>
      </trkpt>
      <trkpt lat="44.36689" lon="4.07519">
        <ele>535</ele>
        <time>2018-04-16T13:33:58Z</time>
      </trkpt>
      <trkpt lat="44.3669" lon="4.07523">
        <ele>536</ele>
        <time>2018-04-16T13:34:01Z</time>
      </trkpt>
      <trkpt lat="44.36693" lon="4.07531">
        <ele>537</ele>
        <time>2018-04-16T13:34:06Z</time>
      </trkpt>
      <trkpt lat="44.36694" lon="4.07536">
        <ele>537</ele>
        <time>2018-04-16T13:34:09Z</time>
      </trkpt>
      <trkpt lat="44.36696" lon="4.0755">
        <ele>538</ele>
        <time>2018-04-16T13:34:17Z</time>
      </trkpt>
      <trkpt lat="44.3668" lon="4.07621">
        <ele>539</ele>
        <time>2018-04-16T13:34:47Z</time>
      </trkpt>
      <trkpt lat="44.3668" lon="4.07623">
        <ele>539</ele>
        <time>2018-04-16T13:34:48Z</time>
      </trkpt>
      <trkpt lat="44.36681" lon="4.07647">
        <ele>540</ele>
        <time>2018-04-16T13:34:59Z</time>
      </trkpt>
      <trkpt lat="44.36681" lon="4.07649">
        <ele>540</ele>
        <time>2018-04-16T13:35:00Z</time>
      </trkpt>
      <trkpt lat="44.36684" lon="4.0767">
        <ele>541</ele>
        <time>2018-04-16T13:35:11Z</time>
      </trkpt>
      <trkpt lat="44.36691" lon="4.07687">
        <ele>542</ele>
        <time>2018-04-16T13:35:19Z</time>
      </trkpt>
      <trkpt lat="44.36693" lon="4.07691">
        <ele>543</ele>
        <time>2018-04-16T13:35:21Z</time>
      </trkpt>
      <trkpt lat="44.36699" lon="4.077">
        <ele>543</ele>
        <time>2018-04-16T13:35:27Z</time>
      </trkpt>
      <trkpt lat="44.367" lon="4.07701">
        <ele>543</ele>
        <time>2018-04-16T13:35:28Z</time>
      </trkpt>
      <trkpt lat="44.3671" lon="4.07713">
        <ele>544</ele>
        <time>2018-04-16T13:35:37Z</time>
      </trkpt>
      <trkpt lat="44.36721" lon="4.07721">
        <ele>546</ele>
        <time>2018-04-16T13:35:46Z</time>
      </trkpt>
      <trkpt lat="44.36736" lon="4.0773">
        <ele>547</ele>
        <time>2018-04-16T13:35:58Z</time>
      </trkpt>
      <trkpt lat="44.36751" lon="4.07746">
        <ele>548</ele>
        <time>2018-04-16T13:36:08Z</time>
      </trkpt>
      <trkpt lat="44.36763" lon="4.07761">
        <ele>548</ele>
        <time>2018-04-16T13:36:17Z</time>
      </trkpt>
      <trkpt lat="44.36769" lon="4.0777">
        <ele>549</ele>
        <time>2018-04-16T13:36:22Z</time>
      </trkpt>
      <trkpt lat="44.3677" lon="4.07771">
        <ele>549</ele>
        <time>2018-04-16T13:36:23Z</time>
      </trkpt>
      <trkpt lat="44.36788" lon="4.07797">
        <ele>550</ele>
        <time>2018-04-16T13:36:38Z</time>
      </trkpt>
      <trkpt lat="44.3679" lon="4.07798">
        <ele>550</ele>
        <time>2018-04-16T13:36:39Z</time>
      </trkpt>
      <trkpt lat="44.3681" lon="4.07806">
        <ele>551</ele>
        <time>2018-04-16T13:36:49Z</time>
      </trkpt>
      <trkpt lat="44.36814" lon="4.07808">
        <ele>551</ele>
        <time>2018-04-16T13:36:52Z</time>
      </trkpt>
      <trkpt lat="44.36819" lon="4.07811">
        <ele>552</ele>
        <time>2018-04-16T13:36:56Z</time>
      </trkpt>
      <trkpt lat="44.36835" lon="4.07815">
        <ele>553</ele>
        <time>2018-04-16T13:37:06Z</time>
      </trkpt>
      <trkpt lat="44.36846" lon="4.07815">
        <ele>554</ele>
        <time>2018-04-16T13:37:16Z</time>
      </trkpt>
      <trkpt lat="44.36855" lon="4.07819">
        <ele>555</ele>
        <time>2018-04-16T13:37:34Z</time>
      </trkpt>
      <trkpt lat="44.3688" lon="4.07832">
        <ele>556</ele>
        <time>2018-04-16T13:37:51Z</time>
      </trkpt>
      <trkpt lat="44.36886" lon="4.07835">
        <ele>556</ele>
        <time>2018-04-16T13:37:55Z</time>
      </trkpt>
      <trkpt lat="44.36893" lon="4.07838">
        <ele>557</ele>
        <time>2018-04-16T13:37:59Z</time>
      </trkpt>
      <trkpt lat="44.36898" lon="4.07841">
        <ele>558</ele>
        <time>2018-04-16T13:38:03Z</time>
      </trkpt>
      <trkpt lat="44.36902" lon="4.07843">
        <ele>558</ele>
        <time>2018-04-16T13:38:06Z</time>
      </trkpt>
      <trkpt lat="44.36905" lon="4.07843">
        <ele>558</ele>
        <time>2018-04-16T13:38:08Z</time>
      </trkpt>
      <trkpt lat="44.36916" lon="4.07848">
        <ele>559</ele>
        <time>2018-04-16T13:38:16Z</time>
      </trkpt>
      <trkpt lat="44.36924" lon="4.07855">
        <ele>560</ele>
        <time>2018-04-16T13:38:22Z</time>
      </trkpt>
      <trkpt lat="44.36935" lon="4.07865">
        <ele>561</ele>
        <time>2018-04-16T13:38:32Z</time>
      </trkpt>
      <trkpt lat="44.3694" lon="4.07868">
        <ele>562</ele>
        <time>2018-04-16T13:38:36Z</time>
      </trkpt>
      <trkpt lat="44.36941" lon="4.07869">
        <ele>562</ele>
        <time>2018-04-16T13:38:37Z</time>
      </trkpt>
      <trkpt lat="44.36944" lon="4.07871">
        <ele>562</ele>
        <time>2018-04-16T13:38:39Z</time>
      </trkpt>
      <trkpt lat="44.36949" lon="4.07874">
        <ele>563</ele>
        <time>2018-04-16T13:38:43Z</time>
      </trkpt>
      <trkpt lat="44.36952" lon="4.07876">
        <ele>564</ele>
        <time>2018-04-16T13:38:48Z</time>
      </trkpt>
      <trkpt lat="44.36954" lon="4.07879">
        <ele>564</ele>
        <time>2018-04-16T13:44:24Z</time>
      </trkpt>
      <trkpt lat="44.36967" lon="4.07881">
        <ele>564</ele>
        <time>2018-04-16T13:48:52Z</time>
      </trkpt>
      <trkpt lat="44.36969" lon="4.07885">
        <ele>564</ele>
        <time>2018-04-16T13:48:57Z</time>
      </trkpt>
      <trkpt lat="44.36978" lon="4.07899">
        <ele>566</ele>
        <time>2018-04-16T13:49:14Z</time>
      </trkpt>
      <trkpt lat="44.36986" lon="4.07904">
        <ele>567</ele>
        <time>2018-04-16T13:49:22Z</time>
      </trkpt>
      <trkpt lat="44.36994" lon="4.07911">
        <ele>568</ele>
        <time>2018-04-16T13:49:31Z</time>
      </trkpt>
      <trkpt lat="44.37004" lon="4.0792">
        <ele>569</ele>
        <time>2018-04-16T13:49:41Z</time>
      </trkpt>
      <trkpt lat="44.37005" lon="4.07922">
        <ele>569</ele>
        <time>2018-04-16T13:49:42Z</time>
      </trkpt>
      <trkpt lat="44.37014" lon="4.07932">
        <ele>570</ele>
        <time>2018-04-16T13:49:50Z</time>
      </trkpt>
      <trkpt lat="44.37017" lon="4.07935">
        <ele>570</ele>
        <time>2018-04-16T13:49:53Z</time>
      </trkpt>
      <trkpt lat="44.37023" lon="4.0794">
        <ele>571</ele>
        <time>2018-04-16T13:49:58Z</time>
      </trkpt>
      <trkpt lat="44.37029" lon="4.07943">
        <ele>571</ele>
        <time>2018-04-16T13:50:02Z</time>
      </trkpt>
      <trkpt lat="44.37033" lon="4.07944">
        <ele>572</ele>
        <time>2018-04-16T13:50:05Z</time>
      </trkpt>
      <trkpt lat="44.37037" lon="4.07944">
        <ele>572</ele>
        <time>2018-04-16T13:50:08Z</time>
      </trkpt>
      <trkpt lat="44.37042" lon="4.07942">
        <ele>572</ele>
        <time>2018-04-16T13:50:12Z</time>
      </trkpt>
      <trkpt lat="44.37045" lon="4.07935">
        <ele>573</ele>
        <time>2018-04-16T13:50:17Z</time>
      </trkpt>
      <trkpt lat="44.37045" lon="4.07933">
        <ele>573</ele>
        <time>2018-04-16T13:50:18Z</time>
      </trkpt>
      <trkpt lat="44.37044" lon="4.07929">
        <ele>574</ele>
        <time>2018-04-16T13:50:20Z</time>
      </trkpt>
      <trkpt lat="44.37043" lon="4.07922">
        <ele>574</ele>
        <time>2018-04-16T13:50:24Z</time>
      </trkpt>
      <trkpt lat="44.37041" lon="4.07912">
        <ele>575</ele>
        <time>2018-04-16T13:50:31Z</time>
      </trkpt>
      <trkpt lat="44.37039" lon="4.07907">
        <ele>575</ele>
        <time>2018-04-16T13:50:34Z</time>
      </trkpt>
      <trkpt lat="44.37034" lon="4.0789">
        <ele>576</ele>
        <time>2018-04-16T13:50:45Z</time>
      </trkpt>
      <trkpt lat="44.37033" lon="4.07887">
        <ele>577</ele>
        <time>2018-04-16T13:50:47Z</time>
      </trkpt>
      <trkpt lat="44.3703" lon="4.0788">
        <ele>577</ele>
        <time>2018-04-16T13:50:52Z</time>
      </trkpt>
      <trkpt lat="44.37029" lon="4.07878">
        <ele>578</ele>
        <time>2018-04-16T13:50:54Z</time>
      </trkpt>
      <trkpt lat="44.37026" lon="4.07873">
        <ele>578</ele>
        <time>2018-04-16T13:50:58Z</time>
      </trkpt>
      <trkpt lat="44.37024" lon="4.07867">
        <ele>579</ele>
        <time>2018-04-16T13:51:02Z</time>
      </trkpt>
      <trkpt lat="44.37023" lon="4.07864">
        <ele>579</ele>
        <time>2018-04-16T13:51:04Z</time>
      </trkpt>
      <trkpt lat="44.37021" lon="4.07861">
        <ele>580</ele>
        <time>2018-04-16T13:51:07Z</time>
      </trkpt>
      <trkpt lat="44.3702" lon="4.07859">
        <ele>580</ele>
        <time>2018-04-16T13:51:09Z</time>
      </trkpt>
      <trkpt lat="44.37017" lon="4.07852">
        <ele>581</ele>
        <time>2018-04-16T13:51:15Z</time>
      </trkpt>
      <trkpt lat="44.37017" lon="4.07849">
        <ele>581</ele>
        <time>2018-04-16T13:51:17Z</time>
      </trkpt>
      <trkpt lat="44.37016" lon="4.07847">
        <ele>581</ele>
        <time>2018-04-16T13:51:18Z</time>
      </trkpt>
      <trkpt lat="44.37012" lon="4.07839">
        <ele>582</ele>
        <time>2018-04-16T13:51:25Z</time>
      </trkpt>
      <trkpt lat="44.37007" lon="4.07831">
        <ele>583</ele>
        <time>2018-04-16T13:51:32Z</time>
      </trkpt>
      <trkpt lat="44.37006" lon="4.07829">
        <ele>583</ele>
        <time>2018-04-16T13:51:33Z</time>
      </trkpt>
      <trkpt lat="44.37004" lon="4.07824">
        <ele>584</ele>
        <time>2018-04-16T13:51:37Z</time>
      </trkpt>
      <trkpt lat="44.37" lon="4.07815">
        <ele>584</ele>
        <time>2018-04-16T13:51:43Z</time>
      </trkpt>
      <trkpt lat="44.36996" lon="4.0781">
        <ele>585</ele>
        <time>2018-04-16T13:51:48Z</time>
      </trkpt>
      <trkpt lat="44.36995" lon="4.07807">
        <ele>586</ele>
        <time>2018-04-16T13:51:50Z</time>
      </trkpt>
      <trkpt lat="44.36994" lon="4.07802">
        <ele>586</ele>
        <time>2018-04-16T13:51:53Z</time>
      </trkpt>
      <trkpt lat="44.36988" lon="4.07791">
        <ele>588</ele>
        <time>2018-04-16T13:52:01Z</time>
      </trkpt>
      <trkpt lat="44.36983" lon="4.07781">
        <ele>589</ele>
        <time>2018-04-16T13:52:09Z</time>
      </trkpt>
      <trkpt lat="44.36978" lon="4.07772">
        <ele>590</ele>
        <time>2018-04-16T13:52:16Z</time>
      </trkpt>
      <trkpt lat="44.36976" lon="4.0777">
        <ele>590</ele>
        <time>2018-04-16T13:52:18Z</time>
      </trkpt>
      <trkpt lat="44.36975" lon="4.07767">
        <ele>590</ele>
        <time>2018-04-16T13:52:20Z</time>
      </trkpt>
      <trkpt lat="44.36968" lon="4.07759">
        <ele>591</ele>
        <time>2018-04-16T13:52:27Z</time>
      </trkpt>
      <trkpt lat="44.36964" lon="4.07751">
        <ele>592</ele>
        <time>2018-04-16T13:52:33Z</time>
      </trkpt>
      <trkpt lat="44.3696" lon="4.07739">
        <ele>593</ele>
        <time>2018-04-16T13:52:41Z</time>
      </trkpt>
      <trkpt lat="44.36953" lon="4.07729">
        <ele>594</ele>
        <time>2018-04-16T13:52:50Z</time>
      </trkpt>
      <trkpt lat="44.36949" lon="4.07722">
        <ele>595</ele>
        <time>2018-04-16T13:52:55Z</time>
      </trkpt>
      <trkpt lat="44.36947" lon="4.07719">
        <ele>595</ele>
        <time>2018-04-16T13:52:57Z</time>
      </trkpt>
      <trkpt lat="44.36945" lon="4.07715">
        <ele>596</ele>
        <time>2018-04-16T13:53:00Z</time>
      </trkpt>
      <trkpt lat="44.36944" lon="4.07713">
        <ele>596</ele>
        <time>2018-04-16T13:53:01Z</time>
      </trkpt>
      <trkpt lat="44.3694" lon="4.07706">
        <ele>597</ele>
        <time>2018-04-16T13:53:06Z</time>
      </trkpt>
      <trkpt lat="44.36935" lon="4.07698">
        <ele>598</ele>
        <time>2018-04-16T13:53:12Z</time>
      </trkpt>
      <trkpt lat="44.36935" lon="4.07697">
        <ele>598</ele>
        <time>2018-04-16T13:53:13Z</time>
      </trkpt>
      <trkpt lat="44.36931" lon="4.07688">
        <ele>599</ele>
        <time>2018-04-16T13:53:19Z</time>
      </trkpt>
      <trkpt lat="44.36929" lon="4.07686">
        <ele>600</ele>
        <time>2018-04-16T13:53:21Z</time>
      </trkpt>
      <trkpt lat="44.36925" lon="4.07678">
        <ele>600</ele>
        <time>2018-04-16T13:53:27Z</time>
      </trkpt>
      <trkpt lat="44.3692" lon="4.0767">
        <ele>601</ele>
        <time>2018-04-16T13:53:34Z</time>
      </trkpt>
      <trkpt lat="44.36915" lon="4.07658">
        <ele>602</ele>
        <time>2018-04-16T13:53:43Z</time>
      </trkpt>
      <trkpt lat="44.36909" lon="4.07646">
        <ele>603</ele>
        <time>2018-04-16T13:53:51Z</time>
      </trkpt>
      <trkpt lat="44.36905" lon="4.07637">
        <ele>605</ele>
        <time>2018-04-16T13:53:57Z</time>
      </trkpt>
      <trkpt lat="44.36903" lon="4.07624">
        <ele>606</ele>
        <time>2018-04-16T13:54:05Z</time>
      </trkpt>
      <trkpt lat="44.36902" lon="4.07617">
        <ele>606</ele>
        <time>2018-04-16T13:54:09Z</time>
      </trkpt>
      <trkpt lat="44.36905" lon="4.07609">
        <ele>607</ele>
        <time>2018-04-16T13:54:14Z</time>
      </trkpt>
      <trkpt lat="44.36906" lon="4.07606">
        <ele>607</ele>
        <time>2018-04-16T13:54:17Z</time>
      </trkpt>
      <trkpt lat="44.3691" lon="4.07601">
        <ele>608</ele>
        <time>2018-04-16T13:54:22Z</time>
      </trkpt>
      <trkpt lat="44.36913" lon="4.07599">
        <ele>608</ele>
        <time>2018-04-16T13:54:24Z</time>
      </trkpt>
      <trkpt lat="44.36918" lon="4.07593">
        <ele>608</ele>
        <time>2018-04-16T13:54:30Z</time>
      </trkpt>
      <trkpt lat="44.36921" lon="4.07586">
        <ele>609</ele>
        <time>2018-04-16T13:54:35Z</time>
      </trkpt>
      <trkpt lat="44.36921" lon="4.07581">
        <ele>610</ele>
        <time>2018-04-16T13:54:38Z</time>
      </trkpt>
      <trkpt lat="44.36922" lon="4.0758">
        <ele>610</ele>
        <time>2018-04-16T13:54:39Z</time>
      </trkpt>
      <trkpt lat="44.36926" lon="4.07568">
        <ele>611</ele>
        <time>2018-04-16T13:54:47Z</time>
      </trkpt>
      <trkpt lat="44.36927" lon="4.07564">
        <ele>612</ele>
        <time>2018-04-16T13:54:49Z</time>
      </trkpt>
      <trkpt lat="44.36927" lon="4.07556">
        <ele>612</ele>
        <time>2018-04-16T13:54:53Z</time>
      </trkpt>
      <trkpt lat="44.36927" lon="4.07555">
        <ele>613</ele>
        <time>2018-04-16T13:54:54Z</time>
      </trkpt>
      <trkpt lat="44.36927" lon="4.07546">
        <ele>613</ele>
        <time>2018-04-16T13:54:59Z</time>
      </trkpt>
      <trkpt lat="44.36927" lon="4.07541">
        <ele>614</ele>
        <time>2018-04-16T13:55:02Z</time>
      </trkpt>
      <trkpt lat="44.36928" lon="4.07537">
        <ele>615</ele>
        <time>2018-04-16T13:55:05Z</time>
      </trkpt>
      <trkpt lat="44.36929" lon="4.07534">
        <ele>615</ele>
        <time>2018-04-16T13:55:07Z</time>
      </trkpt>
      <trkpt lat="44.36935" lon="4.07527">
        <ele>616</ele>
        <time>2018-04-16T13:55:13Z</time>
      </trkpt>
      <trkpt lat="44.36945" lon="4.07521">
        <ele>617</ele>
        <time>2018-04-16T13:55:22Z</time>
      </trkpt>
      <trkpt lat="44.36954" lon="4.07518">
        <ele>618</ele>
        <time>2018-04-16T13:55:30Z</time>
      </trkpt>
      <trkpt lat="44.36969" lon="4.07517">
        <ele>619</ele>
        <time>2018-04-16T13:55:42Z</time>
      </trkpt>
      <trkpt lat="44.36977" lon="4.07519">
        <ele>620</ele>
        <time>2018-04-16T13:55:50Z</time>
      </trkpt>
      <trkpt lat="44.36987" lon="4.07521">
        <ele>621</ele>
        <time>2018-04-16T13:56:01Z</time>
      </trkpt>
      <trkpt lat="44.36995" lon="4.07521">
        <ele>623</ele>
        <time>2018-04-16T13:56:09Z</time>
      </trkpt>
      <trkpt lat="44.36998" lon="4.07522">
        <ele>624</ele>
        <time>2018-04-16T13:56:17Z</time>
      </trkpt>
      <trkpt lat="44.36998" lon="4.07522">
        <ele>624</ele>
        <time>2018-04-16T13:58:34Z</time>
      </trkpt>
      <trkpt lat="44.3702" lon="4.07522">
        <ele>625</ele>
        <time>2018-04-16T13:59:37Z</time>
      </trkpt>
      <trkpt lat="44.3703" lon="4.07518">
        <ele>626</ele>
        <time>2018-04-16T13:59:45Z</time>
      </trkpt>
      <trkpt lat="44.37036" lon="4.07515">
        <ele>627</ele>
        <time>2018-04-16T13:59:49Z</time>
      </trkpt>
      <trkpt lat="44.37041" lon="4.07513">
        <ele>627</ele>
        <time>2018-04-16T13:59:53Z</time>
      </trkpt>
      <trkpt lat="44.37054" lon="4.0751">
        <ele>628</ele>
        <time>2018-04-16T14:00:04Z</time>
      </trkpt>
      <trkpt lat="44.37066" lon="4.07508">
        <ele>630</ele>
        <time>2018-04-16T14:00:14Z</time>
      </trkpt>
      <trkpt lat="44.37077" lon="4.07507">
        <ele>631</ele>
        <time>2018-04-16T14:00:25Z</time>
      </trkpt>
      <trkpt lat="44.37085" lon="4.07507">
        <ele>632</ele>
        <time>2018-04-16T14:00:32Z</time>
      </trkpt>
      <trkpt lat="44.37093" lon="4.07509">
        <ele>633</ele>
        <time>2018-04-16T14:00:40Z</time>
      </trkpt>
      <trkpt lat="44.37098" lon="4.0751">
        <ele>634</ele>
        <time>2018-04-16T14:00:45Z</time>
      </trkpt>
      <trkpt lat="44.3711" lon="4.07508">
        <ele>635</ele>
        <time>2018-04-16T14:00:55Z</time>
      </trkpt>
      <trkpt lat="44.3712" lon="4.07507">
        <ele>636</ele>
        <time>2018-04-16T14:01:03Z</time>
      </trkpt>
      <trkpt lat="44.3713" lon="4.07503">
        <ele>637</ele>
        <time>2018-04-16T14:01:11Z</time>
      </trkpt>
      <trkpt lat="44.37143" lon="4.07495">
        <ele>638</ele>
        <time>2018-04-16T14:01:20Z</time>
      </trkpt>
      <trkpt lat="44.37153" lon="4.07486">
        <ele>639</ele>
        <time>2018-04-16T14:01:28Z</time>
      </trkpt>
      <trkpt lat="44.3716" lon="4.07476">
        <ele>640</ele>
        <time>2018-04-16T14:01:36Z</time>
      </trkpt>
      <trkpt lat="44.37168" lon="4.07464">
        <ele>641</ele>
        <time>2018-04-16T14:01:46Z</time>
      </trkpt>
      <trkpt lat="44.37175" lon="4.07455">
        <ele>642</ele>
        <time>2018-04-16T14:01:54Z</time>
      </trkpt>
      <trkpt lat="44.37178" lon="4.07452">
        <ele>643</ele>
        <time>2018-04-16T14:01:58Z</time>
      </trkpt>
      <trkpt lat="44.37181" lon="4.0745">
        <ele>643</ele>
        <time>2018-04-16T14:02:01Z</time>
      </trkpt>
      <trkpt lat="44.37198" lon="4.07441">
        <ele>645</ele>
        <time>2018-04-16T14:02:14Z</time>
      </trkpt>
      <trkpt lat="44.37209" lon="4.07435">
        <ele>646</ele>
        <time>2018-04-16T14:02:23Z</time>
      </trkpt>
      <trkpt lat="44.3722" lon="4.07429">
        <ele>647</ele>
        <time>2018-04-16T14:02:32Z</time>
      </trkpt>
      <trkpt lat="44.37225" lon="4.07427">
        <ele>647</ele>
        <time>2018-04-16T14:02:37Z</time>
      </trkpt>
      <trkpt lat="44.3723" lon="4.07425">
        <ele>648</ele>
        <time>2018-04-16T14:02:41Z</time>
      </trkpt>
      <trkpt lat="44.37231" lon="4.07424">
        <ele>648</ele>
        <time>2018-04-16T14:02:42Z</time>
      </trkpt>
      <trkpt lat="44.37245" lon="4.07418">
        <ele>649</ele>
        <time>2018-04-16T14:02:55Z</time>
      </trkpt>
      <trkpt lat="44.37258" lon="4.07412">
        <ele>650</ele>
        <time>2018-04-16T14:03:05Z</time>
      </trkpt>
      <trkpt lat="44.37287" lon="4.07401">
        <ele>651</ele>
        <time>2018-04-16T14:03:28Z</time>
      </trkpt>
      <trkpt lat="44.37296" lon="4.07397">
        <ele>652</ele>
        <time>2018-04-16T14:03:36Z</time>
      </trkpt>
      <trkpt lat="44.37308" lon="4.07392">
        <ele>654</ele>
        <time>2018-04-16T14:03:46Z</time>
      </trkpt>
      <trkpt lat="44.37315" lon="4.07391">
        <ele>655</ele>
        <time>2018-04-16T14:03:52Z</time>
      </trkpt>
      <trkpt lat="44.37324" lon="4.07392">
        <ele>655</ele>
        <time>2018-04-16T14:03:58Z</time>
      </trkpt>
      <trkpt lat="44.37331" lon="4.07392">
        <ele>655</ele>
        <time>2018-04-16T14:04:03Z</time>
      </trkpt>
      <trkpt lat="44.37334" lon="4.07391">
        <ele>656</ele>
        <time>2018-04-16T14:04:06Z</time>
      </trkpt>
      <trkpt lat="44.3734" lon="4.0739">
        <ele>657</ele>
        <time>2018-04-16T14:04:11Z</time>
      </trkpt>
      <trkpt lat="44.37345" lon="4.07387">
        <ele>658</ele>
        <time>2018-04-16T14:04:15Z</time>
      </trkpt>
      <trkpt lat="44.37352" lon="4.07385">
        <ele>659</ele>
        <time>2018-04-16T14:04:20Z</time>
      </trkpt>
      <trkpt lat="44.37366" lon="4.07375">
        <ele>660</ele>
        <time>2018-04-16T14:04:32Z</time>
      </trkpt>
      <trkpt lat="44.37377" lon="4.07368">
        <ele>661</ele>
        <time>2018-04-16T14:04:41Z</time>
      </trkpt>
      <trkpt lat="44.37383" lon="4.07361">
        <ele>662</ele>
        <time>2018-04-16T14:04:47Z</time>
      </trkpt>
      <trkpt lat="44.37387" lon="4.07358">
        <ele>662</ele>
        <time>2018-04-16T14:04:50Z</time>
      </trkpt>
      <trkpt lat="44.37393" lon="4.07352">
        <ele>663</ele>
        <time>2018-04-16T14:04:57Z</time>
      </trkpt>
      <trkpt lat="44.37395" lon="4.07351">
        <ele>665</ele>
        <time>2018-04-16T14:05:06Z</time>
      </trkpt>
      <trkpt lat="44.37406" lon="4.0734">
        <ele>665</ele>
        <time>2018-04-16T14:05:56Z</time>
      </trkpt>
      <trkpt lat="44.3741" lon="4.07336">
        <ele>666</ele>
        <time>2018-04-16T14:05:59Z</time>
      </trkpt>
      <trkpt lat="44.37417" lon="4.07329">
        <ele>667</ele>
        <time>2018-04-16T14:06:06Z</time>
      </trkpt>
      <trkpt lat="44.37424" lon="4.07317">
        <ele>668</ele>
        <time>2018-04-16T14:06:14Z</time>
      </trkpt>
      <trkpt lat="44.37433" lon="4.07303">
        <ele>669</ele>
        <time>2018-04-16T14:06:25Z</time>
      </trkpt>
      <trkpt lat="44.37442" lon="4.07293">
        <ele>670</ele>
        <time>2018-04-16T14:06:34Z</time>
      </trkpt>
      <trkpt lat="44.3745" lon="4.07285">
        <ele>671</ele>
        <time>2018-04-16T14:06:42Z</time>
      </trkpt>
      <trkpt lat="44.37467" lon="4.07278">
        <ele>672</ele>
        <time>2018-04-16T14:06:54Z</time>
      </trkpt>
      <trkpt lat="44.37508" lon="4.07264">
        <ele>673</ele>
        <time>2018-04-16T14:07:20Z</time>
      </trkpt>
      <trkpt lat="44.3753" lon="4.07257">
        <ele>674</ele>
        <time>2018-04-16T14:07:33Z</time>
      </trkpt>
      <trkpt lat="44.3755" lon="4.07251">
        <ele>676</ele>
        <time>2018-04-16T14:07:44Z</time>
      </trkpt>
      <trkpt lat="44.37558" lon="4.07248">
        <ele>676</ele>
        <time>2018-04-16T14:07:49Z</time>
      </trkpt>
      <trkpt lat="44.37573" lon="4.07239">
        <ele>677</ele>
        <time>2018-04-16T14:07:59Z</time>
      </trkpt>
      <trkpt lat="44.37584" lon="4.07226">
        <ele>678</ele>
        <time>2018-04-16T14:08:09Z</time>
      </trkpt>
      <trkpt lat="44.3759" lon="4.07212">
        <ele>679</ele>
        <time>2018-04-16T14:08:18Z</time>
      </trkpt>
      <trkpt lat="44.37593" lon="4.07203">
        <ele>679</ele>
        <time>2018-04-16T14:08:24Z</time>
      </trkpt>
      <trkpt lat="44.37593" lon="4.07192">
        <ele>681</ele>
        <time>2018-04-16T14:08:30Z</time>
      </trkpt>
      <trkpt lat="44.37596" lon="4.07168">
        <ele>682</ele>
        <time>2018-04-16T14:08:43Z</time>
      </trkpt>
      <trkpt lat="44.37597" lon="4.0715">
        <ele>683</ele>
        <time>2018-04-16T14:08:52Z</time>
      </trkpt>
      <trkpt lat="44.37598" lon="4.07132">
        <ele>684</ele>
        <time>2018-04-16T14:09:01Z</time>
      </trkpt>
      <trkpt lat="44.37595" lon="4.07101">
        <ele>684</ele>
        <time>2018-04-16T14:09:15Z</time>
      </trkpt>
      <trkpt lat="44.37595" lon="4.071">
        <ele>685</ele>
        <time>2018-04-16T14:09:27Z</time>
      </trkpt>
      <trkpt lat="44.37591" lon="4.07023">
        <ele>685</ele>
        <time>2018-04-16T14:11:07Z</time>
      </trkpt>
      <trkpt lat="44.37608" lon="4.06959">
        <ele>686</ele>
        <time>2018-04-16T14:11:34Z</time>
      </trkpt>
      <trkpt lat="44.37621" lon="4.06945">
        <ele>687</ele>
        <time>2018-04-16T14:11:44Z</time>
      </trkpt>
      <trkpt lat="44.37625" lon="4.06937">
        <ele>687</ele>
        <time>2018-04-16T14:11:48Z</time>
      </trkpt>
      <trkpt lat="44.3763" lon="4.06926">
        <ele>688</ele>
        <time>2018-04-16T14:11:54Z</time>
      </trkpt>
      <trkpt lat="44.37642" lon="4.06914">
        <ele>689</ele>
        <time>2018-04-16T14:12:03Z</time>
      </trkpt>
      <trkpt lat="44.37676" lon="4.06857">
        <ele>690</ele>
        <time>2018-04-16T14:12:34Z</time>
      </trkpt>
      <trkpt lat="44.37678" lon="4.0684">
        <ele>690</ele>
        <time>2018-04-16T14:12:41Z</time>
      </trkpt>
      <trkpt lat="44.37702" lon="4.06795">
        <ele>691</ele>
        <time>2018-04-16T14:13:05Z</time>
      </trkpt>
      <trkpt lat="44.37711" lon="4.06775">
        <ele>692</ele>
        <time>2018-04-16T14:13:15Z</time>
      </trkpt>
      <trkpt lat="44.37715" lon="4.06751">
        <ele>693</ele>
        <time>2018-04-16T14:13:28Z</time>
      </trkpt>
      <trkpt lat="44.37716" lon="4.06737">
        <ele>694</ele>
        <time>2018-04-16T14:13:36Z</time>
      </trkpt>
      <trkpt lat="44.3772" lon="4.06728">
        <ele>695</ele>
        <time>2018-04-16T14:13:42Z</time>
      </trkpt>
      <trkpt lat="44.37722" lon="4.0672">
        <ele>696</ele>
        <time>2018-04-16T14:13:47Z</time>
      </trkpt>
      <trkpt lat="44.37725" lon="4.06713">
        <ele>697</ele>
        <time>2018-04-16T14:13:52Z</time>
      </trkpt>
      <trkpt lat="44.37728" lon="4.06701">
        <ele>698</ele>
        <time>2018-04-16T14:13:59Z</time>
      </trkpt>
      <trkpt lat="44.37731" lon="4.06691">
        <ele>699</ele>
        <time>2018-04-16T14:14:06Z</time>
      </trkpt>
      <trkpt lat="44.37731" lon="4.06689">
        <ele>700</ele>
        <time>2018-04-16T14:14:07Z</time>
      </trkpt>
      <trkpt lat="44.37731" lon="4.06686">
        <ele>700</ele>
        <time>2018-04-16T14:14:09Z</time>
      </trkpt>
      <trkpt lat="44.37731" lon="4.06685">
        <ele>701</ele>
        <time>2018-04-16T14:14:10Z</time>
      </trkpt>
      <trkpt lat="44.37731" lon="4.06682">
        <ele>701</ele>
        <time>2018-04-16T14:14:13Z</time>
      </trkpt>
      <trkpt lat="44.37732" lon="4.06676">
        <ele>702</ele>
        <time>2018-04-16T14:14:17Z</time>
      </trkpt>
      <trkpt lat="44.37734" lon="4.06668">
        <ele>703</ele>
        <time>2018-04-16T14:14:23Z</time>
      </trkpt>
      <trkpt lat="44.37738" lon="4.06659">
        <ele>704</ele>
        <time>2018-04-16T14:14:29Z</time>
      </trkpt>
      <trkpt lat="44.37739" lon="4.06658">
        <ele>704</ele>
        <time>2018-04-16T14:14:30Z</time>
      </trkpt>
      <trkpt lat="44.37744" lon="4.06645">
        <ele>704</ele>
        <time>2018-04-16T14:14:38Z</time>
      </trkpt>
      <trkpt lat="44.37745" lon="4.06642">
        <ele>705</ele>
        <time>2018-04-16T14:14:40Z</time>
      </trkpt>
      <trkpt lat="44.37746" lon="4.06634">
        <ele>706</ele>
        <time>2018-04-16T14:14:46Z</time>
      </trkpt>
      <trkpt lat="44.37747" lon="4.06628">
        <ele>707</ele>
        <time>2018-04-16T14:14:50Z</time>
      </trkpt>
      <trkpt lat="44.37751" lon="4.06615">
        <ele>708</ele>
        <time>2018-04-16T14:14:59Z</time>
      </trkpt>
      <trkpt lat="44.37756" lon="4.06606">
        <ele>709</ele>
        <time>2018-04-16T14:15:05Z</time>
      </trkpt>
      <trkpt lat="44.37757" lon="4.06603">
        <ele>710</ele>
        <time>2018-04-16T14:15:13Z</time>
      </trkpt>
      <trkpt lat="44.37759" lon="4.06599">
        <ele>711</ele>
        <time>2018-04-16T14:15:24Z</time>
      </trkpt>
      <trkpt lat="44.37765" lon="4.0659">
        <ele>711</ele>
        <time>2018-04-16T14:15:33Z</time>
      </trkpt>
      <trkpt lat="44.37768" lon="4.06584">
        <ele>712</ele>
        <time>2018-04-16T14:15:39Z</time>
      </trkpt>
      <trkpt lat="44.37771" lon="4.06581">
        <ele>712</ele>
        <time>2018-04-16T14:15:44Z</time>
      </trkpt>
      <trkpt lat="44.37773" lon="4.06578">
        <ele>713</ele>
        <time>2018-04-16T14:15:47Z</time>
      </trkpt>
      <trkpt lat="44.37777" lon="4.06571">
        <ele>714</ele>
        <time>2018-04-16T14:15:55Z</time>
      </trkpt>
      <trkpt lat="44.37781" lon="4.06562">
        <ele>715</ele>
        <time>2018-04-16T14:16:04Z</time>
      </trkpt>
      <trkpt lat="44.37787" lon="4.06553">
        <ele>716</ele>
        <time>2018-04-16T14:16:15Z</time>
      </trkpt>
      <trkpt lat="44.37791" lon="4.06547">
        <ele>717</ele>
        <time>2018-04-16T14:16:22Z</time>
      </trkpt>
      <trkpt lat="44.37793" lon="4.06543">
        <ele>718</ele>
        <time>2018-04-16T14:16:28Z</time>
      </trkpt>
      <trkpt lat="44.37793" lon="4.06543">
        <ele>719</ele>
        <time>2018-04-16T14:16:33Z</time>
      </trkpt>
      <trkpt lat="44.37793" lon="4.06543">
        <ele>719</ele>
        <time>2018-04-16T14:17:29Z</time>
      </trkpt>
      <trkpt lat="44.37795" lon="4.06527">
        <ele>720</ele>
        <time>2018-04-16T14:17:50Z</time>
      </trkpt>
      <trkpt lat="44.37792" lon="4.06517">
        <ele>721</ele>
        <time>2018-04-16T14:17:57Z</time>
      </trkpt>
      <trkpt lat="44.37792" lon="4.06506">
        <ele>722</ele>
        <time>2018-04-16T14:18:03Z</time>
      </trkpt>
      <trkpt lat="44.37792" lon="4.06505">
        <ele>722</ele>
        <time>2018-04-16T14:18:04Z</time>
      </trkpt>
      <trkpt lat="44.37791" lon="4.06497">
        <ele>723</ele>
        <time>2018-04-16T14:18:09Z</time>
      </trkpt>
      <trkpt lat="44.3779" lon="4.06492">
        <ele>723</ele>
        <time>2018-04-16T14:18:12Z</time>
      </trkpt>
      <trkpt lat="44.37789" lon="4.06485">
        <ele>724</ele>
        <time>2018-04-16T14:18:17Z</time>
      </trkpt>
      <trkpt lat="44.3779" lon="4.06482">
        <ele>724</ele>
        <time>2018-04-16T14:18:19Z</time>
      </trkpt>
      <trkpt lat="44.37789" lon="4.06478">
        <ele>724</ele>
        <time>2018-04-16T14:18:21Z</time>
      </trkpt>
      <trkpt lat="44.37787" lon="4.06467">
        <ele>725</ele>
        <time>2018-04-16T14:18:28Z</time>
      </trkpt>
      <trkpt lat="44.37785" lon="4.06458">
        <ele>726</ele>
        <time>2018-04-16T14:18:34Z</time>
      </trkpt>
      <trkpt lat="44.37784" lon="4.06455">
        <ele>727</ele>
        <time>2018-04-16T14:18:36Z</time>
      </trkpt>
      <trkpt lat="44.37784" lon="4.06449">
        <ele>727</ele>
        <time>2018-04-16T14:18:40Z</time>
      </trkpt>
      <trkpt lat="44.37782" lon="4.06442">
        <ele>728</ele>
        <time>2018-04-16T14:18:44Z</time>
      </trkpt>
      <trkpt lat="44.3778" lon="4.06438">
        <ele>729</ele>
        <time>2018-04-16T14:18:47Z</time>
      </trkpt>
      <trkpt lat="44.37775" lon="4.06434">
        <ele>729</ele>
        <time>2018-04-16T14:18:51Z</time>
      </trkpt>
      <trkpt lat="44.37769" lon="4.06426">
        <ele>730</ele>
        <time>2018-04-16T14:18:57Z</time>
      </trkpt>
      <trkpt lat="44.37764" lon="4.06422">
        <ele>732</ele>
        <time>2018-04-16T14:19:01Z</time>
      </trkpt>
      <trkpt lat="44.37758" lon="4.06415">
        <ele>733</ele>
        <time>2018-04-16T14:19:07Z</time>
      </trkpt>
      <trkpt lat="44.37753" lon="4.06412">
        <ele>734</ele>
        <time>2018-04-16T14:19:11Z</time>
      </trkpt>
      <trkpt lat="44.37748" lon="4.06404">
        <ele>735</ele>
        <time>2018-04-16T14:19:17Z</time>
      </trkpt>
      <trkpt lat="44.37741" lon="4.06397">
        <ele>736</ele>
        <time>2018-04-16T14:19:23Z</time>
      </trkpt>
      <trkpt lat="44.3773" lon="4.06385">
        <ele>737</ele>
        <time>2018-04-16T14:19:33Z</time>
      </trkpt>
      <trkpt lat="44.37728" lon="4.06382">
        <ele>737</ele>
        <time>2018-04-16T14:19:35Z</time>
      </trkpt>
      <trkpt lat="44.37723" lon="4.06373">
        <ele>738</ele>
        <time>2018-04-16T14:19:42Z</time>
      </trkpt>
      <trkpt lat="44.37722" lon="4.06372">
        <ele>738</ele>
        <time>2018-04-16T14:19:43Z</time>
      </trkpt>
      <trkpt lat="44.37717" lon="4.06363">
        <ele>739</ele>
        <time>2018-04-16T14:19:50Z</time>
      </trkpt>
      <trkpt lat="44.37717" lon="4.0636">
        <ele>739</ele>
        <time>2018-04-16T14:19:52Z</time>
      </trkpt>
      <trkpt lat="44.37712" lon="4.06351">
        <ele>740</ele>
        <time>2018-04-16T14:19:58Z</time>
      </trkpt>
      <trkpt lat="44.37706" lon="4.0634">
        <ele>741</ele>
        <time>2018-04-16T14:20:06Z</time>
      </trkpt>
      <trkpt lat="44.37703" lon="4.06333">
        <ele>742</ele>
        <time>2018-04-16T14:20:11Z</time>
      </trkpt>
      <trkpt lat="44.37698" lon="4.06325">
        <ele>743</ele>
        <time>2018-04-16T14:20:17Z</time>
      </trkpt>
      <trkpt lat="44.37693" lon="4.06317">
        <ele>744</ele>
        <time>2018-04-16T14:20:23Z</time>
      </trkpt>
      <trkpt lat="44.37686" lon="4.06312">
        <ele>745</ele>
        <time>2018-04-16T14:20:29Z</time>
      </trkpt>
      <trkpt lat="44.37685" lon="4.06309">
        <ele>746</ele>
        <time>2018-04-16T14:20:34Z</time>
      </trkpt>
      <trkpt lat="44.37684" lon="4.06309">
        <ele>747</ele>
        <time>2018-04-16T14:20:39Z</time>
      </trkpt>
      <trkpt lat="44.37671" lon="4.06289">
        <ele>748</ele>
        <time>2018-04-16T14:21:25Z</time>
      </trkpt>
      <trkpt lat="44.37667" lon="4.06284">
        <ele>749</ele>
        <time>2018-04-16T14:21:31Z</time>
      </trkpt>
      <trkpt lat="44.37663" lon="4.06279">
        <ele>751</ele>
        <time>2018-04-16T14:21:37Z</time>
      </trkpt>
      <trkpt lat="44.37659" lon="4.06274">
        <ele>752</ele>
        <time>2018-04-16T14:21:43Z</time>
      </trkpt>
      <trkpt lat="44.37654" lon="4.06266">
        <ele>752</ele>
        <time>2018-04-16T14:21:50Z</time>
      </trkpt>
      <trkpt lat="44.37649" lon="4.06259">
        <ele>753</ele>
        <time>2018-04-16T14:21:58Z</time>
      </trkpt>
      <trkpt lat="44.37646" lon="4.06254">
        <ele>755</ele>
        <time>2018-04-16T14:22:04Z</time>
      </trkpt>
      <trkpt lat="44.37643" lon="4.06248">
        <ele>756</ele>
        <time>2018-04-16T14:22:10Z</time>
      </trkpt>
      <trkpt lat="44.3764" lon="4.0624">
        <ele>757</ele>
        <time>2018-04-16T14:22:18Z</time>
      </trkpt>
      <trkpt lat="44.37637" lon="4.06235">
        <ele>758</ele>
        <time>2018-04-16T14:22:24Z</time>
      </trkpt>
      <trkpt lat="44.37637" lon="4.06234">
        <ele>759</ele>
        <time>2018-04-16T14:22:29Z</time>
      </trkpt>
      <trkpt lat="44.37636" lon="4.06234">
        <ele>759</ele>
        <time>2018-04-16T14:22:32Z</time>
      </trkpt>
      <trkpt lat="44.37623" lon="4.06224">
        <ele>760</ele>
        <time>2018-04-16T14:22:45Z</time>
      </trkpt>
      <trkpt lat="44.37609" lon="4.06228">
        <ele>761</ele>
        <time>2018-04-16T14:22:56Z</time>
      </trkpt>
      <trkpt lat="44.37605" lon="4.0623">
        <ele>761</ele>
        <time>2018-04-16T14:22:59Z</time>
      </trkpt>
      <trkpt lat="44.37603" lon="4.0623">
        <ele>762</ele>
        <time>2018-04-16T14:23:01Z</time>
      </trkpt>
      <trkpt lat="44.37599" lon="4.06231">
        <ele>762</ele>
        <time>2018-04-16T14:23:04Z</time>
      </trkpt>
      <trkpt lat="44.37594" lon="4.06232">
        <ele>763</ele>
        <time>2018-04-16T14:23:08Z</time>
      </trkpt>
      <trkpt lat="44.37586" lon="4.06237">
        <ele>764</ele>
        <time>2018-04-16T14:23:14Z</time>
      </trkpt>
      <trkpt lat="44.37574" lon="4.0624">
        <ele>765</ele>
        <time>2018-04-16T14:23:24Z</time>
      </trkpt>
      <trkpt lat="44.37573" lon="4.0624">
        <ele>765</ele>
        <time>2018-04-16T14:23:25Z</time>
      </trkpt>
      <trkpt lat="44.37568" lon="4.06242">
        <ele>766</ele>
        <time>2018-04-16T14:23:29Z</time>
      </trkpt>
      <trkpt lat="44.37563" lon="4.06245">
        <ele>767</ele>
        <time>2018-04-16T14:23:34Z</time>
      </trkpt>
      <trkpt lat="44.37557" lon="4.06248">
        <ele>768</ele>
        <time>2018-04-16T14:23:41Z</time>
      </trkpt>
      <trkpt lat="44.37548" lon="4.06254">
        <ele>769</ele>
        <time>2018-04-16T14:23:49Z</time>
      </trkpt>
      <trkpt lat="44.37537" lon="4.06253">
        <ele>770</ele>
        <time>2018-04-16T14:23:59Z</time>
      </trkpt>
      <trkpt lat="44.37535" lon="4.06244">
        <ele>771</ele>
        <time>2018-04-16T14:24:05Z</time>
      </trkpt>
      <trkpt lat="44.37536" lon="4.06241">
        <ele>771</ele>
        <time>2018-04-16T14:24:07Z</time>
      </trkpt>
      <trkpt lat="44.37538" lon="4.06238">
        <ele>772</ele>
        <time>2018-04-16T14:24:09Z</time>
      </trkpt>
      <trkpt lat="44.37542" lon="4.06235">
        <ele>772</ele>
        <time>2018-04-16T14:24:14Z</time>
      </trkpt>
      <trkpt lat="44.37544" lon="4.06235">
        <ele>773</ele>
        <time>2018-04-16T14:24:15Z</time>
      </trkpt>
      <trkpt lat="44.37546" lon="4.06233">
        <ele>773</ele>
        <time>2018-04-16T14:24:17Z</time>
      </trkpt>
      <trkpt lat="44.37555" lon="4.06228">
        <ele>774</ele>
        <time>2018-04-16T14:24:25Z</time>
      </trkpt>
      <trkpt lat="44.37563" lon="4.0622">
        <ele>775</ele>
        <time>2018-04-16T14:24:33Z</time>
      </trkpt>
      <trkpt lat="44.37571" lon="4.0621">
        <ele>776</ele>
        <time>2018-04-16T14:24:42Z</time>
      </trkpt>
      <trkpt lat="44.37581" lon="4.06199">
        <ele>777</ele>
        <time>2018-04-16T14:24:52Z</time>
      </trkpt>
      <trkpt lat="44.37589" lon="4.06191">
        <ele>778</ele>
        <time>2018-04-16T14:25:00Z</time>
      </trkpt>
      <trkpt lat="44.37597" lon="4.06182">
        <ele>779</ele>
        <time>2018-04-16T14:25:08Z</time>
      </trkpt>
      <trkpt lat="44.37603" lon="4.06176">
        <ele>780</ele>
        <time>2018-04-16T14:25:14Z</time>
      </trkpt>
      <trkpt lat="44.37604" lon="4.06175">
        <ele>780</ele>
        <time>2018-04-16T14:25:15Z</time>
      </trkpt>
      <trkpt lat="44.37607" lon="4.06171">
        <ele>781</ele>
        <time>2018-04-16T14:25:19Z</time>
      </trkpt>
      <trkpt lat="44.37609" lon="4.0617">
        <ele>782</ele>
        <time>2018-04-16T14:25:20Z</time>
      </trkpt>
      <trkpt lat="44.37612" lon="4.06169">
        <ele>782</ele>
        <time>2018-04-16T14:25:23Z</time>
      </trkpt>
      <trkpt lat="44.37616" lon="4.06166">
        <ele>783</ele>
        <time>2018-04-16T14:25:27Z</time>
      </trkpt>
      <trkpt lat="44.37619" lon="4.06163">
        <ele>784</ele>
        <time>2018-04-16T14:25:31Z</time>
      </trkpt>
      <trkpt lat="44.37622" lon="4.06161">
        <ele>785</ele>
        <time>2018-04-16T14:25:34Z</time>
      </trkpt>
      <trkpt lat="44.37623" lon="4.0616">
        <ele>785</ele>
        <time>2018-04-16T14:25:35Z</time>
      </trkpt>
      <trkpt lat="44.37627" lon="4.06155">
        <ele>786</ele>
        <time>2018-04-16T14:25:41Z</time>
      </trkpt>
      <trkpt lat="44.3763" lon="4.0615">
        <ele>787</ele>
        <time>2018-04-16T14:25:47Z</time>
      </trkpt>
      <trkpt lat="44.37631" lon="4.0615">
        <ele>788</ele>
        <time>2018-04-16T14:25:52Z</time>
      </trkpt>
      <trkpt lat="44.37632" lon="4.06149">
        <ele>788</ele>
        <time>2018-04-16T14:26:32Z</time>
      </trkpt>
      <trkpt lat="44.37648" lon="4.06161">
        <ele>789</ele>
        <time>2018-04-16T14:26:48Z</time>
      </trkpt>
      <trkpt lat="44.37655" lon="4.06168">
        <ele>790</ele>
        <time>2018-04-16T14:26:56Z</time>
      </trkpt>
      <trkpt lat="44.3766" lon="4.06172">
        <ele>791</ele>
        <time>2018-04-16T14:27:02Z</time>
      </trkpt>
      <trkpt lat="44.3767" lon="4.06177">
        <ele>792</ele>
        <time>2018-04-16T14:27:12Z</time>
      </trkpt>
      <trkpt lat="44.37674" lon="4.06181">
        <ele>793</ele>
        <time>2018-04-16T14:27:17Z</time>
      </trkpt>
      <trkpt lat="44.37676" lon="4.06184">
        <ele>793</ele>
        <time>2018-04-16T14:27:20Z</time>
      </trkpt>
      <trkpt lat="44.37682" lon="4.06189">
        <ele>794</ele>
        <time>2018-04-16T14:27:28Z</time>
      </trkpt>
      <trkpt lat="44.37687" lon="4.06192">
        <ele>795</ele>
        <time>2018-04-16T14:27:34Z</time>
      </trkpt>
      <trkpt lat="44.37692" lon="4.06195">
        <ele>797</ele>
        <time>2018-04-16T14:27:40Z</time>
      </trkpt>
      <trkpt lat="44.377" lon="4.06199">
        <ele>798</ele>
        <time>2018-04-16T14:27:49Z</time>
      </trkpt>
      <trkpt lat="44.37706" lon="4.06204">
        <ele>799</ele>
        <time>2018-04-16T14:27:58Z</time>
      </trkpt>
      <trkpt lat="44.37708" lon="4.06204">
        <ele>800</ele>
        <time>2018-04-16T14:28:05Z</time>
      </trkpt>
      <trkpt lat="44.37716" lon="4.0621">
        <ele>801</ele>
        <time>2018-04-16T14:28:17Z</time>
      </trkpt>
      <trkpt lat="44.37721" lon="4.06215">
        <ele>802</ele>
        <time>2018-04-16T14:28:24Z</time>
      </trkpt>
      <trkpt lat="44.37727" lon="4.06222">
        <ele>803</ele>
        <time>2018-04-16T14:28:33Z</time>
      </trkpt>
      <trkpt lat="44.37731" lon="4.06225">
        <ele>804</ele>
        <time>2018-04-16T14:28:38Z</time>
      </trkpt>
      <trkpt lat="44.37735" lon="4.06229">
        <ele>805</ele>
        <time>2018-04-16T14:28:45Z</time>
      </trkpt>
      <trkpt lat="44.37736" lon="4.06229">
        <ele>805</ele>
        <time>2018-04-16T14:28:46Z</time>
      </trkpt>
      <trkpt lat="44.37739" lon="4.06231">
        <ele>806</ele>
        <time>2018-04-16T14:28:50Z</time>
      </trkpt>
      <trkpt lat="44.37743" lon="4.06235">
        <ele>806</ele>
        <time>2018-04-16T14:28:56Z</time>
      </trkpt>
      <trkpt lat="44.37748" lon="4.0624">
        <ele>807</ele>
        <time>2018-04-16T14:29:03Z</time>
      </trkpt>
      <trkpt lat="44.37752" lon="4.06244">
        <ele>808</ele>
        <time>2018-04-16T14:29:09Z</time>
      </trkpt>
      <trkpt lat="44.37761" lon="4.06251">
        <ele>809</ele>
        <time>2018-04-16T14:29:21Z</time>
      </trkpt>
      <trkpt lat="44.37768" lon="4.06256">
        <ele>810</ele>
        <time>2018-04-16T14:29:30Z</time>
      </trkpt>
      <trkpt lat="44.37774" lon="4.06262">
        <ele>811</ele>
        <time>2018-04-16T14:29:39Z</time>
      </trkpt>
      <trkpt lat="44.37778" lon="4.06265">
        <ele>813</ele>
        <time>2018-04-16T14:29:46Z</time>
      </trkpt>
      <trkpt lat="44.37779" lon="4.06265">
        <ele>814</ele>
        <time>2018-04-16T14:29:51Z</time>
      </trkpt>
      <trkpt lat="44.37781" lon="4.06267">
        <ele>814</ele>
        <time>2018-04-16T14:30:06Z</time>
      </trkpt>
      <trkpt lat="44.37782" lon="4.06266">
        <ele>814</ele>
        <time>2018-04-16T14:30:15Z</time>
      </trkpt>
      <trkpt lat="44.37788" lon="4.0627">
        <ele>814</ele>
        <time>2018-04-16T14:30:21Z</time>
      </trkpt>
      <trkpt lat="44.37801" lon="4.06273">
        <ele>815</ele>
        <time>2018-04-16T14:30:32Z</time>
      </trkpt>
      <trkpt lat="44.37802" lon="4.06273">
        <ele>815</ele>
        <time>2018-04-16T14:30:33Z</time>
      </trkpt>
      <trkpt lat="44.37807" lon="4.06274">
        <ele>816</ele>
        <time>2018-04-16T14:30:37Z</time>
      </trkpt>
      <trkpt lat="44.37813" lon="4.06277">
        <ele>817</ele>
        <time>2018-04-16T14:30:42Z</time>
      </trkpt>
      <trkpt lat="44.37817" lon="4.06277">
        <ele>817</ele>
        <time>2018-04-16T14:30:46Z</time>
      </trkpt>
      <trkpt lat="44.37822" lon="4.06277">
        <ele>818</ele>
        <time>2018-04-16T14:30:50Z</time>
      </trkpt>
      <trkpt lat="44.37826" lon="4.06277">
        <ele>819</ele>
        <time>2018-04-16T14:30:54Z</time>
      </trkpt>
      <trkpt lat="44.37834" lon="4.0628">
        <ele>821</ele>
        <time>2018-04-16T14:31:00Z</time>
      </trkpt>
      <trkpt lat="44.37848" lon="4.06284">
        <ele>822</ele>
        <time>2018-04-16T14:31:11Z</time>
      </trkpt>
      <trkpt lat="44.37856" lon="4.06288">
        <ele>823</ele>
        <time>2018-04-16T14:31:18Z</time>
      </trkpt>
      <trkpt lat="44.37862" lon="4.06291">
        <ele>824</ele>
        <time>2018-04-16T14:31:23Z</time>
      </trkpt>
      <trkpt lat="44.37871" lon="4.06294">
        <ele>825</ele>
        <time>2018-04-16T14:31:31Z</time>
      </trkpt>
      <trkpt lat="44.37876" lon="4.06296">
        <ele>826</ele>
        <time>2018-04-16T14:31:36Z</time>
      </trkpt>
      <trkpt lat="44.37877" lon="4.06295">
        <ele>826</ele>
        <time>2018-04-16T14:31:37Z</time>
      </trkpt>
      <trkpt lat="44.3788" lon="4.06296">
        <ele>827</ele>
        <time>2018-04-16T14:31:40Z</time>
      </trkpt>
      <trkpt lat="44.37887" lon="4.06299">
        <ele>827</ele>
        <time>2018-04-16T14:31:46Z</time>
      </trkpt>
      <trkpt lat="44.37888" lon="4.06299">
        <ele>827</ele>
        <time>2018-04-16T14:31:47Z</time>
      </trkpt>
      <trkpt lat="44.37893" lon="4.06302">
        <ele>828</ele>
        <time>2018-04-16T14:31:52Z</time>
      </trkpt>
      <trkpt lat="44.379" lon="4.06303">
        <ele>829</ele>
        <time>2018-04-16T14:31:58Z</time>
      </trkpt>
      <trkpt lat="44.379" lon="4.06303">
        <ele>830</ele>
        <time>2018-04-16T14:31:59Z</time>
      </trkpt>
      <trkpt lat="44.37905" lon="4.06303">
        <ele>831</ele>
        <time>2018-04-16T14:32:04Z</time>
      </trkpt>
      <trkpt lat="44.37911" lon="4.06305">
        <ele>832</ele>
        <time>2018-04-16T14:32:09Z</time>
      </trkpt>
      <trkpt lat="44.37921" lon="4.06307">
        <ele>833</ele>
        <time>2018-04-16T14:32:18Z</time>
      </trkpt>
      <trkpt lat="44.37926" lon="4.06307">
        <ele>834</ele>
        <time>2018-04-16T14:32:23Z</time>
      </trkpt>
      <trkpt lat="44.37927" lon="4.06308">
        <ele>834</ele>
        <time>2018-04-16T14:32:24Z</time>
      </trkpt>
      <trkpt lat="44.37933" lon="4.06311">
        <ele>835</ele>
        <time>2018-04-16T14:32:30Z</time>
      </trkpt>
      <trkpt lat="44.37939" lon="4.0631">
        <ele>836</ele>
        <time>2018-04-16T14:32:36Z</time>
      </trkpt>
      <trkpt lat="44.37945" lon="4.06313">
        <ele>837</ele>
        <time>2018-04-16T14:32:42Z</time>
      </trkpt>
      <trkpt lat="44.37947" lon="4.06314">
        <ele>837</ele>
        <time>2018-04-16T14:32:44Z</time>
      </trkpt>
      <trkpt lat="44.3795" lon="4.06314">
        <ele>837</ele>
        <time>2018-04-16T14:32:46Z</time>
      </trkpt>
      <trkpt lat="44.37951" lon="4.06315">
        <ele>838</ele>
        <time>2018-04-16T14:32:47Z</time>
      </trkpt>
      <trkpt lat="44.37954" lon="4.06317">
        <ele>838</ele>
        <time>2018-04-16T14:32:51Z</time>
      </trkpt>
      <trkpt lat="44.37955" lon="4.06317">
        <ele>838</ele>
        <time>2018-04-16T14:32:52Z</time>
      </trkpt>
      <trkpt lat="44.37956" lon="4.06318">
        <ele>838</ele>
        <time>2018-04-16T14:32:53Z</time>
      </trkpt>
      <trkpt lat="44.37962" lon="4.06319">
        <ele>839</ele>
        <time>2018-04-16T14:33:00Z</time>
      </trkpt>
      <trkpt lat="44.37965" lon="4.06322">
        <ele>839</ele>
        <time>2018-04-16T14:33:04Z</time>
      </trkpt>
      <trkpt lat="44.37968" lon="4.06321">
        <ele>840</ele>
        <time>2018-04-16T14:33:07Z</time>
      </trkpt>
      <trkpt lat="44.37971" lon="4.06308">
        <ele>840</ele>
        <time>2018-04-16T14:33:23Z</time>
      </trkpt>
      <trkpt lat="44.37967" lon="4.06304">
        <ele>841</ele>
        <time>2018-04-16T14:33:27Z</time>
      </trkpt>
      <trkpt lat="44.37955" lon="4.0629">
        <ele>842</ele>
        <time>2018-04-16T14:33:41Z</time>
      </trkpt>
      <trkpt lat="44.37954" lon="4.0629">
        <ele>842</ele>
        <time>2018-04-16T14:33:42Z</time>
      </trkpt>
      <trkpt lat="44.37951" lon="4.06287">
        <ele>842</ele>
        <time>2018-04-16T14:33:45Z</time>
      </trkpt>
      <trkpt lat="44.3795" lon="4.06286">
        <ele>842</ele>
        <time>2018-04-16T14:33:47Z</time>
      </trkpt>
      <trkpt lat="44.3794" lon="4.06279">
        <ele>843</ele>
        <time>2018-04-16T14:33:57Z</time>
      </trkpt>
      <trkpt lat="44.37929" lon="4.0627">
        <ele>844</ele>
        <time>2018-04-16T14:34:08Z</time>
      </trkpt>
      <trkpt lat="44.37926" lon="4.06266">
        <ele>845</ele>
        <time>2018-04-16T14:34:12Z</time>
      </trkpt>
      <trkpt lat="44.37924" lon="4.06263">
        <ele>845</ele>
        <time>2018-04-16T14:34:15Z</time>
      </trkpt>
      <trkpt lat="44.37919" lon="4.06256">
        <ele>847</ele>
        <time>2018-04-16T14:34:21Z</time>
      </trkpt>
      <trkpt lat="44.37913" lon="4.06243">
        <ele>848</ele>
        <time>2018-04-16T14:34:31Z</time>
      </trkpt>
      <trkpt lat="44.3791" lon="4.06236">
        <ele>848</ele>
        <time>2018-04-16T14:34:36Z</time>
      </trkpt>
      <trkpt lat="44.3791" lon="4.06233">
        <ele>849</ele>
        <time>2018-04-16T14:34:38Z</time>
      </trkpt>
      <trkpt lat="44.37909" lon="4.06227">
        <ele>849</ele>
        <time>2018-04-16T14:34:41Z</time>
      </trkpt>
      <trkpt lat="44.37906" lon="4.06221">
        <ele>850</ele>
        <time>2018-04-16T14:34:46Z</time>
      </trkpt>
      <trkpt lat="44.37905" lon="4.06218">
        <ele>850</ele>
        <time>2018-04-16T14:34:48Z</time>
      </trkpt>
      <trkpt lat="44.37899" lon="4.06209">
        <ele>851</ele>
        <time>2018-04-16T14:34:55Z</time>
      </trkpt>
      <trkpt lat="44.37897" lon="4.06206">
        <ele>851</ele>
        <time>2018-04-16T14:34:58Z</time>
      </trkpt>
      <trkpt lat="44.37893" lon="4.06199">
        <ele>852</ele>
        <time>2018-04-16T14:35:03Z</time>
      </trkpt>
      <trkpt lat="44.37892" lon="4.06198">
        <ele>852</ele>
        <time>2018-04-16T14:35:04Z</time>
      </trkpt>
      <trkpt lat="44.37885" lon="4.06189">
        <ele>853</ele>
        <time>2018-04-16T14:35:12Z</time>
      </trkpt>
      <trkpt lat="44.37877" lon="4.06178">
        <ele>854</ele>
        <time>2018-04-16T14:35:21Z</time>
      </trkpt>
      <trkpt lat="44.37869" lon="4.06162">
        <ele>855</ele>
        <time>2018-04-16T14:35:33Z</time>
      </trkpt>
      <trkpt lat="44.37864" lon="4.0615">
        <ele>857</ele>
        <time>2018-04-16T14:35:42Z</time>
      </trkpt>
      <trkpt lat="44.37859" lon="4.06141">
        <ele>858</ele>
        <time>2018-04-16T14:35:50Z</time>
      </trkpt>
      <trkpt lat="44.3785" lon="4.06127">
        <ele>859</ele>
        <time>2018-04-16T14:36:01Z</time>
      </trkpt>
      <trkpt lat="44.37845" lon="4.06119">
        <ele>860</ele>
        <time>2018-04-16T14:36:07Z</time>
      </trkpt>
      <trkpt lat="44.3784" lon="4.06113">
        <ele>861</ele>
        <time>2018-04-16T14:36:12Z</time>
      </trkpt>
      <trkpt lat="44.37832" lon="4.06107">
        <ele>862</ele>
        <time>2018-04-16T14:36:20Z</time>
      </trkpt>
      <trkpt lat="44.37824" lon="4.061">
        <ele>863</ele>
        <time>2018-04-16T14:36:27Z</time>
      </trkpt>
      <trkpt lat="44.37814" lon="4.06087">
        <ele>864</ele>
        <time>2018-04-16T14:36:38Z</time>
      </trkpt>
      <trkpt lat="44.37804" lon="4.06071">
        <ele>865</ele>
        <time>2018-04-16T14:36:51Z</time>
      </trkpt>
      <trkpt lat="44.378" lon="4.06052">
        <ele>866</ele>
        <time>2018-04-16T14:37:02Z</time>
      </trkpt>
      <trkpt lat="44.37801" lon="4.06038">
        <ele>867</ele>
        <time>2018-04-16T14:37:10Z</time>
      </trkpt>
      <trkpt lat="44.37802" lon="4.06031">
        <ele>868</ele>
        <time>2018-04-16T14:37:14Z</time>
      </trkpt>
      <trkpt lat="44.37804" lon="4.06025">
        <ele>869</ele>
        <time>2018-04-16T14:37:18Z</time>
      </trkpt>
      <trkpt lat="44.3781" lon="4.06012">
        <ele>870</ele>
        <time>2018-04-16T14:37:26Z</time>
      </trkpt>
      <trkpt lat="44.37813" lon="4.06005">
        <ele>871</ele>
        <time>2018-04-16T14:37:38Z</time>
      </trkpt>
      <trkpt lat="44.37813" lon="4.06004">
        <ele>871</ele>
        <time>2018-04-16T14:38:35Z</time>
      </trkpt>
      <trkpt lat="44.37837" lon="4.05982">
        <ele>872</ele>
        <time>2018-04-16T14:42:43Z</time>
      </trkpt>
      <trkpt lat="44.37838" lon="4.05981">
        <ele>872</ele>
        <time>2018-04-16T14:42:44Z</time>
      </trkpt>
      <trkpt lat="44.37846" lon="4.05975">
        <ele>873</ele>
        <time>2018-04-16T14:42:52Z</time>
      </trkpt>
      <trkpt lat="44.37848" lon="4.05972">
        <ele>873</ele>
        <time>2018-04-16T14:42:55Z</time>
      </trkpt>
      <trkpt lat="44.37852" lon="4.05961">
        <ele>874</ele>
        <time>2018-04-16T14:43:02Z</time>
      </trkpt>
      <trkpt lat="44.37853" lon="4.05959">
        <ele>874</ele>
        <time>2018-04-16T14:43:03Z</time>
      </trkpt>
      <trkpt lat="44.37855" lon="4.05951">
        <ele>875</ele>
        <time>2018-04-16T14:43:08Z</time>
      </trkpt>
      <trkpt lat="44.37858" lon="4.05937">
        <ele>875</ele>
        <time>2018-04-16T14:43:17Z</time>
      </trkpt>
      <trkpt lat="44.37859" lon="4.05922">
        <ele>876</ele>
        <time>2018-04-16T14:43:25Z</time>
      </trkpt>
      <trkpt lat="44.37859" lon="4.05904">
        <ele>876</ele>
        <time>2018-04-16T14:43:36Z</time>
      </trkpt>
      <trkpt lat="44.37859" lon="4.05889">
        <ele>877</ele>
        <time>2018-04-16T14:43:44Z</time>
      </trkpt>
      <trkpt lat="44.37865" lon="4.05849">
        <ele>878</ele>
        <time>2018-04-16T14:44:01Z</time>
      </trkpt>
      <trkpt lat="44.37888" lon="4.05779">
        <ele>879</ele>
        <time>2018-04-16T14:44:27Z</time>
      </trkpt>
      <trkpt lat="44.3789" lon="4.05776">
        <ele>879</ele>
        <time>2018-04-16T14:44:28Z</time>
      </trkpt>
      <trkpt lat="44.37886" lon="4.05707">
        <ele>879</ele>
        <time>2018-04-16T14:44:53Z</time>
      </trkpt>
      <trkpt lat="44.3787" lon="4.05682">
        <ele>880</ele>
        <time>2018-04-16T14:45:07Z</time>
      </trkpt>
      <trkpt lat="44.37861" lon="4.05664">
        <ele>881</ele>
        <time>2018-04-16T14:45:16Z</time>
      </trkpt>
      <trkpt lat="44.37859" lon="4.05661">
        <ele>882</ele>
        <time>2018-04-16T14:45:18Z</time>
      </trkpt>
      <trkpt lat="44.37849" lon="4.05648">
        <ele>882</ele>
        <time>2018-04-16T14:45:26Z</time>
      </trkpt>
      <trkpt lat="44.37848" lon="4.05646">
        <ele>882</ele>
        <time>2018-04-16T14:45:27Z</time>
      </trkpt>
      <trkpt lat="44.37843" lon="4.05635">
        <ele>883</ele>
        <time>2018-04-16T14:45:33Z</time>
      </trkpt>
      <trkpt lat="44.37843" lon="4.05633">
        <ele>883</ele>
        <time>2018-04-16T14:45:34Z</time>
      </trkpt>
      <trkpt lat="44.37843" lon="4.05632">
        <ele>884</ele>
        <time>2018-04-16T14:45:35Z</time>
      </trkpt>
      <trkpt lat="44.37827" lon="4.05598">
        <ele>884</ele>
        <time>2018-04-16T14:47:11Z</time>
      </trkpt>
      <trkpt lat="44.37826" lon="4.05594">
        <ele>885</ele>
        <time>2018-04-16T14:47:15Z</time>
      </trkpt>
      <trkpt lat="44.37824" lon="4.05591">
        <ele>886</ele>
        <time>2018-04-16T14:47:18Z</time>
      </trkpt>
      <trkpt lat="44.37819" lon="4.05576">
        <ele>887</ele>
        <time>2018-04-16T14:47:28Z</time>
      </trkpt>
      <trkpt lat="44.37799" lon="4.05527">
        <ele>888</ele>
        <time>2018-04-16T14:47:51Z</time>
      </trkpt>
      <trkpt lat="44.37798" lon="4.05523">
        <ele>888</ele>
        <time>2018-04-16T14:47:53Z</time>
      </trkpt>
      <trkpt lat="44.37796" lon="4.05519">
        <ele>888</ele>
        <time>2018-04-16T14:47:56Z</time>
      </trkpt>
      <trkpt lat="44.37788" lon="4.05503">
        <ele>889</ele>
        <time>2018-04-16T14:48:06Z</time>
      </trkpt>
      <trkpt lat="44.37774" lon="4.05477">
        <ele>890</ele>
        <time>2018-04-16T14:48:20Z</time>
      </trkpt>
      <trkpt lat="44.37768" lon="4.05465">
        <ele>890</ele>
        <time>2018-04-16T14:48:25Z</time>
      </trkpt>
      <trkpt lat="44.37765" lon="4.05459">
        <ele>890</ele>
        <time>2018-04-16T14:48:27Z</time>
      </trkpt>
      <trkpt lat="44.37765" lon="4.05443">
        <ele>890</ele>
        <time>2018-04-16T14:48:33Z</time>
      </trkpt>
      <trkpt lat="44.37765" lon="4.05433">
        <ele>891</ele>
        <time>2018-04-16T14:48:37Z</time>
      </trkpt>
      <trkpt lat="44.37765" lon="4.05431">
        <ele>891</ele>
        <time>2018-04-16T14:48:38Z</time>
      </trkpt>
      <trkpt lat="44.37765" lon="4.05423">
        <ele>891</ele>
        <time>2018-04-16T14:48:41Z</time>
      </trkpt>
      <trkpt lat="44.37766" lon="4.0541">
        <ele>892</ele>
        <time>2018-04-16T14:48:47Z</time>
      </trkpt>
      <trkpt lat="44.37779" lon="4.05375">
        <ele>893</ele>
        <time>2018-04-16T14:49:04Z</time>
      </trkpt>
      <trkpt lat="44.37787" lon="4.05365">
        <ele>894</ele>
        <time>2018-04-16T14:49:11Z</time>
      </trkpt>
      <trkpt lat="44.3779" lon="4.05361">
        <ele>894</ele>
        <time>2018-04-16T14:49:14Z</time>
      </trkpt>
      <trkpt lat="44.37797" lon="4.05354">
        <ele>895</ele>
        <time>2018-04-16T14:49:21Z</time>
      </trkpt>
      <trkpt lat="44.37809" lon="4.05345">
        <ele>896</ele>
        <time>2018-04-16T14:49:38Z</time>
      </trkpt>
      <trkpt lat="44.37836" lon="4.0533">
        <ele>897</ele>
        <time>2018-04-16T14:50:00Z</time>
      </trkpt>
      <trkpt lat="44.37843" lon="4.05329">
        <ele>897</ele>
        <time>2018-04-16T14:50:05Z</time>
      </trkpt>
      <trkpt lat="44.37848" lon="4.05327">
        <ele>897</ele>
        <time>2018-04-16T14:50:07Z</time>
      </trkpt>
      <trkpt lat="44.37859" lon="4.05325">
        <ele>897</ele>
        <time>2018-04-16T14:50:12Z</time>
      </trkpt>
      <trkpt lat="44.37863" lon="4.05325">
        <ele>897</ele>
        <time>2018-04-16T14:50:14Z</time>
      </trkpt>
      <trkpt lat="44.37904" lon="4.05276">
        <ele>897</ele>
        <time>2018-04-16T14:50:33Z</time>
      </trkpt>
      <trkpt lat="44.37913" lon="4.05263">
        <ele>896</ele>
        <time>2018-04-16T14:50:37Z</time>
      </trkpt>
      <trkpt lat="44.37944" lon="4.05198">
        <ele>897</ele>
        <time>2018-04-16T14:51:03Z</time>
      </trkpt>
      <trkpt lat="44.37962" lon="4.05157">
        <ele>898</ele>
        <time>2018-04-16T14:51:21Z</time>
      </trkpt>
      <trkpt lat="44.37969" lon="4.05138">
        <ele>899</ele>
        <time>2018-04-16T14:51:32Z</time>
      </trkpt>
      <trkpt lat="44.37989" lon="4.05066">
        <ele>899</ele>
        <time>2018-04-16T14:51:56Z</time>
      </trkpt>
      <trkpt lat="44.38023" lon="4.05006">
        <ele>900</ele>
        <time>2018-04-16T14:52:21Z</time>
      </trkpt>
      <trkpt lat="44.38024" lon="4.05004">
        <ele>900</ele>
        <time>2018-04-16T14:52:22Z</time>
      </trkpt>
      <trkpt lat="44.38029" lon="4.04997">
        <ele>901</ele>
        <time>2018-04-16T14:52:26Z</time>
      </trkpt>
      <trkpt lat="44.3803" lon="4.04996">
        <ele>902</ele>
        <time>2018-04-16T14:52:32Z</time>
      </trkpt>
      <trkpt lat="44.38032" lon="4.04993">
        <ele>903</ele>
        <time>2018-04-16T14:52:36Z</time>
      </trkpt>
      <trkpt lat="44.38059" lon="4.04954">
        <ele>903</ele>
        <time>2018-04-16T14:52:57Z</time>
      </trkpt>
      <trkpt lat="44.38066" lon="4.04944">
        <ele>905</ele>
        <time>2018-04-16T14:53:03Z</time>
      </trkpt>
      <trkpt lat="44.38077" lon="4.04933">
        <ele>906</ele>
        <time>2018-04-16T14:53:14Z</time>
      </trkpt>
      <trkpt lat="44.38079" lon="4.04931">
        <ele>907</ele>
        <time>2018-04-16T14:53:27Z</time>
      </trkpt>
      <trkpt lat="44.38129" lon="4.04896">
        <ele>906</ele>
        <time>2018-04-16T14:53:58Z</time>
      </trkpt>
      <trkpt lat="44.38174" lon="4.04851">
        <ele>906</ele>
        <time>2018-04-16T14:54:19Z</time>
      </trkpt>
      <trkpt lat="44.38204" lon="4.04823">
        <ele>906</ele>
        <time>2018-04-16T14:54:32Z</time>
      </trkpt>
      <trkpt lat="44.38254" lon="4.04794">
        <ele>905</ele>
        <time>2018-04-16T14:54:50Z</time>
      </trkpt>
      <trkpt lat="44.38275" lon="4.04797">
        <ele>904</ele>
        <time>2018-04-16T14:54:55Z</time>
      </trkpt>
      <trkpt lat="44.38302" lon="4.04794">
        <ele>903</ele>
        <time>2018-04-16T14:55:02Z</time>
      </trkpt>
      <trkpt lat="44.38336" lon="4.04759">
        <ele>902</ele>
        <time>2018-04-16T14:55:14Z</time>
      </trkpt>
      <trkpt lat="44.38385" lon="4.04715">
        <ele>901</ele>
        <time>2018-04-16T14:55:26Z</time>
      </trkpt>
      <trkpt lat="44.38403" lon="4.04696">
        <ele>900</ele>
        <time>2018-04-16T14:55:31Z</time>
      </trkpt>
      <trkpt lat="44.38427" lon="4.04671">
        <ele>899</ele>
        <time>2018-04-16T14:55:37Z</time>
      </trkpt>
      <trkpt lat="44.38456" lon="4.04641">
        <ele>898</ele>
        <time>2018-04-16T14:55:45Z</time>
      </trkpt>
      <trkpt lat="44.38484" lon="4.04612">
        <ele>897</ele>
        <time>2018-04-16T14:55:52Z</time>
      </trkpt>
      <trkpt lat="44.38503" lon="4.04602">
        <ele>897</ele>
        <time>2018-04-16T14:55:56Z</time>
      </trkpt>
      <trkpt lat="44.38512" lon="4.04598">
        <ele>896</ele>
        <time>2018-04-16T14:55:58Z</time>
      </trkpt>
      <trkpt lat="44.38521" lon="4.04594">
        <ele>895</ele>
        <time>2018-04-16T14:56:00Z</time>
      </trkpt>
      <trkpt lat="44.38539" lon="4.04588">
        <ele>894</ele>
        <time>2018-04-16T14:56:04Z</time>
      </trkpt>
      <trkpt lat="44.38564" lon="4.04577">
        <ele>892</ele>
        <time>2018-04-16T14:56:09Z</time>
      </trkpt>
      <trkpt lat="44.38593" lon="4.04566">
        <ele>891</ele>
        <time>2018-04-16T14:56:15Z</time>
      </trkpt>
      <trkpt lat="44.38621" lon="4.04556">
        <ele>890</ele>
        <time>2018-04-16T14:56:20Z</time>
      </trkpt>
      <trkpt lat="44.38644" lon="4.04546">
        <ele>889</ele>
        <time>2018-04-16T14:56:24Z</time>
      </trkpt>
      <trkpt lat="44.38678" lon="4.04526">
        <ele>887</ele>
        <time>2018-04-16T14:56:30Z</time>
      </trkpt>
      <trkpt lat="44.38701" lon="4.04513">
        <ele>886</ele>
        <time>2018-04-16T14:56:34Z</time>
      </trkpt>
      <trkpt lat="44.38713" lon="4.04506">
        <ele>885</ele>
        <time>2018-04-16T14:56:36Z</time>
      </trkpt>
      <trkpt lat="44.38724" lon="4.04488">
        <ele>884</ele>
        <time>2018-04-16T14:56:39Z</time>
      </trkpt>
      <trkpt lat="44.38712" lon="4.04448">
        <ele>883</ele>
        <time>2018-04-16T14:56:45Z</time>
      </trkpt>
      <trkpt lat="44.38707" lon="4.04442">
        <ele>883</ele>
        <time>2018-04-16T14:56:46Z</time>
      </trkpt>
      <trkpt lat="44.38681" lon="4.04409">
        <ele>882</ele>
        <time>2018-04-16T14:56:51Z</time>
      </trkpt>
      <trkpt lat="44.38667" lon="4.04399">
        <ele>881</ele>
        <time>2018-04-16T14:56:53Z</time>
      </trkpt>
      <trkpt lat="44.38645" lon="4.04383">
        <ele>880</ele>
        <time>2018-04-16T14:56:56Z</time>
      </trkpt>
      <trkpt lat="44.38632" lon="4.04368">
        <ele>878</ele>
        <time>2018-04-16T14:56:58Z</time>
      </trkpt>
      <trkpt lat="44.38621" lon="4.04351">
        <ele>876</ele>
        <time>2018-04-16T14:57:00Z</time>
      </trkpt>
      <trkpt lat="44.38616" lon="4.04341">
        <ele>875</ele>
        <time>2018-04-16T14:57:01Z</time>
      </trkpt>
      <trkpt lat="44.38614" lon="4.0433">
        <ele>874</ele>
        <time>2018-04-16T14:57:02Z</time>
      </trkpt>
      <trkpt lat="44.38612" lon="4.04306">
        <ele>872</ele>
        <time>2018-04-16T14:57:04Z</time>
      </trkpt>
      <trkpt lat="44.38612" lon="4.04282">
        <ele>871</ele>
        <time>2018-04-16T14:57:06Z</time>
      </trkpt>
      <trkpt lat="44.38612" lon="4.04257">
        <ele>869</ele>
        <time>2018-04-16T14:57:08Z</time>
      </trkpt>
      <trkpt lat="44.38613" lon="4.04245">
        <ele>868</ele>
        <time>2018-04-16T14:57:09Z</time>
      </trkpt>
      <trkpt lat="44.38617" lon="4.04221">
        <ele>867</ele>
        <time>2018-04-16T14:57:11Z</time>
      </trkpt>
      <trkpt lat="44.38624" lon="4.04185">
        <ele>865</ele>
        <time>2018-04-16T14:57:14Z</time>
      </trkpt>
      <trkpt lat="44.38628" lon="4.0416">
        <ele>864</ele>
        <time>2018-04-16T14:57:16Z</time>
      </trkpt>
      <trkpt lat="44.38633" lon="4.04122">
        <ele>862</ele>
        <time>2018-04-16T14:57:19Z</time>
      </trkpt>
      <trkpt lat="44.38638" lon="4.04097">
        <ele>859</ele>
        <time>2018-04-16T14:57:21Z</time>
      </trkpt>
      <trkpt lat="44.38646" lon="4.04072">
        <ele>857</ele>
        <time>2018-04-16T14:57:23Z</time>
      </trkpt>
      <trkpt lat="44.38657" lon="4.0405">
        <ele>856</ele>
        <time>2018-04-16T14:57:25Z</time>
      </trkpt>
      <trkpt lat="44.3867" lon="4.0403">
        <ele>854</ele>
        <time>2018-04-16T14:57:27Z</time>
      </trkpt>
      <trkpt lat="44.38683" lon="4.04011">
        <ele>853</ele>
        <time>2018-04-16T14:57:29Z</time>
      </trkpt>
      <trkpt lat="44.38696" lon="4.03994">
        <ele>851</ele>
        <time>2018-04-16T14:57:31Z</time>
      </trkpt>
      <trkpt lat="44.387" lon="4.03985">
        <ele>849</ele>
        <time>2018-04-16T14:57:32Z</time>
      </trkpt>
      <trkpt lat="44.38702" lon="4.03966">
        <ele>848</ele>
        <time>2018-04-16T14:57:34Z</time>
      </trkpt>
      <trkpt lat="44.38702" lon="4.03955">
        <ele>847</ele>
        <time>2018-04-16T14:57:35Z</time>
      </trkpt>
      <trkpt lat="44.387" lon="4.03933">
        <ele>845</ele>
        <time>2018-04-16T14:57:37Z</time>
      </trkpt>
      <trkpt lat="44.387" lon="4.03921">
        <ele>845</ele>
        <time>2018-04-16T14:57:38Z</time>
      </trkpt>
      <trkpt lat="44.38702" lon="4.03908">
        <ele>844</ele>
        <time>2018-04-16T14:57:39Z</time>
      </trkpt>
      <trkpt lat="44.38705" lon="4.0387">
        <ele>843</ele>
        <time>2018-04-16T14:57:42Z</time>
      </trkpt>
      <trkpt lat="44.38708" lon="4.03843">
        <ele>842</ele>
        <time>2018-04-16T14:57:44Z</time>
      </trkpt>
      <trkpt lat="44.38714" lon="4.03819">
        <ele>840</ele>
        <time>2018-04-16T14:57:46Z</time>
      </trkpt>
      <trkpt lat="44.38717" lon="4.03807">
        <ele>839</ele>
        <time>2018-04-16T14:57:47Z</time>
      </trkpt>
      <trkpt lat="44.38723" lon="4.03783">
        <ele>836</ele>
        <time>2018-04-16T14:57:49Z</time>
      </trkpt>
      <trkpt lat="44.38728" lon="4.03762">
        <ele>834</ele>
        <time>2018-04-16T14:57:51Z</time>
      </trkpt>
      <trkpt lat="44.38736" lon="4.03737">
        <ele>833</ele>
        <time>2018-04-16T14:57:54Z</time>
      </trkpt>
      <trkpt lat="44.38749" lon="4.03705">
        <ele>835</ele>
        <time>2018-04-16T14:58:05Z</time>
      </trkpt>
      <trkpt lat="44.38751" lon="4.03702">
        <ele>836</ele>
        <time>2018-04-16T14:58:07Z</time>
      </trkpt>
      <trkpt lat="44.38753" lon="4.03697">
        <ele>837</ele>
        <time>2018-04-16T14:58:10Z</time>
      </trkpt>
      <trkpt lat="44.38753" lon="4.03695">
        <ele>837</ele>
        <time>2018-04-16T14:58:11Z</time>
      </trkpt>
      <trkpt lat="44.38756" lon="4.03686">
        <ele>838</ele>
        <time>2018-04-16T14:58:16Z</time>
      </trkpt>
      <trkpt lat="44.38758" lon="4.03681">
        <ele>839</ele>
        <time>2018-04-16T14:58:19Z</time>
      </trkpt>
      <trkpt lat="44.38761" lon="4.03674">
        <ele>839</ele>
        <time>2018-04-16T14:58:24Z</time>
      </trkpt>
      <trkpt lat="44.38765" lon="4.03666">
        <ele>841</ele>
        <time>2018-04-16T14:58:31Z</time>
      </trkpt>
      <trkpt lat="44.38773" lon="4.03646">
        <ele>842</ele>
        <time>2018-04-16T14:59:03Z</time>
      </trkpt>
      <trkpt lat="44.38778" lon="4.03634">
        <ele>843</ele>
        <time>2018-04-16T14:59:11Z</time>
      </trkpt>
      <trkpt lat="44.38783" lon="4.03622">
        <ele>844</ele>
        <time>2018-04-16T14:59:19Z</time>
      </trkpt>
      <trkpt lat="44.38787" lon="4.03608">
        <ele>845</ele>
        <time>2018-04-16T14:59:27Z</time>
      </trkpt>
      <trkpt lat="44.3879" lon="4.03594">
        <ele>846</ele>
        <time>2018-04-16T14:59:35Z</time>
      </trkpt>
      <trkpt lat="44.38791" lon="4.03577">
        <ele>848</ele>
        <time>2018-04-16T14:59:45Z</time>
      </trkpt>
      <trkpt lat="44.38794" lon="4.03558">
        <ele>849</ele>
        <time>2018-04-16T14:59:56Z</time>
      </trkpt>
      <trkpt lat="44.38799" lon="4.03543">
        <ele>850</ele>
        <time>2018-04-16T15:00:05Z</time>
      </trkpt>
      <trkpt lat="44.38809" lon="4.03525">
        <ele>851</ele>
        <time>2018-04-16T15:00:17Z</time>
      </trkpt>
      <trkpt lat="44.38819" lon="4.03508">
        <ele>852</ele>
        <time>2018-04-16T15:00:28Z</time>
      </trkpt>
      <trkpt lat="44.38829" lon="4.0349">
        <ele>853</ele>
        <time>2018-04-16T15:00:39Z</time>
      </trkpt>
      <trkpt lat="44.38834" lon="4.03477">
        <ele>854</ele>
        <time>2018-04-16T15:00:47Z</time>
      </trkpt>
      <trkpt lat="44.38838" lon="4.03466">
        <ele>855</ele>
        <time>2018-04-16T15:00:53Z</time>
      </trkpt>
      <trkpt lat="44.38838" lon="4.03463">
        <ele>855</ele>
        <time>2018-04-16T15:00:55Z</time>
      </trkpt>
      <trkpt lat="44.3884" lon="4.03457">
        <ele>856</ele>
        <time>2018-04-16T15:00:59Z</time>
      </trkpt>
      <trkpt lat="44.38841" lon="4.0345">
        <ele>856</ele>
        <time>2018-04-16T15:01:03Z</time>
      </trkpt>
      <trkpt lat="44.38843" lon="4.03441">
        <ele>857</ele>
        <time>2018-04-16T15:01:08Z</time>
      </trkpt>
      <trkpt lat="44.38844" lon="4.03434">
        <ele>858</ele>
        <time>2018-04-16T15:01:12Z</time>
      </trkpt>
      <trkpt lat="44.38848" lon="4.03411">
        <ele>859</ele>
        <time>2018-04-16T15:01:25Z</time>
      </trkpt>
      <trkpt lat="44.38849" lon="4.03397">
        <ele>860</ele>
        <time>2018-04-16T15:01:33Z</time>
      </trkpt>
      <trkpt lat="44.38853" lon="4.0338">
        <ele>861</ele>
        <time>2018-04-16T15:01:42Z</time>
      </trkpt>
      <trkpt lat="44.38854" lon="4.0337">
        <ele>862</ele>
        <time>2018-04-16T15:01:47Z</time>
      </trkpt>
      <trkpt lat="44.38854" lon="4.03361">
        <ele>862</ele>
        <time>2018-04-16T15:01:51Z</time>
      </trkpt>
      <trkpt lat="44.38854" lon="4.03359">
        <ele>862</ele>
        <time>2018-04-16T15:01:52Z</time>
      </trkpt>
      <trkpt lat="44.38853" lon="4.03346">
        <ele>863</ele>
        <time>2018-04-16T15:01:59Z</time>
      </trkpt>
      <trkpt lat="44.38853" lon="4.03336">
        <ele>864</ele>
        <time>2018-04-16T15:02:04Z</time>
      </trkpt>
      <trkpt lat="44.38853" lon="4.0333">
        <ele>864</ele>
        <time>2018-04-16T15:02:07Z</time>
      </trkpt>
      <trkpt lat="44.38853" lon="4.03321">
        <ele>865</ele>
        <time>2018-04-16T15:02:13Z</time>
      </trkpt>
      <trkpt lat="44.38853" lon="4.03319">
        <ele>865</ele>
        <time>2018-04-16T15:02:15Z</time>
      </trkpt>
      <trkpt lat="44.38853" lon="4.03317">
        <ele>865</ele>
        <time>2018-04-16T15:02:16Z</time>
      </trkpt>
      <trkpt lat="44.3885" lon="4.03304">
        <ele>866</ele>
        <time>2018-04-16T15:02:25Z</time>
      </trkpt>
      <trkpt lat="44.38844" lon="4.03283">
        <ele>867</ele>
        <time>2018-04-16T15:02:38Z</time>
      </trkpt>
      <trkpt lat="44.38839" lon="4.03262">
        <ele>869</ele>
        <time>2018-04-16T15:02:48Z</time>
      </trkpt>
      <trkpt lat="44.38837" lon="4.0324">
        <ele>870</ele>
        <time>2018-04-16T15:02:58Z</time>
      </trkpt>
      <trkpt lat="44.38837" lon="4.03226">
        <ele>870</ele>
        <time>2018-04-16T15:03:05Z</time>
      </trkpt>
      <trkpt lat="44.38845" lon="4.03213">
        <ele>871</ele>
        <time>2018-04-16T15:03:15Z</time>
      </trkpt>
      <trkpt lat="44.38852" lon="4.03202">
        <ele>872</ele>
        <time>2018-04-16T15:03:24Z</time>
      </trkpt>
      <trkpt lat="44.38858" lon="4.03194">
        <ele>873</ele>
        <time>2018-04-16T15:03:30Z</time>
      </trkpt>
      <trkpt lat="44.38864" lon="4.03184">
        <ele>874</ele>
        <time>2018-04-16T15:03:37Z</time>
      </trkpt>
      <trkpt lat="44.38869" lon="4.03177">
        <ele>875</ele>
        <time>2018-04-16T15:03:43Z</time>
      </trkpt>
      <trkpt lat="44.38871" lon="4.03174">
        <ele>876</ele>
        <time>2018-04-16T15:03:45Z</time>
      </trkpt>
      <trkpt lat="44.38873" lon="4.0317">
        <ele>876</ele>
        <time>2018-04-16T15:03:48Z</time>
      </trkpt>
      <trkpt lat="44.3888" lon="4.0316">
        <ele>877</ele>
        <time>2018-04-16T15:03:55Z</time>
      </trkpt>
      <trkpt lat="44.38882" lon="4.03156">
        <ele>878</ele>
        <time>2018-04-16T15:03:58Z</time>
      </trkpt>
      <trkpt lat="44.38885" lon="4.03153">
        <ele>878</ele>
        <time>2018-04-16T15:04:01Z</time>
      </trkpt>
      <trkpt lat="44.38888" lon="4.03147">
        <ele>879</ele>
        <time>2018-04-16T15:04:07Z</time>
      </trkpt>
      <trkpt lat="44.38889" lon="4.03145">
        <ele>880</ele>
        <time>2018-04-16T15:04:18Z</time>
      </trkpt>
      <trkpt lat="44.38903" lon="4.03124">
        <ele>882</ele>
        <time>2018-04-16T15:04:35Z</time>
      </trkpt>
      <trkpt lat="44.38906" lon="4.03113">
        <ele>883</ele>
        <time>2018-04-16T15:04:42Z</time>
      </trkpt>
      <trkpt lat="44.38905" lon="4.03106">
        <ele>883</ele>
        <time>2018-04-16T15:04:47Z</time>
      </trkpt>
      <trkpt lat="44.38904" lon="4.03102">
        <ele>884</ele>
        <time>2018-04-16T15:04:50Z</time>
      </trkpt>
      <trkpt lat="44.38903" lon="4.03097">
        <ele>884</ele>
        <time>2018-04-16T15:04:53Z</time>
      </trkpt>
      <trkpt lat="44.38902" lon="4.03087">
        <ele>885</ele>
        <time>2018-04-16T15:05:01Z</time>
      </trkpt>
      <trkpt lat="44.38903" lon="4.03086">
        <ele>886</ele>
        <time>2018-04-16T15:05:09Z</time>
      </trkpt>
      <trkpt lat="44.38904" lon="4.03079">
        <ele>886</ele>
        <time>2018-04-16T15:05:54Z</time>
      </trkpt>
      <trkpt lat="44.38905" lon="4.03071">
        <ele>887</ele>
        <time>2018-04-16T15:05:59Z</time>
      </trkpt>
      <trkpt lat="44.38907" lon="4.03064">
        <ele>887</ele>
        <time>2018-04-16T15:06:05Z</time>
      </trkpt>
      <trkpt lat="44.3891" lon="4.03058">
        <ele>887</ele>
        <time>2018-04-16T15:06:10Z</time>
      </trkpt>
      <trkpt lat="44.38913" lon="4.03053">
        <ele>888</ele>
        <time>2018-04-16T15:06:14Z</time>
      </trkpt>
      <trkpt lat="44.38918" lon="4.03047">
        <ele>889</ele>
        <time>2018-04-16T15:06:20Z</time>
      </trkpt>
      <trkpt lat="44.38924" lon="4.03037">
        <ele>890</ele>
        <time>2018-04-16T15:06:28Z</time>
      </trkpt>
      <trkpt lat="44.38926" lon="4.03034">
        <ele>890</ele>
        <time>2018-04-16T15:06:31Z</time>
      </trkpt>
      <trkpt lat="44.38931" lon="4.03029">
        <ele>891</ele>
        <time>2018-04-16T15:06:36Z</time>
      </trkpt>
      <trkpt lat="44.38933" lon="4.03026">
        <ele>891</ele>
        <time>2018-04-16T15:06:39Z</time>
      </trkpt>
      <trkpt lat="44.38935" lon="4.03022">
        <ele>892</ele>
        <time>2018-04-16T15:06:42Z</time>
      </trkpt>
      <trkpt lat="44.38936" lon="4.0302">
        <ele>892</ele>
        <time>2018-04-16T15:06:43Z</time>
      </trkpt>
      <trkpt lat="44.38941" lon="4.0301">
        <ele>893</ele>
        <time>2018-04-16T15:06:53Z</time>
      </trkpt>
      <trkpt lat="44.38947" lon="4.03">
        <ele>894</ele>
        <time>2018-04-16T15:07:01Z</time>
      </trkpt>
      <trkpt lat="44.38957" lon="4.02987">
        <ele>896</ele>
        <time>2018-04-16T15:07:12Z</time>
      </trkpt>
      <trkpt lat="44.38965" lon="4.02976">
        <ele>897</ele>
        <time>2018-04-16T15:07:24Z</time>
      </trkpt>
      <trkpt lat="44.3897" lon="4.02969">
        <ele>898</ele>
        <time>2018-04-16T15:07:30Z</time>
      </trkpt>
      <trkpt lat="44.38976" lon="4.02961">
        <ele>899</ele>
        <time>2018-04-16T15:07:37Z</time>
      </trkpt>
      <trkpt lat="44.38983" lon="4.0295">
        <ele>900</ele>
        <time>2018-04-16T15:07:45Z</time>
      </trkpt>
      <trkpt lat="44.38992" lon="4.02939">
        <ele>901</ele>
        <time>2018-04-16T15:07:53Z</time>
      </trkpt>
      <trkpt lat="44.38998" lon="4.02931">
        <ele>902</ele>
        <time>2018-04-16T15:08:00Z</time>
      </trkpt>
      <trkpt lat="44.38998" lon="4.0293">
        <ele>902</ele>
        <time>2018-04-16T15:08:01Z</time>
      </trkpt>
      <trkpt lat="44.39" lon="4.02925">
        <ele>903</ele>
        <time>2018-04-16T15:08:05Z</time>
      </trkpt>
      <trkpt lat="44.39" lon="4.02924">
        <ele>903</ele>
        <time>2018-04-16T15:08:06Z</time>
      </trkpt>
      <trkpt lat="44.39001" lon="4.0292">
        <ele>903</ele>
        <time>2018-04-16T15:08:09Z</time>
      </trkpt>
      <trkpt lat="44.39003" lon="4.02908">
        <ele>904</ele>
        <time>2018-04-16T15:08:18Z</time>
      </trkpt>
      <trkpt lat="44.39008" lon="4.02897">
        <ele>905</ele>
        <time>2018-04-16T15:08:26Z</time>
      </trkpt>
      <trkpt lat="44.39009" lon="4.02894">
        <ele>905</ele>
        <time>2018-04-16T15:08:28Z</time>
      </trkpt>
      <trkpt lat="44.39013" lon="4.02886">
        <ele>906</ele>
        <time>2018-04-16T15:08:34Z</time>
      </trkpt>
      <trkpt lat="44.39015" lon="4.02884">
        <ele>906</ele>
        <time>2018-04-16T15:08:36Z</time>
      </trkpt>
      <trkpt lat="44.39017" lon="4.02879">
        <ele>907</ele>
        <time>2018-04-16T15:08:40Z</time>
      </trkpt>
      <trkpt lat="44.3902" lon="4.02869">
        <ele>907</ele>
        <time>2018-04-16T15:08:46Z</time>
      </trkpt>
      <trkpt lat="44.39025" lon="4.02857">
        <ele>908</ele>
        <time>2018-04-16T15:08:54Z</time>
      </trkpt>
      <trkpt lat="44.39026" lon="4.02856">
        <ele>908</ele>
        <time>2018-04-16T15:08:55Z</time>
      </trkpt>
      <trkpt lat="44.39026" lon="4.02854">
        <ele>908</ele>
        <time>2018-04-16T15:08:56Z</time>
      </trkpt>
      <trkpt lat="44.39028" lon="4.02851">
        <ele>909</ele>
        <time>2018-04-16T15:08:59Z</time>
      </trkpt>
      <trkpt lat="44.39032" lon="4.02846">
        <ele>909</ele>
        <time>2018-04-16T15:09:03Z</time>
      </trkpt>
      <trkpt lat="44.39033" lon="4.02842">
        <ele>909</ele>
        <time>2018-04-16T15:09:05Z</time>
      </trkpt>
      <trkpt lat="44.39038" lon="4.02827">
        <ele>909</ele>
        <time>2018-04-16T15:09:14Z</time>
      </trkpt>
      <trkpt lat="44.39046" lon="4.02802">
        <ele>910</ele>
        <time>2018-04-16T15:09:26Z</time>
      </trkpt>
      <trkpt lat="44.39073" lon="4.02737">
        <ele>911</ele>
        <time>2018-04-16T15:09:53Z</time>
      </trkpt>
      <trkpt lat="44.39081" lon="4.02725">
        <ele>911</ele>
        <time>2018-04-16T15:10:09Z</time>
      </trkpt>
      <trkpt lat="44.3908" lon="4.02725">
        <ele>911</ele>
        <time>2018-04-16T15:12:39Z</time>
      </trkpt>
      <trkpt lat="44.39081" lon="4.02722">
        <ele>911</ele>
        <time>2018-04-16T15:12:48Z</time>
      </trkpt>
      <trkpt lat="44.39102" lon="4.02661">
        <ele>912</ele>
        <time>2018-04-16T15:13:18Z</time>
      </trkpt>
      <trkpt lat="44.39108" lon="4.02637">
        <ele>913</ele>
        <time>2018-04-16T15:13:30Z</time>
      </trkpt>
      <trkpt lat="44.39111" lon="4.02621">
        <ele>914</ele>
        <time>2018-04-16T15:13:38Z</time>
      </trkpt>
      <trkpt lat="44.39114" lon="4.02591">
        <ele>915</ele>
        <time>2018-04-16T15:13:54Z</time>
      </trkpt>
      <trkpt lat="44.39116" lon="4.02586">
        <ele>915</ele>
        <time>2018-04-16T15:13:57Z</time>
      </trkpt>
      <trkpt lat="44.39129" lon="4.02567">
        <ele>916</ele>
        <time>2018-04-16T15:14:09Z</time>
      </trkpt>
      <trkpt lat="44.39139" lon="4.02549">
        <ele>917</ele>
        <time>2018-04-16T15:14:19Z</time>
      </trkpt>
      <trkpt lat="44.39145" lon="4.02534">
        <ele>918</ele>
        <time>2018-04-16T15:14:28Z</time>
      </trkpt>
      <trkpt lat="44.39149" lon="4.0252">
        <ele>919</ele>
        <time>2018-04-16T15:14:36Z</time>
      </trkpt>
      <trkpt lat="44.39155" lon="4.02507">
        <ele>920</ele>
        <time>2018-04-16T15:14:44Z</time>
      </trkpt>
      <trkpt lat="44.39161" lon="4.02495">
        <ele>921</ele>
        <time>2018-04-16T15:14:52Z</time>
      </trkpt>
      <trkpt lat="44.39164" lon="4.02484">
        <ele>922</ele>
        <time>2018-04-16T15:14:58Z</time>
      </trkpt>
      <trkpt lat="44.39168" lon="4.02473">
        <ele>923</ele>
        <time>2018-04-16T15:15:05Z</time>
      </trkpt>
      <trkpt lat="44.39169" lon="4.0247">
        <ele>924</ele>
        <time>2018-04-16T15:15:07Z</time>
      </trkpt>
      <trkpt lat="44.3917" lon="4.02463">
        <ele>924</ele>
        <time>2018-04-16T15:15:12Z</time>
      </trkpt>
      <trkpt lat="44.39174" lon="4.02456">
        <ele>925</ele>
        <time>2018-04-16T15:15:18Z</time>
      </trkpt>
      <trkpt lat="44.39174" lon="4.02454">
        <ele>926</ele>
        <time>2018-04-16T15:15:19Z</time>
      </trkpt>
      <trkpt lat="44.39177" lon="4.02449">
        <ele>926</ele>
        <time>2018-04-16T15:15:24Z</time>
      </trkpt>
      <trkpt lat="44.39179" lon="4.02447">
        <ele>926</ele>
        <time>2018-04-16T15:15:26Z</time>
      </trkpt>
      <trkpt lat="44.39181" lon="4.02437">
        <ele>928</ele>
        <time>2018-04-16T15:15:33Z</time>
      </trkpt>
      <trkpt lat="44.39181" lon="4.02436">
        <ele>928</ele>
        <time>2018-04-16T15:15:34Z</time>
      </trkpt>
      <trkpt lat="44.39182" lon="4.02433">
        <ele>928</ele>
        <time>2018-04-16T15:15:36Z</time>
      </trkpt>
      <trkpt lat="44.39183" lon="4.02429">
        <ele>928</ele>
        <time>2018-04-16T15:15:38Z</time>
      </trkpt>
      <trkpt lat="44.39184" lon="4.02427">
        <ele>929</ele>
        <time>2018-04-16T15:15:40Z</time>
      </trkpt>
      <trkpt lat="44.3919" lon="4.02418">
        <ele>930</ele>
        <time>2018-04-16T15:15:48Z</time>
      </trkpt>
      <trkpt lat="44.39195" lon="4.02408">
        <ele>931</ele>
        <time>2018-04-16T15:15:56Z</time>
      </trkpt>
      <trkpt lat="44.39198" lon="4.02404">
        <ele>931</ele>
        <time>2018-04-16T15:15:59Z</time>
      </trkpt>
      <trkpt lat="44.39199" lon="4.024">
        <ele>932</ele>
        <time>2018-04-16T15:16:02Z</time>
      </trkpt>
      <trkpt lat="44.39204" lon="4.02392">
        <ele>933</ele>
        <time>2018-04-16T15:16:09Z</time>
      </trkpt>
      <trkpt lat="44.39207" lon="4.02388">
        <ele>934</ele>
        <time>2018-04-16T15:16:14Z</time>
      </trkpt>
      <trkpt lat="44.39212" lon="4.0238">
        <ele>935</ele>
        <time>2018-04-16T15:16:21Z</time>
      </trkpt>
      <trkpt lat="44.39217" lon="4.02372">
        <ele>936</ele>
        <time>2018-04-16T15:16:28Z</time>
      </trkpt>
      <trkpt lat="44.39223" lon="4.0236">
        <ele>937</ele>
        <time>2018-04-16T15:16:37Z</time>
      </trkpt>
      <trkpt lat="44.39228" lon="4.02353">
        <ele>938</ele>
        <time>2018-04-16T15:16:43Z</time>
      </trkpt>
      <trkpt lat="44.39233" lon="4.02342">
        <ele>939</ele>
        <time>2018-04-16T15:16:50Z</time>
      </trkpt>
      <trkpt lat="44.39234" lon="4.0234">
        <ele>940</ele>
        <time>2018-04-16T15:16:52Z</time>
      </trkpt>
      <trkpt lat="44.39237" lon="4.02334">
        <ele>940</ele>
        <time>2018-04-16T15:16:56Z</time>
      </trkpt>
      <trkpt lat="44.39243" lon="4.02321">
        <ele>941</ele>
        <time>2018-04-16T15:17:05Z</time>
      </trkpt>
      <trkpt lat="44.39244" lon="4.02318">
        <ele>941</ele>
        <time>2018-04-16T15:17:07Z</time>
      </trkpt>
      <trkpt lat="44.39247" lon="4.0231">
        <ele>942</ele>
        <time>2018-04-16T15:17:13Z</time>
      </trkpt>
      <trkpt lat="44.39249" lon="4.02305">
        <ele>942</ele>
        <time>2018-04-16T15:17:16Z</time>
      </trkpt>
      <trkpt lat="44.39253" lon="4.02292">
        <ele>943</ele>
        <time>2018-04-16T15:17:25Z</time>
      </trkpt>
      <trkpt lat="44.3926" lon="4.02278">
        <ele>944</ele>
        <time>2018-04-16T15:17:34Z</time>
      </trkpt>
      <trkpt lat="44.39283" lon="4.02207">
        <ele>945</ele>
        <time>2018-04-16T15:18:02Z</time>
      </trkpt>
      <trkpt lat="44.39284" lon="4.02202">
        <ele>945</ele>
        <time>2018-04-16T15:18:04Z</time>
      </trkpt>
      <trkpt lat="44.39296" lon="4.02145">
        <ele>946</ele>
        <time>2018-04-16T15:18:26Z</time>
      </trkpt>
      <trkpt lat="44.39299" lon="4.02128">
        <ele>947</ele>
        <time>2018-04-16T15:18:34Z</time>
      </trkpt>
      <trkpt lat="44.39302" lon="4.02118">
        <ele>947</ele>
        <time>2018-04-16T15:18:40Z</time>
      </trkpt>
      <trkpt lat="44.39303" lon="4.02113">
        <ele>948</ele>
        <time>2018-04-16T15:18:43Z</time>
      </trkpt>
      <trkpt lat="44.39304" lon="4.02107">
        <ele>948</ele>
        <time>2018-04-16T15:18:46Z</time>
      </trkpt>
      <trkpt lat="44.39307" lon="4.02097">
        <ele>949</ele>
        <time>2018-04-16T15:18:52Z</time>
      </trkpt>
      <trkpt lat="44.3931" lon="4.02084">
        <ele>950</ele>
        <time>2018-04-16T15:19:01Z</time>
      </trkpt>
      <trkpt lat="44.39314" lon="4.02067">
        <ele>951</ele>
        <time>2018-04-16T15:19:10Z</time>
      </trkpt>
      <trkpt lat="44.39315" lon="4.02063">
        <ele>952</ele>
        <time>2018-04-16T15:19:12Z</time>
      </trkpt>
      <trkpt lat="44.39321" lon="4.02034">
        <ele>953</ele>
        <time>2018-04-16T15:19:27Z</time>
      </trkpt>
      <trkpt lat="44.39325" lon="4.01993">
        <ele>954</ele>
        <time>2018-04-16T15:19:48Z</time>
      </trkpt>
      <trkpt lat="44.39326" lon="4.01967">
        <ele>955</ele>
        <time>2018-04-16T15:20:03Z</time>
      </trkpt>
      <trkpt lat="44.39325" lon="4.01948">
        <ele>956</ele>
        <time>2018-04-16T15:20:15Z</time>
      </trkpt>
      <trkpt lat="44.39324" lon="4.01934">
        <ele>957</ele>
        <time>2018-04-16T15:20:25Z</time>
      </trkpt>
      <trkpt lat="44.39322" lon="4.01919">
        <ele>958</ele>
        <time>2018-04-16T15:20:39Z</time>
      </trkpt>
      <trkpt lat="44.3932" lon="4.01902">
        <ele>958</ele>
        <time>2018-04-16T15:20:51Z</time>
      </trkpt>
      <trkpt lat="44.39321" lon="4.01895">
        <ele>958</ele>
        <time>2018-04-16T15:20:56Z</time>
      </trkpt>
      <trkpt lat="44.39321" lon="4.01894">
        <ele>959</ele>
        <time>2018-04-16T15:20:57Z</time>
      </trkpt>
      <trkpt lat="44.39322" lon="4.01885">
        <ele>960</ele>
        <time>2018-04-16T15:21:04Z</time>
      </trkpt>
      <trkpt lat="44.39322" lon="4.01877">
        <ele>961</ele>
        <time>2018-04-16T15:21:12Z</time>
      </trkpt>
      <trkpt lat="44.39323" lon="4.01874">
        <ele>961</ele>
        <time>2018-04-16T15:21:14Z</time>
      </trkpt>
      <trkpt lat="44.39321" lon="4.01862">
        <ele>961</ele>
        <time>2018-04-16T15:21:21Z</time>
      </trkpt>
      <trkpt lat="44.39321" lon="4.01857">
        <ele>962</ele>
        <time>2018-04-16T15:21:24Z</time>
      </trkpt>
      <trkpt lat="44.39321" lon="4.01842">
        <ele>963</ele>
        <time>2018-04-16T15:21:33Z</time>
      </trkpt>
      <trkpt lat="44.39327" lon="4.0182">
        <ele>964</ele>
        <time>2018-04-16T15:21:46Z</time>
      </trkpt>
      <trkpt lat="44.39324" lon="4.01803">
        <ele>964</ele>
        <time>2018-04-16T15:21:59Z</time>
      </trkpt>
      <trkpt lat="44.3927" lon="4.01798">
        <ele>964</ele>
        <time>2018-04-16T15:22:27Z</time>
      </trkpt>
      <trkpt lat="44.39219" lon="4.01768">
        <ele>964</ele>
        <time>2018-04-16T15:22:48Z</time>
      </trkpt>
      <trkpt lat="44.39178" lon="4.01767">
        <ele>963</ele>
        <time>2018-04-16T15:22:59Z</time>
      </trkpt>
      <trkpt lat="44.39134" lon="4.01772">
        <ele>962</ele>
        <time>2018-04-16T15:23:07Z</time>
      </trkpt>
      <trkpt lat="44.39111" lon="4.01773">
        <ele>960</ele>
        <time>2018-04-16T15:23:11Z</time>
      </trkpt>
      <trkpt lat="44.39097" lon="4.01774">
        <ele>959</ele>
        <time>2018-04-16T15:23:14Z</time>
      </trkpt>
      <trkpt lat="44.39067" lon="4.01776">
        <ele>960</ele>
        <time>2018-04-16T15:23:25Z</time>
      </trkpt>
      <trkpt lat="44.39059" lon="4.01776">
        <ele>962</ele>
        <time>2018-04-16T15:23:29Z</time>
      </trkpt>
      <trkpt lat="44.39044" lon="4.01777">
        <ele>963</ele>
        <time>2018-04-16T15:23:36Z</time>
      </trkpt>
      <trkpt lat="44.39011" lon="4.01785">
        <ele>963</ele>
        <time>2018-04-16T15:23:47Z</time>
      </trkpt>
      <trkpt lat="44.38994" lon="4.01797">
        <ele>963</ele>
        <time>2018-04-16T15:23:51Z</time>
      </trkpt>
      <trkpt lat="44.3897" lon="4.01817">
        <ele>962</ele>
        <time>2018-04-16T15:23:56Z</time>
      </trkpt>
      <trkpt lat="44.38962" lon="4.01824">
        <ele>960</ele>
        <time>2018-04-16T15:23:58Z</time>
      </trkpt>
      <trkpt lat="44.38958" lon="4.01827">
        <ele>959</ele>
        <time>2018-04-16T15:23:59Z</time>
      </trkpt>
      <trkpt lat="44.38954" lon="4.01829">
        <ele>959</ele>
        <time>2018-04-16T15:24:00Z</time>
      </trkpt>
      <trkpt lat="44.38944" lon="4.01836">
        <ele>958</ele>
        <time>2018-04-16T15:24:03Z</time>
      </trkpt>
      <trkpt lat="44.38893" lon="4.01865">
        <ele>958</ele>
        <time>2018-04-16T15:24:23Z</time>
      </trkpt>
      <trkpt lat="44.38886" lon="4.0187">
        <ele>959</ele>
        <time>2018-04-16T15:24:26Z</time>
      </trkpt>
      <trkpt lat="44.38833" lon="4.01898">
        <ele>958</ele>
        <time>2018-04-16T15:24:43Z</time>
      </trkpt>
      <trkpt lat="44.38815" lon="4.01907">
        <ele>958</ele>
        <time>2018-04-16T15:24:47Z</time>
      </trkpt>
      <trkpt lat="44.38792" lon="4.01917">
        <ele>956</ele>
        <time>2018-04-16T15:24:52Z</time>
      </trkpt>
      <trkpt lat="44.38775" lon="4.01923">
        <ele>954</ele>
        <time>2018-04-16T15:24:56Z</time>
      </trkpt>
      <trkpt lat="44.38764" lon="4.01923">
        <ele>953</ele>
        <time>2018-04-16T15:24:59Z</time>
      </trkpt>
      <trkpt lat="44.38745" lon="4.01925">
        <ele>952</ele>
        <time>2018-04-16T15:25:06Z</time>
      </trkpt>
      <trkpt lat="44.38731" lon="4.01928">
        <ele>952</ele>
        <time>2018-04-16T15:25:12Z</time>
      </trkpt>
      <trkpt lat="44.38707" lon="4.0194">
        <ele>951</ele>
        <time>2018-04-16T15:25:19Z</time>
      </trkpt>
      <trkpt lat="44.38691" lon="4.01949">
        <ele>950</ele>
        <time>2018-04-16T15:25:23Z</time>
      </trkpt>
      <trkpt lat="44.38685" lon="4.01951">
        <ele>949</ele>
        <time>2018-04-16T15:25:26Z</time>
      </trkpt>
      <trkpt lat="44.38682" lon="4.01955">
        <ele>948</ele>
        <time>2018-04-16T15:25:33Z</time>
      </trkpt>
      <trkpt lat="44.38681" lon="4.01957">
        <ele>947</ele>
        <time>2018-04-16T15:26:04Z</time>
      </trkpt>
      <trkpt lat="44.38678" lon="4.01956">
        <ele>947</ele>
        <time>2018-04-16T15:26:12Z</time>
      </trkpt>
      <trkpt lat="44.38651" lon="4.01961">
        <ele>947</ele>
        <time>2018-04-16T15:26:21Z</time>
      </trkpt>
      <trkpt lat="44.38636" lon="4.01967">
        <ele>947</ele>
        <time>2018-04-16T15:26:24Z</time>
      </trkpt>
      <trkpt lat="44.38631" lon="4.01969">
        <ele>946</ele>
        <time>2018-04-16T15:26:25Z</time>
      </trkpt>
      <trkpt lat="44.38614" lon="4.01974">
        <ele>945</ele>
        <time>2018-04-16T15:26:28Z</time>
      </trkpt>
      <trkpt lat="44.38587" lon="4.0198">
        <ele>944</ele>
        <time>2018-04-16T15:26:33Z</time>
      </trkpt>
      <trkpt lat="44.38574" lon="4.01981">
        <ele>942</ele>
        <time>2018-04-16T15:26:35Z</time>
      </trkpt>
      <trkpt lat="44.38561" lon="4.01982">
        <ele>941</ele>
        <time>2018-04-16T15:26:37Z</time>
      </trkpt>
      <trkpt lat="44.38534" lon="4.01968">
        <ele>940</ele>
        <time>2018-04-16T15:26:41Z</time>
      </trkpt>
      <trkpt lat="44.38522" lon="4.01958">
        <ele>939</ele>
        <time>2018-04-16T15:26:43Z</time>
      </trkpt>
      <trkpt lat="44.38508" lon="4.01951">
        <ele>937</ele>
        <time>2018-04-16T15:26:45Z</time>
      </trkpt>
      <trkpt lat="44.38501" lon="4.01949">
        <ele>937</ele>
        <time>2018-04-16T15:26:46Z</time>
      </trkpt>
      <trkpt lat="44.38495" lon="4.01948">
        <ele>936</ele>
        <time>2018-04-16T15:26:47Z</time>
      </trkpt>
      <trkpt lat="44.38489" lon="4.01947">
        <ele>936</ele>
        <time>2018-04-16T15:26:48Z</time>
      </trkpt>
      <trkpt lat="44.38477" lon="4.01945">
        <ele>934</ele>
        <time>2018-04-16T15:26:50Z</time>
      </trkpt>
      <trkpt lat="44.38467" lon="4.01944">
        <ele>930</ele>
        <time>2018-04-16T15:26:52Z</time>
      </trkpt>
      <trkpt lat="44.38462" lon="4.01944">
        <ele>929</ele>
        <time>2018-04-16T15:26:53Z</time>
      </trkpt>
      <trkpt lat="44.38457" lon="4.01944">
        <ele>929</ele>
        <time>2018-04-16T15:26:54Z</time>
      </trkpt>
      <trkpt lat="44.38453" lon="4.01942">
        <ele>928</ele>
        <time>2018-04-16T15:26:55Z</time>
      </trkpt>
      <trkpt lat="44.38436" lon="4.01939">
        <ele>927</ele>
        <time>2018-04-16T15:26:59Z</time>
      </trkpt>
      <trkpt lat="44.38381" lon="4.01927">
        <ele>927</ele>
        <time>2018-04-16T15:27:19Z</time>
      </trkpt>
      <trkpt lat="44.38368" lon="4.01937">
        <ele>928</ele>
        <time>2018-04-16T15:27:26Z</time>
      </trkpt>
      <trkpt lat="44.38363" lon="4.01937">
        <ele>928</ele>
        <time>2018-04-16T15:27:28Z</time>
      </trkpt>
      <trkpt lat="44.38356" lon="4.01939">
        <ele>928</ele>
        <time>2018-04-16T15:27:31Z</time>
      </trkpt>
      <trkpt lat="44.38343" lon="4.01932">
        <ele>929</ele>
        <time>2018-04-16T15:27:37Z</time>
      </trkpt>
      <trkpt lat="44.38289" lon="4.01908">
        <ele>929</ele>
        <time>2018-04-16T15:27:54Z</time>
      </trkpt>
      <trkpt lat="44.38272" lon="4.01906">
        <ele>928</ele>
        <time>2018-04-16T15:27:58Z</time>
      </trkpt>
      <trkpt lat="44.38268" lon="4.01906">
        <ele>928</ele>
        <time>2018-04-16T15:27:59Z</time>
      </trkpt>
      <trkpt lat="44.38264" lon="4.01906">
        <ele>928</ele>
        <time>2018-04-16T15:28:00Z</time>
      </trkpt>
      <trkpt lat="44.38214" lon="4.01902">
        <ele>927</ele>
        <time>2018-04-16T15:28:18Z</time>
      </trkpt>
      <trkpt lat="44.38158" lon="4.01905">
        <ele>927</ele>
        <time>2018-04-16T15:28:36Z</time>
      </trkpt>
      <trkpt lat="44.38103" lon="4.01901">
        <ele>926</ele>
        <time>2018-04-16T15:28:51Z</time>
      </trkpt>
      <trkpt lat="44.38048" lon="4.01899">
        <ele>926</ele>
        <time>2018-04-16T15:29:05Z</time>
      </trkpt>
      <trkpt lat="44.38028" lon="4.01902">
        <ele>926</ele>
        <time>2018-04-16T15:29:10Z</time>
      </trkpt>
      <trkpt lat="44.38011" lon="4.01905">
        <ele>925</ele>
        <time>2018-04-16T15:29:14Z</time>
      </trkpt>
      <trkpt lat="44.3799" lon="4.01909">
        <ele>923</ele>
        <time>2018-04-16T15:29:19Z</time>
      </trkpt>
      <trkpt lat="44.37959" lon="4.01917">
        <ele>922</ele>
        <time>2018-04-16T15:29:26Z</time>
      </trkpt>
      <trkpt lat="44.37946" lon="4.01921">
        <ele>921</ele>
        <time>2018-04-16T15:29:29Z</time>
      </trkpt>
      <trkpt lat="44.37917" lon="4.01931">
        <ele>920</ele>
        <time>2018-04-16T15:29:36Z</time>
      </trkpt>
      <trkpt lat="44.37897" lon="4.01936">
        <ele>920</ele>
        <time>2018-04-16T15:29:41Z</time>
      </trkpt>
      <trkpt lat="44.37844" lon="4.01948">
        <ele>919</ele>
        <time>2018-04-16T15:29:55Z</time>
      </trkpt>
      <trkpt lat="44.3782" lon="4.0196">
        <ele>919</ele>
        <time>2018-04-16T15:30:02Z</time>
      </trkpt>
      <trkpt lat="44.37775" lon="4.01973">
        <ele>918</ele>
        <time>2018-04-16T15:30:13Z</time>
      </trkpt>
      <trkpt lat="44.37748" lon="4.01975">
        <ele>917</ele>
        <time>2018-04-16T15:30:19Z</time>
      </trkpt>
      <trkpt lat="44.3769" lon="4.0198">
        <ele>916</ele>
        <time>2018-04-16T15:30:32Z</time>
      </trkpt>
      <trkpt lat="44.37686" lon="4.0198">
        <ele>916</ele>
        <time>2018-04-16T15:30:33Z</time>
      </trkpt>
      <trkpt lat="44.37653" lon="4.01977">
        <ele>916</ele>
        <time>2018-04-16T15:30:41Z</time>
      </trkpt>
      <trkpt lat="44.37607" lon="4.01975">
        <ele>916</ele>
        <time>2018-04-16T15:30:51Z</time>
      </trkpt>
      <trkpt lat="44.37588" lon="4.0197">
        <ele>915</ele>
        <time>2018-04-16T15:30:55Z</time>
      </trkpt>
      <trkpt lat="44.37574" lon="4.0197">
        <ele>914</ele>
        <time>2018-04-16T15:30:58Z</time>
      </trkpt>
      <trkpt lat="44.37564" lon="4.01972">
        <ele>914</ele>
        <time>2018-04-16T15:31:00Z</time>
      </trkpt>
      <trkpt lat="44.37559" lon="4.01973">
        <ele>914</ele>
        <time>2018-04-16T15:31:01Z</time>
      </trkpt>
      <trkpt lat="44.37528" lon="4.01976">
        <ele>913</ele>
        <time>2018-04-16T15:31:08Z</time>
      </trkpt>
      <trkpt lat="44.37523" lon="4.01976">
        <ele>912</ele>
        <time>2018-04-16T15:31:09Z</time>
      </trkpt>
      <trkpt lat="44.37515" lon="4.01978">
        <ele>911</ele>
        <time>2018-04-16T15:31:11Z</time>
      </trkpt>
      <trkpt lat="44.37502" lon="4.01983">
        <ele>911</ele>
        <time>2018-04-16T15:31:14Z</time>
      </trkpt>
      <trkpt lat="44.37476" lon="4.01991">
        <ele>910</ele>
        <time>2018-04-16T15:31:20Z</time>
      </trkpt>
      <trkpt lat="44.37447" lon="4.01999">
        <ele>909</ele>
        <time>2018-04-16T15:31:29Z</time>
      </trkpt>
      <trkpt lat="44.37401" lon="4.02009">
        <ele>908</ele>
        <time>2018-04-16T15:31:43Z</time>
      </trkpt>
      <trkpt lat="44.37376" lon="4.02015">
        <ele>906</ele>
        <time>2018-04-16T15:31:50Z</time>
      </trkpt>
      <trkpt lat="44.37366" lon="4.02017">
        <ele>905</ele>
        <time>2018-04-16T15:31:53Z</time>
      </trkpt>
      <trkpt lat="44.37311" lon="4.02022">
        <ele>905</ele>
        <time>2018-04-16T15:32:22Z</time>
      </trkpt>
      <trkpt lat="44.37263" lon="4.0202">
        <ele>904</ele>
        <time>2018-04-16T15:32:45Z</time>
      </trkpt>
      <trkpt lat="44.37263" lon="4.02021">
        <ele>903</ele>
        <time>2018-04-16T15:33:23Z</time>
      </trkpt>
      <trkpt lat="44.37263" lon="4.02021">
        <ele>903</ele>
        <time>2018-04-16T15:33:25Z</time>
      </trkpt>
      <trkpt lat="44.37263" lon="4.02021">
        <ele>902</ele>
        <time>2018-04-16T15:34:07Z</time>
      </trkpt>
      <trkpt lat="44.37263" lon="4.02021">
        <ele>902</ele>
        <time>2018-04-16T15:34:14Z</time>
      </trkpt>
      <trkpt lat="44.37263" lon="4.02021">
        <ele>902</ele>
        <time>2018-04-16T15:35:05Z</time>
      </trkpt>
      <trkpt lat="44.37263" lon="4.02021">
        <ele>901</ele>
        <time>2018-04-16T15:35:12Z</time>
      </trkpt>
      <trkpt lat="44.37263" lon="4.02021">
        <ele>900</ele>
        <time>2018-04-16T15:36:02Z</time>
      </trkpt>
      <trkpt lat="44.37263" lon="4.02021">
        <ele>901</ele>
        <time>2018-04-16T15:36:23Z</time>
      </trkpt>
      <trkpt lat="44.3726" lon="4.0202">
        <ele>901</ele>
        <time>2018-04-16T15:36:28Z</time>
      </trkpt>
      <trkpt lat="44.37207" lon="4.02007">
        <ele>900</ele>
        <time>2018-04-16T15:37:17Z</time>
      </trkpt>
      <trkpt lat="44.37197" lon="4.02003">
        <ele>899</ele>
        <time>2018-04-16T15:37:19Z</time>
      </trkpt>
      <trkpt lat="44.37188" lon="4.02001">
        <ele>898</ele>
        <time>2018-04-16T15:37:21Z</time>
      </trkpt>
      <trkpt lat="44.37176" lon="4.01997">
        <ele>897</ele>
        <time>2018-04-16T15:37:24Z</time>
      </trkpt>
      <trkpt lat="44.37168" lon="4.01993">
        <ele>896</ele>
        <time>2018-04-16T15:37:26Z</time>
      </trkpt>
      <trkpt lat="44.37164" lon="4.01991">
        <ele>895</ele>
        <time>2018-04-16T15:37:27Z</time>
      </trkpt>
      <trkpt lat="44.37145" lon="4.01981">
        <ele>894</ele>
        <time>2018-04-16T15:37:31Z</time>
      </trkpt>
      <trkpt lat="44.37137" lon="4.01977">
        <ele>893</ele>
        <time>2018-04-16T15:37:33Z</time>
      </trkpt>
      <trkpt lat="44.37128" lon="4.01975">
        <ele>891</ele>
        <time>2018-04-16T15:37:35Z</time>
      </trkpt>
      <trkpt lat="44.37118" lon="4.01979">
        <ele>890</ele>
        <time>2018-04-16T15:37:38Z</time>
      </trkpt>
      <trkpt lat="44.37115" lon="4.0198">
        <ele>889</ele>
        <time>2018-04-16T15:37:39Z</time>
      </trkpt>
      <trkpt lat="44.37108" lon="4.01983">
        <ele>888</ele>
        <time>2018-04-16T15:37:41Z</time>
      </trkpt>
      <trkpt lat="44.37099" lon="4.01989">
        <ele>887</ele>
        <time>2018-04-16T15:37:44Z</time>
      </trkpt>
      <trkpt lat="44.37082" lon="4.01999">
        <ele>886</ele>
        <time>2018-04-16T15:37:51Z</time>
      </trkpt>
      <trkpt lat="44.37069" lon="4.02008">
        <ele>885</ele>
        <time>2018-04-16T15:37:55Z</time>
      </trkpt>
      <trkpt lat="44.37061" lon="4.02015">
        <ele>884</ele>
        <time>2018-04-16T15:37:58Z</time>
      </trkpt>
      <trkpt lat="44.37054" lon="4.02023">
        <ele>882</ele>
        <time>2018-04-16T15:38:01Z</time>
      </trkpt>
      <trkpt lat="44.37052" lon="4.02025">
        <ele>881</ele>
        <time>2018-04-16T15:38:02Z</time>
      </trkpt>
      <trkpt lat="44.37045" lon="4.0203">
        <ele>879</ele>
        <time>2018-04-16T15:38:05Z</time>
      </trkpt>
      <trkpt lat="44.37032" lon="4.02044">
        <ele>878</ele>
        <time>2018-04-16T15:38:10Z</time>
      </trkpt>
      <trkpt lat="44.37009" lon="4.02068">
        <ele>877</ele>
        <time>2018-04-16T15:38:17Z</time>
      </trkpt>
      <trkpt lat="44.37002" lon="4.02074">
        <ele>876</ele>
        <time>2018-04-16T15:38:19Z</time>
      </trkpt>
      <trkpt lat="44.36994" lon="4.0208">
        <ele>875</ele>
        <time>2018-04-16T15:38:21Z</time>
      </trkpt>
      <trkpt lat="44.36987" lon="4.02085">
        <ele>874</ele>
        <time>2018-04-16T15:38:23Z</time>
      </trkpt>
      <trkpt lat="44.36976" lon="4.02094">
        <ele>873</ele>
        <time>2018-04-16T15:38:26Z</time>
      </trkpt>
      <trkpt lat="44.36969" lon="4.02098">
        <ele>872</ele>
        <time>2018-04-16T15:38:28Z</time>
      </trkpt>
      <trkpt lat="44.36962" lon="4.02101">
        <ele>870</ele>
        <time>2018-04-16T15:38:30Z</time>
      </trkpt>
      <trkpt lat="44.36957" lon="4.02102">
        <ele>869</ele>
        <time>2018-04-16T15:38:32Z</time>
      </trkpt>
      <trkpt lat="44.36953" lon="4.02102">
        <ele>867</ele>
        <time>2018-04-16T15:38:34Z</time>
      </trkpt>
      <trkpt lat="44.36949" lon="4.02102">
        <ele>866</ele>
        <time>2018-04-16T15:38:36Z</time>
      </trkpt>
      <trkpt lat="44.36947" lon="4.02102">
        <ele>865</ele>
        <time>2018-04-16T15:38:37Z</time>
      </trkpt>
      <trkpt lat="44.36942" lon="4.02102">
        <ele>863</ele>
        <time>2018-04-16T15:38:39Z</time>
      </trkpt>
      <trkpt lat="44.36938" lon="4.02103">
        <ele>862</ele>
        <time>2018-04-16T15:38:41Z</time>
      </trkpt>
      <trkpt lat="44.36931" lon="4.02105">
        <ele>860</ele>
        <time>2018-04-16T15:38:44Z</time>
      </trkpt>
      <trkpt lat="44.36928" lon="4.02106">
        <ele>859</ele>
        <time>2018-04-16T15:38:46Z</time>
      </trkpt>
      <trkpt lat="44.36924" lon="4.02108">
        <ele>858</ele>
        <time>2018-04-16T15:38:48Z</time>
      </trkpt>
      <trkpt lat="44.3692" lon="4.02108">
        <ele>857</ele>
        <time>2018-04-16T15:38:50Z</time>
      </trkpt>
      <trkpt lat="44.36915" lon="4.02109">
        <ele>855</ele>
        <time>2018-04-16T15:38:52Z</time>
      </trkpt>
      <trkpt lat="44.36912" lon="4.02111">
        <ele>855</ele>
        <time>2018-04-16T15:38:53Z</time>
      </trkpt>
      <trkpt lat="44.36907" lon="4.02112">
        <ele>854</ele>
        <time>2018-04-16T15:38:55Z</time>
      </trkpt>
      <trkpt lat="44.36904" lon="4.02113">
        <ele>853</ele>
        <time>2018-04-16T15:38:57Z</time>
      </trkpt>
      <trkpt lat="44.36902" lon="4.02114">
        <ele>851</ele>
        <time>2018-04-16T15:38:58Z</time>
      </trkpt>
      <trkpt lat="44.36902" lon="4.02115">
        <ele>850</ele>
        <time>2018-04-16T15:39:00Z</time>
      </trkpt>
      <trkpt lat="44.36899" lon="4.02116">
        <ele>849</ele>
        <time>2018-04-16T15:39:02Z</time>
      </trkpt>
      <trkpt lat="44.36892" lon="4.02118">
        <ele>848</ele>
        <time>2018-04-16T15:39:05Z</time>
      </trkpt>
      <trkpt lat="44.36881" lon="4.02122">
        <ele>847</ele>
        <time>2018-04-16T15:39:09Z</time>
      </trkpt>
      <trkpt lat="44.36871" lon="4.02126">
        <ele>846</ele>
        <time>2018-04-16T15:39:13Z</time>
      </trkpt>
      <trkpt lat="44.36867" lon="4.02127">
        <ele>844</ele>
        <time>2018-04-16T15:39:15Z</time>
      </trkpt>
      <trkpt lat="44.36861" lon="4.02126">
        <ele>843</ele>
        <time>2018-04-16T15:39:18Z</time>
      </trkpt>
      <trkpt lat="44.36858" lon="4.02125">
        <ele>841</ele>
        <time>2018-04-16T15:39:20Z</time>
      </trkpt>
      <trkpt lat="44.36855" lon="4.02126">
        <ele>840</ele>
        <time>2018-04-16T15:39:22Z</time>
      </trkpt>
      <trkpt lat="44.36846" lon="4.02126">
        <ele>838</ele>
        <time>2018-04-16T15:39:25Z</time>
      </trkpt>
      <trkpt lat="44.36842" lon="4.02126">
        <ele>837</ele>
        <time>2018-04-16T15:39:27Z</time>
      </trkpt>
      <trkpt lat="44.36836" lon="4.02125">
        <ele>836</ele>
        <time>2018-04-16T15:39:29Z</time>
      </trkpt>
      <trkpt lat="44.36831" lon="4.02125">
        <ele>835</ele>
        <time>2018-04-16T15:39:31Z</time>
      </trkpt>
      <trkpt lat="44.36826" lon="4.02125">
        <ele>833</ele>
        <time>2018-04-16T15:39:33Z</time>
      </trkpt>
      <trkpt lat="44.3682" lon="4.02125">
        <ele>832</ele>
        <time>2018-04-16T15:39:35Z</time>
      </trkpt>
      <trkpt lat="44.36815" lon="4.02124">
        <ele>831</ele>
        <time>2018-04-16T15:39:37Z</time>
      </trkpt>
      <trkpt lat="44.3681" lon="4.02124">
        <ele>829</ele>
        <time>2018-04-16T15:39:39Z</time>
      </trkpt>
      <trkpt lat="44.36805" lon="4.02124">
        <ele>827</ele>
        <time>2018-04-16T15:39:41Z</time>
      </trkpt>
      <trkpt lat="44.36799" lon="4.02125">
        <ele>826</ele>
        <time>2018-04-16T15:39:43Z</time>
      </trkpt>
      <trkpt lat="44.36791" lon="4.02128">
        <ele>824</ele>
        <time>2018-04-16T15:39:45Z</time>
      </trkpt>
      <trkpt lat="44.36782" lon="4.02131">
        <ele>823</ele>
        <time>2018-04-16T15:39:47Z</time>
      </trkpt>
      <trkpt lat="44.36771" lon="4.02133">
        <ele>822</ele>
        <time>2018-04-16T15:39:49Z</time>
      </trkpt>
      <trkpt lat="44.36759" lon="4.02131">
        <ele>820</ele>
        <time>2018-04-16T15:39:51Z</time>
      </trkpt>
      <trkpt lat="44.36749" lon="4.02127">
        <ele>819</ele>
        <time>2018-04-16T15:39:53Z</time>
      </trkpt>
      <trkpt lat="44.36742" lon="4.0212">
        <ele>817</ele>
        <time>2018-04-16T15:39:55Z</time>
      </trkpt>
      <trkpt lat="44.36739" lon="4.02119">
        <ele>815</ele>
        <time>2018-04-16T15:39:56Z</time>
      </trkpt>
      <trkpt lat="44.36735" lon="4.02119">
        <ele>812</ele>
        <time>2018-04-16T15:39:57Z</time>
      </trkpt>
      <trkpt lat="44.36732" lon="4.0212">
        <ele>810</ele>
        <time>2018-04-16T15:39:58Z</time>
      </trkpt>
      <trkpt lat="44.36729" lon="4.02121">
        <ele>809</ele>
        <time>2018-04-16T15:39:59Z</time>
      </trkpt>
      <trkpt lat="44.36727" lon="4.02121">
        <ele>807</ele>
        <time>2018-04-16T15:40:00Z</time>
      </trkpt>
      <trkpt lat="44.36724" lon="4.02121">
        <ele>805</ele>
        <time>2018-04-16T15:40:02Z</time>
      </trkpt>
      <trkpt lat="44.36722" lon="4.02121">
        <ele>805</ele>
        <time>2018-04-16T15:40:03Z</time>
      </trkpt>
      <trkpt lat="44.36721" lon="4.02121">
        <ele>804</ele>
        <time>2018-04-16T15:40:04Z</time>
      </trkpt>
      <trkpt lat="44.36714" lon="4.02121">
        <ele>803</ele>
        <time>2018-04-16T15:40:06Z</time>
      </trkpt>
      <trkpt lat="44.36707" lon="4.0212">
        <ele>801</ele>
        <time>2018-04-16T15:40:08Z</time>
      </trkpt>
      <trkpt lat="44.36689" lon="4.02119">
        <ele>800</ele>
        <time>2018-04-16T15:40:12Z</time>
      </trkpt>
      <trkpt lat="44.36684" lon="4.02118">
        <ele>800</ele>
        <time>2018-04-16T15:40:13Z</time>
      </trkpt>
      <trkpt lat="44.36679" lon="4.02119">
        <ele>799</ele>
        <time>2018-04-16T15:40:14Z</time>
      </trkpt>
      <trkpt lat="44.36674" lon="4.0212">
        <ele>798</ele>
        <time>2018-04-16T15:40:15Z</time>
      </trkpt>
      <trkpt lat="44.36669" lon="4.0212">
        <ele>796</ele>
        <time>2018-04-16T15:40:16Z</time>
      </trkpt>
      <trkpt lat="44.36663" lon="4.0212">
        <ele>795</ele>
        <time>2018-04-16T15:40:17Z</time>
      </trkpt>
      <trkpt lat="44.36657" lon="4.0212">
        <ele>794</ele>
        <time>2018-04-16T15:40:18Z</time>
      </trkpt>
      <trkpt lat="44.36651" lon="4.0212">
        <ele>792</ele>
        <time>2018-04-16T15:40:19Z</time>
      </trkpt>
      <trkpt lat="44.36645" lon="4.0212">
        <ele>791</ele>
        <time>2018-04-16T15:40:20Z</time>
      </trkpt>
      <trkpt lat="44.36632" lon="4.0212">
        <ele>790</ele>
        <time>2018-04-16T15:40:22Z</time>
      </trkpt>
      <trkpt lat="44.3662" lon="4.02123">
        <ele>788</ele>
        <time>2018-04-16T15:40:24Z</time>
      </trkpt>
      <trkpt lat="44.36613" lon="4.02125">
        <ele>787</ele>
        <time>2018-04-16T15:40:25Z</time>
      </trkpt>
      <trkpt lat="44.36606" lon="4.02128">
        <ele>786</ele>
        <time>2018-04-16T15:40:26Z</time>
      </trkpt>
      <trkpt lat="44.36593" lon="4.02133">
        <ele>784</ele>
        <time>2018-04-16T15:40:28Z</time>
      </trkpt>
      <trkpt lat="44.36575" lon="4.02139">
        <ele>783</ele>
        <time>2018-04-16T15:40:31Z</time>
      </trkpt>
      <trkpt lat="44.36562" lon="4.02144">
        <ele>781</ele>
        <time>2018-04-16T15:40:34Z</time>
      </trkpt>
      <trkpt lat="44.36554" lon="4.02148">
        <ele>780</ele>
        <time>2018-04-16T15:40:36Z</time>
      </trkpt>
      <trkpt lat="44.36539" lon="4.02156">
        <ele>779</ele>
        <time>2018-04-16T15:40:40Z</time>
      </trkpt>
      <trkpt lat="44.36487" lon="4.02172">
        <ele>780</ele>
        <time>2018-04-16T15:40:57Z</time>
      </trkpt>
      <trkpt lat="44.36455" lon="4.02192">
        <ele>780</ele>
        <time>2018-04-16T15:41:08Z</time>
      </trkpt>
      <trkpt lat="44.36442" lon="4.02202">
        <ele>779</ele>
        <time>2018-04-16T15:41:11Z</time>
      </trkpt>
      <trkpt lat="44.36424" lon="4.02219">
        <ele>779</ele>
        <time>2018-04-16T15:41:15Z</time>
      </trkpt>
      <trkpt lat="44.3642" lon="4.02225">
        <ele>778</ele>
        <time>2018-04-16T15:41:16Z</time>
      </trkpt>
      <trkpt lat="44.36413" lon="4.0224">
        <ele>777</ele>
        <time>2018-04-16T15:41:18Z</time>
      </trkpt>
      <trkpt lat="44.3641" lon="4.02248">
        <ele>777</ele>
        <time>2018-04-16T15:41:19Z</time>
      </trkpt>
      <trkpt lat="44.36405" lon="4.02256">
        <ele>777</ele>
        <time>2018-04-16T15:41:20Z</time>
      </trkpt>
      <trkpt lat="44.364" lon="4.02262">
        <ele>776</ele>
        <time>2018-04-16T15:41:21Z</time>
      </trkpt>
      <trkpt lat="44.36388" lon="4.02275">
        <ele>775</ele>
        <time>2018-04-16T15:41:23Z</time>
      </trkpt>
      <trkpt lat="44.36382" lon="4.02282">
        <ele>774</ele>
        <time>2018-04-16T15:41:24Z</time>
      </trkpt>
      <trkpt lat="44.36373" lon="4.02301">
        <ele>772</ele>
        <time>2018-04-16T15:41:26Z</time>
      </trkpt>
      <trkpt lat="44.36363" lon="4.02322">
        <ele>770</ele>
        <time>2018-04-16T15:41:28Z</time>
      </trkpt>
      <trkpt lat="44.36352" lon="4.02343">
        <ele>769</ele>
        <time>2018-04-16T15:41:30Z</time>
      </trkpt>
      <trkpt lat="44.36345" lon="4.02352">
        <ele>768</ele>
        <time>2018-04-16T15:41:31Z</time>
      </trkpt>
      <trkpt lat="44.36339" lon="4.0236">
        <ele>768</ele>
        <time>2018-04-16T15:41:32Z</time>
      </trkpt>
      <trkpt lat="44.36328" lon="4.02366">
        <ele>765</ele>
        <time>2018-04-16T15:41:34Z</time>
      </trkpt>
      <trkpt lat="44.36324" lon="4.02364">
        <ele>763</ele>
        <time>2018-04-16T15:41:35Z</time>
      </trkpt>
      <trkpt lat="44.3632" lon="4.02361">
        <ele>762</ele>
        <time>2018-04-16T15:41:36Z</time>
      </trkpt>
      <trkpt lat="44.36317" lon="4.02358">
        <ele>760</ele>
        <time>2018-04-16T15:41:37Z</time>
      </trkpt>
      <trkpt lat="44.36314" lon="4.02356">
        <ele>758</ele>
        <time>2018-04-16T15:41:38Z</time>
      </trkpt>
      <trkpt lat="44.36311" lon="4.02354">
        <ele>756</ele>
        <time>2018-04-16T15:41:39Z</time>
      </trkpt>
      <trkpt lat="44.36307" lon="4.02348">
        <ele>755</ele>
        <time>2018-04-16T15:41:41Z</time>
      </trkpt>
      <trkpt lat="44.36305" lon="4.02343">
        <ele>755</ele>
        <time>2018-04-16T15:41:43Z</time>
      </trkpt>
      <trkpt lat="44.36301" lon="4.02345">
        <ele>754</ele>
        <time>2018-04-16T15:41:46Z</time>
      </trkpt>
      <trkpt lat="44.36297" lon="4.02348">
        <ele>753</ele>
        <time>2018-04-16T15:41:48Z</time>
      </trkpt>
      <trkpt lat="44.36295" lon="4.02349">
        <ele>751</ele>
        <time>2018-04-16T15:41:49Z</time>
      </trkpt>
      <trkpt lat="44.36292" lon="4.0235">
        <ele>750</ele>
        <time>2018-04-16T15:41:51Z</time>
      </trkpt>
      <trkpt lat="44.36289" lon="4.0235">
        <ele>748</ele>
        <time>2018-04-16T15:41:53Z</time>
      </trkpt>
      <trkpt lat="44.36287" lon="4.0235">
        <ele>746</ele>
        <time>2018-04-16T15:41:55Z</time>
      </trkpt>
      <trkpt lat="44.36284" lon="4.0235">
        <ele>745</ele>
        <time>2018-04-16T15:41:57Z</time>
      </trkpt>
      <trkpt lat="44.36281" lon="4.0235">
        <ele>744</ele>
        <time>2018-04-16T15:41:59Z</time>
      </trkpt>
      <trkpt lat="44.36278" lon="4.02349">
        <ele>743</ele>
        <time>2018-04-16T15:42:01Z</time>
      </trkpt>
      <trkpt lat="44.36274" lon="4.02347">
        <ele>741</ele>
        <time>2018-04-16T15:42:03Z</time>
      </trkpt>
      <trkpt lat="44.36271" lon="4.02346">
        <ele>740</ele>
        <time>2018-04-16T15:42:05Z</time>
      </trkpt>
      <trkpt lat="44.36269" lon="4.02346">
        <ele>739</ele>
        <time>2018-04-16T15:42:06Z</time>
      </trkpt>
      <trkpt lat="44.36268" lon="4.02346">
        <ele>738</ele>
        <time>2018-04-16T15:42:07Z</time>
      </trkpt>
      <trkpt lat="44.36264" lon="4.02345">
        <ele>737</ele>
        <time>2018-04-16T15:42:09Z</time>
      </trkpt>
      <trkpt lat="44.36263" lon="4.02344">
        <ele>737</ele>
        <time>2018-04-16T15:42:10Z</time>
      </trkpt>
      <trkpt lat="44.36258" lon="4.02343">
        <ele>736</ele>
        <time>2018-04-16T15:42:12Z</time>
      </trkpt>
      <trkpt lat="44.36252" lon="4.0234">
        <ele>735</ele>
        <time>2018-04-16T15:42:14Z</time>
      </trkpt>
      <trkpt lat="44.3625" lon="4.02339">
        <ele>733</ele>
        <time>2018-04-16T15:42:16Z</time>
      </trkpt>
      <trkpt lat="44.36249" lon="4.02338">
        <ele>732</ele>
        <time>2018-04-16T15:42:17Z</time>
      </trkpt>
      <trkpt lat="44.36247" lon="4.02338">
        <ele>732</ele>
        <time>2018-04-16T15:42:18Z</time>
      </trkpt>
      <trkpt lat="44.36243" lon="4.02335">
        <ele>730</ele>
        <time>2018-04-16T15:42:20Z</time>
      </trkpt>
      <trkpt lat="44.36241" lon="4.02334">
        <ele>729</ele>
        <time>2018-04-16T15:42:21Z</time>
      </trkpt>
      <trkpt lat="44.36239" lon="4.02333">
        <ele>727</ele>
        <time>2018-04-16T15:42:22Z</time>
      </trkpt>
      <trkpt lat="44.36232" lon="4.02331">
        <ele>727</ele>
        <time>2018-04-16T15:42:26Z</time>
      </trkpt>
      <trkpt lat="44.3623" lon="4.02331">
        <ele>726</ele>
        <time>2018-04-16T15:42:27Z</time>
      </trkpt>
      <trkpt lat="44.36227" lon="4.02331">
        <ele>725</ele>
        <time>2018-04-16T15:42:29Z</time>
      </trkpt>
      <trkpt lat="44.36223" lon="4.02331">
        <ele>723</ele>
        <time>2018-04-16T15:42:31Z</time>
      </trkpt>
      <trkpt lat="44.36219" lon="4.02331">
        <ele>722</ele>
        <time>2018-04-16T15:42:33Z</time>
      </trkpt>
      <trkpt lat="44.36212" lon="4.02328">
        <ele>721</ele>
        <time>2018-04-16T15:42:37Z</time>
      </trkpt>
      <trkpt lat="44.36206" lon="4.02327">
        <ele>720</ele>
        <time>2018-04-16T15:42:40Z</time>
      </trkpt>
      <trkpt lat="44.36199" lon="4.02328">
        <ele>719</ele>
        <time>2018-04-16T15:42:43Z</time>
      </trkpt>
      <trkpt lat="44.36193" lon="4.02329">
        <ele>718</ele>
        <time>2018-04-16T15:42:45Z</time>
      </trkpt>
      <trkpt lat="44.36186" lon="4.02329">
        <ele>716</ele>
        <time>2018-04-16T15:42:47Z</time>
      </trkpt>
      <trkpt lat="44.36178" lon="4.02328">
        <ele>715</ele>
        <time>2018-04-16T15:42:49Z</time>
      </trkpt>
      <trkpt lat="44.36174" lon="4.02328">
        <ele>714</ele>
        <time>2018-04-16T15:42:50Z</time>
      </trkpt>
      <trkpt lat="44.3616" lon="4.02326">
        <ele>713</ele>
        <time>2018-04-16T15:42:53Z</time>
      </trkpt>
      <trkpt lat="44.36153" lon="4.02324">
        <ele>711</ele>
        <time>2018-04-16T15:42:55Z</time>
      </trkpt>
      <trkpt lat="44.36151" lon="4.02323">
        <ele>710</ele>
        <time>2018-04-16T15:42:56Z</time>
      </trkpt>
      <trkpt lat="44.36144" lon="4.02322">
        <ele>708</ele>
        <time>2018-04-16T15:42:58Z</time>
      </trkpt>
      <trkpt lat="44.36137" lon="4.02321">
        <ele>707</ele>
        <time>2018-04-16T15:43:00Z</time>
      </trkpt>
      <trkpt lat="44.3613" lon="4.0232">
        <ele>706</ele>
        <time>2018-04-16T15:43:02Z</time>
      </trkpt>
      <trkpt lat="44.36123" lon="4.02321">
        <ele>705</ele>
        <time>2018-04-16T15:43:04Z</time>
      </trkpt>
      <trkpt lat="44.3612" lon="4.02321">
        <ele>704</ele>
        <time>2018-04-16T15:43:05Z</time>
      </trkpt>
      <trkpt lat="44.36118" lon="4.0232">
        <ele>703</ele>
        <time>2018-04-16T15:43:06Z</time>
      </trkpt>
      <trkpt lat="44.36118" lon="4.0232">
        <ele>702</ele>
        <time>2018-04-16T15:43:07Z</time>
      </trkpt>
      <trkpt lat="44.36117" lon="4.0232">
        <ele>700</ele>
        <time>2018-04-16T15:43:09Z</time>
      </trkpt>
      <trkpt lat="44.36116" lon="4.0232">
        <ele>699</ele>
        <time>2018-04-16T15:43:11Z</time>
      </trkpt>
      <trkpt lat="44.36116" lon="4.0232">
        <ele>697</ele>
        <time>2018-04-16T15:43:13Z</time>
      </trkpt>
      <trkpt lat="44.36109" lon="4.02317">
        <ele>696</ele>
        <time>2018-04-16T15:43:17Z</time>
      </trkpt>
      <trkpt lat="44.36102" lon="4.02316">
        <ele>696</ele>
        <time>2018-04-16T15:43:19Z</time>
      </trkpt>
      <trkpt lat="44.3609" lon="4.02317">
        <ele>695</ele>
        <time>2018-04-16T15:43:23Z</time>
      </trkpt>
      <trkpt lat="44.36086" lon="4.02316">
        <ele>695</ele>
        <time>2018-04-16T15:43:24Z</time>
      </trkpt>
      <trkpt lat="44.36078" lon="4.02316">
        <ele>694</ele>
        <time>2018-04-16T15:43:26Z</time>
      </trkpt>
      <trkpt lat="44.36071" lon="4.02314">
        <ele>693</ele>
        <time>2018-04-16T15:43:28Z</time>
      </trkpt>
      <trkpt lat="44.36063" lon="4.02312">
        <ele>691</ele>
        <time>2018-04-16T15:43:31Z</time>
      </trkpt>
      <trkpt lat="44.36055" lon="4.02312">
        <ele>690</ele>
        <time>2018-04-16T15:43:33Z</time>
      </trkpt>
      <trkpt lat="44.36048" lon="4.02309">
        <ele>689</ele>
        <time>2018-04-16T15:43:35Z</time>
      </trkpt>
      <trkpt lat="44.36042" lon="4.02306">
        <ele>687</ele>
        <time>2018-04-16T15:43:37Z</time>
      </trkpt>
      <trkpt lat="44.36035" lon="4.02303">
        <ele>686</ele>
        <time>2018-04-16T15:43:39Z</time>
      </trkpt>
      <trkpt lat="44.36031" lon="4.02302">
        <ele>685</ele>
        <time>2018-04-16T15:43:40Z</time>
      </trkpt>
      <trkpt lat="44.36026" lon="4.023">
        <ele>685</ele>
        <time>2018-04-16T15:43:41Z</time>
      </trkpt>
      <trkpt lat="44.36018" lon="4.02298">
        <ele>683</ele>
        <time>2018-04-16T15:43:43Z</time>
      </trkpt>
      <trkpt lat="44.36017" lon="4.02293">
        <ele>681</ele>
        <time>2018-04-16T15:43:45Z</time>
      </trkpt>
      <trkpt lat="44.36018" lon="4.0229">
        <ele>680</ele>
        <time>2018-04-16T15:43:47Z</time>
      </trkpt>
      <trkpt lat="44.36019" lon="4.02289">
        <ele>677</ele>
        <time>2018-04-16T15:43:48Z</time>
      </trkpt>
      <trkpt lat="44.36021" lon="4.02288">
        <ele>676</ele>
        <time>2018-04-16T15:43:49Z</time>
      </trkpt>
      <trkpt lat="44.36027" lon="4.02282">
        <ele>675</ele>
        <time>2018-04-16T15:43:52Z</time>
      </trkpt>
      <trkpt lat="44.36034" lon="4.02275">
        <ele>674</ele>
        <time>2018-04-16T15:43:55Z</time>
      </trkpt>
      <trkpt lat="44.36042" lon="4.02272">
        <ele>672</ele>
        <time>2018-04-16T15:43:58Z</time>
      </trkpt>
      <trkpt lat="44.36047" lon="4.02269">
        <ele>671</ele>
        <time>2018-04-16T15:44:00Z</time>
      </trkpt>
      <trkpt lat="44.36052" lon="4.02266">
        <ele>669</ele>
        <time>2018-04-16T15:44:02Z</time>
      </trkpt>
      <trkpt lat="44.36057" lon="4.02264">
        <ele>667</ele>
        <time>2018-04-16T15:44:04Z</time>
      </trkpt>
      <trkpt lat="44.3606" lon="4.02263">
        <ele>666</ele>
        <time>2018-04-16T15:44:05Z</time>
      </trkpt>
      <trkpt lat="44.36064" lon="4.02261">
        <ele>665</ele>
        <time>2018-04-16T15:44:06Z</time>
      </trkpt>
      <trkpt lat="44.36071" lon="4.02253">
        <ele>663</ele>
        <time>2018-04-16T15:44:08Z</time>
      </trkpt>
      <trkpt lat="44.36075" lon="4.02248">
        <ele>661</ele>
        <time>2018-04-16T15:44:09Z</time>
      </trkpt>
      <trkpt lat="44.36081" lon="4.02241">
        <ele>660</ele>
        <time>2018-04-16T15:44:11Z</time>
      </trkpt>
      <trkpt lat="44.36087" lon="4.02233">
        <ele>659</ele>
        <time>2018-04-16T15:44:13Z</time>
      </trkpt>
      <trkpt lat="44.36093" lon="4.02225">
        <ele>657</ele>
        <time>2018-04-16T15:44:15Z</time>
      </trkpt>
      <trkpt lat="44.36097" lon="4.02219">
        <ele>654</ele>
        <time>2018-04-16T15:44:17Z</time>
      </trkpt>
      <trkpt lat="44.36099" lon="4.02214">
        <ele>653</ele>
        <time>2018-04-16T15:44:19Z</time>
      </trkpt>
      <trkpt lat="44.36101" lon="4.02208">
        <ele>652</ele>
        <time>2018-04-16T15:44:21Z</time>
      </trkpt>
      <trkpt lat="44.36105" lon="4.02193">
        <ele>650</ele>
        <time>2018-04-16T15:44:24Z</time>
      </trkpt>
      <trkpt lat="44.36111" lon="4.02177">
        <ele>649</ele>
        <time>2018-04-16T15:44:27Z</time>
      </trkpt>
      <trkpt lat="44.3612" lon="4.02168">
        <ele>647</ele>
        <time>2018-04-16T15:44:30Z</time>
      </trkpt>
      <trkpt lat="44.36127" lon="4.02165">
        <ele>645</ele>
        <time>2018-04-16T15:44:32Z</time>
      </trkpt>
      <trkpt lat="44.36132" lon="4.02164">
        <ele>644</ele>
        <time>2018-04-16T15:44:34Z</time>
      </trkpt>
      <trkpt lat="44.36135" lon="4.02157">
        <ele>643</ele>
        <time>2018-04-16T15:44:37Z</time>
      </trkpt>
      <trkpt lat="44.36135" lon="4.0214">
        <ele>642</ele>
        <time>2018-04-16T15:44:41Z</time>
      </trkpt>
      <trkpt lat="44.36134" lon="4.02129">
        <ele>641</ele>
        <time>2018-04-16T15:44:43Z</time>
      </trkpt>
      <trkpt lat="44.36133" lon="4.02123">
        <ele>640</ele>
        <time>2018-04-16T15:44:44Z</time>
      </trkpt>
      <trkpt lat="44.36132" lon="4.02116">
        <ele>639</ele>
        <time>2018-04-16T15:44:45Z</time>
      </trkpt>
      <trkpt lat="44.36133" lon="4.02101">
        <ele>638</ele>
        <time>2018-04-16T15:44:47Z</time>
      </trkpt>
      <trkpt lat="44.36133" lon="4.02086">
        <ele>637</ele>
        <time>2018-04-16T15:44:49Z</time>
      </trkpt>
      <trkpt lat="44.36135" lon="4.02075">
        <ele>636</ele>
        <time>2018-04-16T15:44:51Z</time>
      </trkpt>
      <trkpt lat="44.36137" lon="4.02071">
        <ele>635</ele>
        <time>2018-04-16T15:44:52Z</time>
      </trkpt>
      <trkpt lat="44.3614" lon="4.02061">
        <ele>634</ele>
        <time>2018-04-16T15:44:54Z</time>
      </trkpt>
      <trkpt lat="44.36146" lon="4.02044">
        <ele>632</ele>
        <time>2018-04-16T15:44:57Z</time>
      </trkpt>
      <trkpt lat="44.36149" lon="4.02034">
        <ele>631</ele>
        <time>2018-04-16T15:44:59Z</time>
      </trkpt>
      <trkpt lat="44.36155" lon="4.0202">
        <ele>630</ele>
        <time>2018-04-16T15:45:02Z</time>
      </trkpt>
      <trkpt lat="44.36158" lon="4.02009">
        <ele>629</ele>
        <time>2018-04-16T15:45:04Z</time>
      </trkpt>
      <trkpt lat="44.36162" lon="4.01998">
        <ele>628</ele>
        <time>2018-04-16T15:45:06Z</time>
      </trkpt>
      <trkpt lat="44.36164" lon="4.01988">
        <ele>626</ele>
        <time>2018-04-16T15:45:08Z</time>
      </trkpt>
      <trkpt lat="44.36165" lon="4.01978">
        <ele>624</ele>
        <time>2018-04-16T15:45:10Z</time>
      </trkpt>
      <trkpt lat="44.36165" lon="4.01973">
        <ele>623</ele>
        <time>2018-04-16T15:45:11Z</time>
      </trkpt>
      <trkpt lat="44.36163" lon="4.01969">
        <ele>622</ele>
        <time>2018-04-16T15:45:12Z</time>
      </trkpt>
      <trkpt lat="44.36159" lon="4.01966">
        <ele>621</ele>
        <time>2018-04-16T15:45:13Z</time>
      </trkpt>
      <trkpt lat="44.36155" lon="4.01959">
        <ele>619</ele>
        <time>2018-04-16T15:45:15Z</time>
      </trkpt>
      <trkpt lat="44.36154" lon="4.01957">
        <ele>619</ele>
        <time>2018-04-16T15:45:16Z</time>
      </trkpt>
      <trkpt lat="44.36155" lon="4.01956">
        <ele>617</ele>
        <time>2018-04-16T15:45:18Z</time>
      </trkpt>
      <trkpt lat="44.36155" lon="4.01956">
        <ele>615</ele>
        <time>2018-04-16T15:45:20Z</time>
      </trkpt>
      <trkpt lat="44.36156" lon="4.01958">
        <ele>614</ele>
        <time>2018-04-16T15:45:24Z</time>
      </trkpt>
      <trkpt lat="44.36156" lon="4.01981">
        <ele>614</ele>
        <time>2018-04-16T15:47:09Z</time>
      </trkpt>
      <trkpt lat="44.36145" lon="4.01991">
        <ele>614</ele>
        <time>2018-04-16T15:47:15Z</time>
      </trkpt>
      <trkpt lat="44.36112" lon="4.0205">
        <ele>613</ele>
        <time>2018-04-16T15:47:31Z</time>
      </trkpt>
      <trkpt lat="44.36102" lon="4.02079">
        <ele>613</ele>
        <time>2018-04-16T15:47:36Z</time>
      </trkpt>
      <trkpt lat="44.36098" lon="4.02089">
        <ele>613</ele>
        <time>2018-04-16T15:47:38Z</time>
      </trkpt>
      <trkpt lat="44.36072" lon="4.02112">
        <ele>612</ele>
        <time>2018-04-16T15:47:46Z</time>
      </trkpt>
      <trkpt lat="44.36066" lon="4.02116">
        <ele>612</ele>
        <time>2018-04-16T15:47:48Z</time>
      </trkpt>
      <trkpt lat="44.36054" lon="4.02111">
        <ele>612</ele>
        <time>2018-04-16T15:47:52Z</time>
      </trkpt>
      <trkpt lat="44.36044" lon="4.02106">
        <ele>613</ele>
        <time>2018-04-16T15:47:56Z</time>
      </trkpt>
      <trkpt lat="44.36027" lon="4.02099">
        <ele>614</ele>
        <time>2018-04-16T15:48:01Z</time>
      </trkpt>
      <trkpt lat="44.36015" lon="4.02093">
        <ele>614</ele>
        <time>2018-04-16T15:48:04Z</time>
      </trkpt>
      <trkpt lat="44.35976" lon="4.02099">
        <ele>612</ele>
        <time>2018-04-16T15:48:11Z</time>
      </trkpt>
      <trkpt lat="44.35958" lon="4.02114">
        <ele>611</ele>
        <time>2018-04-16T15:48:14Z</time>
      </trkpt>
      <trkpt lat="44.35953" lon="4.0212">
        <ele>611</ele>
        <time>2018-04-16T15:48:15Z</time>
      </trkpt>
      <trkpt lat="44.35944" lon="4.02132">
        <ele>610</ele>
        <time>2018-04-16T15:48:17Z</time>
      </trkpt>
      <trkpt lat="44.35934" lon="4.02138">
        <ele>609</ele>
        <time>2018-04-16T15:48:19Z</time>
      </trkpt>
      <trkpt lat="44.35922" lon="4.02134">
        <ele>607</ele>
        <time>2018-04-16T15:48:21Z</time>
      </trkpt>
      <trkpt lat="44.35916" lon="4.0213">
        <ele>607</ele>
        <time>2018-04-16T15:48:22Z</time>
      </trkpt>
      <trkpt lat="44.3591" lon="4.02127">
        <ele>606</ele>
        <time>2018-04-16T15:48:23Z</time>
      </trkpt>
      <trkpt lat="44.35898" lon="4.0212">
        <ele>606</ele>
        <time>2018-04-16T15:48:25Z</time>
      </trkpt>
      <trkpt lat="44.35882" lon="4.02107">
        <ele>605</ele>
        <time>2018-04-16T15:48:28Z</time>
      </trkpt>
      <trkpt lat="44.35873" lon="4.02095">
        <ele>604</ele>
        <time>2018-04-16T15:48:30Z</time>
      </trkpt>
      <trkpt lat="44.35869" lon="4.02088">
        <ele>603</ele>
        <time>2018-04-16T15:48:31Z</time>
      </trkpt>
      <trkpt lat="44.3586" lon="4.02059">
        <ele>602</ele>
        <time>2018-04-16T15:48:34Z</time>
      </trkpt>
      <trkpt lat="44.35854" lon="4.02038">
        <ele>602</ele>
        <time>2018-04-16T15:48:36Z</time>
      </trkpt>
      <trkpt lat="44.35839" lon="4.02011">
        <ele>601</ele>
        <time>2018-04-16T15:48:39Z</time>
      </trkpt>
      <trkpt lat="44.35832" lon="4.02002">
        <ele>600</ele>
        <time>2018-04-16T15:48:40Z</time>
      </trkpt>
      <trkpt lat="44.35825" lon="4.01995">
        <ele>599</ele>
        <time>2018-04-16T15:48:41Z</time>
      </trkpt>
      <trkpt lat="44.35817" lon="4.01989">
        <ele>597</ele>
        <time>2018-04-16T15:48:42Z</time>
      </trkpt>
      <trkpt lat="44.35809" lon="4.01984">
        <ele>596</ele>
        <time>2018-04-16T15:48:43Z</time>
      </trkpt>
      <trkpt lat="44.35791" lon="4.01974">
        <ele>594</ele>
        <time>2018-04-16T15:48:45Z</time>
      </trkpt>
      <trkpt lat="44.35782" lon="4.0197">
        <ele>593</ele>
        <time>2018-04-16T15:48:46Z</time>
      </trkpt>
      <trkpt lat="44.35773" lon="4.01967">
        <ele>592</ele>
        <time>2018-04-16T15:48:47Z</time>
      </trkpt>
      <trkpt lat="44.35754" lon="4.01962">
        <ele>590</ele>
        <time>2018-04-16T15:48:49Z</time>
      </trkpt>
      <trkpt lat="44.35745" lon="4.01961">
        <ele>589</ele>
        <time>2018-04-16T15:48:50Z</time>
      </trkpt>
      <trkpt lat="44.35735" lon="4.0196">
        <ele>588</ele>
        <time>2018-04-16T15:48:51Z</time>
      </trkpt>
      <trkpt lat="44.35714" lon="4.01959">
        <ele>587</ele>
        <time>2018-04-16T15:48:53Z</time>
      </trkpt>
      <trkpt lat="44.35687" lon="4.01969">
        <ele>586</ele>
        <time>2018-04-16T15:48:56Z</time>
      </trkpt>
      <trkpt lat="44.35675" lon="4.01989">
        <ele>585</ele>
        <time>2018-04-16T15:48:59Z</time>
      </trkpt>
      <trkpt lat="44.35674" lon="4.01998">
        <ele>583</ele>
        <time>2018-04-16T15:49:00Z</time>
      </trkpt>
      <trkpt lat="44.35675" lon="4.02008">
        <ele>582</ele>
        <time>2018-04-16T15:49:01Z</time>
      </trkpt>
      <trkpt lat="44.35678" lon="4.02032">
        <ele>581</ele>
        <time>2018-04-16T15:49:03Z</time>
      </trkpt>
      <trkpt lat="44.35684" lon="4.0207">
        <ele>580</ele>
        <time>2018-04-16T15:49:06Z</time>
      </trkpt>
      <trkpt lat="44.35686" lon="4.02083">
        <ele>580</ele>
        <time>2018-04-16T15:49:07Z</time>
      </trkpt>
      <trkpt lat="44.35685" lon="4.02106">
        <ele>579</ele>
        <time>2018-04-16T15:49:09Z</time>
      </trkpt>
      <trkpt lat="44.3568" lon="4.02125">
        <ele>577</ele>
        <time>2018-04-16T15:49:11Z</time>
      </trkpt>
      <trkpt lat="44.35675" lon="4.02131">
        <ele>575</ele>
        <time>2018-04-16T15:49:12Z</time>
      </trkpt>
      <trkpt lat="44.35669" lon="4.02132">
        <ele>574</ele>
        <time>2018-04-16T15:49:13Z</time>
      </trkpt>
      <trkpt lat="44.35662" lon="4.02132">
        <ele>572</ele>
        <time>2018-04-16T15:49:14Z</time>
      </trkpt>
      <trkpt lat="44.35656" lon="4.02129">
        <ele>571</ele>
        <time>2018-04-16T15:49:15Z</time>
      </trkpt>
      <trkpt lat="44.35642" lon="4.02122">
        <ele>570</ele>
        <time>2018-04-16T15:49:17Z</time>
      </trkpt>
      <trkpt lat="44.35635" lon="4.02119">
        <ele>570</ele>
        <time>2018-04-16T15:49:18Z</time>
      </trkpt>
      <trkpt lat="44.35613" lon="4.02114">
        <ele>569</ele>
        <time>2018-04-16T15:49:21Z</time>
      </trkpt>
      <trkpt lat="44.35593" lon="4.02122">
        <ele>568</ele>
        <time>2018-04-16T15:49:24Z</time>
      </trkpt>
      <trkpt lat="44.35586" lon="4.02128">
        <ele>567</ele>
        <time>2018-04-16T15:49:25Z</time>
      </trkpt>
      <trkpt lat="44.3558" lon="4.02131">
        <ele>567</ele>
        <time>2018-04-16T15:49:26Z</time>
      </trkpt>
      <trkpt lat="44.35573" lon="4.02131">
        <ele>566</ele>
        <time>2018-04-16T15:49:27Z</time>
      </trkpt>
      <trkpt lat="44.35568" lon="4.02124">
        <ele>565</ele>
        <time>2018-04-16T15:49:28Z</time>
      </trkpt>
      <trkpt lat="44.35563" lon="4.02105">
        <ele>564</ele>
        <time>2018-04-16T15:49:30Z</time>
      </trkpt>
      <trkpt lat="44.35562" lon="4.02094">
        <ele>563</ele>
        <time>2018-04-16T15:49:31Z</time>
      </trkpt>
      <trkpt lat="44.35561" lon="4.02083">
        <ele>562</ele>
        <time>2018-04-16T15:49:32Z</time>
      </trkpt>
      <trkpt lat="44.35558" lon="4.02072">
        <ele>562</ele>
        <time>2018-04-16T15:49:33Z</time>
      </trkpt>
      <trkpt lat="44.35544" lon="4.02041">
        <ele>561</ele>
        <time>2018-04-16T15:49:36Z</time>
      </trkpt>
      <trkpt lat="44.35525" lon="4.02019">
        <ele>561</ele>
        <time>2018-04-16T15:49:39Z</time>
      </trkpt>
      <trkpt lat="44.35513" lon="4.02004">
        <ele>559</ele>
        <time>2018-04-16T15:49:41Z</time>
      </trkpt>
      <trkpt lat="44.35507" lon="4.01997">
        <ele>557</ele>
        <time>2018-04-16T15:49:42Z</time>
      </trkpt>
      <trkpt lat="44.355" lon="4.0199">
        <ele>555</ele>
        <time>2018-04-16T15:49:43Z</time>
      </trkpt>
      <trkpt lat="44.35493" lon="4.01983">
        <ele>553</ele>
        <time>2018-04-16T15:49:44Z</time>
      </trkpt>
      <trkpt lat="44.35486" lon="4.01976">
        <ele>551</ele>
        <time>2018-04-16T15:49:45Z</time>
      </trkpt>
      <trkpt lat="44.3548" lon="4.01968">
        <ele>550</ele>
        <time>2018-04-16T15:49:46Z</time>
      </trkpt>
      <trkpt lat="44.35458" lon="4.01947">
        <ele>548</ele>
        <time>2018-04-16T15:49:49Z</time>
      </trkpt>
      <trkpt lat="44.3545" lon="4.01941">
        <ele>548</ele>
        <time>2018-04-16T15:49:50Z</time>
      </trkpt>
      <trkpt lat="44.35433" lon="4.01933">
        <ele>547</ele>
        <time>2018-04-16T15:49:52Z</time>
      </trkpt>
      <trkpt lat="44.35415" lon="4.01928">
        <ele>547</ele>
        <time>2018-04-16T15:49:54Z</time>
      </trkpt>
      <trkpt lat="44.35406" lon="4.01927">
        <ele>546</ele>
        <time>2018-04-16T15:49:55Z</time>
      </trkpt>
      <trkpt lat="44.35387" lon="4.01924">
        <ele>545</ele>
        <time>2018-04-16T15:49:57Z</time>
      </trkpt>
      <trkpt lat="44.35367" lon="4.01923">
        <ele>543</ele>
        <time>2018-04-16T15:49:59Z</time>
      </trkpt>
      <trkpt lat="44.35339" lon="4.01928">
        <ele>542</ele>
        <time>2018-04-16T15:50:02Z</time>
      </trkpt>
      <trkpt lat="44.35331" lon="4.01932">
        <ele>541</ele>
        <time>2018-04-16T15:50:03Z</time>
      </trkpt>
      <trkpt lat="44.35313" lon="4.01942">
        <ele>540</ele>
        <time>2018-04-16T15:50:05Z</time>
      </trkpt>
      <trkpt lat="44.35295" lon="4.01952">
        <ele>537</ele>
        <time>2018-04-16T15:50:07Z</time>
      </trkpt>
      <trkpt lat="44.35274" lon="4.01961">
        <ele>536</ele>
        <time>2018-04-16T15:50:09Z</time>
      </trkpt>
      <trkpt lat="44.35264" lon="4.01965">
        <ele>535</ele>
        <time>2018-04-16T15:50:10Z</time>
      </trkpt>
      <trkpt lat="44.35247" lon="4.01967">
        <ele>535</ele>
        <time>2018-04-16T15:50:12Z</time>
      </trkpt>
      <trkpt lat="44.35233" lon="4.01973">
        <ele>533</ele>
        <time>2018-04-16T15:50:14Z</time>
      </trkpt>
      <trkpt lat="44.35229" lon="4.01983">
        <ele>532</ele>
        <time>2018-04-16T15:50:15Z</time>
      </trkpt>
      <trkpt lat="44.35224" lon="4.01992">
        <ele>531</ele>
        <time>2018-04-16T15:50:16Z</time>
      </trkpt>
      <trkpt lat="44.35219" lon="4.02001">
        <ele>529</ele>
        <time>2018-04-16T15:50:17Z</time>
      </trkpt>
      <trkpt lat="44.35214" lon="4.02007">
        <ele>528</ele>
        <time>2018-04-16T15:50:18Z</time>
      </trkpt>
      <trkpt lat="44.35203" lon="4.0201">
        <ele>527</ele>
        <time>2018-04-16T15:50:20Z</time>
      </trkpt>
      <trkpt lat="44.35195" lon="4.01993">
        <ele>526</ele>
        <time>2018-04-16T15:50:23Z</time>
      </trkpt>
      <trkpt lat="44.35192" lon="4.01985">
        <ele>525</ele>
        <time>2018-04-16T15:50:24Z</time>
      </trkpt>
      <trkpt lat="44.35181" lon="4.01969">
        <ele>524</ele>
        <time>2018-04-16T15:50:26Z</time>
      </trkpt>
      <trkpt lat="44.35167" lon="4.01957">
        <ele>524</ele>
        <time>2018-04-16T15:50:28Z</time>
      </trkpt>
      <trkpt lat="44.35139" lon="4.01934">
        <ele>523</ele>
        <time>2018-04-16T15:50:32Z</time>
      </trkpt>
      <trkpt lat="44.35133" lon="4.01929">
        <ele>522</ele>
        <time>2018-04-16T15:50:33Z</time>
      </trkpt>
      <trkpt lat="44.35128" lon="4.01924">
        <ele>520</ele>
        <time>2018-04-16T15:50:34Z</time>
      </trkpt>
      <trkpt lat="44.35122" lon="4.0192">
        <ele>519</ele>
        <time>2018-04-16T15:50:35Z</time>
      </trkpt>
      <trkpt lat="44.35116" lon="4.01915">
        <ele>518</ele>
        <time>2018-04-16T15:50:36Z</time>
      </trkpt>
      <trkpt lat="44.35093" lon="4.01892">
        <ele>517</ele>
        <time>2018-04-16T15:50:41Z</time>
      </trkpt>
      <trkpt lat="44.35052" lon="4.01839">
        <ele>517</ele>
        <time>2018-04-16T15:50:52Z</time>
      </trkpt>
      <trkpt lat="44.35042" lon="4.01826">
        <ele>516</ele>
        <time>2018-04-16T15:50:55Z</time>
      </trkpt>
      <trkpt lat="44.35015" lon="4.01767">
        <ele>516</ele>
        <time>2018-04-16T15:51:05Z</time>
      </trkpt>
      <trkpt lat="44.34999" lon="4.01694">
        <ele>515</ele>
        <time>2018-04-16T15:51:17Z</time>
      </trkpt>
      <trkpt lat="44.34981" lon="4.01621">
        <ele>516</ele>
        <time>2018-04-16T15:51:25Z</time>
      </trkpt>
      <trkpt lat="44.34967" lon="4.01585">
        <ele>515</ele>
        <time>2018-04-16T15:51:29Z</time>
      </trkpt>
      <trkpt lat="44.34964" lon="4.01576">
        <ele>514</ele>
        <time>2018-04-16T15:51:30Z</time>
      </trkpt>
      <trkpt lat="44.34962" lon="4.01567">
        <ele>512</ele>
        <time>2018-04-16T15:51:31Z</time>
      </trkpt>
      <trkpt lat="44.34959" lon="4.0156">
        <ele>511</ele>
        <time>2018-04-16T15:51:32Z</time>
      </trkpt>
      <trkpt lat="44.34956" lon="4.01553">
        <ele>509</ele>
        <time>2018-04-16T15:51:33Z</time>
      </trkpt>
      <trkpt lat="44.3495" lon="4.01539">
        <ele>508</ele>
        <time>2018-04-16T15:51:35Z</time>
      </trkpt>
      <trkpt lat="44.3494" lon="4.01517">
        <ele>507</ele>
        <time>2018-04-16T15:51:38Z</time>
      </trkpt>
      <trkpt lat="44.34927" lon="4.01484">
        <ele>506</ele>
        <time>2018-04-16T15:51:43Z</time>
      </trkpt>
      <trkpt lat="44.34917" lon="4.01467">
        <ele>504</ele>
        <time>2018-04-16T15:51:46Z</time>
      </trkpt>
      <trkpt lat="44.34907" lon="4.01456">
        <ele>503</ele>
        <time>2018-04-16T15:51:48Z</time>
      </trkpt>
      <trkpt lat="44.34875" lon="4.01424">
        <ele>502</ele>
        <time>2018-04-16T15:51:53Z</time>
      </trkpt>
      <trkpt lat="44.34861" lon="4.01413">
        <ele>502</ele>
        <time>2018-04-16T15:51:55Z</time>
      </trkpt>
      <trkpt lat="44.34834" lon="4.01398">
        <ele>500</ele>
        <time>2018-04-16T15:51:59Z</time>
      </trkpt>
      <trkpt lat="44.34827" lon="4.01394">
        <ele>499</ele>
        <time>2018-04-16T15:52:00Z</time>
      </trkpt>
      <trkpt lat="44.34815" lon="4.01386">
        <ele>498</ele>
        <time>2018-04-16T15:52:02Z</time>
      </trkpt>
      <trkpt lat="44.34799" lon="4.01372">
        <ele>497</ele>
        <time>2018-04-16T15:52:05Z</time>
      </trkpt>
      <trkpt lat="44.34794" lon="4.01367">
        <ele>496</ele>
        <time>2018-04-16T15:52:06Z</time>
      </trkpt>
      <trkpt lat="44.34785" lon="4.01354">
        <ele>496</ele>
        <time>2018-04-16T15:52:09Z</time>
      </trkpt>
      <trkpt lat="44.34744" lon="4.013">
        <ele>497</ele>
        <time>2018-04-16T15:52:23Z</time>
      </trkpt>
      <trkpt lat="44.34723" lon="4.01282">
        <ele>498</ele>
        <time>2018-04-16T15:52:29Z</time>
      </trkpt>
      <trkpt lat="44.34715" lon="4.01256">
        <ele>497</ele>
        <time>2018-04-16T15:52:34Z</time>
      </trkpt>
      <trkpt lat="44.34714" lon="4.0122">
        <ele>497</ele>
        <time>2018-04-16T15:52:43Z</time>
      </trkpt>
      <trkpt lat="44.34716" lon="4.01215">
        <ele>498</ele>
        <time>2018-04-16T15:52:48Z</time>
      </trkpt>
      <trkpt lat="44.34716" lon="4.01216">
        <ele>498</ele>
        <time>2018-04-16T15:55:17Z</time>
      </trkpt>
    </trkseg>
  </trk>
</gpx>